<?xml version="1.0" encoding="UTF-8" standalone="no" ?>
<gpx xmlns="http://www.topografix.com/GPX/1/1" xmlns:xsi="http://www.w3.org/2001/XMLSchema-instance" xsi:schemaLocation="http://www.topografix.com/GPX/1/1 http://www.topografix.com/GPX/1/1/gpx.xsd" version="1.1" creator="VisuGPX - https://www.visugpx.com">
  <metadata>
    <name>St Bertrand de Comminges - Tourroc ***</name>
    <desc><![CDATA[sortie vtt sur le Tourroc.
Montée par des pistes et belle descente sur sentier.]]></desc>
  </metadata>
  <trk>
    <name><![CDATA[St Bertrand de Comminges - Tourroc ***]]></name>
    <trkseg>
      <trkpt lat="42.9977" lon="0.54092">
        <ele>860.03</ele>
        <time>2020-02-08T15:38:48Z</time>
        <extensions>
          <visugpx:TrkExtension xmlns:visugpx="https://www.visugpx.com/editgpx/">
            <visugpx:node>3</visugpx:node>
            </visugpx:TrkExtension>
        </extensions>
      </trkpt>
      <trkpt lat="42.9977" lon="0.54089">
        <ele>859.532</ele>
        <time>2020-02-08T15:38:47Z</time>
      </trkpt>
      <trkpt lat="42.9977" lon="0.54086">
        <ele>859.297</ele>
        <time>2020-02-08T15:38:46Z</time>
      </trkpt>
      <trkpt lat="42.9977" lon="0.54083">
        <ele>858.797</ele>
        <time>2020-02-08T15:38:45Z</time>
      </trkpt>
      <trkpt lat="42.99764" lon="0.54057">
        <ele>858.469</ele>
        <time>2020-02-08T15:38:37Z</time>
      </trkpt>
      <trkpt lat="42.99762" lon="0.54052">
        <ele>860.545</ele>
        <time>2020-02-08T15:35:05Z</time>
      </trkpt>
      <trkpt lat="42.99761" lon="0.54047">
        <ele>860.568</ele>
        <time>2020-02-08T15:35:01Z</time>
      </trkpt>
      <trkpt lat="42.99765" lon="0.54007">
        <ele>860.529</ele>
        <time>2020-02-08T15:34:51Z</time>
      </trkpt>
      <trkpt lat="42.99767" lon="0.53983">
        <ele>860.509</ele>
        <time>2020-02-08T15:34:46Z</time>
      </trkpt>
      <trkpt lat="42.99769" lon="0.53976">
        <ele>858.426</ele>
        <time>2020-02-08T15:32:39Z</time>
      </trkpt>
      <trkpt lat="42.99766" lon="0.53986">
        <ele>858.424</ele>
        <time>2020-02-08T15:32:32Z</time>
      </trkpt>
      <trkpt lat="42.99761" lon="0.54013">
        <ele>858.488</ele>
        <time>2020-02-08T15:32:22Z</time>
      </trkpt>
      <trkpt lat="42.9976" lon="0.54021">
        <ele>858.431</ele>
        <time>2020-02-08T15:32:20Z</time>
      </trkpt>
      <trkpt lat="42.9976" lon="0.54024">
        <ele>858.028</ele>
        <time>2020-02-08T15:32:19Z</time>
      </trkpt>
      <trkpt lat="42.9976" lon="0.54028">
        <ele>857.59</ele>
        <time>2020-02-08T15:32:18Z</time>
      </trkpt>
      <trkpt lat="42.99759" lon="0.54031">
        <ele>857.015</ele>
        <time>2020-02-08T15:32:17Z</time>
      </trkpt>
      <trkpt lat="42.99759" lon="0.54035">
        <ele>856.555</ele>
        <time>2020-02-08T15:32:16Z</time>
      </trkpt>
      <trkpt lat="42.99754" lon="0.54052">
        <ele>856.217</ele>
        <time>2020-02-08T15:32:09Z</time>
      </trkpt>
      <trkpt lat="42.99753" lon="0.5407">
        <ele>856.233</ele>
        <time>2020-02-08T15:32:04Z</time>
      </trkpt>
      <trkpt lat="42.99753" lon="0.54073">
        <ele>855.796</ele>
        <time>2020-02-08T15:32:03Z</time>
      </trkpt>
      <trkpt lat="42.99752" lon="0.54077">
        <ele>855.447</ele>
        <time>2020-02-08T15:32:02Z</time>
      </trkpt>
      <trkpt lat="42.99752" lon="0.54081">
        <ele>855.009</ele>
        <time>2020-02-08T15:32:01Z</time>
      </trkpt>
      <trkpt lat="42.99752" lon="0.54085">
        <ele>854.516</ele>
        <time>2020-02-08T15:32:00Z</time>
      </trkpt>
      <trkpt lat="42.99747" lon="0.54117">
        <ele>854.206</ele>
        <time>2020-02-08T15:31:52Z</time>
      </trkpt>
      <trkpt lat="42.99747" lon="0.54121">
        <ele>853.764</ele>
        <time>2020-02-08T15:31:51Z</time>
      </trkpt>
      <trkpt lat="42.99746" lon="0.54125">
        <ele>853.216</ele>
        <time>2020-02-08T15:31:50Z</time>
      </trkpt>
      <trkpt lat="42.99746" lon="0.54128">
        <ele>852.763</ele>
        <time>2020-02-08T15:31:49Z</time>
      </trkpt>
      <trkpt lat="42.99745" lon="0.54132">
        <ele>852.265</ele>
        <time>2020-02-08T15:31:48Z</time>
      </trkpt>
      <trkpt lat="42.99742" lon="0.54155">
        <ele>851.72</ele>
        <time>2020-02-08T15:31:42Z</time>
      </trkpt>
      <trkpt lat="42.99742" lon="0.54158">
        <ele>851.43</ele>
        <time>2020-02-08T15:31:41Z</time>
      </trkpt>
      <trkpt lat="42.99742" lon="0.54162">
        <ele>850.742</ele>
        <time>2020-02-08T15:31:40Z</time>
      </trkpt>
      <trkpt lat="42.99741" lon="0.54166">
        <ele>850.468</ele>
        <time>2020-02-08T15:31:39Z</time>
      </trkpt>
      <trkpt lat="42.99741" lon="0.5417">
        <ele>849.731</ele>
        <time>2020-02-08T15:31:38Z</time>
      </trkpt>
      <trkpt lat="42.9974" lon="0.54174">
        <ele>849.412</ele>
        <time>2020-02-08T15:31:37Z</time>
      </trkpt>
      <trkpt lat="42.99739" lon="0.54181">
        <ele>849.409</ele>
        <time>2020-02-08T15:31:35Z</time>
      </trkpt>
      <trkpt lat="42.99738" lon="0.54185">
        <ele>849.011</ele>
        <time>2020-02-08T15:31:34Z</time>
      </trkpt>
      <trkpt lat="42.99738" lon="0.54188">
        <ele>848.465</ele>
        <time>2020-02-08T15:31:33Z</time>
      </trkpt>
      <trkpt lat="42.99738" lon="0.54192">
        <ele>848.015</ele>
        <time>2020-02-08T15:31:32Z</time>
      </trkpt>
      <trkpt lat="42.99737" lon="0.54195">
        <ele>847.551</ele>
        <time>2020-02-08T15:31:31Z</time>
      </trkpt>
      <trkpt lat="42.99736" lon="0.54203">
        <ele>847.028</ele>
        <time>2020-02-08T15:31:29Z</time>
      </trkpt>
      <trkpt lat="42.99736" lon="0.54206">
        <ele>847.05</ele>
        <time>2020-02-08T15:31:28Z</time>
      </trkpt>
      <trkpt lat="42.99735" lon="0.5421">
        <ele>846.535</ele>
        <time>2020-02-08T15:31:27Z</time>
      </trkpt>
      <trkpt lat="42.99735" lon="0.54213">
        <ele>846.265</ele>
        <time>2020-02-08T15:31:26Z</time>
      </trkpt>
      <trkpt lat="42.99735" lon="0.54217">
        <ele>845.587</ele>
        <time>2020-02-08T15:31:25Z</time>
      </trkpt>
      <trkpt lat="42.99734" lon="0.54222">
        <ele>845.273</ele>
        <time>2020-02-08T15:31:24Z</time>
      </trkpt>
      <trkpt lat="42.99733" lon="0.54235">
        <ele>844.736</ele>
        <time>2020-02-08T15:31:21Z</time>
      </trkpt>
      <trkpt lat="42.99733" lon="0.5424">
        <ele>844.497</ele>
        <time>2020-02-08T15:31:20Z</time>
      </trkpt>
      <trkpt lat="42.99733" lon="0.54243">
        <ele>844.009</ele>
        <time>2020-02-08T15:31:19Z</time>
      </trkpt>
      <trkpt lat="42.99733" lon="0.54248">
        <ele>843.416</ele>
        <time>2020-02-08T15:31:18Z</time>
      </trkpt>
      <trkpt lat="42.99733" lon="0.54252">
        <ele>843.006</ele>
        <time>2020-02-08T15:31:17Z</time>
      </trkpt>
      <trkpt lat="42.99734" lon="0.54274">
        <ele>842.564</ele>
        <time>2020-02-08T15:31:12Z</time>
      </trkpt>
      <trkpt lat="42.99734" lon="0.54278">
        <ele>842.25</ele>
        <time>2020-02-08T15:31:11Z</time>
      </trkpt>
      <trkpt lat="42.99735" lon="0.54283">
        <ele>841.777</ele>
        <time>2020-02-08T15:31:10Z</time>
      </trkpt>
      <trkpt lat="42.99736" lon="0.54288">
        <ele>841.449</ele>
        <time>2020-02-08T15:31:09Z</time>
      </trkpt>
      <trkpt lat="42.99736" lon="0.54292">
        <ele>841.064</ele>
        <time>2020-02-08T15:31:08Z</time>
      </trkpt>
      <trkpt lat="42.99736" lon="0.54296">
        <ele>840.534</ele>
        <time>2020-02-08T15:31:07Z</time>
      </trkpt>
      <trkpt lat="42.99739" lon="0.54319">
        <ele>840.536</ele>
        <time>2020-02-08T15:31:02Z</time>
      </trkpt>
      <trkpt lat="42.99739" lon="0.54324">
        <ele>840.292</ele>
        <time>2020-02-08T15:31:01Z</time>
      </trkpt>
      <trkpt lat="42.9974" lon="0.54328">
        <ele>839.515</ele>
        <time>2020-02-08T15:31:00Z</time>
      </trkpt>
      <trkpt lat="42.99741" lon="0.54332">
        <ele>839.246</ele>
        <time>2020-02-08T15:30:59Z</time>
      </trkpt>
      <trkpt lat="42.99741" lon="0.54336">
        <ele>838.709</ele>
        <time>2020-02-08T15:30:58Z</time>
      </trkpt>
      <trkpt lat="42.99743" lon="0.54347">
        <ele>838.417</ele>
        <time>2020-02-08T15:30:55Z</time>
      </trkpt>
      <trkpt lat="42.99743" lon="0.54352">
        <ele>838.007</ele>
        <time>2020-02-08T15:30:54Z</time>
      </trkpt>
      <trkpt lat="42.99744" lon="0.54357">
        <ele>837.555</ele>
        <time>2020-02-08T15:30:53Z</time>
      </trkpt>
      <trkpt lat="42.99745" lon="0.54361">
        <ele>837.047</ele>
        <time>2020-02-08T15:30:52Z</time>
      </trkpt>
      <trkpt lat="42.99746" lon="0.54365">
        <ele>836.594</ele>
        <time>2020-02-08T15:30:51Z</time>
      </trkpt>
      <trkpt lat="42.9975" lon="0.5438">
        <ele>836.236</ele>
        <time>2020-02-08T15:30:47Z</time>
      </trkpt>
      <trkpt lat="42.99751" lon="0.54384">
        <ele>835.761</ele>
        <time>2020-02-08T15:30:46Z</time>
      </trkpt>
      <trkpt lat="42.99752" lon="0.54387">
        <ele>835.431</ele>
        <time>2020-02-08T15:30:45Z</time>
      </trkpt>
      <trkpt lat="42.99753" lon="0.54391">
        <ele>835.073</ele>
        <time>2020-02-08T15:30:44Z</time>
      </trkpt>
      <trkpt lat="42.99755" lon="0.54395">
        <ele>834.539</ele>
        <time>2020-02-08T15:30:43Z</time>
      </trkpt>
      <trkpt lat="42.99758" lon="0.5441">
        <ele>834.232</ele>
        <time>2020-02-08T15:30:39Z</time>
      </trkpt>
      <trkpt lat="42.99758" lon="0.54414">
        <ele>833.733</ele>
        <time>2020-02-08T15:30:38Z</time>
      </trkpt>
      <trkpt lat="42.99758" lon="0.54419">
        <ele>833.409</ele>
        <time>2020-02-08T15:30:37Z</time>
      </trkpt>
      <trkpt lat="42.99758" lon="0.54423">
        <ele>833.02</ele>
        <time>2020-02-08T15:30:36Z</time>
      </trkpt>
      <trkpt lat="42.99758" lon="0.54428">
        <ele>832.5</ele>
        <time>2020-02-08T15:30:35Z</time>
      </trkpt>
      <trkpt lat="42.99757" lon="0.54447">
        <ele>832.229</ele>
        <time>2020-02-08T15:30:31Z</time>
      </trkpt>
      <trkpt lat="42.99756" lon="0.5446">
        <ele>832.262</ele>
        <time>2020-02-08T15:30:28Z</time>
      </trkpt>
      <trkpt lat="42.99756" lon="0.54464">
        <ele>831.779</ele>
        <time>2020-02-08T15:30:27Z</time>
      </trkpt>
      <trkpt lat="42.99756" lon="0.54468">
        <ele>831.421</ele>
        <time>2020-02-08T15:30:26Z</time>
      </trkpt>
      <trkpt lat="42.99756" lon="0.54473">
        <ele>830.716</ele>
        <time>2020-02-08T15:30:25Z</time>
      </trkpt>
      <trkpt lat="42.99757" lon="0.54477">
        <ele>830.416</ele>
        <time>2020-02-08T15:30:24Z</time>
      </trkpt>
      <trkpt lat="42.99757" lon="0.54491">
        <ele>830.058</ele>
        <time>2020-02-08T15:30:21Z</time>
      </trkpt>
      <trkpt lat="42.99756" lon="0.54509">
        <ele>830.044</ele>
        <time>2020-02-08T15:30:17Z</time>
      </trkpt>
      <trkpt lat="42.99756" lon="0.54514">
        <ele>829.527</ele>
        <time>2020-02-08T15:30:16Z</time>
      </trkpt>
      <trkpt lat="42.99756" lon="0.54518">
        <ele>829.038</ele>
        <time>2020-02-08T15:30:15Z</time>
      </trkpt>
      <trkpt lat="42.99756" lon="0.54522">
        <ele>828.509</ele>
        <time>2020-02-08T15:30:14Z</time>
      </trkpt>
      <trkpt lat="42.99756" lon="0.54526">
        <ele>828.214</ele>
        <time>2020-02-08T15:30:13Z</time>
      </trkpt>
      <trkpt lat="42.99755" lon="0.54531">
        <ele>827.513</ele>
        <time>2020-02-08T15:30:12Z</time>
      </trkpt>
      <trkpt lat="42.99753" lon="0.5456">
        <ele>827.572</ele>
        <time>2020-02-08T15:30:05Z</time>
      </trkpt>
      <trkpt lat="42.99752" lon="0.54565">
        <ele>827.299</ele>
        <time>2020-02-08T15:30:04Z</time>
      </trkpt>
      <trkpt lat="42.99752" lon="0.54569">
        <ele>826.746</ele>
        <time>2020-02-08T15:30:03Z</time>
      </trkpt>
      <trkpt lat="42.99752" lon="0.54573">
        <ele>826.418</ele>
        <time>2020-02-08T15:30:02Z</time>
      </trkpt>
      <trkpt lat="42.99752" lon="0.54578">
        <ele>826.073</ele>
        <time>2020-02-08T15:30:01Z</time>
      </trkpt>
      <trkpt lat="42.9975" lon="0.54596">
        <ele>825.553</ele>
        <time>2020-02-08T15:29:57Z</time>
      </trkpt>
      <trkpt lat="42.9975" lon="0.54601">
        <ele>825.255</ele>
        <time>2020-02-08T15:29:56Z</time>
      </trkpt>
      <trkpt lat="42.9975" lon="0.54609">
        <ele>824.241</ele>
        <time>2020-02-08T15:29:54Z</time>
      </trkpt>
      <trkpt lat="42.99746" lon="0.54637">
        <ele>823.494</ele>
        <time>2020-02-08T15:29:48Z</time>
      </trkpt>
      <trkpt lat="42.99745" lon="0.54655">
        <ele>823.415</ele>
        <time>2020-02-08T15:29:44Z</time>
      </trkpt>
      <trkpt lat="42.99745" lon="0.5466">
        <ele>823.009</ele>
        <time>2020-02-08T15:29:43Z</time>
      </trkpt>
      <trkpt lat="42.99745" lon="0.54665">
        <ele>822.509</ele>
        <time>2020-02-08T15:29:42Z</time>
      </trkpt>
      <trkpt lat="42.99744" lon="0.5467">
        <ele>822.081</ele>
        <time>2020-02-08T15:29:41Z</time>
      </trkpt>
      <trkpt lat="42.99744" lon="0.54675">
        <ele>821.541</ele>
        <time>2020-02-08T15:29:40Z</time>
      </trkpt>
      <trkpt lat="42.9974" lon="0.54706">
        <ele>821.293</ele>
        <time>2020-02-08T15:29:33Z</time>
      </trkpt>
      <trkpt lat="42.99737" lon="0.54721">
        <ele>821.25</ele>
        <time>2020-02-08T15:29:30Z</time>
      </trkpt>
      <trkpt lat="42.99737" lon="0.54726">
        <ele>820.782</ele>
        <time>2020-02-08T15:29:29Z</time>
      </trkpt>
      <trkpt lat="42.99736" lon="0.54731">
        <ele>820.287</ele>
        <time>2020-02-08T15:29:28Z</time>
      </trkpt>
      <trkpt lat="42.99735" lon="0.54735">
        <ele>819.747</ele>
        <time>2020-02-08T15:29:27Z</time>
      </trkpt>
      <trkpt lat="42.99734" lon="0.5474">
        <ele>819.459</ele>
        <time>2020-02-08T15:29:26Z</time>
      </trkpt>
      <trkpt lat="42.99733" lon="0.54749">
        <ele>819.045</ele>
        <time>2020-02-08T15:29:24Z</time>
      </trkpt>
      <trkpt lat="42.9973" lon="0.54768">
        <ele>819.018</ele>
        <time>2020-02-08T15:29:20Z</time>
      </trkpt>
      <trkpt lat="42.99729" lon="0.54773">
        <ele>818.429</ele>
        <time>2020-02-08T15:29:19Z</time>
      </trkpt>
      <trkpt lat="42.99729" lon="0.54777">
        <ele>818.009</ele>
        <time>2020-02-08T15:29:18Z</time>
      </trkpt>
      <trkpt lat="42.99728" lon="0.54782">
        <ele>817.517</ele>
        <time>2020-02-08T15:29:17Z</time>
      </trkpt>
      <trkpt lat="42.99728" lon="0.54786">
        <ele>817.207</ele>
        <time>2020-02-08T15:29:16Z</time>
      </trkpt>
      <trkpt lat="42.99723" lon="0.54807">
        <ele>816.784</ele>
        <time>2020-02-08T15:29:11Z</time>
      </trkpt>
      <trkpt lat="42.99722" lon="0.54811">
        <ele>816.433</ele>
        <time>2020-02-08T15:29:10Z</time>
      </trkpt>
      <trkpt lat="42.99721" lon="0.54815">
        <ele>816.04</ele>
        <time>2020-02-08T15:29:09Z</time>
      </trkpt>
      <trkpt lat="42.9972" lon="0.54819">
        <ele>815.472</ele>
        <time>2020-02-08T15:29:08Z</time>
      </trkpt>
      <trkpt lat="42.99719" lon="0.54823">
        <ele>815.097</ele>
        <time>2020-02-08T15:29:07Z</time>
      </trkpt>
      <trkpt lat="42.99718" lon="0.54828">
        <ele>814.587</ele>
        <time>2020-02-08T15:29:06Z</time>
      </trkpt>
      <trkpt lat="42.99716" lon="0.54836">
        <ele>814.589</ele>
        <time>2020-02-08T15:29:04Z</time>
      </trkpt>
      <trkpt lat="42.99715" lon="0.54841">
        <ele>814.245</ele>
        <time>2020-02-08T15:29:03Z</time>
      </trkpt>
      <trkpt lat="42.99714" lon="0.54845">
        <ele>813.728</ele>
        <time>2020-02-08T15:29:02Z</time>
      </trkpt>
      <trkpt lat="42.99713" lon="0.54849">
        <ele>813.469</ele>
        <time>2020-02-08T15:29:01Z</time>
      </trkpt>
      <trkpt lat="42.99712" lon="0.54853">
        <ele>813.009</ele>
        <time>2020-02-08T15:29:00Z</time>
      </trkpt>
      <trkpt lat="42.9971" lon="0.54857">
        <ele>812.526</ele>
        <time>2020-02-08T15:28:59Z</time>
      </trkpt>
      <trkpt lat="42.99703" lon="0.54878">
        <ele>812.506</ele>
        <time>2020-02-08T15:28:54Z</time>
      </trkpt>
      <trkpt lat="42.99702" lon="0.54883">
        <ele>812.289</ele>
        <time>2020-02-08T15:28:53Z</time>
      </trkpt>
      <trkpt lat="42.997" lon="0.54887">
        <ele>811.771</ele>
        <time>2020-02-08T15:28:52Z</time>
      </trkpt>
      <trkpt lat="42.99698" lon="0.54892">
        <ele>811.428</ele>
        <time>2020-02-08T15:28:51Z</time>
      </trkpt>
      <trkpt lat="42.99696" lon="0.54896">
        <ele>811.02</ele>
        <time>2020-02-08T15:28:50Z</time>
      </trkpt>
      <trkpt lat="42.99692" lon="0.54915">
        <ele>810.535</ele>
        <time>2020-02-08T15:28:46Z</time>
      </trkpt>
      <trkpt lat="42.99691" lon="0.54919">
        <ele>810.225</ele>
        <time>2020-02-08T15:28:45Z</time>
      </trkpt>
      <trkpt lat="42.99689" lon="0.54924">
        <ele>809.797</ele>
        <time>2020-02-08T15:28:44Z</time>
      </trkpt>
      <trkpt lat="42.99688" lon="0.54929">
        <ele>809.443</ele>
        <time>2020-02-08T15:28:43Z</time>
      </trkpt>
      <trkpt lat="42.99687" lon="0.54934">
        <ele>809.096</ele>
        <time>2020-02-08T15:28:42Z</time>
      </trkpt>
      <trkpt lat="42.99681" lon="0.54946">
        <ele>808.517</ele>
        <time>2020-02-08T15:28:39Z</time>
      </trkpt>
      <trkpt lat="42.99676" lon="0.54966">
        <ele>808.509</ele>
        <time>2020-02-08T15:28:34Z</time>
      </trkpt>
      <trkpt lat="42.99674" lon="0.54969">
        <ele>808.014</ele>
        <time>2020-02-08T15:28:33Z</time>
      </trkpt>
      <trkpt lat="42.99673" lon="0.54973">
        <ele>807.568</ele>
        <time>2020-02-08T15:28:32Z</time>
      </trkpt>
      <trkpt lat="42.99672" lon="0.54976">
        <ele>807.265</ele>
        <time>2020-02-08T15:28:31Z</time>
      </trkpt>
      <trkpt lat="42.99672" lon="0.5498">
        <ele>806.768</ele>
        <time>2020-02-08T15:28:30Z</time>
      </trkpt>
      <trkpt lat="42.99671" lon="0.54984">
        <ele>806.265</ele>
        <time>2020-02-08T15:28:29Z</time>
      </trkpt>
      <trkpt lat="42.99664" lon="0.55005">
        <ele>806.277</ele>
        <time>2020-02-08T15:28:23Z</time>
      </trkpt>
      <trkpt lat="42.99663" lon="0.55009">
        <ele>805.712</ele>
        <time>2020-02-08T15:28:22Z</time>
      </trkpt>
      <trkpt lat="42.99661" lon="0.55012">
        <ele>805.492</ele>
        <time>2020-02-08T15:28:21Z</time>
      </trkpt>
      <trkpt lat="42.99661" lon="0.55016">
        <ele>805.054</ele>
        <time>2020-02-08T15:28:20Z</time>
      </trkpt>
      <trkpt lat="42.9966" lon="0.5502">
        <ele>804.42</ele>
        <time>2020-02-08T15:28:19Z</time>
      </trkpt>
      <trkpt lat="42.99653" lon="0.5505">
        <ele>804.073</ele>
        <time>2020-02-08T15:28:11Z</time>
      </trkpt>
      <trkpt lat="42.99652" lon="0.55054">
        <ele>803.564</ele>
        <time>2020-02-08T15:28:10Z</time>
      </trkpt>
      <trkpt lat="42.99651" lon="0.55058">
        <ele>803.209</ele>
        <time>2020-02-08T15:28:09Z</time>
      </trkpt>
      <trkpt lat="42.9965" lon="0.55062">
        <ele>802.71</ele>
        <time>2020-02-08T15:28:08Z</time>
      </trkpt>
      <trkpt lat="42.9965" lon="0.55066">
        <ele>802.455</ele>
        <time>2020-02-08T15:28:07Z</time>
      </trkpt>
      <trkpt lat="42.99645" lon="0.55087">
        <ele>801.734</ele>
        <time>2020-02-08T15:28:01Z</time>
      </trkpt>
      <trkpt lat="42.99644" lon="0.5509">
        <ele>801.772</ele>
        <time>2020-02-08T15:28:00Z</time>
      </trkpt>
      <trkpt lat="42.99643" lon="0.55094">
        <ele>801.489</ele>
        <time>2020-02-08T15:27:59Z</time>
      </trkpt>
      <trkpt lat="42.99642" lon="0.55097">
        <ele>800.761</ele>
        <time>2020-02-08T15:27:58Z</time>
      </trkpt>
      <trkpt lat="42.99641" lon="0.55101">
        <ele>800.266</ele>
        <time>2020-02-08T15:27:57Z</time>
      </trkpt>
      <trkpt lat="42.9964" lon="0.55104">
        <ele>799.596</ele>
        <time>2020-02-08T15:27:56Z</time>
      </trkpt>
      <trkpt lat="42.99634" lon="0.55121">
        <ele>799.248</ele>
        <time>2020-02-08T15:27:51Z</time>
      </trkpt>
      <trkpt lat="42.99633" lon="0.55124">
        <ele>798.254</ele>
        <time>2020-02-08T15:27:50Z</time>
      </trkpt>
      <trkpt lat="42.99632" lon="0.55128">
        <ele>797.797</ele>
        <time>2020-02-08T15:27:49Z</time>
      </trkpt>
      <trkpt lat="42.99632" lon="0.55131">
        <ele>797.438</ele>
        <time>2020-02-08T15:27:48Z</time>
      </trkpt>
      <trkpt lat="42.99628" lon="0.5514">
        <ele>796.709</ele>
        <time>2020-02-08T15:27:45Z</time>
      </trkpt>
      <trkpt lat="42.99617" lon="0.55163">
        <ele>796.725</ele>
        <time>2020-02-08T15:27:38Z</time>
      </trkpt>
      <trkpt lat="42.99616" lon="0.55166">
        <ele>796.405</ele>
        <time>2020-02-08T15:27:37Z</time>
      </trkpt>
      <trkpt lat="42.99615" lon="0.55169">
        <ele>796.079</ele>
        <time>2020-02-08T15:27:36Z</time>
      </trkpt>
      <trkpt lat="42.99614" lon="0.55172">
        <ele>795.512</ele>
        <time>2020-02-08T15:27:35Z</time>
      </trkpt>
      <trkpt lat="42.99613" lon="0.55175">
        <ele>795.289</ele>
        <time>2020-02-08T15:27:34Z</time>
      </trkpt>
      <trkpt lat="42.99608" lon="0.55191">
        <ele>794.791</ele>
        <time>2020-02-08T15:27:29Z</time>
      </trkpt>
      <trkpt lat="42.99607" lon="0.55194">
        <ele>794.456</ele>
        <time>2020-02-08T15:27:28Z</time>
      </trkpt>
      <trkpt lat="42.99606" lon="0.55197">
        <ele>794.086</ele>
        <time>2020-02-08T15:27:27Z</time>
      </trkpt>
      <trkpt lat="42.99604" lon="0.552">
        <ele>793.558</ele>
        <time>2020-02-08T15:27:26Z</time>
      </trkpt>
      <trkpt lat="42.99603" lon="0.55203">
        <ele>793.234</ele>
        <time>2020-02-08T15:27:25Z</time>
      </trkpt>
      <trkpt lat="42.99598" lon="0.55218">
        <ele>792.757</ele>
        <time>2020-02-08T15:27:20Z</time>
      </trkpt>
      <trkpt lat="42.99597" lon="0.55221">
        <ele>792.468</ele>
        <time>2020-02-08T15:27:19Z</time>
      </trkpt>
      <trkpt lat="42.99596" lon="0.55225">
        <ele>792.009</ele>
        <time>2020-02-08T15:27:18Z</time>
      </trkpt>
      <trkpt lat="42.99595" lon="0.55228">
        <ele>791.413</ele>
        <time>2020-02-08T15:27:17Z</time>
      </trkpt>
      <trkpt lat="42.99594" lon="0.55231">
        <ele>791.085</ele>
        <time>2020-02-08T15:27:16Z</time>
      </trkpt>
      <trkpt lat="42.99589" lon="0.55251">
        <ele>790.573</ele>
        <time>2020-02-08T15:27:10Z</time>
      </trkpt>
      <trkpt lat="42.99587" lon="0.55258">
        <ele>790.538</ele>
        <time>2020-02-08T15:27:08Z</time>
      </trkpt>
      <trkpt lat="42.99586" lon="0.55261">
        <ele>790.215</ele>
        <time>2020-02-08T15:27:07Z</time>
      </trkpt>
      <trkpt lat="42.99585" lon="0.55265">
        <ele>789.767</ele>
        <time>2020-02-08T15:27:06Z</time>
      </trkpt>
      <trkpt lat="42.99584" lon="0.55268">
        <ele>789.432</ele>
        <time>2020-02-08T15:27:05Z</time>
      </trkpt>
      <trkpt lat="42.99582" lon="0.55272">
        <ele>789.032</ele>
        <time>2020-02-08T15:27:04Z</time>
      </trkpt>
      <trkpt lat="42.99577" lon="0.55289">
        <ele>788.594</ele>
        <time>2020-02-08T15:26:59Z</time>
      </trkpt>
      <trkpt lat="42.99576" lon="0.55292">
        <ele>788.23</ele>
        <time>2020-02-08T15:26:58Z</time>
      </trkpt>
      <trkpt lat="42.99574" lon="0.55295">
        <ele>787.753</ele>
        <time>2020-02-08T15:26:57Z</time>
      </trkpt>
      <trkpt lat="42.99573" lon="0.55298">
        <ele>787.234</ele>
        <time>2020-02-08T15:26:56Z</time>
      </trkpt>
      <trkpt lat="42.99572" lon="0.55302">
        <ele>786.709</ele>
        <time>2020-02-08T15:26:55Z</time>
      </trkpt>
      <trkpt lat="42.9957" lon="0.55313">
        <ele>786.411</ele>
        <time>2020-02-08T15:26:52Z</time>
      </trkpt>
      <trkpt lat="42.99565" lon="0.55327">
        <ele>786.492</ele>
        <time>2020-02-08T15:26:48Z</time>
      </trkpt>
      <trkpt lat="42.99564" lon="0.5533">
        <ele>786.032</ele>
        <time>2020-02-08T15:26:47Z</time>
      </trkpt>
      <trkpt lat="42.99563" lon="0.55333">
        <ele>785.464</ele>
        <time>2020-02-08T15:26:46Z</time>
      </trkpt>
      <trkpt lat="42.99562" lon="0.55337">
        <ele>785.011</ele>
        <time>2020-02-08T15:26:45Z</time>
      </trkpt>
      <trkpt lat="42.99561" lon="0.55341">
        <ele>784.593</ele>
        <time>2020-02-08T15:26:44Z</time>
      </trkpt>
      <trkpt lat="42.99554" lon="0.5537">
        <ele>784.268</ele>
        <time>2020-02-08T15:26:36Z</time>
      </trkpt>
      <trkpt lat="42.99554" lon="0.55374">
        <ele>783.788</ele>
        <time>2020-02-08T15:26:35Z</time>
      </trkpt>
      <trkpt lat="42.99554" lon="0.55378">
        <ele>783.44</ele>
        <time>2020-02-08T15:26:34Z</time>
      </trkpt>
      <trkpt lat="42.99554" lon="0.55382">
        <ele>782.786</ele>
        <time>2020-02-08T15:26:33Z</time>
      </trkpt>
      <trkpt lat="42.99554" lon="0.55386">
        <ele>782.429</ele>
        <time>2020-02-08T15:26:32Z</time>
      </trkpt>
      <trkpt lat="42.99552" lon="0.55397">
        <ele>782.05</ele>
        <time>2020-02-08T15:26:29Z</time>
      </trkpt>
      <trkpt lat="42.99551" lon="0.55401">
        <ele>781.509</ele>
        <time>2020-02-08T15:26:28Z</time>
      </trkpt>
      <trkpt lat="42.99551" lon="0.55405">
        <ele>781.222</ele>
        <time>2020-02-08T15:26:27Z</time>
      </trkpt>
      <trkpt lat="42.9955" lon="0.55409">
        <ele>780.757</ele>
        <time>2020-02-08T15:26:26Z</time>
      </trkpt>
      <trkpt lat="42.9955" lon="0.55413">
        <ele>780.494</ele>
        <time>2020-02-08T15:26:25Z</time>
      </trkpt>
      <trkpt lat="42.99549" lon="0.55416">
        <ele>780.069</ele>
        <time>2020-02-08T15:26:24Z</time>
      </trkpt>
      <trkpt lat="42.99548" lon="0.55428">
        <ele>780.066</ele>
        <time>2020-02-08T15:26:21Z</time>
      </trkpt>
      <trkpt lat="42.99546" lon="0.55431">
        <ele>780.048</ele>
        <time>2020-02-08T15:26:20Z</time>
      </trkpt>
      <trkpt lat="42.99544" lon="0.55433">
        <ele>779.533</ele>
        <time>2020-02-08T15:26:19Z</time>
      </trkpt>
      <trkpt lat="42.99541" lon="0.55433">
        <ele>779.243</ele>
        <time>2020-02-08T15:26:18Z</time>
      </trkpt>
      <trkpt lat="42.9954" lon="0.55431">
        <ele>778.725</ele>
        <time>2020-02-08T15:26:17Z</time>
      </trkpt>
      <trkpt lat="42.99538" lon="0.55428">
        <ele>778.451</ele>
        <time>2020-02-08T15:26:16Z</time>
      </trkpt>
      <trkpt lat="42.99539" lon="0.55405">
        <ele>778.074</ele>
        <time>2020-02-08T15:26:10Z</time>
      </trkpt>
      <trkpt lat="42.9954" lon="0.55401">
        <ele>777.525</ele>
        <time>2020-02-08T15:26:09Z</time>
      </trkpt>
      <trkpt lat="42.9954" lon="0.55397">
        <ele>777.009</ele>
        <time>2020-02-08T15:26:08Z</time>
      </trkpt>
      <trkpt lat="42.99539" lon="0.55394">
        <ele>776.522</ele>
        <time>2020-02-08T15:26:07Z</time>
      </trkpt>
      <trkpt lat="42.99539" lon="0.5539">
        <ele>776.202</ele>
        <time>2020-02-08T15:26:06Z</time>
      </trkpt>
      <trkpt lat="42.99538" lon="0.55375">
        <ele>775.749</ele>
        <time>2020-02-08T15:26:02Z</time>
      </trkpt>
      <trkpt lat="42.99537" lon="0.55368">
        <ele>775.771</ele>
        <time>2020-02-08T15:26:00Z</time>
      </trkpt>
      <trkpt lat="42.99537" lon="0.55364">
        <ele>775.228</ele>
        <time>2020-02-08T15:25:59Z</time>
      </trkpt>
      <trkpt lat="42.99537" lon="0.5536">
        <ele>774.75</ele>
        <time>2020-02-08T15:25:58Z</time>
      </trkpt>
      <trkpt lat="42.99536" lon="0.55356">
        <ele>774.485</ele>
        <time>2020-02-08T15:25:57Z</time>
      </trkpt>
      <trkpt lat="42.99536" lon="0.55353">
        <ele>774.065</ele>
        <time>2020-02-08T15:25:56Z</time>
      </trkpt>
      <trkpt lat="42.99535" lon="0.55334">
        <ele>773.557</ele>
        <time>2020-02-08T15:25:51Z</time>
      </trkpt>
      <trkpt lat="42.99534" lon="0.55324">
        <ele>773.533</ele>
        <time>2020-02-08T15:25:48Z</time>
      </trkpt>
      <trkpt lat="42.99534" lon="0.55321">
        <ele>773.076</ele>
        <time>2020-02-08T15:25:47Z</time>
      </trkpt>
      <trkpt lat="42.99533" lon="0.55317">
        <ele>772.577</ele>
        <time>2020-02-08T15:25:46Z</time>
      </trkpt>
      <trkpt lat="42.99533" lon="0.55313">
        <ele>772.209</ele>
        <time>2020-02-08T15:25:45Z</time>
      </trkpt>
      <trkpt lat="42.99533" lon="0.55309">
        <ele>771.511</ele>
        <time>2020-02-08T15:25:44Z</time>
      </trkpt>
      <trkpt lat="42.99534" lon="0.55299">
        <ele>771.283</ele>
        <time>2020-02-08T15:25:41Z</time>
      </trkpt>
      <trkpt lat="42.99534" lon="0.55292">
        <ele>770.762</ele>
        <time>2020-02-08T15:25:39Z</time>
      </trkpt>
      <trkpt lat="42.99534" lon="0.55289">
        <ele>770.449</ele>
        <time>2020-02-08T15:25:38Z</time>
      </trkpt>
      <trkpt lat="42.99533" lon="0.55285">
        <ele>769.756</ele>
        <time>2020-02-08T15:25:37Z</time>
      </trkpt>
      <trkpt lat="42.99533" lon="0.55282">
        <ele>769.428</ele>
        <time>2020-02-08T15:25:36Z</time>
      </trkpt>
      <trkpt lat="42.99533" lon="0.55275">
        <ele>769.013</ele>
        <time>2020-02-08T15:25:34Z</time>
      </trkpt>
      <trkpt lat="42.99531" lon="0.55259">
        <ele>769.043</ele>
        <time>2020-02-08T15:25:29Z</time>
      </trkpt>
      <trkpt lat="42.99531" lon="0.55255">
        <ele>768.525</ele>
        <time>2020-02-08T15:25:28Z</time>
      </trkpt>
      <trkpt lat="42.99531" lon="0.55252">
        <ele>768.241</ele>
        <time>2020-02-08T15:25:27Z</time>
      </trkpt>
      <trkpt lat="42.9953" lon="0.55248">
        <ele>767.764</ele>
        <time>2020-02-08T15:25:26Z</time>
      </trkpt>
      <trkpt lat="42.9953" lon="0.55245">
        <ele>767.475</ele>
        <time>2020-02-08T15:25:25Z</time>
      </trkpt>
      <trkpt lat="42.99528" lon="0.55229">
        <ele>767.009</ele>
        <time>2020-02-08T15:25:20Z</time>
      </trkpt>
      <trkpt lat="42.99527" lon="0.55225">
        <ele>766.417</ele>
        <time>2020-02-08T15:25:19Z</time>
      </trkpt>
      <trkpt lat="42.99527" lon="0.55222">
        <ele>766.061</ele>
        <time>2020-02-08T15:25:18Z</time>
      </trkpt>
      <trkpt lat="42.99527" lon="0.55218">
        <ele>765.548</ele>
        <time>2020-02-08T15:25:17Z</time>
      </trkpt>
      <trkpt lat="42.99527" lon="0.55215">
        <ele>765.27</ele>
        <time>2020-02-08T15:25:16Z</time>
      </trkpt>
      <trkpt lat="42.99526" lon="0.55195">
        <ele>764.527</ele>
        <time>2020-02-08T15:25:10Z</time>
      </trkpt>
      <trkpt lat="42.99526" lon="0.55192">
        <ele>764.259</ele>
        <time>2020-02-08T15:25:09Z</time>
      </trkpt>
      <trkpt lat="42.99525" lon="0.55188">
        <ele>763.754</ele>
        <time>2020-02-08T15:25:08Z</time>
      </trkpt>
      <trkpt lat="42.99525" lon="0.55185">
        <ele>763.464</ele>
        <time>2020-02-08T15:25:07Z</time>
      </trkpt>
      <trkpt lat="42.99525" lon="0.55181">
        <ele>763.026</ele>
        <time>2020-02-08T15:25:06Z</time>
      </trkpt>
      <trkpt lat="42.99525" lon="0.55166">
        <ele>762.582</ele>
        <time>2020-02-08T15:25:02Z</time>
      </trkpt>
      <trkpt lat="42.99525" lon="0.55162">
        <ele>762.215</ele>
        <time>2020-02-08T15:25:01Z</time>
      </trkpt>
      <trkpt lat="42.99525" lon="0.55159">
        <ele>761.756</ele>
        <time>2020-02-08T15:25:00Z</time>
      </trkpt>
      <trkpt lat="42.99525" lon="0.55155">
        <ele>761.409</ele>
        <time>2020-02-08T15:24:59Z</time>
      </trkpt>
      <trkpt lat="42.99525" lon="0.55151">
        <ele>761.017</ele>
        <time>2020-02-08T15:24:58Z</time>
      </trkpt>
      <trkpt lat="42.99524" lon="0.55136">
        <ele>760.407</ele>
        <time>2020-02-08T15:24:54Z</time>
      </trkpt>
      <trkpt lat="42.99524" lon="0.55127">
        <ele>760.455</ele>
        <time>2020-02-08T15:24:52Z</time>
      </trkpt>
      <trkpt lat="42.99523" lon="0.5512">
        <ele>760.491</ele>
        <time>2020-02-08T15:24:50Z</time>
      </trkpt>
      <trkpt lat="42.99522" lon="0.55117">
        <ele>760.068</ele>
        <time>2020-02-08T15:24:49Z</time>
      </trkpt>
      <trkpt lat="42.9952" lon="0.55114">
        <ele>759.56</ele>
        <time>2020-02-08T15:24:48Z</time>
      </trkpt>
      <trkpt lat="42.99518" lon="0.55113">
        <ele>759.265</ele>
        <time>2020-02-08T15:24:47Z</time>
      </trkpt>
      <trkpt lat="42.99515" lon="0.55113">
        <ele>758.545</ele>
        <time>2020-02-08T15:24:46Z</time>
      </trkpt>
      <trkpt lat="42.99514" lon="0.55116">
        <ele>758.267</ele>
        <time>2020-02-08T15:24:45Z</time>
      </trkpt>
      <trkpt lat="42.9951" lon="0.55146">
        <ele>758.263</ele>
        <time>2020-02-08T15:24:38Z</time>
      </trkpt>
      <trkpt lat="42.99509" lon="0.55155">
        <ele>758.276</ele>
        <time>2020-02-08T15:24:36Z</time>
      </trkpt>
      <trkpt lat="42.99509" lon="0.55159">
        <ele>757.717</ele>
        <time>2020-02-08T15:24:35Z</time>
      </trkpt>
      <trkpt lat="42.99508" lon="0.55163">
        <ele>757.409</ele>
        <time>2020-02-08T15:24:34Z</time>
      </trkpt>
      <trkpt lat="42.99508" lon="0.55167">
        <ele>756.716</ele>
        <time>2020-02-08T15:24:33Z</time>
      </trkpt>
      <trkpt lat="42.99507" lon="0.55171">
        <ele>756.406</ele>
        <time>2020-02-08T15:24:32Z</time>
      </trkpt>
      <trkpt lat="42.99504" lon="0.55181">
        <ele>756.064</ele>
        <time>2020-02-08T15:24:29Z</time>
      </trkpt>
      <trkpt lat="42.99498" lon="0.552">
        <ele>756.036</ele>
        <time>2020-02-08T15:24:24Z</time>
      </trkpt>
      <trkpt lat="42.99497" lon="0.55204">
        <ele>755.463</ele>
        <time>2020-02-08T15:24:23Z</time>
      </trkpt>
      <trkpt lat="42.99496" lon="0.55207">
        <ele>755.065</ele>
        <time>2020-02-08T15:24:22Z</time>
      </trkpt>
      <trkpt lat="42.99495" lon="0.55211">
        <ele>754.51</ele>
        <time>2020-02-08T15:24:21Z</time>
      </trkpt>
      <trkpt lat="42.99494" lon="0.55215">
        <ele>754.21</ele>
        <time>2020-02-08T15:24:20Z</time>
      </trkpt>
      <trkpt lat="42.99493" lon="0.55219">
        <ele>753.512</ele>
        <time>2020-02-08T15:24:19Z</time>
      </trkpt>
      <trkpt lat="42.99485" lon="0.55254">
        <ele>753.528</ele>
        <time>2020-02-08T15:24:10Z</time>
      </trkpt>
      <trkpt lat="42.99484" lon="0.55257">
        <ele>753.271</ele>
        <time>2020-02-08T15:24:09Z</time>
      </trkpt>
      <trkpt lat="42.99483" lon="0.5526">
        <ele>752.762</ele>
        <time>2020-02-08T15:24:08Z</time>
      </trkpt>
      <trkpt lat="42.99483" lon="0.55264">
        <ele>752.409</ele>
        <time>2020-02-08T15:24:07Z</time>
      </trkpt>
      <trkpt lat="42.99482" lon="0.55268">
        <ele>752.003</ele>
        <time>2020-02-08T15:24:06Z</time>
      </trkpt>
      <trkpt lat="42.99478" lon="0.55276">
        <ele>751.521</ele>
        <time>2020-02-08T15:24:04Z</time>
      </trkpt>
      <trkpt lat="42.99473" lon="0.55291">
        <ele>751.511</ele>
        <time>2020-02-08T15:24:00Z</time>
      </trkpt>
      <trkpt lat="42.99472" lon="0.55293">
        <ele>751.283</ele>
        <time>2020-02-08T15:23:59Z</time>
      </trkpt>
      <trkpt lat="42.9947" lon="0.55296">
        <ele>750.77</ele>
        <time>2020-02-08T15:23:58Z</time>
      </trkpt>
      <trkpt lat="42.99468" lon="0.55299">
        <ele>750.492</ele>
        <time>2020-02-08T15:23:57Z</time>
      </trkpt>
      <trkpt lat="42.99466" lon="0.55301">
        <ele>749.717</ele>
        <time>2020-02-08T15:23:56Z</time>
      </trkpt>
      <trkpt lat="42.99462" lon="0.55304">
        <ele>749.447</ele>
        <time>2020-02-08T15:23:54Z</time>
      </trkpt>
      <trkpt lat="42.9946" lon="0.55305">
        <ele>749.049</ele>
        <time>2020-02-08T15:23:53Z</time>
      </trkpt>
      <trkpt lat="42.99458" lon="0.55307">
        <ele>748.445</ele>
        <time>2020-02-08T15:23:52Z</time>
      </trkpt>
      <trkpt lat="42.99456" lon="0.55308">
        <ele>748.048</ele>
        <time>2020-02-08T15:23:51Z</time>
      </trkpt>
      <trkpt lat="42.99454" lon="0.5531">
        <ele>747.429</ele>
        <time>2020-02-08T15:23:50Z</time>
      </trkpt>
      <trkpt lat="42.99445" lon="0.55315">
        <ele>747.009</ele>
        <time>2020-02-08T15:23:46Z</time>
      </trkpt>
      <trkpt lat="42.99443" lon="0.55316">
        <ele>746.526</ele>
        <time>2020-02-08T15:23:45Z</time>
      </trkpt>
      <trkpt lat="42.9944" lon="0.55318">
        <ele>746.006</ele>
        <time>2020-02-08T15:23:44Z</time>
      </trkpt>
      <trkpt lat="42.99438" lon="0.55319">
        <ele>745.589</ele>
        <time>2020-02-08T15:23:43Z</time>
      </trkpt>
      <trkpt lat="42.99436" lon="0.55319">
        <ele>745.264</ele>
        <time>2020-02-08T15:23:42Z</time>
      </trkpt>
      <trkpt lat="42.99426" lon="0.55326">
        <ele>744.771</ele>
        <time>2020-02-08T15:23:37Z</time>
      </trkpt>
      <trkpt lat="42.99407" lon="0.55345">
        <ele>744.733</ele>
        <time>2020-02-08T15:23:29Z</time>
      </trkpt>
      <trkpt lat="42.99402" lon="0.55352">
        <ele>744.778</ele>
        <time>2020-02-08T15:23:27Z</time>
      </trkpt>
      <trkpt lat="42.994" lon="0.55355">
        <ele>744.458</ele>
        <time>2020-02-08T15:23:26Z</time>
      </trkpt>
      <trkpt lat="42.99398" lon="0.55358">
        <ele>744.09</ele>
        <time>2020-02-08T15:23:25Z</time>
      </trkpt>
      <trkpt lat="42.99396" lon="0.55361">
        <ele>743.596</ele>
        <time>2020-02-08T15:23:24Z</time>
      </trkpt>
      <trkpt lat="42.99394" lon="0.55364">
        <ele>743.029</ele>
        <time>2020-02-08T15:23:23Z</time>
      </trkpt>
      <trkpt lat="42.99384" lon="0.55375">
        <ele>742.56</ele>
        <time>2020-02-08T15:23:19Z</time>
      </trkpt>
      <trkpt lat="42.99367" lon="0.55399">
        <ele>742.509</ele>
        <time>2020-02-08T15:23:11Z</time>
      </trkpt>
      <trkpt lat="42.99362" lon="0.55409">
        <ele>742.524</ele>
        <time>2020-02-08T15:23:08Z</time>
      </trkpt>
      <trkpt lat="42.99361" lon="0.55413">
        <ele>742.231</ele>
        <time>2020-02-08T15:23:07Z</time>
      </trkpt>
      <trkpt lat="42.9936" lon="0.55417">
        <ele>741.796</ele>
        <time>2020-02-08T15:23:06Z</time>
      </trkpt>
      <trkpt lat="42.9936" lon="0.55422">
        <ele>741.438</ele>
        <time>2020-02-08T15:23:05Z</time>
      </trkpt>
      <trkpt lat="42.99358" lon="0.55427">
        <ele>741.015</ele>
        <time>2020-02-08T15:23:04Z</time>
      </trkpt>
      <trkpt lat="42.99346" lon="0.55458">
        <ele>740.537</ele>
        <time>2020-02-08T15:22:55Z</time>
      </trkpt>
      <trkpt lat="42.99344" lon="0.55465">
        <ele>740.562</ele>
        <time>2020-02-08T15:22:53Z</time>
      </trkpt>
      <trkpt lat="42.99342" lon="0.55469">
        <ele>740.082</ele>
        <time>2020-02-08T15:22:52Z</time>
      </trkpt>
      <trkpt lat="42.99341" lon="0.55472">
        <ele>739.564</ele>
        <time>2020-02-08T15:22:51Z</time>
      </trkpt>
      <trkpt lat="42.99339" lon="0.55475">
        <ele>739.29</ele>
        <time>2020-02-08T15:22:50Z</time>
      </trkpt>
      <trkpt lat="42.99337" lon="0.55479">
        <ele>738.743</ele>
        <time>2020-02-08T15:22:49Z</time>
      </trkpt>
      <trkpt lat="42.99336" lon="0.55482">
        <ele>738.234</ele>
        <time>2020-02-08T15:22:48Z</time>
      </trkpt>
      <trkpt lat="42.99329" lon="0.55495">
        <ele>738.209</ele>
        <time>2020-02-08T15:22:44Z</time>
      </trkpt>
      <trkpt lat="42.99328" lon="0.55497">
        <ele>737.718</ele>
        <time>2020-02-08T15:22:43Z</time>
      </trkpt>
      <trkpt lat="42.99327" lon="0.55501">
        <ele>737.417</ele>
        <time>2020-02-08T15:22:42Z</time>
      </trkpt>
      <trkpt lat="42.99325" lon="0.55503">
        <ele>737.036</ele>
        <time>2020-02-08T15:22:41Z</time>
      </trkpt>
      <trkpt lat="42.99324" lon="0.55506">
        <ele>736.419</ele>
        <time>2020-02-08T15:22:40Z</time>
      </trkpt>
      <trkpt lat="42.99322" lon="0.55509">
        <ele>736.046</ele>
        <time>2020-02-08T15:22:39Z</time>
      </trkpt>
      <trkpt lat="42.99317" lon="0.55517">
        <ele>736.018</ele>
        <time>2020-02-08T15:22:36Z</time>
      </trkpt>
      <trkpt lat="42.99315" lon="0.55519">
        <ele>735.533</ele>
        <time>2020-02-08T15:22:35Z</time>
      </trkpt>
      <trkpt lat="42.99313" lon="0.55522">
        <ele>735.083</ele>
        <time>2020-02-08T15:22:34Z</time>
      </trkpt>
      <trkpt lat="42.99312" lon="0.55524">
        <ele>734.515</ele>
        <time>2020-02-08T15:22:33Z</time>
      </trkpt>
      <trkpt lat="42.9931" lon="0.55526">
        <ele>734.031</ele>
        <time>2020-02-08T15:22:32Z</time>
      </trkpt>
      <trkpt lat="42.99307" lon="0.55531">
        <ele>733.524</ele>
        <time>2020-02-08T15:22:30Z</time>
      </trkpt>
      <trkpt lat="42.99306" lon="0.55533">
        <ele>733.515</ele>
        <time>2020-02-08T15:22:29Z</time>
      </trkpt>
      <trkpt lat="42.99304" lon="0.55535">
        <ele>733.209</ele>
        <time>2020-02-08T15:22:28Z</time>
      </trkpt>
      <trkpt lat="42.99303" lon="0.55537">
        <ele>732.515</ele>
        <time>2020-02-08T15:22:27Z</time>
      </trkpt>
      <trkpt lat="42.99301" lon="0.55539">
        <ele>732.205</ele>
        <time>2020-02-08T15:22:26Z</time>
      </trkpt>
      <trkpt lat="42.993" lon="0.55541">
        <ele>731.544</ele>
        <time>2020-02-08T15:22:25Z</time>
      </trkpt>
      <trkpt lat="42.99297" lon="0.55545">
        <ele>731.281</ele>
        <time>2020-02-08T15:22:23Z</time>
      </trkpt>
      <trkpt lat="42.99295" lon="0.55547">
        <ele>731.248</ele>
        <time>2020-02-08T15:22:22Z</time>
      </trkpt>
      <trkpt lat="42.99294" lon="0.55549">
        <ele>731.24</ele>
        <time>2020-02-08T15:22:21Z</time>
      </trkpt>
      <trkpt lat="42.99292" lon="0.55552">
        <ele>730.785</ele>
        <time>2020-02-08T15:22:20Z</time>
      </trkpt>
      <trkpt lat="42.9929" lon="0.55554">
        <ele>730.415</ele>
        <time>2020-02-08T15:22:19Z</time>
      </trkpt>
      <trkpt lat="42.99289" lon="0.55557">
        <ele>729.787</ele>
        <time>2020-02-08T15:22:18Z</time>
      </trkpt>
      <trkpt lat="42.99288" lon="0.5556">
        <ele>729.483</ele>
        <time>2020-02-08T15:22:17Z</time>
      </trkpt>
      <trkpt lat="42.99287" lon="0.55563">
        <ele>729.096</ele>
        <time>2020-02-08T15:22:16Z</time>
      </trkpt>
      <trkpt lat="42.99288" lon="0.55581">
        <ele>729.047</ele>
        <time>2020-02-08T15:22:11Z</time>
      </trkpt>
      <trkpt lat="42.99288" lon="0.55584">
        <ele>728.509</ele>
        <time>2020-02-08T15:22:10Z</time>
      </trkpt>
      <trkpt lat="42.9929" lon="0.55587">
        <ele>728.018</ele>
        <time>2020-02-08T15:22:09Z</time>
      </trkpt>
      <trkpt lat="42.99291" lon="0.5559">
        <ele>727.544</ele>
        <time>2020-02-08T15:22:08Z</time>
      </trkpt>
      <trkpt lat="42.99292" lon="0.55593">
        <ele>727.263</ele>
        <time>2020-02-08T15:22:07Z</time>
      </trkpt>
      <trkpt lat="42.993" lon="0.55608">
        <ele>726.544</ele>
        <time>2020-02-08T15:22:02Z</time>
      </trkpt>
      <trkpt lat="42.99301" lon="0.55611">
        <ele>726.221</ele>
        <time>2020-02-08T15:22:01Z</time>
      </trkpt>
      <trkpt lat="42.99303" lon="0.55613">
        <ele>725.753</ele>
        <time>2020-02-08T15:22:00Z</time>
      </trkpt>
      <trkpt lat="42.99304" lon="0.55616">
        <ele>725.498</ele>
        <time>2020-02-08T15:21:59Z</time>
      </trkpt>
      <trkpt lat="42.99305" lon="0.55619">
        <ele>725.018</ele>
        <time>2020-02-08T15:21:58Z</time>
      </trkpt>
      <trkpt lat="42.99307" lon="0.55628">
        <ele>724.43</ele>
        <time>2020-02-08T15:21:55Z</time>
      </trkpt>
      <trkpt lat="42.99306" lon="0.55632">
        <ele>724.096</ele>
        <time>2020-02-08T15:21:54Z</time>
      </trkpt>
      <trkpt lat="42.99305" lon="0.55636">
        <ele>723.519</ele>
        <time>2020-02-08T15:21:53Z</time>
      </trkpt>
      <trkpt lat="42.99303" lon="0.55639">
        <ele>723.21</ele>
        <time>2020-02-08T15:21:52Z</time>
      </trkpt>
      <trkpt lat="42.99301" lon="0.55642">
        <ele>722.709</ele>
        <time>2020-02-08T15:21:51Z</time>
      </trkpt>
      <trkpt lat="42.99289" lon="0.55643">
        <ele>722.422</ele>
        <time>2020-02-08T15:21:47Z</time>
      </trkpt>
      <trkpt lat="42.99286" lon="0.55642">
        <ele>722.457</ele>
        <time>2020-02-08T15:21:46Z</time>
      </trkpt>
      <trkpt lat="42.99283" lon="0.5564">
        <ele>722.094</ele>
        <time>2020-02-08T15:21:45Z</time>
      </trkpt>
      <trkpt lat="42.9928" lon="0.55638">
        <ele>721.548</ele>
        <time>2020-02-08T15:21:44Z</time>
      </trkpt>
      <trkpt lat="42.99277" lon="0.55636">
        <ele>721.245</ele>
        <time>2020-02-08T15:21:43Z</time>
      </trkpt>
      <trkpt lat="42.99275" lon="0.55634">
        <ele>720.727</ele>
        <time>2020-02-08T15:21:42Z</time>
      </trkpt>
      <trkpt lat="42.99261" lon="0.55624">
        <ele>720.292</ele>
        <time>2020-02-08T15:21:37Z</time>
      </trkpt>
      <trkpt lat="42.99258" lon="0.55622">
        <ele>719.792</ele>
        <time>2020-02-08T15:21:36Z</time>
      </trkpt>
      <trkpt lat="42.99255" lon="0.5562">
        <ele>719.474</ele>
        <time>2020-02-08T15:21:35Z</time>
      </trkpt>
      <trkpt lat="42.99253" lon="0.55618">
        <ele>719.09</ele>
        <time>2020-02-08T15:21:34Z</time>
      </trkpt>
      <trkpt lat="42.9925" lon="0.55616">
        <ele>718.543</ele>
        <time>2020-02-08T15:21:33Z</time>
      </trkpt>
      <trkpt lat="42.99237" lon="0.55606">
        <ele>718.284</ele>
        <time>2020-02-08T15:21:28Z</time>
      </trkpt>
      <trkpt lat="42.99234" lon="0.55604">
        <ele>717.509</ele>
        <time>2020-02-08T15:21:27Z</time>
      </trkpt>
      <trkpt lat="42.99232" lon="0.55603">
        <ele>717.215</ele>
        <time>2020-02-08T15:21:26Z</time>
      </trkpt>
      <trkpt lat="42.99229" lon="0.55602">
        <ele>716.723</ele>
        <time>2020-02-08T15:21:25Z</time>
      </trkpt>
      <trkpt lat="42.99226" lon="0.55601">
        <ele>716.433</ele>
        <time>2020-02-08T15:21:24Z</time>
      </trkpt>
      <trkpt lat="42.99214" lon="0.556">
        <ele>715.75</ele>
        <time>2020-02-08T15:21:20Z</time>
      </trkpt>
      <trkpt lat="42.99211" lon="0.55599">
        <ele>715.427</ele>
        <time>2020-02-08T15:21:19Z</time>
      </trkpt>
      <trkpt lat="42.99207" lon="0.55599">
        <ele>715.029</ele>
        <time>2020-02-08T15:21:18Z</time>
      </trkpt>
      <trkpt lat="42.99204" lon="0.55598">
        <ele>714.414</ele>
        <time>2020-02-08T15:21:17Z</time>
      </trkpt>
      <trkpt lat="42.99202" lon="0.55599">
        <ele>714.014</ele>
        <time>2020-02-08T15:21:16Z</time>
      </trkpt>
      <trkpt lat="42.99199" lon="0.556">
        <ele>713.576</ele>
        <time>2020-02-08T15:21:15Z</time>
      </trkpt>
      <trkpt lat="42.99189" lon="0.55608">
        <ele>713.582</ele>
        <time>2020-02-08T15:21:11Z</time>
      </trkpt>
      <trkpt lat="42.99187" lon="0.55612">
        <ele>713.245</ele>
        <time>2020-02-08T15:21:10Z</time>
      </trkpt>
      <trkpt lat="42.99186" lon="0.55615">
        <ele>712.786</ele>
        <time>2020-02-08T15:21:09Z</time>
      </trkpt>
      <trkpt lat="42.99186" lon="0.55619">
        <ele>712.409</ele>
        <time>2020-02-08T15:21:08Z</time>
      </trkpt>
      <trkpt lat="42.99186" lon="0.55623">
        <ele>711.708</ele>
        <time>2020-02-08T15:21:07Z</time>
      </trkpt>
      <trkpt lat="42.99186" lon="0.55627">
        <ele>711.453</ele>
        <time>2020-02-08T15:21:06Z</time>
      </trkpt>
      <trkpt lat="42.99187" lon="0.55631">
        <ele>711.052</ele>
        <time>2020-02-08T15:21:05Z</time>
      </trkpt>
      <trkpt lat="42.99189" lon="0.55634">
        <ele>710.531</ele>
        <time>2020-02-08T15:21:04Z</time>
      </trkpt>
      <trkpt lat="42.99191" lon="0.55637">
        <ele>710.218</ele>
        <time>2020-02-08T15:21:03Z</time>
      </trkpt>
      <trkpt lat="42.99192" lon="0.5564">
        <ele>709.72</ele>
        <time>2020-02-08T15:21:02Z</time>
      </trkpt>
      <trkpt lat="42.99197" lon="0.55646">
        <ele>709.445</ele>
        <time>2020-02-08T15:21:00Z</time>
      </trkpt>
      <trkpt lat="42.99199" lon="0.55649">
        <ele>709.095</ele>
        <time>2020-02-08T15:20:59Z</time>
      </trkpt>
      <trkpt lat="42.99201" lon="0.55651">
        <ele>708.577</ele>
        <time>2020-02-08T15:20:58Z</time>
      </trkpt>
      <trkpt lat="42.99204" lon="0.55654">
        <ele>708.243</ele>
        <time>2020-02-08T15:20:57Z</time>
      </trkpt>
      <trkpt lat="42.99206" lon="0.55657">
        <ele>707.776</ele>
        <time>2020-02-08T15:20:56Z</time>
      </trkpt>
      <trkpt lat="42.99209" lon="0.55659">
        <ele>707.417</ele>
        <time>2020-02-08T15:20:55Z</time>
      </trkpt>
      <trkpt lat="42.9922" lon="0.55674">
        <ele>707.409</ele>
        <time>2020-02-08T15:20:50Z</time>
      </trkpt>
      <trkpt lat="42.99222" lon="0.55677">
        <ele>706.724</ele>
        <time>2020-02-08T15:20:49Z</time>
      </trkpt>
      <trkpt lat="42.99224" lon="0.5568">
        <ele>706.404</ele>
        <time>2020-02-08T15:20:48Z</time>
      </trkpt>
      <trkpt lat="42.99226" lon="0.55684">
        <ele>706.069</ele>
        <time>2020-02-08T15:20:47Z</time>
      </trkpt>
      <trkpt lat="42.99228" lon="0.55686">
        <ele>705.531</ele>
        <time>2020-02-08T15:20:46Z</time>
      </trkpt>
      <trkpt lat="42.99238" lon="0.55702">
        <ele>705.258</ele>
        <time>2020-02-08T15:20:41Z</time>
      </trkpt>
      <trkpt lat="42.9924" lon="0.55705">
        <ele>705.27</ele>
        <time>2020-02-08T15:20:40Z</time>
      </trkpt>
      <trkpt lat="42.99242" lon="0.55708">
        <ele>704.755</ele>
        <time>2020-02-08T15:20:39Z</time>
      </trkpt>
      <trkpt lat="42.99244" lon="0.55712">
        <ele>704.435</ele>
        <time>2020-02-08T15:20:38Z</time>
      </trkpt>
      <trkpt lat="42.99246" lon="0.55715">
        <ele>704.057</ele>
        <time>2020-02-08T15:20:37Z</time>
      </trkpt>
      <trkpt lat="42.99248" lon="0.55718">
        <ele>703.423</ele>
        <time>2020-02-08T15:20:36Z</time>
      </trkpt>
      <trkpt lat="42.9925" lon="0.55721">
        <ele>703.076</ele>
        <time>2020-02-08T15:20:35Z</time>
      </trkpt>
      <trkpt lat="42.99264" lon="0.55734">
        <ele>703.097</ele>
        <time>2020-02-08T15:20:30Z</time>
      </trkpt>
      <trkpt lat="42.99267" lon="0.55737">
        <ele>702.509</ele>
        <time>2020-02-08T15:20:29Z</time>
      </trkpt>
      <trkpt lat="42.9927" lon="0.55739">
        <ele>702.218</ele>
        <time>2020-02-08T15:20:28Z</time>
      </trkpt>
      <trkpt lat="42.99272" lon="0.55742">
        <ele>701.744</ele>
        <time>2020-02-08T15:20:27Z</time>
      </trkpt>
      <trkpt lat="42.99275" lon="0.55745">
        <ele>701.463</ele>
        <time>2020-02-08T15:20:26Z</time>
      </trkpt>
      <trkpt lat="42.99277" lon="0.55753">
        <ele>701.01</ele>
        <time>2020-02-08T15:20:24Z</time>
      </trkpt>
      <trkpt lat="42.99276" lon="0.55757">
        <ele>700.497</ele>
        <time>2020-02-08T15:20:23Z</time>
      </trkpt>
      <trkpt lat="42.99274" lon="0.5576">
        <ele>700.019</ele>
        <time>2020-02-08T15:20:22Z</time>
      </trkpt>
      <trkpt lat="42.99271" lon="0.55762">
        <ele>699.554</ele>
        <time>2020-02-08T15:20:21Z</time>
      </trkpt>
      <trkpt lat="42.99268" lon="0.55763">
        <ele>699.064</ele>
        <time>2020-02-08T15:20:20Z</time>
      </trkpt>
      <trkpt lat="42.99249" lon="0.55759">
        <ele>698.586</ele>
        <time>2020-02-08T15:20:14Z</time>
      </trkpt>
      <trkpt lat="42.99242" lon="0.55756">
        <ele>698.522</ele>
        <time>2020-02-08T15:20:12Z</time>
      </trkpt>
      <trkpt lat="42.99239" lon="0.55755">
        <ele>698.295</ele>
        <time>2020-02-08T15:20:11Z</time>
      </trkpt>
      <trkpt lat="42.99236" lon="0.55753">
        <ele>697.716</ele>
        <time>2020-02-08T15:20:10Z</time>
      </trkpt>
      <trkpt lat="42.99233" lon="0.55751">
        <ele>697.209</ele>
        <time>2020-02-08T15:20:09Z</time>
      </trkpt>
      <trkpt lat="42.9923" lon="0.55749">
        <ele>696.717</ele>
        <time>2020-02-08T15:20:08Z</time>
      </trkpt>
      <trkpt lat="42.99227" lon="0.55747">
        <ele>696.407</ele>
        <time>2020-02-08T15:20:07Z</time>
      </trkpt>
      <trkpt lat="42.99205" lon="0.55736">
        <ele>696.455</ele>
        <time>2020-02-08T15:20:00Z</time>
      </trkpt>
      <trkpt lat="42.99198" lon="0.55736">
        <ele>696.458</ele>
        <time>2020-02-08T15:19:58Z</time>
      </trkpt>
      <trkpt lat="42.99194" lon="0.55735">
        <ele>696.095</ele>
        <time>2020-02-08T15:19:57Z</time>
      </trkpt>
      <trkpt lat="42.99191" lon="0.55734">
        <ele>695.587</ele>
        <time>2020-02-08T15:19:56Z</time>
      </trkpt>
      <trkpt lat="42.99188" lon="0.55734">
        <ele>695.262</ele>
        <time>2020-02-08T15:19:55Z</time>
      </trkpt>
      <trkpt lat="42.99185" lon="0.55734">
        <ele>694.722</ele>
        <time>2020-02-08T15:19:54Z</time>
      </trkpt>
      <trkpt lat="42.99169" lon="0.55732">
        <ele>694.474</ele>
        <time>2020-02-08T15:19:49Z</time>
      </trkpt>
      <trkpt lat="42.99166" lon="0.55732">
        <ele>693.71</ele>
        <time>2020-02-08T15:19:48Z</time>
      </trkpt>
      <trkpt lat="42.99163" lon="0.55731">
        <ele>693.423</ele>
        <time>2020-02-08T15:19:47Z</time>
      </trkpt>
      <trkpt lat="42.99161" lon="0.55731">
        <ele>693.084</ele>
        <time>2020-02-08T15:19:46Z</time>
      </trkpt>
      <trkpt lat="42.99159" lon="0.55732">
        <ele>692.509</ele>
        <time>2020-02-08T15:19:45Z</time>
      </trkpt>
      <trkpt lat="42.99152" lon="0.55735">
        <ele>692.011</ele>
        <time>2020-02-08T15:19:42Z</time>
      </trkpt>
      <trkpt lat="42.9915" lon="0.55737">
        <ele>691.592</ele>
        <time>2020-02-08T15:19:41Z</time>
      </trkpt>
      <trkpt lat="42.99148" lon="0.5574">
        <ele>691.232</ele>
        <time>2020-02-08T15:19:40Z</time>
      </trkpt>
      <trkpt lat="42.99147" lon="0.55743">
        <ele>690.79</ele>
        <time>2020-02-08T15:19:39Z</time>
      </trkpt>
      <trkpt lat="42.99145" lon="0.55746">
        <ele>690.247</ele>
        <time>2020-02-08T15:19:38Z</time>
      </trkpt>
      <trkpt lat="42.99141" lon="0.55754">
        <ele>689.749</ele>
        <time>2020-02-08T15:19:35Z</time>
      </trkpt>
      <trkpt lat="42.99139" lon="0.55757">
        <ele>689.464</ele>
        <time>2020-02-08T15:19:34Z</time>
      </trkpt>
      <trkpt lat="42.99138" lon="0.55761">
        <ele>689.074</ele>
        <time>2020-02-08T15:19:33Z</time>
      </trkpt>
      <trkpt lat="42.99136" lon="0.55764">
        <ele>688.516</ele>
        <time>2020-02-08T15:19:32Z</time>
      </trkpt>
      <trkpt lat="42.99134" lon="0.55767">
        <ele>688.262</ele>
        <time>2020-02-08T15:19:31Z</time>
      </trkpt>
      <trkpt lat="42.99125" lon="0.55783">
        <ele>687.595</ele>
        <time>2020-02-08T15:19:26Z</time>
      </trkpt>
      <trkpt lat="42.99124" lon="0.55787">
        <ele>687.256</ele>
        <time>2020-02-08T15:19:25Z</time>
      </trkpt>
      <trkpt lat="42.99122" lon="0.55791">
        <ele>686.709</ele>
        <time>2020-02-08T15:19:24Z</time>
      </trkpt>
      <trkpt lat="42.9912" lon="0.55794">
        <ele>686.414</ele>
        <time>2020-02-08T15:19:23Z</time>
      </trkpt>
      <trkpt lat="42.99119" lon="0.55798">
        <ele>686.004</ele>
        <time>2020-02-08T15:19:22Z</time>
      </trkpt>
      <trkpt lat="42.99108" lon="0.55816">
        <ele>685.553</ele>
        <time>2020-02-08T15:19:17Z</time>
      </trkpt>
      <trkpt lat="42.99106" lon="0.55819">
        <ele>685.288</ele>
        <time>2020-02-08T15:19:16Z</time>
      </trkpt>
      <trkpt lat="42.99104" lon="0.55822">
        <ele>684.785</ele>
        <time>2020-02-08T15:19:15Z</time>
      </trkpt>
      <trkpt lat="42.99101" lon="0.55825">
        <ele>684.497</ele>
        <time>2020-02-08T15:19:14Z</time>
      </trkpt>
      <trkpt lat="42.99099" lon="0.55828">
        <ele>684.032</ele>
        <time>2020-02-08T15:19:13Z</time>
      </trkpt>
      <trkpt lat="42.99085" lon="0.55849">
        <ele>683.422</ele>
        <time>2020-02-08T15:19:06Z</time>
      </trkpt>
      <trkpt lat="42.99083" lon="0.55852">
        <ele>683.414</ele>
        <time>2020-02-08T15:19:05Z</time>
      </trkpt>
      <trkpt lat="42.9908" lon="0.55855">
        <ele>683.08</ele>
        <time>2020-02-08T15:19:04Z</time>
      </trkpt>
      <trkpt lat="42.99079" lon="0.55857">
        <ele>682.573</ele>
        <time>2020-02-08T15:19:03Z</time>
      </trkpt>
      <trkpt lat="42.99075" lon="0.5586">
        <ele>682.284</ele>
        <time>2020-02-08T15:19:02Z</time>
      </trkpt>
      <trkpt lat="42.99072" lon="0.55863">
        <ele>681.709</ele>
        <time>2020-02-08T15:19:01Z</time>
      </trkpt>
      <trkpt lat="42.9906" lon="0.55878">
        <ele>681.411</ele>
        <time>2020-02-08T15:18:56Z</time>
      </trkpt>
      <trkpt lat="42.99057" lon="0.55881">
        <ele>680.792</ele>
        <time>2020-02-08T15:18:55Z</time>
      </trkpt>
      <trkpt lat="42.99055" lon="0.55884">
        <ele>680.432</ele>
        <time>2020-02-08T15:18:54Z</time>
      </trkpt>
      <trkpt lat="42.99052" lon="0.55887">
        <ele>680.063</ele>
        <time>2020-02-08T15:18:53Z</time>
      </trkpt>
      <trkpt lat="42.99049" lon="0.55889">
        <ele>679.45</ele>
        <time>2020-02-08T15:18:52Z</time>
      </trkpt>
      <trkpt lat="42.99036" lon="0.55903">
        <ele>679.082</ele>
        <time>2020-02-08T15:18:47Z</time>
      </trkpt>
      <trkpt lat="42.99028" lon="0.5591">
        <ele>679.017</ele>
        <time>2020-02-08T15:18:44Z</time>
      </trkpt>
      <trkpt lat="42.99026" lon="0.55913">
        <ele>678.547</ele>
        <time>2020-02-08T15:18:43Z</time>
      </trkpt>
      <trkpt lat="42.99024" lon="0.55916">
        <ele>678.089</ele>
        <time>2020-02-08T15:18:42Z</time>
      </trkpt>
      <trkpt lat="42.99023" lon="0.55919">
        <ele>677.545</ele>
        <time>2020-02-08T15:18:41Z</time>
      </trkpt>
      <trkpt lat="42.99021" lon="0.55922">
        <ele>677.238</ele>
        <time>2020-02-08T15:18:40Z</time>
      </trkpt>
      <trkpt lat="42.99019" lon="0.55925">
        <ele>676.769</ele>
        <time>2020-02-08T15:18:39Z</time>
      </trkpt>
      <trkpt lat="42.99016" lon="0.55932">
        <ele>676.709</ele>
        <time>2020-02-08T15:18:37Z</time>
      </trkpt>
      <trkpt lat="42.99014" lon="0.55935">
        <ele>676.417</ele>
        <time>2020-02-08T15:18:36Z</time>
      </trkpt>
      <trkpt lat="42.99013" lon="0.55939">
        <ele>675.789</ele>
        <time>2020-02-08T15:18:35Z</time>
      </trkpt>
      <trkpt lat="42.99012" lon="0.55942">
        <ele>675.485</ele>
        <time>2020-02-08T15:18:34Z</time>
      </trkpt>
      <trkpt lat="42.9901" lon="0.55945">
        <ele>675.048</ele>
        <time>2020-02-08T15:18:33Z</time>
      </trkpt>
      <trkpt lat="42.99009" lon="0.55949">
        <ele>674.515</ele>
        <time>2020-02-08T15:18:32Z</time>
      </trkpt>
      <trkpt lat="42.99007" lon="0.55952">
        <ele>674.027</ele>
        <time>2020-02-08T15:18:31Z</time>
      </trkpt>
      <trkpt lat="42.99005" lon="0.55955">
        <ele>673.582</ele>
        <time>2020-02-08T15:18:30Z</time>
      </trkpt>
      <trkpt lat="42.99004" lon="0.55958">
        <ele>673.222</ele>
        <time>2020-02-08T15:18:29Z</time>
      </trkpt>
      <trkpt lat="42.99002" lon="0.55961">
        <ele>672.554</ele>
        <time>2020-02-08T15:18:28Z</time>
      </trkpt>
      <trkpt lat="42.98992" lon="0.55968">
        <ele>672.21</ele>
        <time>2020-02-08T15:18:24Z</time>
      </trkpt>
      <trkpt lat="42.98989" lon="0.5597">
        <ele>671.713</ele>
        <time>2020-02-08T15:18:23Z</time>
      </trkpt>
      <trkpt lat="42.98986" lon="0.5597">
        <ele>671.414</ele>
        <time>2020-02-08T15:18:22Z</time>
      </trkpt>
      <trkpt lat="42.98983" lon="0.55971">
        <ele>671.009</ele>
        <time>2020-02-08T15:18:21Z</time>
      </trkpt>
      <trkpt lat="42.98981" lon="0.5597">
        <ele>670.51</ele>
        <time>2020-02-08T15:18:20Z</time>
      </trkpt>
      <trkpt lat="42.98978" lon="0.5597">
        <ele>670.255</ele>
        <time>2020-02-08T15:18:19Z</time>
      </trkpt>
      <trkpt lat="42.98967" lon="0.55967">
        <ele>670.234</ele>
        <time>2020-02-08T15:18:16Z</time>
      </trkpt>
      <trkpt lat="42.98964" lon="0.55964">
        <ele>669.731</ele>
        <time>2020-02-08T15:18:15Z</time>
      </trkpt>
      <trkpt lat="42.98961" lon="0.55961">
        <ele>669.258</ele>
        <time>2020-02-08T15:18:14Z</time>
      </trkpt>
      <trkpt lat="42.98958" lon="0.55956">
        <ele>668.71</ele>
        <time>2020-02-08T15:18:13Z</time>
      </trkpt>
      <trkpt lat="42.98955" lon="0.55952">
        <ele>668.415</ele>
        <time>2020-02-08T15:18:12Z</time>
      </trkpt>
      <trkpt lat="42.98952" lon="0.55941">
        <ele>667.775</ele>
        <time>2020-02-08T15:18:10Z</time>
      </trkpt>
      <trkpt lat="42.98946" lon="0.55905">
        <ele>667.727</ele>
        <time>2020-02-08T15:18:03Z</time>
      </trkpt>
      <trkpt lat="42.98945" lon="0.559">
        <ele>667.473</ele>
        <time>2020-02-08T15:18:02Z</time>
      </trkpt>
      <trkpt lat="42.98944" lon="0.55895">
        <ele>667.016</ele>
        <time>2020-02-08T15:18:01Z</time>
      </trkpt>
      <trkpt lat="42.98943" lon="0.5589">
        <ele>666.577</ele>
        <time>2020-02-08T15:18:00Z</time>
      </trkpt>
      <trkpt lat="42.98942" lon="0.55886">
        <ele>666.209</ele>
        <time>2020-02-08T15:17:59Z</time>
      </trkpt>
      <trkpt lat="42.98938" lon="0.55866">
        <ele>665.516</ele>
        <time>2020-02-08T15:17:55Z</time>
      </trkpt>
      <trkpt lat="42.98938" lon="0.55855">
        <ele>665.506</ele>
        <time>2020-02-08T15:17:53Z</time>
      </trkpt>
      <trkpt lat="42.9894" lon="0.55839">
        <ele>665.564</ele>
        <time>2020-02-08T15:17:50Z</time>
      </trkpt>
      <trkpt lat="42.98943" lon="0.55828">
        <ele>665.54</ele>
        <time>2020-02-08T15:17:48Z</time>
      </trkpt>
      <trkpt lat="42.98945" lon="0.55823">
        <ele>665.247</ele>
        <time>2020-02-08T15:17:47Z</time>
      </trkpt>
      <trkpt lat="42.98947" lon="0.55818">
        <ele>664.719</ele>
        <time>2020-02-08T15:17:46Z</time>
      </trkpt>
      <trkpt lat="42.98949" lon="0.55814">
        <ele>664.484</ele>
        <time>2020-02-08T15:17:45Z</time>
      </trkpt>
      <trkpt lat="42.98951" lon="0.5581">
        <ele>663.794</ele>
        <time>2020-02-08T15:17:44Z</time>
      </trkpt>
      <trkpt lat="42.98956" lon="0.55796">
        <ele>663.436</ele>
        <time>2020-02-08T15:17:41Z</time>
      </trkpt>
      <trkpt lat="42.98962" lon="0.55763">
        <ele>663.412</ele>
        <time>2020-02-08T15:17:34Z</time>
      </trkpt>
      <trkpt lat="42.98963" lon="0.55759">
        <ele>663.045</ele>
        <time>2020-02-08T15:17:33Z</time>
      </trkpt>
      <trkpt lat="42.98963" lon="0.55754">
        <ele>662.526</ele>
        <time>2020-02-08T15:17:32Z</time>
      </trkpt>
      <trkpt lat="42.98962" lon="0.55749">
        <ele>662.209</ele>
        <time>2020-02-08T15:17:31Z</time>
      </trkpt>
      <trkpt lat="42.98961" lon="0.55744">
        <ele>661.72</ele>
        <time>2020-02-08T15:17:30Z</time>
      </trkpt>
      <trkpt lat="42.98959" lon="0.5574">
        <ele>661.4</ele>
        <time>2020-02-08T15:17:29Z</time>
      </trkpt>
      <trkpt lat="42.98949" lon="0.55722">
        <ele>661.457</ele>
        <time>2020-02-08T15:17:24Z</time>
      </trkpt>
      <trkpt lat="42.9895" lon="0.55692">
        <ele>661.444</ele>
        <time>2020-02-08T15:17:17Z</time>
      </trkpt>
      <trkpt lat="42.98962" lon="0.55662">
        <ele>661.431</ele>
        <time>2020-02-08T15:17:08Z</time>
      </trkpt>
      <trkpt lat="42.98964" lon="0.55656">
        <ele>661.433</ele>
        <time>2020-02-08T15:17:06Z</time>
      </trkpt>
      <trkpt lat="42.98965" lon="0.55653">
        <ele>661.058</ele>
        <time>2020-02-08T15:17:05Z</time>
      </trkpt>
      <trkpt lat="42.98968" lon="0.5565">
        <ele>660.518</ele>
        <time>2020-02-08T15:17:04Z</time>
      </trkpt>
      <trkpt lat="42.98969" lon="0.55647">
        <ele>660.26</ele>
        <time>2020-02-08T15:17:03Z</time>
      </trkpt>
      <trkpt lat="42.9897" lon="0.55644">
        <ele>659.776</ele>
        <time>2020-02-08T15:17:02Z</time>
      </trkpt>
      <trkpt lat="42.98974" lon="0.5563">
        <ele>659.279</ele>
        <time>2020-02-08T15:16:58Z</time>
      </trkpt>
      <trkpt lat="42.98976" lon="0.5562">
        <ele>659.29</ele>
        <time>2020-02-08T15:16:55Z</time>
      </trkpt>
      <trkpt lat="42.98976" lon="0.55616">
        <ele>658.709</ele>
        <time>2020-02-08T15:16:54Z</time>
      </trkpt>
      <trkpt lat="42.98977" lon="0.55612">
        <ele>658.425</ele>
        <time>2020-02-08T15:16:53Z</time>
      </trkpt>
      <trkpt lat="42.98976" lon="0.55609">
        <ele>658.023</ele>
        <time>2020-02-08T15:16:52Z</time>
      </trkpt>
      <trkpt lat="42.98974" lon="0.55607">
        <ele>657.597</ele>
        <time>2020-02-08T15:16:51Z</time>
      </trkpt>
      <trkpt lat="42.98969" lon="0.55604">
        <ele>657.277</ele>
        <time>2020-02-08T15:16:50Z</time>
      </trkpt>
      <trkpt lat="42.98966" lon="0.55602">
        <ele>657.234</ele>
        <time>2020-02-08T15:16:49Z</time>
      </trkpt>
      <trkpt lat="42.98965" lon="0.55603">
        <ele>656.746</ele>
        <time>2020-02-08T15:16:48Z</time>
      </trkpt>
      <trkpt lat="42.9896" lon="0.55606">
        <ele>656.451</ele>
        <time>2020-02-08T15:16:46Z</time>
      </trkpt>
      <trkpt lat="42.98958" lon="0.55608">
        <ele>655.771</ele>
        <time>2020-02-08T15:16:45Z</time>
      </trkpt>
      <trkpt lat="42.98957" lon="0.5561">
        <ele>655.483</ele>
        <time>2020-02-08T15:16:44Z</time>
      </trkpt>
      <trkpt lat="42.98952" lon="0.55619">
        <ele>655.069</ele>
        <time>2020-02-08T15:16:40Z</time>
      </trkpt>
      <trkpt lat="42.9895" lon="0.55624">
        <ele>655.062</ele>
        <time>2020-02-08T15:16:38Z</time>
      </trkpt>
      <trkpt lat="42.98949" lon="0.55627">
        <ele>654.513</ele>
        <time>2020-02-08T15:16:37Z</time>
      </trkpt>
      <trkpt lat="42.98948" lon="0.5563">
        <ele>654.009</ele>
        <time>2020-02-08T15:16:36Z</time>
      </trkpt>
      <trkpt lat="42.98948" lon="0.55633">
        <ele>653.508</ele>
        <time>2020-02-08T15:16:35Z</time>
      </trkpt>
      <trkpt lat="42.98947" lon="0.55635">
        <ele>653.226</ele>
        <time>2020-02-08T15:16:34Z</time>
      </trkpt>
      <trkpt lat="42.9894" lon="0.55645">
        <ele>652.725</ele>
        <time>2020-02-08T15:16:30Z</time>
      </trkpt>
      <trkpt lat="42.98938" lon="0.55648">
        <ele>652.459</ele>
        <time>2020-02-08T15:16:29Z</time>
      </trkpt>
      <trkpt lat="42.98937" lon="0.55651">
        <ele>652.056</ele>
        <time>2020-02-08T15:16:28Z</time>
      </trkpt>
      <trkpt lat="42.98935" lon="0.55654">
        <ele>651.528</ele>
        <time>2020-02-08T15:16:27Z</time>
      </trkpt>
      <trkpt lat="42.98933" lon="0.55657">
        <ele>651.223</ele>
        <time>2020-02-08T15:16:26Z</time>
      </trkpt>
      <trkpt lat="42.98929" lon="0.55666">
        <ele>650.773</ele>
        <time>2020-02-08T15:16:23Z</time>
      </trkpt>
      <trkpt lat="42.98927" lon="0.55673">
        <ele>650.745</ele>
        <time>2020-02-08T15:16:21Z</time>
      </trkpt>
      <trkpt lat="42.98925" lon="0.55676">
        <ele>650.291</ele>
        <time>2020-02-08T15:16:20Z</time>
      </trkpt>
      <trkpt lat="42.98924" lon="0.55679">
        <ele>649.714</ele>
        <time>2020-02-08T15:16:19Z</time>
      </trkpt>
      <trkpt lat="42.98922" lon="0.55682">
        <ele>649.255</ele>
        <time>2020-02-08T15:16:18Z</time>
      </trkpt>
      <trkpt lat="42.98921" lon="0.55685">
        <ele>648.509</ele>
        <time>2020-02-08T15:16:17Z</time>
      </trkpt>
      <trkpt lat="42.98917" lon="0.55694">
        <ele>648.21</ele>
        <time>2020-02-08T15:16:14Z</time>
      </trkpt>
      <trkpt lat="42.98908" lon="0.55711">
        <ele>648.264</ele>
        <time>2020-02-08T15:16:08Z</time>
      </trkpt>
      <trkpt lat="42.98907" lon="0.55715">
        <ele>647.743</ele>
        <time>2020-02-08T15:16:07Z</time>
      </trkpt>
      <trkpt lat="42.98907" lon="0.55719">
        <ele>647.439</ele>
        <time>2020-02-08T15:16:06Z</time>
      </trkpt>
      <trkpt lat="42.98906" lon="0.55724">
        <ele>647.056</ele>
        <time>2020-02-08T15:16:05Z</time>
      </trkpt>
      <trkpt lat="42.98905" lon="0.55728">
        <ele>646.538</ele>
        <time>2020-02-08T15:16:04Z</time>
      </trkpt>
      <trkpt lat="42.98892" lon="0.55753">
        <ele>646.273</ele>
        <time>2020-02-08T15:15:57Z</time>
      </trkpt>
      <trkpt lat="42.98871" lon="0.55781">
        <ele>646.213</ele>
        <time>2020-02-08T15:15:48Z</time>
      </trkpt>
      <trkpt lat="42.98858" lon="0.55807">
        <ele>646.235</ele>
        <time>2020-02-08T15:15:40Z</time>
      </trkpt>
      <trkpt lat="42.98856" lon="0.5581">
        <ele>645.791</ele>
        <time>2020-02-08T15:15:39Z</time>
      </trkpt>
      <trkpt lat="42.98854" lon="0.55812">
        <ele>645.234</ele>
        <time>2020-02-08T15:15:38Z</time>
      </trkpt>
      <trkpt lat="42.98853" lon="0.55815">
        <ele>644.795</ele>
        <time>2020-02-08T15:15:37Z</time>
      </trkpt>
      <trkpt lat="42.98851" lon="0.55818">
        <ele>644.409</ele>
        <time>2020-02-08T15:15:36Z</time>
      </trkpt>
      <trkpt lat="42.98847" lon="0.55826">
        <ele>644.01</ele>
        <time>2020-02-08T15:15:33Z</time>
      </trkpt>
      <trkpt lat="42.98842" lon="0.55835">
        <ele>644.064</ele>
        <time>2020-02-08T15:15:30Z</time>
      </trkpt>
      <trkpt lat="42.98839" lon="0.5584">
        <ele>644.043</ele>
        <time>2020-02-08T15:15:28Z</time>
      </trkpt>
      <trkpt lat="42.98838" lon="0.55843">
        <ele>644.016</ele>
        <time>2020-02-08T15:15:27Z</time>
      </trkpt>
      <trkpt lat="42.98837" lon="0.55845">
        <ele>643.593</ele>
        <time>2020-02-08T15:15:26Z</time>
      </trkpt>
      <trkpt lat="42.98836" lon="0.55847">
        <ele>643.285</ele>
        <time>2020-02-08T15:15:25Z</time>
      </trkpt>
      <trkpt lat="42.98836" lon="0.5585">
        <ele>642.76</ele>
        <time>2020-02-08T15:15:24Z</time>
      </trkpt>
      <trkpt lat="42.98836" lon="0.55853">
        <ele>642.44</ele>
        <time>2020-02-08T15:15:23Z</time>
      </trkpt>
      <trkpt lat="42.98838" lon="0.55862">
        <ele>642.042</ele>
        <time>2020-02-08T15:15:20Z</time>
      </trkpt>
      <trkpt lat="42.98841" lon="0.55869">
        <ele>642.098</ele>
        <time>2020-02-08T15:15:18Z</time>
      </trkpt>
      <trkpt lat="42.9884" lon="0.55871">
        <ele>641.571</ele>
        <time>2020-02-08T15:15:17Z</time>
      </trkpt>
      <trkpt lat="42.9884" lon="0.55874">
        <ele>641.082</ele>
        <time>2020-02-08T15:15:16Z</time>
      </trkpt>
      <trkpt lat="42.98839" lon="0.55879">
        <ele>640.209</ele>
        <time>2020-02-08T15:15:14Z</time>
      </trkpt>
      <trkpt lat="42.98835" lon="0.55886">
        <ele>639.503</ele>
        <time>2020-02-08T15:15:11Z</time>
      </trkpt>
      <trkpt lat="42.98834" lon="0.55889">
        <ele>639.221</ele>
        <time>2020-02-08T15:15:10Z</time>
      </trkpt>
      <trkpt lat="42.98832" lon="0.55891">
        <ele>638.711</ele>
        <time>2020-02-08T15:15:09Z</time>
      </trkpt>
      <trkpt lat="42.9883" lon="0.55893">
        <ele>638.444</ele>
        <time>2020-02-08T15:15:08Z</time>
      </trkpt>
      <trkpt lat="42.98829" lon="0.55895">
        <ele>638.071</ele>
        <time>2020-02-08T15:15:07Z</time>
      </trkpt>
      <trkpt lat="42.9882" lon="0.55909">
        <ele>637.543</ele>
        <time>2020-02-08T15:15:01Z</time>
      </trkpt>
      <trkpt lat="42.98818" lon="0.55911">
        <ele>637.518</ele>
        <time>2020-02-08T15:15:00Z</time>
      </trkpt>
      <trkpt lat="42.98817" lon="0.55913">
        <ele>637.018</ele>
        <time>2020-02-08T15:14:59Z</time>
      </trkpt>
      <trkpt lat="42.98816" lon="0.55915">
        <ele>636.56</ele>
        <time>2020-02-08T15:14:58Z</time>
      </trkpt>
      <trkpt lat="42.98814" lon="0.55917">
        <ele>636.236</ele>
        <time>2020-02-08T15:14:57Z</time>
      </trkpt>
      <trkpt lat="42.98813" lon="0.55919">
        <ele>635.729</ele>
        <time>2020-02-08T15:14:56Z</time>
      </trkpt>
      <trkpt lat="42.98807" lon="0.5593">
        <ele>635.25</ele>
        <time>2020-02-08T15:14:51Z</time>
      </trkpt>
      <trkpt lat="42.98802" lon="0.55939">
        <ele>635.209</ele>
        <time>2020-02-08T15:14:47Z</time>
      </trkpt>
      <trkpt lat="42.988" lon="0.55942">
        <ele>634.724</ele>
        <time>2020-02-08T15:14:46Z</time>
      </trkpt>
      <trkpt lat="42.98799" lon="0.55944">
        <ele>634.431</ele>
        <time>2020-02-08T15:14:45Z</time>
      </trkpt>
      <trkpt lat="42.98798" lon="0.55946">
        <ele>634.096</ele>
        <time>2020-02-08T15:14:44Z</time>
      </trkpt>
      <trkpt lat="42.98797" lon="0.55949">
        <ele>633.566</ele>
        <time>2020-02-08T15:14:43Z</time>
      </trkpt>
      <trkpt lat="42.98787" lon="0.55966">
        <ele>633.263</ele>
        <time>2020-02-08T15:14:35Z</time>
      </trkpt>
      <trkpt lat="42.98786" lon="0.55969">
        <ele>632.715</ele>
        <time>2020-02-08T15:14:34Z</time>
      </trkpt>
      <trkpt lat="42.98785" lon="0.55971">
        <ele>632.46</ele>
        <time>2020-02-08T15:14:33Z</time>
      </trkpt>
      <trkpt lat="42.98784" lon="0.55973">
        <ele>632.07</ele>
        <time>2020-02-08T15:14:32Z</time>
      </trkpt>
      <trkpt lat="42.98782" lon="0.55975">
        <ele>631.452</ele>
        <time>2020-02-08T15:14:31Z</time>
      </trkpt>
      <trkpt lat="42.98775" lon="0.55988">
        <ele>631.088</ele>
        <time>2020-02-08T15:14:25Z</time>
      </trkpt>
      <trkpt lat="42.98773" lon="0.5599">
        <ele>630.581</ele>
        <time>2020-02-08T15:14:24Z</time>
      </trkpt>
      <trkpt lat="42.98772" lon="0.55992">
        <ele>630.232</ele>
        <time>2020-02-08T15:14:23Z</time>
      </trkpt>
      <trkpt lat="42.9877" lon="0.55994">
        <ele>629.709</ele>
        <time>2020-02-08T15:14:22Z</time>
      </trkpt>
      <trkpt lat="42.98769" lon="0.55996">
        <ele>629.419</ele>
        <time>2020-02-08T15:14:21Z</time>
      </trkpt>
      <trkpt lat="42.98763" lon="0.56004">
        <ele>629.009</ele>
        <time>2020-02-08T15:14:17Z</time>
      </trkpt>
      <trkpt lat="42.98762" lon="0.56006">
        <ele>628.419</ele>
        <time>2020-02-08T15:14:16Z</time>
      </trkpt>
      <trkpt lat="42.9876" lon="0.56007">
        <ele>628.039</ele>
        <time>2020-02-08T15:14:15Z</time>
      </trkpt>
      <trkpt lat="42.98759" lon="0.56009">
        <ele>627.416</ele>
        <time>2020-02-08T15:14:14Z</time>
      </trkpt>
      <trkpt lat="42.98757" lon="0.56011">
        <ele>627.058</ele>
        <time>2020-02-08T15:14:13Z</time>
      </trkpt>
      <trkpt lat="42.98748" lon="0.56021">
        <ele>626.563</ele>
        <time>2020-02-08T15:14:07Z</time>
      </trkpt>
      <trkpt lat="42.98746" lon="0.56025">
        <ele>626.523</ele>
        <time>2020-02-08T15:14:05Z</time>
      </trkpt>
      <trkpt lat="42.98744" lon="0.56027">
        <ele>626.255</ele>
        <time>2020-02-08T15:14:04Z</time>
      </trkpt>
      <trkpt lat="42.98742" lon="0.56029">
        <ele>625.551</ele>
        <time>2020-02-08T15:14:03Z</time>
      </trkpt>
      <trkpt lat="42.9874" lon="0.56031">
        <ele>625.264</ele>
        <time>2020-02-08T15:14:02Z</time>
      </trkpt>
      <trkpt lat="42.98739" lon="0.56033">
        <ele>624.785</ele>
        <time>2020-02-08T15:14:01Z</time>
      </trkpt>
      <trkpt lat="42.98737" lon="0.56037">
        <ele>624.409</ele>
        <time>2020-02-08T15:13:59Z</time>
      </trkpt>
      <trkpt lat="42.98732" lon="0.56044">
        <ele>624.416</ele>
        <time>2020-02-08T15:13:56Z</time>
      </trkpt>
      <trkpt lat="42.9873" lon="0.56046">
        <ele>624.088</ele>
        <time>2020-02-08T15:13:55Z</time>
      </trkpt>
      <trkpt lat="42.98729" lon="0.56049">
        <ele>623.546</ele>
        <time>2020-02-08T15:13:54Z</time>
      </trkpt>
      <trkpt lat="42.98728" lon="0.56051">
        <ele>623.273</ele>
        <time>2020-02-08T15:13:53Z</time>
      </trkpt>
      <trkpt lat="42.98726" lon="0.56054">
        <ele>622.53</ele>
        <time>2020-02-08T15:13:52Z</time>
      </trkpt>
      <trkpt lat="42.98725" lon="0.56057">
        <ele>622.282</ele>
        <time>2020-02-08T15:13:51Z</time>
      </trkpt>
      <trkpt lat="42.98724" lon="0.5606">
        <ele>622.277</ele>
        <time>2020-02-08T15:13:50Z</time>
      </trkpt>
      <trkpt lat="42.98722" lon="0.56062">
        <ele>621.757</ele>
        <time>2020-02-08T15:13:49Z</time>
      </trkpt>
      <trkpt lat="42.9872" lon="0.56065">
        <ele>621.459</ele>
        <time>2020-02-08T15:13:48Z</time>
      </trkpt>
      <trkpt lat="42.98719" lon="0.56068">
        <ele>621.095</ele>
        <time>2020-02-08T15:13:47Z</time>
      </trkpt>
      <trkpt lat="42.98717" lon="0.56071">
        <ele>620.518</ele>
        <time>2020-02-08T15:13:46Z</time>
      </trkpt>
      <trkpt lat="42.98715" lon="0.56075">
        <ele>620.249</ele>
        <time>2020-02-08T15:13:44Z</time>
      </trkpt>
      <trkpt lat="42.98708" lon="0.56093">
        <ele>620.209</ele>
        <time>2020-02-08T15:13:38Z</time>
      </trkpt>
      <trkpt lat="42.98707" lon="0.56097">
        <ele>619.717</ele>
        <time>2020-02-08T15:13:37Z</time>
      </trkpt>
      <trkpt lat="42.98706" lon="0.561">
        <ele>619.407</ele>
        <time>2020-02-08T15:13:36Z</time>
      </trkpt>
      <trkpt lat="42.98705" lon="0.56103">
        <ele>619.084</ele>
        <time>2020-02-08T15:13:35Z</time>
      </trkpt>
      <trkpt lat="42.98705" lon="0.56107">
        <ele>618.596</ele>
        <time>2020-02-08T15:13:34Z</time>
      </trkpt>
      <trkpt lat="42.98707" lon="0.56124">
        <ele>618.253</ele>
        <time>2020-02-08T15:13:30Z</time>
      </trkpt>
      <trkpt lat="42.98713" lon="0.5615">
        <ele>618.235</ele>
        <time>2020-02-08T15:13:23Z</time>
      </trkpt>
      <trkpt lat="42.98714" lon="0.56155">
        <ele>617.78</ele>
        <time>2020-02-08T15:13:22Z</time>
      </trkpt>
      <trkpt lat="42.98715" lon="0.56159">
        <ele>617.28</ele>
        <time>2020-02-08T15:13:21Z</time>
      </trkpt>
      <trkpt lat="42.98717" lon="0.56164">
        <ele>616.792</ele>
        <time>2020-02-08T15:13:20Z</time>
      </trkpt>
      <trkpt lat="42.98718" lon="0.56168">
        <ele>616.468</ele>
        <time>2020-02-08T15:13:19Z</time>
      </trkpt>
      <trkpt lat="42.98726" lon="0.56205">
        <ele>616.031</ele>
        <time>2020-02-08T15:13:11Z</time>
      </trkpt>
      <trkpt lat="42.98728" lon="0.56244">
        <ele>616.072</ele>
        <time>2020-02-08T15:13:02Z</time>
      </trkpt>
      <trkpt lat="42.98725" lon="0.56281">
        <ele>616.009</ele>
        <time>2020-02-08T15:12:52Z</time>
      </trkpt>
      <trkpt lat="42.98724" lon="0.56291">
        <ele>616.009</ele>
        <time>2020-02-08T15:12:48Z</time>
      </trkpt>
      <trkpt lat="42.98724" lon="0.56294">
        <ele>615.554</ele>
        <time>2020-02-08T15:12:47Z</time>
      </trkpt>
      <trkpt lat="42.98724" lon="0.56296">
        <ele>615.214</ele>
        <time>2020-02-08T15:12:46Z</time>
      </trkpt>
      <trkpt lat="42.98723" lon="0.56296">
        <ele>614.774</ele>
        <time>2020-02-08T15:12:45Z</time>
      </trkpt>
      <trkpt lat="42.98723" lon="0.56298">
        <ele>614.411</ele>
        <time>2020-02-08T15:12:44Z</time>
      </trkpt>
      <trkpt lat="42.98721" lon="0.56302">
        <ele>614.023</ele>
        <time>2020-02-08T15:08:00Z</time>
      </trkpt>
      <trkpt lat="42.98722" lon="0.56303">
        <ele>614.058</ele>
        <time>2020-02-08T15:07:58Z</time>
      </trkpt>
      <trkpt lat="42.98716" lon="0.56315">
        <ele>614.018</ele>
        <time>2020-02-08T15:07:52Z</time>
      </trkpt>
      <trkpt lat="42.98704" lon="0.5631">
        <ele>614.09</ele>
        <time>2020-02-08T15:07:46Z</time>
      </trkpt>
      <trkpt lat="42.98702" lon="0.56309">
        <ele>614.456</ele>
        <time>2020-02-08T15:07:45Z</time>
      </trkpt>
      <trkpt lat="42.98699" lon="0.56309">
        <ele>614.789</ele>
        <time>2020-02-08T15:07:44Z</time>
      </trkpt>
      <trkpt lat="42.98695" lon="0.56309">
        <ele>615.44</ele>
        <time>2020-02-08T15:07:43Z</time>
      </trkpt>
      <trkpt lat="42.9869" lon="0.56309">
        <ele>615.709</ele>
        <time>2020-02-08T15:07:42Z</time>
      </trkpt>
      <trkpt lat="42.98679" lon="0.56312">
        <ele>616.219</ele>
        <time>2020-02-08T15:07:40Z</time>
      </trkpt>
      <trkpt lat="42.98674" lon="0.56314">
        <ele>616.781</ele>
        <time>2020-02-08T15:07:39Z</time>
      </trkpt>
      <trkpt lat="42.98668" lon="0.56314">
        <ele>617.291</ele>
        <time>2020-02-08T15:07:38Z</time>
      </trkpt>
      <trkpt lat="42.98664" lon="0.56314">
        <ele>617.578</ele>
        <time>2020-02-08T15:07:37Z</time>
      </trkpt>
      <trkpt lat="42.9866" lon="0.56313">
        <ele>618.075</ele>
        <time>2020-02-08T15:07:36Z</time>
      </trkpt>
      <trkpt lat="42.98638" lon="0.56306">
        <ele>618.447</ele>
        <time>2020-02-08T15:07:31Z</time>
      </trkpt>
      <trkpt lat="42.98624" lon="0.56303">
        <ele>618.412</ele>
        <time>2020-02-08T15:07:28Z</time>
      </trkpt>
      <trkpt lat="42.98618" lon="0.56302">
        <ele>618.782</ele>
        <time>2020-02-08T15:07:27Z</time>
      </trkpt>
      <trkpt lat="42.98612" lon="0.563">
        <ele>619.234</ele>
        <time>2020-02-08T15:07:26Z</time>
      </trkpt>
      <trkpt lat="42.98606" lon="0.56298">
        <ele>619.76</ele>
        <time>2020-02-08T15:07:25Z</time>
      </trkpt>
      <trkpt lat="42.986" lon="0.56296">
        <ele>620.293</ele>
        <time>2020-02-08T15:07:24Z</time>
      </trkpt>
      <trkpt lat="42.98593" lon="0.56295">
        <ele>620.594</ele>
        <time>2020-02-08T15:07:23Z</time>
      </trkpt>
      <trkpt lat="42.98587" lon="0.56295">
        <ele>620.509</ele>
        <time>2020-02-08T15:07:22Z</time>
      </trkpt>
      <trkpt lat="42.9858" lon="0.56297">
        <ele>621.217</ele>
        <time>2020-02-08T15:07:21Z</time>
      </trkpt>
      <trkpt lat="42.98574" lon="0.56299">
        <ele>621.77</ele>
        <time>2020-02-08T15:07:20Z</time>
      </trkpt>
      <trkpt lat="42.98567" lon="0.56302">
        <ele>622.438</ele>
        <time>2020-02-08T15:07:19Z</time>
      </trkpt>
      <trkpt lat="42.98561" lon="0.56304">
        <ele>623.073</ele>
        <time>2020-02-08T15:07:18Z</time>
      </trkpt>
      <trkpt lat="42.98555" lon="0.56307">
        <ele>623.54</ele>
        <time>2020-02-08T15:07:17Z</time>
      </trkpt>
      <trkpt lat="42.98548" lon="0.56308">
        <ele>624.062</ele>
        <time>2020-02-08T15:07:16Z</time>
      </trkpt>
      <trkpt lat="42.98541" lon="0.56308">
        <ele>624.447</ele>
        <time>2020-02-08T15:07:15Z</time>
      </trkpt>
      <trkpt lat="42.98534" lon="0.56308">
        <ele>625.087</ele>
        <time>2020-02-08T15:07:14Z</time>
      </trkpt>
      <trkpt lat="42.98527" lon="0.56308">
        <ele>625.419</ele>
        <time>2020-02-08T15:07:13Z</time>
      </trkpt>
      <trkpt lat="42.98521" lon="0.56307">
        <ele>625.765</ele>
        <time>2020-02-08T15:07:12Z</time>
      </trkpt>
      <trkpt lat="42.98515" lon="0.56305">
        <ele>626.458</ele>
        <time>2020-02-08T15:07:11Z</time>
      </trkpt>
      <trkpt lat="42.9851" lon="0.56303">
        <ele>626.769</ele>
        <time>2020-02-08T15:07:10Z</time>
      </trkpt>
      <trkpt lat="42.98505" lon="0.56301">
        <ele>627.209</ele>
        <time>2020-02-08T15:07:09Z</time>
      </trkpt>
      <trkpt lat="42.98499" lon="0.56299">
        <ele>627.526</ele>
        <time>2020-02-08T15:07:08Z</time>
      </trkpt>
      <trkpt lat="42.98489" lon="0.56297">
        <ele>627.506</ele>
        <time>2020-02-08T15:07:06Z</time>
      </trkpt>
      <trkpt lat="42.98478" lon="0.56299">
        <ele>627.589</ele>
        <time>2020-02-08T15:07:04Z</time>
      </trkpt>
      <trkpt lat="42.98473" lon="0.56301">
        <ele>628.08</ele>
        <time>2020-02-08T15:07:03Z</time>
      </trkpt>
      <trkpt lat="42.98468" lon="0.56303">
        <ele>628.417</ele>
        <time>2020-02-08T15:07:02Z</time>
      </trkpt>
      <trkpt lat="42.98464" lon="0.56308">
        <ele>628.759</ele>
        <time>2020-02-08T15:07:01Z</time>
      </trkpt>
      <trkpt lat="42.9846" lon="0.56313">
        <ele>629.474</ele>
        <time>2020-02-08T15:07:00Z</time>
      </trkpt>
      <trkpt lat="42.98455" lon="0.56318">
        <ele>629.724</ele>
        <time>2020-02-08T15:06:59Z</time>
      </trkpt>
      <trkpt lat="42.98446" lon="0.56325">
        <ele>629.756</ele>
        <time>2020-02-08T15:06:57Z</time>
      </trkpt>
      <trkpt lat="42.98422" lon="0.56339">
        <ele>629.782</ele>
        <time>2020-02-08T15:06:51Z</time>
      </trkpt>
      <trkpt lat="42.98414" lon="0.56346">
        <ele>629.725</ele>
        <time>2020-02-08T15:06:49Z</time>
      </trkpt>
      <trkpt lat="42.98406" lon="0.56352">
        <ele>629.726</ele>
        <time>2020-02-08T15:06:47Z</time>
      </trkpt>
      <trkpt lat="42.98398" lon="0.56357">
        <ele>629.709</ele>
        <time>2020-02-08T15:06:45Z</time>
      </trkpt>
      <trkpt lat="42.98394" lon="0.56358">
        <ele>630.214</ele>
        <time>2020-02-08T15:06:44Z</time>
      </trkpt>
      <trkpt lat="42.9839" lon="0.5636">
        <ele>630.504</ele>
        <time>2020-02-08T15:06:43Z</time>
      </trkpt>
      <trkpt lat="42.98386" lon="0.56361">
        <ele>631.053</ele>
        <time>2020-02-08T15:06:42Z</time>
      </trkpt>
      <trkpt lat="42.98381" lon="0.56363">
        <ele>631.426</ele>
        <time>2020-02-08T15:06:41Z</time>
      </trkpt>
      <trkpt lat="42.98368" lon="0.56369">
        <ele>631.753</ele>
        <time>2020-02-08T15:06:38Z</time>
      </trkpt>
      <trkpt lat="42.98361" lon="0.56373">
        <ele>631.775</ele>
        <time>2020-02-08T15:06:36Z</time>
      </trkpt>
      <trkpt lat="42.9835" lon="0.56383">
        <ele>631.79</ele>
        <time>2020-02-08T15:06:33Z</time>
      </trkpt>
      <trkpt lat="42.9833" lon="0.56398">
        <ele>631.75</ele>
        <time>2020-02-08T15:06:28Z</time>
      </trkpt>
      <trkpt lat="42.98326" lon="0.564">
        <ele>631.772</ele>
        <time>2020-02-08T15:06:27Z</time>
      </trkpt>
      <trkpt lat="42.98323" lon="0.56404">
        <ele>630.428</ele>
        <time>2020-02-08T15:03:51Z</time>
      </trkpt>
      <trkpt lat="42.98322" lon="0.56404">
        <ele>630.031</ele>
        <time>2020-02-08T15:03:50Z</time>
      </trkpt>
      <trkpt lat="42.98321" lon="0.56404">
        <ele>629.462</ele>
        <time>2020-02-08T15:03:49Z</time>
      </trkpt>
      <trkpt lat="42.98317" lon="0.56403">
        <ele>629.409</ele>
        <time>2020-02-08T15:03:47Z</time>
      </trkpt>
      <trkpt lat="42.9831" lon="0.56404">
        <ele>629.409</ele>
        <time>2020-02-08T15:03:44Z</time>
      </trkpt>
      <trkpt lat="42.98304" lon="0.56406">
        <ele>629.454</ele>
        <time>2020-02-08T15:03:42Z</time>
      </trkpt>
      <trkpt lat="42.98297" lon="0.56413">
        <ele>629.414</ele>
        <time>2020-02-08T15:03:39Z</time>
      </trkpt>
      <trkpt lat="42.98295" lon="0.56416">
        <ele>629.488</ele>
        <time>2020-02-08T15:03:38Z</time>
      </trkpt>
      <trkpt lat="42.98286" lon="0.56424">
        <ele>629.475</ele>
        <time>2020-02-08T15:03:35Z</time>
      </trkpt>
      <trkpt lat="42.98282" lon="0.56424">
        <ele>630.047</ele>
        <time>2020-02-08T15:03:34Z</time>
      </trkpt>
      <trkpt lat="42.98276" lon="0.56423">
        <ele>630.512</ele>
        <time>2020-02-08T15:03:33Z</time>
      </trkpt>
      <trkpt lat="42.9827" lon="0.56419">
        <ele>631.252</ele>
        <time>2020-02-08T15:03:32Z</time>
      </trkpt>
      <trkpt lat="42.98265" lon="0.56415">
        <ele>631.754</ele>
        <time>2020-02-08T15:03:31Z</time>
      </trkpt>
      <trkpt lat="42.98258" lon="0.56411">
        <ele>632.43</ele>
        <time>2020-02-08T15:03:30Z</time>
      </trkpt>
      <trkpt lat="42.98249" lon="0.56408">
        <ele>633.073</ele>
        <time>2020-02-08T15:03:29Z</time>
      </trkpt>
      <trkpt lat="42.98245" lon="0.56401">
        <ele>633.454</ele>
        <time>2020-02-08T15:03:28Z</time>
      </trkpt>
      <trkpt lat="42.98246" lon="0.56383">
        <ele>633.709</ele>
        <time>2020-02-08T15:03:25Z</time>
      </trkpt>
      <trkpt lat="42.98249" lon="0.56376">
        <ele>634.207</ele>
        <time>2020-02-08T15:03:24Z</time>
      </trkpt>
      <trkpt lat="42.98252" lon="0.5637">
        <ele>634.561</ele>
        <time>2020-02-08T15:03:23Z</time>
      </trkpt>
      <trkpt lat="42.98256" lon="0.56365">
        <ele>635.031</ele>
        <time>2020-02-08T15:03:22Z</time>
      </trkpt>
      <trkpt lat="42.98257" lon="0.56358">
        <ele>635.454</ele>
        <time>2020-02-08T15:03:21Z</time>
      </trkpt>
      <trkpt lat="42.9826" lon="0.56336">
        <ele>635.791</ele>
        <time>2020-02-08T15:03:18Z</time>
      </trkpt>
      <trkpt lat="42.98259" lon="0.56329">
        <ele>636.433</ele>
        <time>2020-02-08T15:03:17Z</time>
      </trkpt>
      <trkpt lat="42.9826" lon="0.5632">
        <ele>636.718</ele>
        <time>2020-02-08T15:03:16Z</time>
      </trkpt>
      <trkpt lat="42.9826" lon="0.56313">
        <ele>637.498</ele>
        <time>2020-02-08T15:03:15Z</time>
      </trkpt>
      <trkpt lat="42.98261" lon="0.56304">
        <ele>637.73</ele>
        <time>2020-02-08T15:03:14Z</time>
      </trkpt>
      <trkpt lat="42.98259" lon="0.56289">
        <ele>638.456</ele>
        <time>2020-02-08T15:03:12Z</time>
      </trkpt>
      <trkpt lat="42.98259" lon="0.56279">
        <ele>639.099</ele>
        <time>2020-02-08T15:03:11Z</time>
      </trkpt>
      <trkpt lat="42.98259" lon="0.56273">
        <ele>639.53</ele>
        <time>2020-02-08T15:03:10Z</time>
      </trkpt>
      <trkpt lat="42.9826" lon="0.56267">
        <ele>640.409</ele>
        <time>2020-02-08T15:03:09Z</time>
      </trkpt>
      <trkpt lat="42.98259" lon="0.56261">
        <ele>641.025</ele>
        <time>2020-02-08T15:03:08Z</time>
      </trkpt>
      <trkpt lat="42.98259" lon="0.56256">
        <ele>641.523</ele>
        <time>2020-02-08T15:03:07Z</time>
      </trkpt>
      <trkpt lat="42.98258" lon="0.56252">
        <ele>642.497</ele>
        <time>2020-02-08T15:03:06Z</time>
      </trkpt>
      <trkpt lat="42.98255" lon="0.56249">
        <ele>643.453</ele>
        <time>2020-02-08T15:03:05Z</time>
      </trkpt>
      <trkpt lat="42.98254" lon="0.56246">
        <ele>644.24</ele>
        <time>2020-02-08T15:03:04Z</time>
      </trkpt>
      <trkpt lat="42.98252" lon="0.56241">
        <ele>645.092</ele>
        <time>2020-02-08T15:03:03Z</time>
      </trkpt>
      <trkpt lat="42.9825" lon="0.56237">
        <ele>645.717</ele>
        <time>2020-02-08T15:03:02Z</time>
      </trkpt>
      <trkpt lat="42.98249" lon="0.56234">
        <ele>646.597</ele>
        <time>2020-02-08T15:03:01Z</time>
      </trkpt>
      <trkpt lat="42.98248" lon="0.56231">
        <ele>647.559</ele>
        <time>2020-02-08T15:03:00Z</time>
      </trkpt>
      <trkpt lat="42.98247" lon="0.56226">
        <ele>648.435</ele>
        <time>2020-02-08T15:02:59Z</time>
      </trkpt>
      <trkpt lat="42.98247" lon="0.56221">
        <ele>649.058</ele>
        <time>2020-02-08T15:02:58Z</time>
      </trkpt>
      <trkpt lat="42.98247" lon="0.56215">
        <ele>649.519</ele>
        <time>2020-02-08T15:02:57Z</time>
      </trkpt>
      <trkpt lat="42.98247" lon="0.56207">
        <ele>650.009</ele>
        <time>2020-02-08T15:02:56Z</time>
      </trkpt>
      <trkpt lat="42.9825" lon="0.56191">
        <ele>650.526</ele>
        <time>2020-02-08T15:02:54Z</time>
      </trkpt>
      <trkpt lat="42.98258" lon="0.56176">
        <ele>650.524</ele>
        <time>2020-02-08T15:02:50Z</time>
      </trkpt>
      <trkpt lat="42.98262" lon="0.5617">
        <ele>650.588</ele>
        <time>2020-02-08T15:02:49Z</time>
      </trkpt>
      <trkpt lat="42.98266" lon="0.56164">
        <ele>651.253</ele>
        <time>2020-02-08T15:02:48Z</time>
      </trkpt>
      <trkpt lat="42.98268" lon="0.56158">
        <ele>652.06</ele>
        <time>2020-02-08T15:02:47Z</time>
      </trkpt>
      <trkpt lat="42.98268" lon="0.56151">
        <ele>652.762</ele>
        <time>2020-02-08T15:02:46Z</time>
      </trkpt>
      <trkpt lat="42.98269" lon="0.5614">
        <ele>653.447</ele>
        <time>2020-02-08T15:02:45Z</time>
      </trkpt>
      <trkpt lat="42.9827" lon="0.56134">
        <ele>654.237</ele>
        <time>2020-02-08T15:02:44Z</time>
      </trkpt>
      <trkpt lat="42.98267" lon="0.56124">
        <ele>654.799</ele>
        <time>2020-02-08T15:02:43Z</time>
      </trkpt>
      <trkpt lat="42.98269" lon="0.56111">
        <ele>655.495</ele>
        <time>2020-02-08T15:02:41Z</time>
      </trkpt>
      <trkpt lat="42.9827" lon="0.56103">
        <ele>655.428</ele>
        <time>2020-02-08T15:02:40Z</time>
      </trkpt>
      <trkpt lat="42.98273" lon="0.561">
        <ele>655.769</ele>
        <time>2020-02-08T15:02:39Z</time>
      </trkpt>
      <trkpt lat="42.98274" lon="0.56099">
        <ele>656.209</ele>
        <time>2020-02-08T15:02:38Z</time>
      </trkpt>
      <trkpt lat="42.98275" lon="0.56097">
        <ele>656.726</ele>
        <time>2020-02-08T15:02:37Z</time>
      </trkpt>
      <trkpt lat="42.98277" lon="0.56094">
        <ele>657.242</ele>
        <time>2020-02-08T15:02:36Z</time>
      </trkpt>
      <trkpt lat="42.98281" lon="0.56087">
        <ele>657.587</ele>
        <time>2020-02-08T15:02:34Z</time>
      </trkpt>
      <trkpt lat="42.98283" lon="0.56083">
        <ele>658.513</ele>
        <time>2020-02-08T15:02:33Z</time>
      </trkpt>
      <trkpt lat="42.98285" lon="0.56078">
        <ele>659.53</ele>
        <time>2020-02-08T15:02:32Z</time>
      </trkpt>
      <trkpt lat="42.98286" lon="0.56077">
        <ele>660.442</ele>
        <time>2020-02-08T15:02:31Z</time>
      </trkpt>
      <trkpt lat="42.98288" lon="0.56074">
        <ele>661.487</ele>
        <time>2020-02-08T15:02:30Z</time>
      </trkpt>
      <trkpt lat="42.98289" lon="0.5607">
        <ele>662.437</ele>
        <time>2020-02-08T15:02:29Z</time>
      </trkpt>
      <trkpt lat="42.98291" lon="0.56064">
        <ele>663.489</ele>
        <time>2020-02-08T15:02:28Z</time>
      </trkpt>
      <trkpt lat="42.98293" lon="0.56058">
        <ele>664.445</ele>
        <time>2020-02-08T15:02:27Z</time>
      </trkpt>
      <trkpt lat="42.98293" lon="0.5605">
        <ele>665.548</ele>
        <time>2020-02-08T15:02:26Z</time>
      </trkpt>
      <trkpt lat="42.98294" lon="0.56044">
        <ele>666.539</ele>
        <time>2020-02-08T15:02:25Z</time>
      </trkpt>
      <trkpt lat="42.98294" lon="0.56035">
        <ele>667.509</ele>
        <time>2020-02-08T15:02:24Z</time>
      </trkpt>
      <trkpt lat="42.98295" lon="0.56029">
        <ele>668.517</ele>
        <time>2020-02-08T15:02:23Z</time>
      </trkpt>
      <trkpt lat="42.98296" lon="0.56022">
        <ele>669.543</ele>
        <time>2020-02-08T15:02:22Z</time>
      </trkpt>
      <trkpt lat="42.98298" lon="0.56015">
        <ele>670.482</ele>
        <time>2020-02-08T15:02:21Z</time>
      </trkpt>
      <trkpt lat="42.98298" lon="0.56008">
        <ele>671.229</ele>
        <time>2020-02-08T15:02:20Z</time>
      </trkpt>
      <trkpt lat="42.983" lon="0.56001">
        <ele>672.086</ele>
        <time>2020-02-08T15:02:19Z</time>
      </trkpt>
      <trkpt lat="42.98301" lon="0.55994">
        <ele>672.738</ele>
        <time>2020-02-08T15:02:18Z</time>
      </trkpt>
      <trkpt lat="42.98302" lon="0.55988">
        <ele>673.523</ele>
        <time>2020-02-08T15:02:17Z</time>
      </trkpt>
      <trkpt lat="42.98302" lon="0.55982">
        <ele>674.013</ele>
        <time>2020-02-08T15:02:16Z</time>
      </trkpt>
      <trkpt lat="42.98303" lon="0.55978">
        <ele>674.575</ele>
        <time>2020-02-08T15:02:15Z</time>
      </trkpt>
      <trkpt lat="42.98304" lon="0.55973">
        <ele>675.271</ele>
        <time>2020-02-08T15:02:14Z</time>
      </trkpt>
      <trkpt lat="42.98306" lon="0.55966">
        <ele>675.764</ele>
        <time>2020-02-08T15:02:13Z</time>
      </trkpt>
      <trkpt lat="42.98311" lon="0.55961">
        <ele>677.765</ele>
        <time>2020-02-08T15:02:10Z</time>
      </trkpt>
      <trkpt lat="42.98313" lon="0.5596">
        <ele>678.509</ele>
        <time>2020-02-08T15:02:09Z</time>
      </trkpt>
      <trkpt lat="42.98315" lon="0.55959">
        <ele>679.51</ele>
        <time>2020-02-08T15:02:08Z</time>
      </trkpt>
      <trkpt lat="42.98316" lon="0.55957">
        <ele>680.564</ele>
        <time>2020-02-08T15:02:07Z</time>
      </trkpt>
      <trkpt lat="42.98318" lon="0.55953">
        <ele>681.543</ele>
        <time>2020-02-08T15:02:06Z</time>
      </trkpt>
      <trkpt lat="42.98319" lon="0.5595">
        <ele>682.718</ele>
        <time>2020-02-08T15:02:05Z</time>
      </trkpt>
      <trkpt lat="42.9832" lon="0.55947">
        <ele>683.735</ele>
        <time>2020-02-08T15:02:04Z</time>
      </trkpt>
      <trkpt lat="42.9832" lon="0.55942">
        <ele>685.057</ele>
        <time>2020-02-08T15:02:03Z</time>
      </trkpt>
      <trkpt lat="42.98323" lon="0.55937">
        <ele>686.072</ele>
        <time>2020-02-08T15:02:02Z</time>
      </trkpt>
      <trkpt lat="42.98324" lon="0.55932">
        <ele>687.032</ele>
        <time>2020-02-08T15:02:01Z</time>
      </trkpt>
      <trkpt lat="42.98325" lon="0.55928">
        <ele>687.574</ele>
        <time>2020-02-08T15:02:00Z</time>
      </trkpt>
      <trkpt lat="42.98325" lon="0.55922">
        <ele>688.43</ele>
        <time>2020-02-08T15:01:59Z</time>
      </trkpt>
      <trkpt lat="42.98325" lon="0.55916">
        <ele>689.053</ele>
        <time>2020-02-08T15:01:58Z</time>
      </trkpt>
      <trkpt lat="42.98323" lon="0.55912">
        <ele>689.774</ele>
        <time>2020-02-08T15:01:57Z</time>
      </trkpt>
      <trkpt lat="42.98322" lon="0.55909">
        <ele>690.409</ele>
        <time>2020-02-08T15:01:56Z</time>
      </trkpt>
      <trkpt lat="42.98322" lon="0.55907">
        <ele>691.015</ele>
        <time>2020-02-08T15:01:55Z</time>
      </trkpt>
      <trkpt lat="42.98321" lon="0.55905">
        <ele>691.523</ele>
        <time>2020-02-08T15:01:54Z</time>
      </trkpt>
      <trkpt lat="42.9832" lon="0.55903">
        <ele>692.233</ele>
        <time>2020-02-08T15:01:53Z</time>
      </trkpt>
      <trkpt lat="42.98319" lon="0.55902">
        <ele>692.797</ele>
        <time>2020-02-08T15:01:52Z</time>
      </trkpt>
      <trkpt lat="42.98316" lon="0.55899">
        <ele>693.454</ele>
        <time>2020-02-08T15:01:51Z</time>
      </trkpt>
      <trkpt lat="42.98314" lon="0.559">
        <ele>694.086</ele>
        <time>2020-02-08T15:01:50Z</time>
      </trkpt>
      <trkpt lat="42.98312" lon="0.55904">
        <ele>694.591</ele>
        <time>2020-02-08T15:01:49Z</time>
      </trkpt>
      <trkpt lat="42.9831" lon="0.55907">
        <ele>695.291</ele>
        <time>2020-02-08T15:01:48Z</time>
      </trkpt>
      <trkpt lat="42.98308" lon="0.55911">
        <ele>695.783</ele>
        <time>2020-02-08T15:01:47Z</time>
      </trkpt>
      <trkpt lat="42.98306" lon="0.55915">
        <ele>696.429</ele>
        <time>2020-02-08T15:01:46Z</time>
      </trkpt>
      <trkpt lat="42.98304" lon="0.55919">
        <ele>697.072</ele>
        <time>2020-02-08T15:01:45Z</time>
      </trkpt>
      <trkpt lat="42.983" lon="0.55924">
        <ele>697.563</ele>
        <time>2020-02-08T15:01:44Z</time>
      </trkpt>
      <trkpt lat="42.98296" lon="0.55928">
        <ele>698.209</ele>
        <time>2020-02-08T15:01:43Z</time>
      </trkpt>
      <trkpt lat="42.98292" lon="0.55933">
        <ele>698.708</ele>
        <time>2020-02-08T15:01:42Z</time>
      </trkpt>
      <trkpt lat="42.98288" lon="0.55937">
        <ele>699.426</ele>
        <time>2020-02-08T15:01:41Z</time>
      </trkpt>
      <trkpt lat="42.98284" lon="0.55941">
        <ele>700.025</ele>
        <time>2020-02-08T15:01:40Z</time>
      </trkpt>
      <trkpt lat="42.9828" lon="0.55945">
        <ele>700.517</ele>
        <time>2020-02-08T15:01:39Z</time>
      </trkpt>
      <trkpt lat="42.98275" lon="0.55952">
        <ele>701.244</ele>
        <time>2020-02-08T15:01:38Z</time>
      </trkpt>
      <trkpt lat="42.98271" lon="0.55956">
        <ele>701.776</ele>
        <time>2020-02-08T15:01:37Z</time>
      </trkpt>
      <trkpt lat="42.98268" lon="0.55959">
        <ele>702.241</ele>
        <time>2020-02-08T15:01:36Z</time>
      </trkpt>
      <trkpt lat="42.98265" lon="0.55962">
        <ele>702.541</ele>
        <time>2020-02-08T15:01:35Z</time>
      </trkpt>
      <trkpt lat="42.98263" lon="0.55967">
        <ele>703.093</ele>
        <time>2020-02-08T15:01:34Z</time>
      </trkpt>
      <trkpt lat="42.98257" lon="0.55975">
        <ele>703.579</ele>
        <time>2020-02-08T15:01:32Z</time>
      </trkpt>
      <trkpt lat="42.98255" lon="0.55981">
        <ele>703.552</ele>
        <time>2020-02-08T15:01:31Z</time>
      </trkpt>
      <trkpt lat="42.98253" lon="0.55986">
        <ele>704.073</ele>
        <time>2020-02-08T15:01:30Z</time>
      </trkpt>
      <trkpt lat="42.9825" lon="0.55991">
        <ele>704.409</ele>
        <time>2020-02-08T15:01:29Z</time>
      </trkpt>
      <trkpt lat="42.98248" lon="0.55996">
        <ele>705.008</ele>
        <time>2020-02-08T15:01:28Z</time>
      </trkpt>
      <trkpt lat="42.98245" lon="0.56">
        <ele>705.462</ele>
        <time>2020-02-08T15:01:27Z</time>
      </trkpt>
      <trkpt lat="42.98242" lon="0.56005">
        <ele>705.722</ele>
        <time>2020-02-08T15:01:26Z</time>
      </trkpt>
      <trkpt lat="42.98239" lon="0.56008">
        <ele>706.273</ele>
        <time>2020-02-08T15:01:25Z</time>
      </trkpt>
      <trkpt lat="42.98236" lon="0.56013">
        <ele>706.56</ele>
        <time>2020-02-08T15:01:24Z</time>
      </trkpt>
      <trkpt lat="42.98234" lon="0.56015">
        <ele>707.282</ele>
        <time>2020-02-08T15:01:23Z</time>
      </trkpt>
      <trkpt lat="42.98231" lon="0.56018">
        <ele>707.547</ele>
        <time>2020-02-08T15:01:22Z</time>
      </trkpt>
      <trkpt lat="42.98229" lon="0.56021">
        <ele>708.057</ele>
        <time>2020-02-08T15:01:21Z</time>
      </trkpt>
      <trkpt lat="42.98227" lon="0.56022">
        <ele>708.489</ele>
        <time>2020-02-08T15:01:20Z</time>
      </trkpt>
      <trkpt lat="42.98224" lon="0.56025">
        <ele>709.015</ele>
        <time>2020-02-08T15:01:19Z</time>
      </trkpt>
      <trkpt lat="42.98222" lon="0.56027">
        <ele>709.468</ele>
        <time>2020-02-08T15:01:18Z</time>
      </trkpt>
      <trkpt lat="42.98219" lon="0.5603">
        <ele>710.099</ele>
        <time>2020-02-08T15:01:17Z</time>
      </trkpt>
      <trkpt lat="42.98214" lon="0.56035">
        <ele>711.509</ele>
        <time>2020-02-08T15:01:11Z</time>
      </trkpt>
      <trkpt lat="42.98215" lon="0.56035">
        <ele>712.017</ele>
        <time>2020-02-08T15:01:10Z</time>
      </trkpt>
      <trkpt lat="42.98214" lon="0.56036">
        <ele>712.443</ele>
        <time>2020-02-08T15:01:09Z</time>
      </trkpt>
      <trkpt lat="42.98213" lon="0.5604">
        <ele>713.082</ele>
        <time>2020-02-08T15:01:08Z</time>
      </trkpt>
      <trkpt lat="42.98209" lon="0.56045">
        <ele>713.53</ele>
        <time>2020-02-08T15:01:07Z</time>
      </trkpt>
      <trkpt lat="42.98206" lon="0.56049">
        <ele>714.277</ele>
        <time>2020-02-08T15:01:06Z</time>
      </trkpt>
      <trkpt lat="42.98202" lon="0.56053">
        <ele>714.789</ele>
        <time>2020-02-08T15:01:05Z</time>
      </trkpt>
      <trkpt lat="42.98197" lon="0.56057">
        <ele>715.474</ele>
        <time>2020-02-08T15:01:04Z</time>
      </trkpt>
      <trkpt lat="42.98193" lon="0.56062">
        <ele>716.044</ele>
        <time>2020-02-08T15:01:03Z</time>
      </trkpt>
      <trkpt lat="42.98189" lon="0.56067">
        <ele>716.796</ele>
        <time>2020-02-08T15:01:02Z</time>
      </trkpt>
      <trkpt lat="42.98184" lon="0.56071">
        <ele>717.442</ele>
        <time>2020-02-08T15:01:01Z</time>
      </trkpt>
      <trkpt lat="42.9818" lon="0.56077">
        <ele>718.095</ele>
        <time>2020-02-08T15:01:00Z</time>
      </trkpt>
      <trkpt lat="42.98177" lon="0.56082">
        <ele>719.016</ele>
        <time>2020-02-08T15:00:59Z</time>
      </trkpt>
      <trkpt lat="42.98173" lon="0.56087">
        <ele>720.009</ele>
        <time>2020-02-08T15:00:58Z</time>
      </trkpt>
      <trkpt lat="42.9817" lon="0.56089">
        <ele>721.02</ele>
        <time>2020-02-08T15:00:57Z</time>
      </trkpt>
      <trkpt lat="42.98167" lon="0.56092">
        <ele>722</ele>
        <time>2020-02-08T15:00:56Z</time>
      </trkpt>
      <trkpt lat="42.98163" lon="0.56096">
        <ele>723.057</ele>
        <time>2020-02-08T15:00:55Z</time>
      </trkpt>
      <trkpt lat="42.9816" lon="0.561">
        <ele>724.282</ele>
        <time>2020-02-08T15:00:54Z</time>
      </trkpt>
      <trkpt lat="42.98155" lon="0.56104">
        <ele>725.219</ele>
        <time>2020-02-08T15:00:53Z</time>
      </trkpt>
      <trkpt lat="42.9815" lon="0.56108">
        <ele>726.231</ele>
        <time>2020-02-08T15:00:52Z</time>
      </trkpt>
      <trkpt lat="42.98146" lon="0.56112">
        <ele>727.256</ele>
        <time>2020-02-08T15:00:51Z</time>
      </trkpt>
      <trkpt lat="42.98144" lon="0.56114">
        <ele>728.416</ele>
        <time>2020-02-08T15:00:50Z</time>
      </trkpt>
      <trkpt lat="42.9814" lon="0.56117">
        <ele>729.538</ele>
        <time>2020-02-08T15:00:49Z</time>
      </trkpt>
      <trkpt lat="42.98137" lon="0.5612">
        <ele>730.764</ele>
        <time>2020-02-08T15:00:48Z</time>
      </trkpt>
      <trkpt lat="42.98133" lon="0.56123">
        <ele>732.267</ele>
        <time>2020-02-08T15:00:47Z</time>
      </trkpt>
      <trkpt lat="42.98128" lon="0.56128">
        <ele>733.528</ele>
        <time>2020-02-08T15:00:46Z</time>
      </trkpt>
      <trkpt lat="42.98123" lon="0.56132">
        <ele>735.009</ele>
        <time>2020-02-08T15:00:45Z</time>
      </trkpt>
      <trkpt lat="42.98119" lon="0.56137">
        <ele>736.413</ele>
        <time>2020-02-08T15:00:44Z</time>
      </trkpt>
      <trkpt lat="42.98115" lon="0.5614">
        <ele>737.785</ele>
        <time>2020-02-08T15:00:43Z</time>
      </trkpt>
      <trkpt lat="42.98111" lon="0.56145">
        <ele>739.273</ele>
        <time>2020-02-08T15:00:42Z</time>
      </trkpt>
      <trkpt lat="42.98106" lon="0.5615">
        <ele>740.561</ele>
        <time>2020-02-08T15:00:41Z</time>
      </trkpt>
      <trkpt lat="42.98102" lon="0.56154">
        <ele>741.738</ele>
        <time>2020-02-08T15:00:40Z</time>
      </trkpt>
      <trkpt lat="42.98098" lon="0.56159">
        <ele>743.26</ele>
        <time>2020-02-08T15:00:39Z</time>
      </trkpt>
      <trkpt lat="42.98094" lon="0.56163">
        <ele>744.425</ele>
        <time>2020-02-08T15:00:38Z</time>
      </trkpt>
      <trkpt lat="42.9809" lon="0.56167">
        <ele>745.545</ele>
        <time>2020-02-08T15:00:37Z</time>
      </trkpt>
      <trkpt lat="42.98084" lon="0.56171">
        <ele>746.777</ele>
        <time>2020-02-08T15:00:36Z</time>
      </trkpt>
      <trkpt lat="42.9808" lon="0.56173">
        <ele>748.013</ele>
        <time>2020-02-08T15:00:35Z</time>
      </trkpt>
      <trkpt lat="42.98077" lon="0.56176">
        <ele>749.226</ele>
        <time>2020-02-08T15:00:34Z</time>
      </trkpt>
      <trkpt lat="42.98074" lon="0.56179">
        <ele>750.497</ele>
        <time>2020-02-08T15:00:33Z</time>
      </trkpt>
      <trkpt lat="42.9807" lon="0.56182">
        <ele>751.509</ele>
        <time>2020-02-08T15:00:32Z</time>
      </trkpt>
      <trkpt lat="42.98065" lon="0.56187">
        <ele>752.714</ele>
        <time>2020-02-08T15:00:31Z</time>
      </trkpt>
      <trkpt lat="42.98059" lon="0.56191">
        <ele>754.068</ele>
        <time>2020-02-08T15:00:30Z</time>
      </trkpt>
      <trkpt lat="42.98057" lon="0.56196">
        <ele>755.465</ele>
        <time>2020-02-08T15:00:29Z</time>
      </trkpt>
      <trkpt lat="42.98053" lon="0.56201">
        <ele>756.582</ele>
        <time>2020-02-08T15:00:28Z</time>
      </trkpt>
      <trkpt lat="42.98049" lon="0.56208">
        <ele>757.529</ele>
        <time>2020-02-08T15:00:27Z</time>
      </trkpt>
      <trkpt lat="42.98044" lon="0.56213">
        <ele>758.711</ele>
        <time>2020-02-08T15:00:26Z</time>
      </trkpt>
      <trkpt lat="42.9804" lon="0.56216">
        <ele>759.786</ele>
        <time>2020-02-08T15:00:25Z</time>
      </trkpt>
      <trkpt lat="42.98037" lon="0.56219">
        <ele>761.076</ele>
        <time>2020-02-08T15:00:24Z</time>
      </trkpt>
      <trkpt lat="42.98035" lon="0.56221">
        <ele>762.248</ele>
        <time>2020-02-08T15:00:23Z</time>
      </trkpt>
      <trkpt lat="42.98032" lon="0.56225">
        <ele>763.414</ele>
        <time>2020-02-08T15:00:22Z</time>
      </trkpt>
      <trkpt lat="42.98031" lon="0.56224">
        <ele>765.037</ele>
        <time>2020-02-08T15:00:21Z</time>
      </trkpt>
      <trkpt lat="42.98029" lon="0.56222">
        <ele>766.518</ele>
        <time>2020-02-08T15:00:20Z</time>
      </trkpt>
      <trkpt lat="42.98029" lon="0.56219">
        <ele>768.209</ele>
        <time>2020-02-08T15:00:19Z</time>
      </trkpt>
      <trkpt lat="42.98029" lon="0.56214">
        <ele>770.027</ele>
        <time>2020-02-08T15:00:18Z</time>
      </trkpt>
      <trkpt lat="42.98029" lon="0.56207">
        <ele>771.561</ele>
        <time>2020-02-08T15:00:17Z</time>
      </trkpt>
      <trkpt lat="42.98031" lon="0.56201">
        <ele>773.577</ele>
        <time>2020-02-08T15:00:16Z</time>
      </trkpt>
      <trkpt lat="42.98032" lon="0.56191">
        <ele>775.479</ele>
        <time>2020-02-08T15:00:15Z</time>
      </trkpt>
      <trkpt lat="42.98033" lon="0.56181">
        <ele>777.236</ele>
        <time>2020-02-08T15:00:14Z</time>
      </trkpt>
      <trkpt lat="42.98033" lon="0.56171">
        <ele>779.038</ele>
        <time>2020-02-08T15:00:13Z</time>
      </trkpt>
      <trkpt lat="42.98035" lon="0.56159">
        <ele>780.593</ele>
        <time>2020-02-08T15:00:12Z</time>
      </trkpt>
      <trkpt lat="42.98036" lon="0.56146">
        <ele>782.473</ele>
        <time>2020-02-08T15:00:11Z</time>
      </trkpt>
      <trkpt lat="42.98037" lon="0.56134">
        <ele>784.285</ele>
        <time>2020-02-08T15:00:10Z</time>
      </trkpt>
      <trkpt lat="42.98038" lon="0.56124">
        <ele>785.791</ele>
        <time>2020-02-08T15:00:09Z</time>
      </trkpt>
      <trkpt lat="42.98038" lon="0.56115">
        <ele>787.584</ele>
        <time>2020-02-08T15:00:08Z</time>
      </trkpt>
      <trkpt lat="42.98039" lon="0.56108">
        <ele>789.265</ele>
        <time>2020-02-08T15:00:07Z</time>
      </trkpt>
      <trkpt lat="42.98042" lon="0.56099">
        <ele>791.009</ele>
        <time>2020-02-08T15:00:06Z</time>
      </trkpt>
      <trkpt lat="42.98041" lon="0.56087">
        <ele>792.521</ele>
        <time>2020-02-08T15:00:05Z</time>
      </trkpt>
      <trkpt lat="42.98041" lon="0.56079">
        <ele>794.029</ele>
        <time>2020-02-08T15:00:04Z</time>
      </trkpt>
      <trkpt lat="42.98042" lon="0.56068">
        <ele>795.247</ele>
        <time>2020-02-08T15:00:03Z</time>
      </trkpt>
      <trkpt lat="42.98042" lon="0.56059">
        <ele>796.517</ele>
        <time>2020-02-08T15:00:02Z</time>
      </trkpt>
      <trkpt lat="42.98044" lon="0.56051">
        <ele>797.744</ele>
        <time>2020-02-08T15:00:01Z</time>
      </trkpt>
      <trkpt lat="42.98045" lon="0.56042">
        <ele>799.016</ele>
        <time>2020-02-08T15:00:00Z</time>
      </trkpt>
      <trkpt lat="42.98047" lon="0.56032">
        <ele>799.781</ele>
        <time>2020-02-08T14:59:59Z</time>
      </trkpt>
      <trkpt lat="42.9805" lon="0.56022">
        <ele>800.511</ele>
        <time>2020-02-08T14:59:58Z</time>
      </trkpt>
      <trkpt lat="42.98055" lon="0.56011">
        <ele>801.483</ele>
        <time>2020-02-08T14:59:57Z</time>
      </trkpt>
      <trkpt lat="42.98059" lon="0.56002">
        <ele>802.059</ele>
        <time>2020-02-08T14:59:56Z</time>
      </trkpt>
      <trkpt lat="42.98061" lon="0.55992">
        <ele>802.492</ele>
        <time>2020-02-08T14:59:55Z</time>
      </trkpt>
      <trkpt lat="42.98064" lon="0.55983">
        <ele>803.093</ele>
        <time>2020-02-08T14:59:54Z</time>
      </trkpt>
      <trkpt lat="42.98069" lon="0.55973">
        <ele>804.409</ele>
        <time>2020-02-08T14:59:53Z</time>
      </trkpt>
      <trkpt lat="42.98074" lon="0.55964">
        <ele>805.714</ele>
        <time>2020-02-08T14:59:52Z</time>
      </trkpt>
      <trkpt lat="42.98081" lon="0.55953">
        <ele>807.268</ele>
        <time>2020-02-08T14:59:51Z</time>
      </trkpt>
      <trkpt lat="42.9809" lon="0.55943">
        <ele>808.527</ele>
        <time>2020-02-08T14:59:50Z</time>
      </trkpt>
      <trkpt lat="42.98093" lon="0.55931">
        <ele>810.019</ele>
        <time>2020-02-08T14:59:49Z</time>
      </trkpt>
      <trkpt lat="42.98096" lon="0.5592">
        <ele>811.526</ele>
        <time>2020-02-08T14:59:48Z</time>
      </trkpt>
      <trkpt lat="42.98099" lon="0.55909">
        <ele>813.228</ele>
        <time>2020-02-08T14:59:47Z</time>
      </trkpt>
      <trkpt lat="42.98101" lon="0.55898">
        <ele>814.743</ele>
        <time>2020-02-08T14:59:46Z</time>
      </trkpt>
      <trkpt lat="42.98105" lon="0.55886">
        <ele>816.433</ele>
        <time>2020-02-08T14:59:45Z</time>
      </trkpt>
      <trkpt lat="42.98109" lon="0.55875">
        <ele>817.755</ele>
        <time>2020-02-08T14:59:44Z</time>
      </trkpt>
      <trkpt lat="42.98114" lon="0.55863">
        <ele>819.461</ele>
        <time>2020-02-08T14:59:43Z</time>
      </trkpt>
      <trkpt lat="42.98118" lon="0.55853">
        <ele>821.014</ele>
        <time>2020-02-08T14:59:42Z</time>
      </trkpt>
      <trkpt lat="42.98121" lon="0.55842">
        <ele>822.555</ele>
        <time>2020-02-08T14:59:41Z</time>
      </trkpt>
      <trkpt lat="42.98126" lon="0.55832">
        <ele>824.409</ele>
        <time>2020-02-08T14:59:40Z</time>
      </trkpt>
      <trkpt lat="42.98129" lon="0.55821">
        <ele>826.017</ele>
        <time>2020-02-08T14:59:39Z</time>
      </trkpt>
      <trkpt lat="42.98132" lon="0.55811">
        <ele>827.761</ele>
        <time>2020-02-08T14:59:38Z</time>
      </trkpt>
      <trkpt lat="42.98135" lon="0.55801">
        <ele>829.448</ele>
        <time>2020-02-08T14:59:37Z</time>
      </trkpt>
      <trkpt lat="42.98137" lon="0.55791">
        <ele>831.222</ele>
        <time>2020-02-08T14:59:36Z</time>
      </trkpt>
      <trkpt lat="42.98138" lon="0.55783">
        <ele>833.059</ele>
        <time>2020-02-08T14:59:35Z</time>
      </trkpt>
      <trkpt lat="42.98139" lon="0.55772">
        <ele>834.721</ele>
        <time>2020-02-08T14:59:34Z</time>
      </trkpt>
      <trkpt lat="42.98142" lon="0.55761">
        <ele>836.566</ele>
        <time>2020-02-08T14:59:33Z</time>
      </trkpt>
      <trkpt lat="42.98145" lon="0.5575">
        <ele>838.476</ele>
        <time>2020-02-08T14:59:32Z</time>
      </trkpt>
      <trkpt lat="42.98147" lon="0.55739">
        <ele>840.438</ele>
        <time>2020-02-08T14:59:31Z</time>
      </trkpt>
      <trkpt lat="42.98149" lon="0.55728">
        <ele>842.024</ele>
        <time>2020-02-08T14:59:30Z</time>
      </trkpt>
      <trkpt lat="42.98151" lon="0.55715">
        <ele>843.737</ele>
        <time>2020-02-08T14:59:29Z</time>
      </trkpt>
      <trkpt lat="42.98153" lon="0.55705">
        <ele>845.518</ele>
        <time>2020-02-08T14:59:28Z</time>
      </trkpt>
      <trkpt lat="42.98153" lon="0.55693">
        <ele>847.409</ele>
        <time>2020-02-08T14:59:27Z</time>
      </trkpt>
      <trkpt lat="42.98154" lon="0.55682">
        <ele>849.213</ele>
        <time>2020-02-08T14:59:26Z</time>
      </trkpt>
      <trkpt lat="42.98156" lon="0.55673">
        <ele>851.085</ele>
        <time>2020-02-08T14:59:25Z</time>
      </trkpt>
      <trkpt lat="42.98158" lon="0.55662">
        <ele>852.573</ele>
        <time>2020-02-08T14:59:24Z</time>
      </trkpt>
      <trkpt lat="42.9816" lon="0.55652">
        <ele>854.243</ele>
        <time>2020-02-08T14:59:23Z</time>
      </trkpt>
      <trkpt lat="42.98162" lon="0.55642">
        <ele>855.51</ele>
        <time>2020-02-08T14:59:22Z</time>
      </trkpt>
      <trkpt lat="42.98165" lon="0.5563">
        <ele>856.762</ele>
        <time>2020-02-08T14:59:21Z</time>
      </trkpt>
      <trkpt lat="42.98166" lon="0.55622">
        <ele>858.217</ele>
        <time>2020-02-08T14:59:20Z</time>
      </trkpt>
      <trkpt lat="42.98169" lon="0.55615">
        <ele>859.727</ele>
        <time>2020-02-08T14:59:19Z</time>
      </trkpt>
      <trkpt lat="42.98171" lon="0.5561">
        <ele>861.589</ele>
        <time>2020-02-08T14:59:18Z</time>
      </trkpt>
      <trkpt lat="42.98173" lon="0.55604">
        <ele>863.255</ele>
        <time>2020-02-08T14:59:17Z</time>
      </trkpt>
      <trkpt lat="42.98174" lon="0.55597">
        <ele>864.798</ele>
        <time>2020-02-08T14:59:16Z</time>
      </trkpt>
      <trkpt lat="42.98175" lon="0.5559">
        <ele>866.559</ele>
        <time>2020-02-08T14:59:15Z</time>
      </trkpt>
      <trkpt lat="42.98179" lon="0.55581">
        <ele>868.209</ele>
        <time>2020-02-08T14:59:14Z</time>
      </trkpt>
      <trkpt lat="42.98182" lon="0.55571">
        <ele>870.026</ele>
        <time>2020-02-08T14:59:13Z</time>
      </trkpt>
      <trkpt lat="42.98184" lon="0.55564">
        <ele>871.56</ele>
        <time>2020-02-08T14:59:12Z</time>
      </trkpt>
      <trkpt lat="42.98185" lon="0.55557">
        <ele>873.486</ele>
        <time>2020-02-08T14:59:11Z</time>
      </trkpt>
      <trkpt lat="42.98188" lon="0.55549">
        <ele>875.071</ele>
        <time>2020-02-08T14:59:10Z</time>
      </trkpt>
      <trkpt lat="42.98191" lon="0.55539">
        <ele>876.758</ele>
        <time>2020-02-08T14:59:09Z</time>
      </trkpt>
      <trkpt lat="42.98194" lon="0.55529">
        <ele>878.52</ele>
        <time>2020-02-08T14:59:08Z</time>
      </trkpt>
      <trkpt lat="42.98197" lon="0.55519">
        <ele>880.415</ele>
        <time>2020-02-08T14:59:07Z</time>
      </trkpt>
      <trkpt lat="42.982" lon="0.5551">
        <ele>882.215</ele>
        <time>2020-02-08T14:59:06Z</time>
      </trkpt>
      <trkpt lat="42.98202" lon="0.555">
        <ele>884.017</ele>
        <time>2020-02-08T14:59:05Z</time>
      </trkpt>
      <trkpt lat="42.98203" lon="0.5549">
        <ele>885.523</ele>
        <time>2020-02-08T14:59:04Z</time>
      </trkpt>
      <trkpt lat="42.98207" lon="0.5548">
        <ele>887.496</ele>
        <time>2020-02-08T14:59:03Z</time>
      </trkpt>
      <trkpt lat="42.9821" lon="0.55471">
        <ele>889.297</ele>
        <time>2020-02-08T14:59:02Z</time>
      </trkpt>
      <trkpt lat="42.98213" lon="0.55462">
        <ele>891.209</ele>
        <time>2020-02-08T14:59:01Z</time>
      </trkpt>
      <trkpt lat="42.98216" lon="0.55454">
        <ele>893.016</ele>
        <time>2020-02-08T14:59:00Z</time>
      </trkpt>
      <trkpt lat="42.9822" lon="0.55446">
        <ele>894.706</ele>
        <time>2020-02-08T14:58:59Z</time>
      </trkpt>
      <trkpt lat="42.98224" lon="0.55438">
        <ele>896.264</ele>
        <time>2020-02-08T14:58:58Z</time>
      </trkpt>
      <trkpt lat="42.98226" lon="0.55429">
        <ele>897.726</ele>
        <time>2020-02-08T14:58:57Z</time>
      </trkpt>
      <trkpt lat="42.9823" lon="0.55421">
        <ele>899.273</ele>
        <time>2020-02-08T14:58:56Z</time>
      </trkpt>
      <trkpt lat="42.98234" lon="0.55414">
        <ele>900.775</ele>
        <time>2020-02-08T14:58:55Z</time>
      </trkpt>
      <trkpt lat="42.98239" lon="0.55407">
        <ele>902.05</ele>
        <time>2020-02-08T14:58:54Z</time>
      </trkpt>
      <trkpt lat="42.98242" lon="0.55403">
        <ele>903.21</ele>
        <time>2020-02-08T14:58:53Z</time>
      </trkpt>
      <trkpt lat="42.98247" lon="0.55395">
        <ele>904.562</ele>
        <time>2020-02-08T14:58:52Z</time>
      </trkpt>
      <trkpt lat="42.9825" lon="0.5539">
        <ele>905.798</ele>
        <time>2020-02-08T14:58:51Z</time>
      </trkpt>
      <trkpt lat="42.98252" lon="0.55385">
        <ele>906.781</ele>
        <time>2020-02-08T14:58:50Z</time>
      </trkpt>
      <trkpt lat="42.98254" lon="0.5538">
        <ele>908.052</ele>
        <time>2020-02-08T14:58:49Z</time>
      </trkpt>
      <trkpt lat="42.98257" lon="0.55374">
        <ele>909.009</ele>
        <time>2020-02-08T14:58:48Z</time>
      </trkpt>
      <trkpt lat="42.98259" lon="0.55369">
        <ele>910.007</ele>
        <time>2020-02-08T14:58:47Z</time>
      </trkpt>
      <trkpt lat="42.98261" lon="0.55364">
        <ele>910.743</ele>
        <time>2020-02-08T14:58:46Z</time>
      </trkpt>
      <trkpt lat="42.98267" lon="0.55358">
        <ele>911.713</ele>
        <time>2020-02-08T14:58:45Z</time>
      </trkpt>
      <trkpt lat="42.98269" lon="0.55351">
        <ele>912.472</ele>
        <time>2020-02-08T14:58:44Z</time>
      </trkpt>
      <trkpt lat="42.98272" lon="0.55345">
        <ele>913.069</ele>
        <time>2020-02-08T14:58:43Z</time>
      </trkpt>
      <trkpt lat="42.98274" lon="0.55338">
        <ele>913.421</ele>
        <time>2020-02-08T14:58:42Z</time>
      </trkpt>
      <trkpt lat="42.98274" lon="0.55331">
        <ele>922.416</ele>
        <time>2020-02-08T14:57:36Z</time>
      </trkpt>
      <trkpt lat="42.98275" lon="0.5533">
        <ele>923.766</ele>
        <time>2020-02-08T14:57:35Z</time>
      </trkpt>
      <trkpt lat="42.98276" lon="0.55327">
        <ele>925.238</ele>
        <time>2020-02-08T14:57:34Z</time>
      </trkpt>
      <trkpt lat="42.9828" lon="0.55323">
        <ele>926.594</ele>
        <time>2020-02-08T14:57:33Z</time>
      </trkpt>
      <trkpt lat="42.98284" lon="0.55319">
        <ele>928.287</ele>
        <time>2020-02-08T14:57:32Z</time>
      </trkpt>
      <trkpt lat="42.98286" lon="0.55315">
        <ele>929.548</ele>
        <time>2020-02-08T14:57:31Z</time>
      </trkpt>
      <trkpt lat="42.98289" lon="0.5531">
        <ele>931.209</ele>
        <time>2020-02-08T14:57:30Z</time>
      </trkpt>
      <trkpt lat="42.98291" lon="0.55305">
        <ele>932.714</ele>
        <time>2020-02-08T14:57:29Z</time>
      </trkpt>
      <trkpt lat="42.98295" lon="0.553">
        <ele>934.213</ele>
        <time>2020-02-08T14:57:28Z</time>
      </trkpt>
      <trkpt lat="42.98297" lon="0.55295">
        <ele>935.772</ele>
        <time>2020-02-08T14:57:27Z</time>
      </trkpt>
      <trkpt lat="42.98299" lon="0.55289">
        <ele>937.459</ele>
        <time>2020-02-08T14:57:26Z</time>
      </trkpt>
      <trkpt lat="42.98301" lon="0.55282">
        <ele>939.226</ele>
        <time>2020-02-08T14:57:25Z</time>
      </trkpt>
      <trkpt lat="42.98303" lon="0.55277">
        <ele>940.738</ele>
        <time>2020-02-08T14:57:24Z</time>
      </trkpt>
      <trkpt lat="42.98306" lon="0.55271">
        <ele>942.563</ele>
        <time>2020-02-08T14:57:23Z</time>
      </trkpt>
      <trkpt lat="42.98309" lon="0.55265">
        <ele>944.443</ele>
        <time>2020-02-08T14:57:22Z</time>
      </trkpt>
      <trkpt lat="42.98312" lon="0.55257">
        <ele>946.295</ele>
        <time>2020-02-08T14:57:21Z</time>
      </trkpt>
      <trkpt lat="42.98314" lon="0.5525">
        <ele>948.251</ele>
        <time>2020-02-08T14:57:20Z</time>
      </trkpt>
      <trkpt lat="42.98318" lon="0.55241">
        <ele>949.764</ele>
        <time>2020-02-08T14:57:19Z</time>
      </trkpt>
      <trkpt lat="42.98323" lon="0.55231">
        <ele>951.555</ele>
        <time>2020-02-08T14:57:18Z</time>
      </trkpt>
      <trkpt lat="42.98325" lon="0.55225">
        <ele>953.409</ele>
        <time>2020-02-08T14:57:17Z</time>
      </trkpt>
      <trkpt lat="42.98332" lon="0.55218">
        <ele>955.221</ele>
        <time>2020-02-08T14:57:16Z</time>
      </trkpt>
      <trkpt lat="42.98339" lon="0.55211">
        <ele>957.029</ele>
        <time>2020-02-08T14:57:15Z</time>
      </trkpt>
      <trkpt lat="42.98347" lon="0.55204">
        <ele>958.747</ele>
        <time>2020-02-08T14:57:14Z</time>
      </trkpt>
      <trkpt lat="42.98356" lon="0.55195">
        <ele>960.437</ele>
        <time>2020-02-08T14:57:13Z</time>
      </trkpt>
      <trkpt lat="42.98365" lon="0.55187">
        <ele>962.084</ele>
        <time>2020-02-08T14:57:12Z</time>
      </trkpt>
      <trkpt lat="42.98373" lon="0.55177">
        <ele>963.596</ele>
        <time>2020-02-08T14:57:11Z</time>
      </trkpt>
      <trkpt lat="42.98381" lon="0.55169">
        <ele>965.291</ele>
        <time>2020-02-08T14:57:10Z</time>
      </trkpt>
      <trkpt lat="42.98388" lon="0.55162">
        <ele>966.541</ele>
        <time>2020-02-08T14:57:09Z</time>
      </trkpt>
      <trkpt lat="42.98394" lon="0.55155">
        <ele>968.073</ele>
        <time>2020-02-08T14:57:08Z</time>
      </trkpt>
      <trkpt lat="42.98399" lon="0.55146">
        <ele>969.519</ele>
        <time>2020-02-08T14:57:07Z</time>
      </trkpt>
      <trkpt lat="42.98404" lon="0.55136">
        <ele>971.232</ele>
        <time>2020-02-08T14:57:06Z</time>
      </trkpt>
      <trkpt lat="42.98408" lon="0.55128">
        <ele>973.053</ele>
        <time>2020-02-08T14:57:05Z</time>
      </trkpt>
      <trkpt lat="42.98412" lon="0.55119">
        <ele>974.509</ele>
        <time>2020-02-08T14:57:04Z</time>
      </trkpt>
      <trkpt lat="42.98415" lon="0.55109">
        <ele>976.508</ele>
        <time>2020-02-08T14:57:03Z</time>
      </trkpt>
      <trkpt lat="42.98418" lon="0.55101">
        <ele>978.462</ele>
        <time>2020-02-08T14:57:02Z</time>
      </trkpt>
      <trkpt lat="42.98418" lon="0.55088">
        <ele>980.222</ele>
        <time>2020-02-08T14:57:01Z</time>
      </trkpt>
      <trkpt lat="42.9842" lon="0.5508">
        <ele>982.031</ele>
        <time>2020-02-08T14:57:00Z</time>
      </trkpt>
      <trkpt lat="42.98421" lon="0.55069">
        <ele>983.778</ele>
        <time>2020-02-08T14:56:59Z</time>
      </trkpt>
      <trkpt lat="42.98423" lon="0.55061">
        <ele>985.79</ele>
        <time>2020-02-08T14:56:58Z</time>
      </trkpt>
      <trkpt lat="42.98425" lon="0.55051">
        <ele>987.545</ele>
        <time>2020-02-08T14:56:57Z</time>
      </trkpt>
      <trkpt lat="42.98428" lon="0.55042">
        <ele>989.415</ele>
        <time>2020-02-08T14:56:56Z</time>
      </trkpt>
      <trkpt lat="42.98431" lon="0.55034">
        <ele>991.297</ele>
        <time>2020-02-08T14:56:55Z</time>
      </trkpt>
      <trkpt lat="42.98434" lon="0.55028">
        <ele>993.013</ele>
        <time>2020-02-08T14:56:54Z</time>
      </trkpt>
      <trkpt lat="42.98437" lon="0.55022">
        <ele>994.796</ele>
        <time>2020-02-08T14:56:53Z</time>
      </trkpt>
      <trkpt lat="42.98442" lon="0.55016">
        <ele>996.797</ele>
        <time>2020-02-08T14:56:52Z</time>
      </trkpt>
      <trkpt lat="42.98446" lon="0.5501">
        <ele>998.509</ele>
        <time>2020-02-08T14:56:51Z</time>
      </trkpt>
      <trkpt lat="42.9845" lon="0.55005">
        <ele>1000.419</ele>
        <time>2020-02-08T14:56:50Z</time>
      </trkpt>
      <trkpt lat="42.98455" lon="0.54998">
        <ele>1002.281</ele>
        <time>2020-02-08T14:56:49Z</time>
      </trkpt>
      <trkpt lat="42.98459" lon="0.54992">
        <ele>1003.767</ele>
        <time>2020-02-08T14:56:48Z</time>
      </trkpt>
      <trkpt lat="42.98465" lon="0.54983">
        <ele>1005.43</ele>
        <time>2020-02-08T14:56:47Z</time>
      </trkpt>
      <trkpt lat="42.98469" lon="0.54976">
        <ele>1007.027</ele>
        <time>2020-02-08T14:56:46Z</time>
      </trkpt>
      <trkpt lat="42.98473" lon="0.5497">
        <ele>1008.579</ele>
        <time>2020-02-08T14:56:45Z</time>
      </trkpt>
      <trkpt lat="42.98476" lon="0.54964">
        <ele>1010.044</ele>
        <time>2020-02-08T14:56:44Z</time>
      </trkpt>
      <trkpt lat="42.98478" lon="0.54956">
        <ele>1011.424</ele>
        <time>2020-02-08T14:56:43Z</time>
      </trkpt>
      <trkpt lat="42.98482" lon="0.5495">
        <ele>1012.746</ele>
        <time>2020-02-08T14:56:42Z</time>
      </trkpt>
      <trkpt lat="42.98486" lon="0.54945">
        <ele>1014.232</ele>
        <time>2020-02-08T14:56:41Z</time>
      </trkpt>
      <trkpt lat="42.9849" lon="0.54939">
        <ele>1015.435</ele>
        <time>2020-02-08T14:56:40Z</time>
      </trkpt>
      <trkpt lat="42.98494" lon="0.54933">
        <ele>1016.776</ele>
        <time>2020-02-08T14:56:39Z</time>
      </trkpt>
      <trkpt lat="42.98498" lon="0.54927">
        <ele>1018.009</ele>
        <time>2020-02-08T14:56:38Z</time>
      </trkpt>
      <trkpt lat="42.98502" lon="0.54921">
        <ele>1019.008</ele>
        <time>2020-02-08T14:56:37Z</time>
      </trkpt>
      <trkpt lat="42.98507" lon="0.54917">
        <ele>1020.253</ele>
        <time>2020-02-08T14:56:36Z</time>
      </trkpt>
      <trkpt lat="42.98513" lon="0.54911">
        <ele>1021.252</ele>
        <time>2020-02-08T14:56:35Z</time>
      </trkpt>
      <trkpt lat="42.98513" lon="0.54908">
        <ele>1022.451</ele>
        <time>2020-02-08T14:56:34Z</time>
      </trkpt>
      <trkpt lat="42.98512" lon="0.54904">
        <ele>1023.588</ele>
        <time>2020-02-08T14:56:33Z</time>
      </trkpt>
      <trkpt lat="42.98509" lon="0.54902">
        <ele>1024.82</ele>
        <time>2020-02-08T14:56:32Z</time>
      </trkpt>
      <trkpt lat="42.98504" lon="0.54901">
        <ele>1025.835</ele>
        <time>2020-02-08T14:56:31Z</time>
      </trkpt>
      <trkpt lat="42.98498" lon="0.54901">
        <ele>1026.865</ele>
        <time>2020-02-08T14:56:30Z</time>
      </trkpt>
      <trkpt lat="42.98492" lon="0.54901">
        <ele>1027.837</ele>
        <time>2020-02-08T14:56:29Z</time>
      </trkpt>
      <trkpt lat="42.98484" lon="0.54899">
        <ele>1028.533</ele>
        <time>2020-02-08T14:56:28Z</time>
      </trkpt>
      <trkpt lat="42.98476" lon="0.54899">
        <ele>1029.416</ele>
        <time>2020-02-08T14:56:27Z</time>
      </trkpt>
      <trkpt lat="42.9847" lon="0.54899">
        <ele>1030.047</ele>
        <time>2020-02-08T14:56:26Z</time>
      </trkpt>
      <trkpt lat="42.98465" lon="0.54899">
        <ele>1030.809</ele>
        <time>2020-02-08T14:56:25Z</time>
      </trkpt>
      <trkpt lat="42.98459" lon="0.54899">
        <ele>1031.514</ele>
        <time>2020-02-08T14:56:24Z</time>
      </trkpt>
      <trkpt lat="42.98453" lon="0.549">
        <ele>1032.168</ele>
        <time>2020-02-08T14:56:23Z</time>
      </trkpt>
      <trkpt lat="42.98448" lon="0.54899">
        <ele>1033.065</ele>
        <time>2020-02-08T14:56:22Z</time>
      </trkpt>
      <trkpt lat="42.98441" lon="0.54898">
        <ele>1034.081</ele>
        <time>2020-02-08T14:56:21Z</time>
      </trkpt>
      <trkpt lat="42.98434" lon="0.54895">
        <ele>1035.088</ele>
        <time>2020-02-08T14:56:20Z</time>
      </trkpt>
      <trkpt lat="42.98425" lon="0.54892">
        <ele>1036.05</ele>
        <time>2020-02-08T14:56:19Z</time>
      </trkpt>
      <trkpt lat="42.98416" lon="0.54892">
        <ele>1037.055</ele>
        <time>2020-02-08T14:56:18Z</time>
      </trkpt>
      <trkpt lat="42.98409" lon="0.54893">
        <ele>1038.125</ele>
        <time>2020-02-08T14:56:17Z</time>
      </trkpt>
      <trkpt lat="42.98402" lon="0.54895">
        <ele>1039.567</ele>
        <time>2020-02-08T14:56:16Z</time>
      </trkpt>
      <trkpt lat="42.98395" lon="0.54898">
        <ele>1040.863</ele>
        <time>2020-02-08T14:56:15Z</time>
      </trkpt>
      <trkpt lat="42.98386" lon="0.54901">
        <ele>1042.056</ele>
        <time>2020-02-08T14:56:14Z</time>
      </trkpt>
      <trkpt lat="42.98379" lon="0.54903">
        <ele>1043.137</ele>
        <time>2020-02-08T14:56:13Z</time>
      </trkpt>
      <trkpt lat="42.98372" lon="0.54905">
        <ele>1044.409</ele>
        <time>2020-02-08T14:56:12Z</time>
      </trkpt>
      <trkpt lat="42.98366" lon="0.54908">
        <ele>1045.526</ele>
        <time>2020-02-08T14:56:11Z</time>
      </trkpt>
      <trkpt lat="42.9836" lon="0.54909">
        <ele>1047.042</ele>
        <time>2020-02-08T14:56:10Z</time>
      </trkpt>
      <trkpt lat="42.98355" lon="0.54914">
        <ele>1048.568</ele>
        <time>2020-02-08T14:56:09Z</time>
      </trkpt>
      <trkpt lat="42.98348" lon="0.5492">
        <ele>1049.828</ele>
        <time>2020-02-08T14:56:08Z</time>
      </trkpt>
      <trkpt lat="42.98342" lon="0.54925">
        <ele>1051.125</ele>
        <time>2020-02-08T14:56:07Z</time>
      </trkpt>
      <trkpt lat="42.98336" lon="0.5493">
        <ele>1052.497</ele>
        <time>2020-02-08T14:56:06Z</time>
      </trkpt>
      <trkpt lat="42.98331" lon="0.54935">
        <ele>1053.432</ele>
        <time>2020-02-08T14:56:05Z</time>
      </trkpt>
      <trkpt lat="42.98325" lon="0.54942">
        <ele>1054.582</ele>
        <time>2020-02-08T14:56:04Z</time>
      </trkpt>
      <trkpt lat="42.98319" lon="0.5495">
        <ele>1055.864</ele>
        <time>2020-02-08T14:56:03Z</time>
      </trkpt>
      <trkpt lat="42.98311" lon="0.54959">
        <ele>1057.07</ele>
        <time>2020-02-08T14:56:02Z</time>
      </trkpt>
      <trkpt lat="42.98304" lon="0.54964">
        <ele>1057.823</ele>
        <time>2020-02-08T14:56:01Z</time>
      </trkpt>
      <trkpt lat="42.98298" lon="0.54969">
        <ele>1058.884</ele>
        <time>2020-02-08T14:56:00Z</time>
      </trkpt>
      <trkpt lat="42.98293" lon="0.54972">
        <ele>1059.409</ele>
        <time>2020-02-08T14:55:59Z</time>
      </trkpt>
      <trkpt lat="42.98287" lon="0.54975">
        <ele>1060.121</ele>
        <time>2020-02-08T14:55:58Z</time>
      </trkpt>
      <trkpt lat="42.98281" lon="0.54977">
        <ele>1060.501</ele>
        <time>2020-02-08T14:55:57Z</time>
      </trkpt>
      <trkpt lat="42.98276" lon="0.54978">
        <ele>1061.039</ele>
        <time>2020-02-08T14:55:56Z</time>
      </trkpt>
      <trkpt lat="42.98272" lon="0.54978">
        <ele>1061.583</ele>
        <time>2020-02-08T14:55:55Z</time>
      </trkpt>
      <trkpt lat="42.98268" lon="0.54978">
        <ele>1062.08</ele>
        <time>2020-02-08T14:55:54Z</time>
      </trkpt>
      <trkpt lat="42.98263" lon="0.54981">
        <ele>1063.432</ele>
        <time>2020-02-08T14:55:53Z</time>
      </trkpt>
      <trkpt lat="42.98259" lon="0.5498">
        <ele>1064.597</ele>
        <time>2020-02-08T14:55:52Z</time>
      </trkpt>
      <trkpt lat="42.98256" lon="0.54978">
        <ele>1066.017</ele>
        <time>2020-02-08T14:55:51Z</time>
      </trkpt>
      <trkpt lat="42.98253" lon="0.54977">
        <ele>1067.479</ele>
        <time>2020-02-08T14:55:50Z</time>
      </trkpt>
      <trkpt lat="42.98254" lon="0.54975">
        <ele>1068.875</ele>
        <time>2020-02-08T14:55:49Z</time>
      </trkpt>
      <trkpt lat="42.98257" lon="0.54974">
        <ele>1070.818</ele>
        <time>2020-02-08T14:55:48Z</time>
      </trkpt>
      <trkpt lat="42.98262" lon="0.5497">
        <ele>1072.899</ele>
        <time>2020-02-08T14:55:47Z</time>
      </trkpt>
      <trkpt lat="42.98267" lon="0.54968">
        <ele>1075.009</ele>
        <time>2020-02-08T14:55:46Z</time>
      </trkpt>
      <trkpt lat="42.98272" lon="0.54964">
        <ele>1077.426</ele>
        <time>2020-02-08T14:55:45Z</time>
      </trkpt>
      <trkpt lat="42.98279" lon="0.54952">
        <ele>1079.806</ele>
        <time>2020-02-08T14:55:43Z</time>
      </trkpt>
      <trkpt lat="42.98283" lon="0.5494">
        <ele>1082.089</ele>
        <time>2020-02-08T14:55:41Z</time>
      </trkpt>
      <trkpt lat="42.98285" lon="0.54931">
        <ele>1084.04</ele>
        <time>2020-02-08T14:55:40Z</time>
      </trkpt>
      <trkpt lat="42.98289" lon="0.54886">
        <ele>1085.437</ele>
        <time>2020-02-08T14:55:36Z</time>
      </trkpt>
      <trkpt lat="42.98288" lon="0.54874">
        <ele>1086.839</ele>
        <time>2020-02-08T14:55:35Z</time>
      </trkpt>
      <trkpt lat="42.98287" lon="0.54861">
        <ele>1088.014</ele>
        <time>2020-02-08T14:55:34Z</time>
      </trkpt>
      <trkpt lat="42.9829" lon="0.54849">
        <ele>1089.044</ele>
        <time>2020-02-08T14:55:33Z</time>
      </trkpt>
      <trkpt lat="42.98291" lon="0.54837">
        <ele>1090.016</ele>
        <time>2020-02-08T14:55:32Z</time>
      </trkpt>
      <trkpt lat="42.98294" lon="0.54828">
        <ele>1090.852</ele>
        <time>2020-02-08T14:55:31Z</time>
      </trkpt>
      <trkpt lat="42.98295" lon="0.5482">
        <ele>1091.445</ele>
        <time>2020-02-08T14:55:30Z</time>
      </trkpt>
      <trkpt lat="42.98297" lon="0.54815">
        <ele>1092.036</ele>
        <time>2020-02-08T14:55:29Z</time>
      </trkpt>
      <trkpt lat="42.98301" lon="0.54804">
        <ele>1093.009</ele>
        <time>2020-02-08T14:55:16Z</time>
      </trkpt>
      <trkpt lat="42.98301" lon="0.54803">
        <ele>1093.414</ele>
        <time>2020-02-08T14:55:15Z</time>
      </trkpt>
      <trkpt lat="42.98302" lon="0.54802">
        <ele>1094.004</ele>
        <time>2020-02-08T14:55:14Z</time>
      </trkpt>
      <trkpt lat="42.98302" lon="0.54801">
        <ele>1094.453</ele>
        <time>2020-02-08T14:55:13Z</time>
      </trkpt>
      <trkpt lat="42.98298" lon="0.54801">
        <ele>1094.46</ele>
        <time>2020-02-08T14:55:11Z</time>
      </trkpt>
      <trkpt lat="42.98284" lon="0.54817">
        <ele>1094.447</ele>
        <time>2020-02-08T14:55:03Z</time>
      </trkpt>
      <trkpt lat="42.98268" lon="0.54838">
        <ele>1094.449</ele>
        <time>2020-02-08T14:54:56Z</time>
      </trkpt>
      <trkpt lat="42.98265" lon="0.5485">
        <ele>1095.814</ele>
        <time>2020-02-08T14:53:49Z</time>
      </trkpt>
      <trkpt lat="42.98266" lon="0.5485">
        <ele>1097.114</ele>
        <time>2020-02-08T14:53:48Z</time>
      </trkpt>
      <trkpt lat="42.98265" lon="0.54849">
        <ele>1098.556</ele>
        <time>2020-02-08T14:53:47Z</time>
      </trkpt>
      <trkpt lat="42.98264" lon="0.54847">
        <ele>1100.012</ele>
        <time>2020-02-08T14:53:46Z</time>
      </trkpt>
      <trkpt lat="42.98264" lon="0.54844">
        <ele>1101.495</ele>
        <time>2020-02-08T14:53:45Z</time>
      </trkpt>
      <trkpt lat="42.98265" lon="0.5484">
        <ele>1103.026</ele>
        <time>2020-02-08T14:53:44Z</time>
      </trkpt>
      <trkpt lat="42.98269" lon="0.54834">
        <ele>1104.509</ele>
        <time>2020-02-08T14:53:43Z</time>
      </trkpt>
      <trkpt lat="42.98273" lon="0.54826">
        <ele>1106.511</ele>
        <time>2020-02-08T14:53:42Z</time>
      </trkpt>
      <trkpt lat="42.98276" lon="0.54816">
        <ele>1108.456</ele>
        <time>2020-02-08T14:53:41Z</time>
      </trkpt>
      <trkpt lat="42.98281" lon="0.54805">
        <ele>1110.554</ele>
        <time>2020-02-08T14:53:40Z</time>
      </trkpt>
      <trkpt lat="42.98285" lon="0.54793">
        <ele>1112.59</ele>
        <time>2020-02-08T14:53:39Z</time>
      </trkpt>
      <trkpt lat="42.98288" lon="0.5478">
        <ele>1115.067</ele>
        <time>2020-02-08T14:53:38Z</time>
      </trkpt>
      <trkpt lat="42.98293" lon="0.54768">
        <ele>1117.469</ele>
        <time>2020-02-08T14:53:37Z</time>
      </trkpt>
      <trkpt lat="42.98299" lon="0.54757">
        <ele>1119.544</ele>
        <time>2020-02-08T14:53:36Z</time>
      </trkpt>
      <trkpt lat="42.98304" lon="0.54746">
        <ele>1122.084</ele>
        <time>2020-02-08T14:53:35Z</time>
      </trkpt>
      <trkpt lat="42.98306" lon="0.54733">
        <ele>1124.446</ele>
        <time>2020-02-08T14:53:34Z</time>
      </trkpt>
      <trkpt lat="42.98312" lon="0.54722">
        <ele>1126.512</ele>
        <time>2020-02-08T14:53:33Z</time>
      </trkpt>
      <trkpt lat="42.98318" lon="0.54711">
        <ele>1129.095</ele>
        <time>2020-02-08T14:53:32Z</time>
      </trkpt>
      <trkpt lat="42.98325" lon="0.54701">
        <ele>1131.166</ele>
        <time>2020-02-08T14:53:31Z</time>
      </trkpt>
      <trkpt lat="42.98331" lon="0.54691">
        <ele>1133.409</ele>
        <time>2020-02-08T14:53:30Z</time>
      </trkpt>
      <trkpt lat="42.98338" lon="0.54683">
        <ele>1135.811</ele>
        <time>2020-02-08T14:53:29Z</time>
      </trkpt>
      <trkpt lat="42.98345" lon="0.54675">
        <ele>1138.056</ele>
        <time>2020-02-08T14:53:28Z</time>
      </trkpt>
      <trkpt lat="42.98351" lon="0.54667">
        <ele>1140.154</ele>
        <time>2020-02-08T14:53:27Z</time>
      </trkpt>
      <trkpt lat="42.98358" lon="0.54658">
        <ele>1142.147</ele>
        <time>2020-02-08T14:53:26Z</time>
      </trkpt>
      <trkpt lat="42.98365" lon="0.54648">
        <ele>1144.444</ele>
        <time>2020-02-08T14:53:25Z</time>
      </trkpt>
      <trkpt lat="42.98371" lon="0.5464">
        <ele>1146.476</ele>
        <time>2020-02-08T14:53:24Z</time>
      </trkpt>
      <trkpt lat="42.98376" lon="0.54632">
        <ele>1148.121</ele>
        <time>2020-02-08T14:53:23Z</time>
      </trkpt>
      <trkpt lat="42.98381" lon="0.54623">
        <ele>1150.141</ele>
        <time>2020-02-08T14:53:22Z</time>
      </trkpt>
      <trkpt lat="42.98386" lon="0.54616">
        <ele>1152.143</ele>
        <time>2020-02-08T14:53:21Z</time>
      </trkpt>
      <trkpt lat="42.98391" lon="0.54608">
        <ele>1154.169</ele>
        <time>2020-02-08T14:53:20Z</time>
      </trkpt>
      <trkpt lat="42.98396" lon="0.54601">
        <ele>1156.192</ele>
        <time>2020-02-08T14:53:19Z</time>
      </trkpt>
      <trkpt lat="42.984" lon="0.54594">
        <ele>1158.163</ele>
        <time>2020-02-08T14:53:18Z</time>
      </trkpt>
      <trkpt lat="42.98404" lon="0.54587">
        <ele>1160.009</ele>
        <time>2020-02-08T14:53:17Z</time>
      </trkpt>
      <trkpt lat="42.9841" lon="0.54578">
        <ele>1162.02</ele>
        <time>2020-02-08T14:53:16Z</time>
      </trkpt>
      <trkpt lat="42.98415" lon="0.5457">
        <ele>1163.8</ele>
        <time>2020-02-08T14:53:15Z</time>
      </trkpt>
      <trkpt lat="42.9842" lon="0.54562">
        <ele>1165.529</ele>
        <time>2020-02-08T14:53:14Z</time>
      </trkpt>
      <trkpt lat="42.98425" lon="0.54553">
        <ele>1167.442</ele>
        <time>2020-02-08T14:53:13Z</time>
      </trkpt>
      <trkpt lat="42.98429" lon="0.54546">
        <ele>1169.139</ele>
        <time>2020-02-08T14:53:12Z</time>
      </trkpt>
      <trkpt lat="42.98433" lon="0.54539">
        <ele>1171.041</ele>
        <time>2020-02-08T14:53:11Z</time>
      </trkpt>
      <trkpt lat="42.98437" lon="0.54531">
        <ele>1172.596</ele>
        <time>2020-02-08T14:53:10Z</time>
      </trkpt>
      <trkpt lat="42.98441" lon="0.54523">
        <ele>1174.186</ele>
        <time>2020-02-08T14:53:09Z</time>
      </trkpt>
      <trkpt lat="42.98444" lon="0.54513">
        <ele>1175.888</ele>
        <time>2020-02-08T14:53:08Z</time>
      </trkpt>
      <trkpt lat="42.98448" lon="0.54503">
        <ele>1177.114</ele>
        <time>2020-02-08T14:53:07Z</time>
      </trkpt>
      <trkpt lat="42.98452" lon="0.54495">
        <ele>1178.877</ele>
        <time>2020-02-08T14:53:06Z</time>
      </trkpt>
      <trkpt lat="42.98455" lon="0.54488">
        <ele>1180.418</ele>
        <time>2020-02-08T14:53:05Z</time>
      </trkpt>
      <trkpt lat="42.9846" lon="0.54483">
        <ele>1181.809</ele>
        <time>2020-02-08T14:53:04Z</time>
      </trkpt>
      <trkpt lat="42.98465" lon="0.5448">
        <ele>1183.019</ele>
        <time>2020-02-08T14:53:03Z</time>
      </trkpt>
      <trkpt lat="42.98473" lon="0.54478">
        <ele>1184.49</ele>
        <time>2020-02-08T14:53:02Z</time>
      </trkpt>
      <trkpt lat="42.98478" lon="0.54478">
        <ele>1185.576</ele>
        <time>2020-02-08T14:53:01Z</time>
      </trkpt>
      <trkpt lat="42.98484" lon="0.5448">
        <ele>1186.831</ele>
        <time>2020-02-08T14:53:00Z</time>
      </trkpt>
      <trkpt lat="42.98489" lon="0.54479">
        <ele>1188.158</ele>
        <time>2020-02-08T14:52:59Z</time>
      </trkpt>
      <trkpt lat="42.98495" lon="0.54476">
        <ele>1189.56</ele>
        <time>2020-02-08T14:52:58Z</time>
      </trkpt>
      <trkpt lat="42.985" lon="0.54472">
        <ele>1191.195</ele>
        <time>2020-02-08T14:52:57Z</time>
      </trkpt>
      <trkpt lat="42.98505" lon="0.54468">
        <ele>1192.875</ele>
        <time>2020-02-08T14:52:56Z</time>
      </trkpt>
      <trkpt lat="42.9851" lon="0.54464">
        <ele>1194.477</ele>
        <time>2020-02-08T14:52:55Z</time>
      </trkpt>
      <trkpt lat="42.98515" lon="0.54461">
        <ele>1196.163</ele>
        <time>2020-02-08T14:52:54Z</time>
      </trkpt>
      <trkpt lat="42.98521" lon="0.54462">
        <ele>1197.836</ele>
        <time>2020-02-08T14:52:53Z</time>
      </trkpt>
      <trkpt lat="42.98527" lon="0.54462">
        <ele>1199.537</ele>
        <time>2020-02-08T14:52:52Z</time>
      </trkpt>
      <trkpt lat="42.98533" lon="0.54463">
        <ele>1201.109</ele>
        <time>2020-02-08T14:52:51Z</time>
      </trkpt>
      <trkpt lat="42.98538" lon="0.54462">
        <ele>1203.011</ele>
        <time>2020-02-08T14:52:50Z</time>
      </trkpt>
      <trkpt lat="42.98544" lon="0.54459">
        <ele>1204.583</ele>
        <time>2020-02-08T14:52:49Z</time>
      </trkpt>
      <trkpt lat="42.98549" lon="0.54455">
        <ele>1206.162</ele>
        <time>2020-02-08T14:52:48Z</time>
      </trkpt>
      <trkpt lat="42.98555" lon="0.5445">
        <ele>1208.017</ele>
        <time>2020-02-08T14:52:47Z</time>
      </trkpt>
      <trkpt lat="42.98561" lon="0.54444">
        <ele>1209.424</ele>
        <time>2020-02-08T14:52:46Z</time>
      </trkpt>
      <trkpt lat="42.98567" lon="0.54438">
        <ele>1211.046</ele>
        <time>2020-02-08T14:52:45Z</time>
      </trkpt>
      <trkpt lat="42.98573" lon="0.54433">
        <ele>1212.511</ele>
        <time>2020-02-08T14:52:44Z</time>
      </trkpt>
      <trkpt lat="42.98578" lon="0.54427">
        <ele>1214.111</ele>
        <time>2020-02-08T14:52:43Z</time>
      </trkpt>
      <trkpt lat="42.98582" lon="0.54421">
        <ele>1216.043</ele>
        <time>2020-02-08T14:52:42Z</time>
      </trkpt>
      <trkpt lat="42.98586" lon="0.54414">
        <ele>1217.859</ele>
        <time>2020-02-08T14:52:41Z</time>
      </trkpt>
      <trkpt lat="42.9859" lon="0.54405">
        <ele>1219.532</ele>
        <time>2020-02-08T14:52:40Z</time>
      </trkpt>
      <trkpt lat="42.98594" lon="0.54397">
        <ele>1221.453</ele>
        <time>2020-02-08T14:52:39Z</time>
      </trkpt>
      <trkpt lat="42.98596" lon="0.54388">
        <ele>1223.109</ele>
        <time>2020-02-08T14:52:38Z</time>
      </trkpt>
      <trkpt lat="42.98598" lon="0.54378">
        <ele>1225.111</ele>
        <time>2020-02-08T14:52:37Z</time>
      </trkpt>
      <trkpt lat="42.986" lon="0.54368">
        <ele>1227.083</ele>
        <time>2020-02-08T14:52:36Z</time>
      </trkpt>
      <trkpt lat="42.98601" lon="0.54358">
        <ele>1228.523</ele>
        <time>2020-02-08T14:52:35Z</time>
      </trkpt>
      <trkpt lat="42.98602" lon="0.54346">
        <ele>1230.181</ele>
        <time>2020-02-08T14:52:34Z</time>
      </trkpt>
      <trkpt lat="42.98604" lon="0.54334">
        <ele>1231.548</ele>
        <time>2020-02-08T14:52:33Z</time>
      </trkpt>
      <trkpt lat="42.98603" lon="0.54323">
        <ele>1233.05</ele>
        <time>2020-02-08T14:52:32Z</time>
      </trkpt>
      <trkpt lat="42.98603" lon="0.54311">
        <ele>1234.485</ele>
        <time>2020-02-08T14:52:31Z</time>
      </trkpt>
      <trkpt lat="42.98602" lon="0.543">
        <ele>1235.535</ele>
        <time>2020-02-08T14:52:30Z</time>
      </trkpt>
      <trkpt lat="42.986" lon="0.54287">
        <ele>1236.897</ele>
        <time>2020-02-08T14:52:29Z</time>
      </trkpt>
      <trkpt lat="42.98598" lon="0.54276">
        <ele>1237.873</ele>
        <time>2020-02-08T14:52:28Z</time>
      </trkpt>
      <trkpt lat="42.98597" lon="0.54263">
        <ele>1238.586</ele>
        <time>2020-02-08T14:52:27Z</time>
      </trkpt>
      <trkpt lat="42.98598" lon="0.54252">
        <ele>1239.097</ele>
        <time>2020-02-08T14:52:26Z</time>
      </trkpt>
      <trkpt lat="42.98597" lon="0.54248">
        <ele>1239.509</ele>
        <time>2020-02-08T14:52:25Z</time>
      </trkpt>
      <trkpt lat="42.98597" lon="0.54246">
        <ele>1247.083</ele>
        <time>2020-02-08T14:51:55Z</time>
      </trkpt>
      <trkpt lat="42.98596" lon="0.54247">
        <ele>1247.562</ele>
        <time>2020-02-08T14:51:54Z</time>
      </trkpt>
      <trkpt lat="42.98594" lon="0.5425">
        <ele>1248.031</ele>
        <time>2020-02-08T14:51:53Z</time>
      </trkpt>
      <trkpt lat="42.98592" lon="0.54252">
        <ele>1248.518</ele>
        <time>2020-02-08T14:51:52Z</time>
      </trkpt>
      <trkpt lat="42.98586" lon="0.54255">
        <ele>1249.09</ele>
        <time>2020-02-08T14:51:50Z</time>
      </trkpt>
      <trkpt lat="42.98581" lon="0.54259">
        <ele>1254.875</ele>
        <time>2020-02-08T14:51:45Z</time>
      </trkpt>
      <trkpt lat="42.9858" lon="0.54258">
        <ele>1256.835</ele>
        <time>2020-02-08T14:51:44Z</time>
      </trkpt>
      <trkpt lat="42.9858" lon="0.54256">
        <ele>1258.517</ele>
        <time>2020-02-08T14:51:43Z</time>
      </trkpt>
      <trkpt lat="42.9858" lon="0.5425">
        <ele>1260.853</ele>
        <time>2020-02-08T14:51:42Z</time>
      </trkpt>
      <trkpt lat="42.98582" lon="0.54242">
        <ele>1263.096</ele>
        <time>2020-02-08T14:51:41Z</time>
      </trkpt>
      <trkpt lat="42.98584" lon="0.54232">
        <ele>1265.117</ele>
        <time>2020-02-08T14:51:40Z</time>
      </trkpt>
      <trkpt lat="42.98585" lon="0.54221">
        <ele>1267.509</ele>
        <time>2020-02-08T14:51:39Z</time>
      </trkpt>
      <trkpt lat="42.98586" lon="0.5421">
        <ele>1269.814</ele>
        <time>2020-02-08T14:51:38Z</time>
      </trkpt>
      <trkpt lat="42.98588" lon="0.54197">
        <ele>1272.068</ele>
        <time>2020-02-08T14:51:37Z</time>
      </trkpt>
      <trkpt lat="42.98589" lon="0.54186">
        <ele>1274.165</ele>
        <time>2020-02-08T14:51:36Z</time>
      </trkpt>
      <trkpt lat="42.98591" lon="0.54174">
        <ele>1276.472</ele>
        <time>2020-02-08T14:51:35Z</time>
      </trkpt>
      <trkpt lat="42.98594" lon="0.54161">
        <ele>1278.489</ele>
        <time>2020-02-08T14:51:34Z</time>
      </trkpt>
      <trkpt lat="42.98596" lon="0.54149">
        <ele>1280.431</ele>
        <time>2020-02-08T14:51:33Z</time>
      </trkpt>
      <trkpt lat="42.98599" lon="0.54137">
        <ele>1282.416</ele>
        <time>2020-02-08T14:51:32Z</time>
      </trkpt>
      <trkpt lat="42.98601" lon="0.54126">
        <ele>1284.086</ele>
        <time>2020-02-08T14:51:31Z</time>
      </trkpt>
      <trkpt lat="42.98604" lon="0.54115">
        <ele>1285.888</ele>
        <time>2020-02-08T14:51:30Z</time>
      </trkpt>
      <trkpt lat="42.98606" lon="0.54105">
        <ele>1287.424</ele>
        <time>2020-02-08T14:51:29Z</time>
      </trkpt>
      <trkpt lat="42.98609" lon="0.54095">
        <ele>1289.017</ele>
        <time>2020-02-08T14:51:28Z</time>
      </trkpt>
      <trkpt lat="42.98613" lon="0.54086">
        <ele>1290.138</ele>
        <time>2020-02-08T14:51:27Z</time>
      </trkpt>
      <trkpt lat="42.98616" lon="0.54077">
        <ele>1291.509</ele>
        <time>2020-02-08T14:51:26Z</time>
      </trkpt>
      <trkpt lat="42.98619" lon="0.54071">
        <ele>1293.02</ele>
        <time>2020-02-08T14:51:25Z</time>
      </trkpt>
      <trkpt lat="42.9862" lon="0.54066">
        <ele>1294.428</ele>
        <time>2020-02-08T14:51:24Z</time>
      </trkpt>
      <trkpt lat="42.9862" lon="0.54061">
        <ele>1296.075</ele>
        <time>2020-02-08T14:51:23Z</time>
      </trkpt>
      <trkpt lat="42.98615" lon="0.5406">
        <ele>1297.546</ele>
        <time>2020-02-08T14:51:22Z</time>
      </trkpt>
      <trkpt lat="42.98609" lon="0.54063">
        <ele>1299.143</ele>
        <time>2020-02-08T14:51:21Z</time>
      </trkpt>
      <trkpt lat="42.98603" lon="0.54068">
        <ele>1301.065</ele>
        <time>2020-02-08T14:51:20Z</time>
      </trkpt>
      <trkpt lat="42.98597" lon="0.54074">
        <ele>1302.43</ele>
        <time>2020-02-08T14:51:19Z</time>
      </trkpt>
      <trkpt lat="42.9859" lon="0.54081">
        <ele>1304.04</ele>
        <time>2020-02-08T14:51:18Z</time>
      </trkpt>
      <trkpt lat="42.98582" lon="0.54087">
        <ele>1305.152</ele>
        <time>2020-02-08T14:51:17Z</time>
      </trkpt>
      <trkpt lat="42.98573" lon="0.54095">
        <ele>1306.518</ele>
        <time>2020-02-08T14:51:16Z</time>
      </trkpt>
      <trkpt lat="42.98564" lon="0.54103">
        <ele>1307.571</ele>
        <time>2020-02-08T14:51:15Z</time>
      </trkpt>
      <trkpt lat="42.98555" lon="0.5411">
        <ele>1308.852</ele>
        <time>2020-02-08T14:51:14Z</time>
      </trkpt>
      <trkpt lat="42.98547" lon="0.54117">
        <ele>1309.509</ele>
        <time>2020-02-08T14:51:13Z</time>
      </trkpt>
      <trkpt lat="42.98524" lon="0.54135">
        <ele>1310.403</ele>
        <time>2020-02-08T14:51:09Z</time>
      </trkpt>
      <trkpt lat="42.98513" lon="0.54144">
        <ele>1310.421</ele>
        <time>2020-02-08T14:51:03Z</time>
      </trkpt>
      <trkpt lat="42.98509" lon="0.54159">
        <ele>1310.411</ele>
        <time>2020-02-08T14:50:55Z</time>
      </trkpt>
      <trkpt lat="42.98508" lon="0.54162">
        <ele>1310.443</ele>
        <time>2020-02-08T14:50:53Z</time>
      </trkpt>
      <trkpt lat="42.98507" lon="0.54163">
        <ele>1311.11</ele>
        <time>2020-02-08T14:50:52Z</time>
      </trkpt>
      <trkpt lat="42.98506" lon="0.54162">
        <ele>1311.852</ele>
        <time>2020-02-08T14:50:51Z</time>
      </trkpt>
      <trkpt lat="42.98508" lon="0.54161">
        <ele>1312.587</ele>
        <time>2020-02-08T14:50:50Z</time>
      </trkpt>
      <trkpt lat="42.98509" lon="0.5416">
        <ele>1313.127</ele>
        <time>2020-02-08T14:50:49Z</time>
      </trkpt>
      <trkpt lat="42.9851" lon="0.54157">
        <ele>1314.029</ele>
        <time>2020-02-08T14:50:48Z</time>
      </trkpt>
      <trkpt lat="42.98512" lon="0.54154">
        <ele>1315.415</ele>
        <time>2020-02-08T14:50:47Z</time>
      </trkpt>
      <trkpt lat="42.98512" lon="0.54152">
        <ele>1316.878</ele>
        <time>2020-02-08T14:50:46Z</time>
      </trkpt>
      <trkpt lat="42.98512" lon="0.54148">
        <ele>1318.059</ele>
        <time>2020-02-08T14:50:45Z</time>
      </trkpt>
      <trkpt lat="42.98515" lon="0.54142">
        <ele>1319.409</ele>
        <time>2020-02-08T14:50:44Z</time>
      </trkpt>
      <trkpt lat="42.98519" lon="0.54133">
        <ele>1320.817</ele>
        <time>2020-02-08T14:50:43Z</time>
      </trkpt>
      <trkpt lat="42.98524" lon="0.54123">
        <ele>1322.143</ele>
        <time>2020-02-08T14:50:42Z</time>
      </trkpt>
      <trkpt lat="42.98529" lon="0.54111">
        <ele>1323.582</ele>
        <time>2020-02-08T14:50:41Z</time>
      </trkpt>
      <trkpt lat="42.98534" lon="0.54099">
        <ele>1325.094</ele>
        <time>2020-02-08T14:50:40Z</time>
      </trkpt>
      <trkpt lat="42.98539" lon="0.54087">
        <ele>1326.461</ele>
        <time>2020-02-08T14:50:39Z</time>
      </trkpt>
      <trkpt lat="42.98543" lon="0.54075">
        <ele>1327.543</ele>
        <time>2020-02-08T14:50:38Z</time>
      </trkpt>
      <trkpt lat="42.98547" lon="0.54063">
        <ele>1329.058</ele>
        <time>2020-02-08T14:50:37Z</time>
      </trkpt>
      <trkpt lat="42.98551" lon="0.54053">
        <ele>1330.418</ele>
        <time>2020-02-08T14:50:36Z</time>
      </trkpt>
      <trkpt lat="42.98555" lon="0.54041">
        <ele>1331.83</ele>
        <time>2020-02-08T14:50:35Z</time>
      </trkpt>
      <trkpt lat="42.98559" lon="0.54029">
        <ele>1333.176</ele>
        <time>2020-02-08T14:50:34Z</time>
      </trkpt>
      <trkpt lat="42.98562" lon="0.54018">
        <ele>1334.579</ele>
        <time>2020-02-08T14:50:33Z</time>
      </trkpt>
      <trkpt lat="42.98565" lon="0.54006">
        <ele>1335.87</ele>
        <time>2020-02-08T14:50:32Z</time>
      </trkpt>
      <trkpt lat="42.98568" lon="0.53993">
        <ele>1337.009</ele>
        <time>2020-02-08T14:50:31Z</time>
      </trkpt>
      <trkpt lat="42.9857" lon="0.5398">
        <ele>1338.424</ele>
        <time>2020-02-08T14:50:30Z</time>
      </trkpt>
      <trkpt lat="42.98572" lon="0.53968">
        <ele>1339.531</ele>
        <time>2020-02-08T14:50:29Z</time>
      </trkpt>
      <trkpt lat="42.98574" lon="0.53955">
        <ele>1340.896</ele>
        <time>2020-02-08T14:50:28Z</time>
      </trkpt>
      <trkpt lat="42.98577" lon="0.53942">
        <ele>1342.08</ele>
        <time>2020-02-08T14:50:27Z</time>
      </trkpt>
      <trkpt lat="42.98579" lon="0.53928">
        <ele>1343.157</ele>
        <time>2020-02-08T14:50:26Z</time>
      </trkpt>
      <trkpt lat="42.98582" lon="0.53915">
        <ele>1344.419</ele>
        <time>2020-02-08T14:50:25Z</time>
      </trkpt>
      <trkpt lat="42.98586" lon="0.53903">
        <ele>1345.534</ele>
        <time>2020-02-08T14:50:24Z</time>
      </trkpt>
      <trkpt lat="42.9859" lon="0.53891">
        <ele>1346.864</ele>
        <time>2020-02-08T14:50:23Z</time>
      </trkpt>
      <trkpt lat="42.98594" lon="0.53878">
        <ele>1348.076</ele>
        <time>2020-02-08T14:50:22Z</time>
      </trkpt>
      <trkpt lat="42.98599" lon="0.53867">
        <ele>1349.022</ele>
        <time>2020-02-08T14:50:21Z</time>
      </trkpt>
      <trkpt lat="42.98604" lon="0.53856">
        <ele>1350.025</ele>
        <time>2020-02-08T14:50:20Z</time>
      </trkpt>
      <trkpt lat="42.98614" lon="0.53836">
        <ele>1352.136</ele>
        <time>2020-02-08T14:50:18Z</time>
      </trkpt>
      <trkpt lat="42.98617" lon="0.53825">
        <ele>1353.109</ele>
        <time>2020-02-08T14:50:17Z</time>
      </trkpt>
      <trkpt lat="42.98619" lon="0.53815">
        <ele>1354.408</ele>
        <time>2020-02-08T14:50:16Z</time>
      </trkpt>
      <trkpt lat="42.98621" lon="0.53804">
        <ele>1355.553</ele>
        <time>2020-02-08T14:50:15Z</time>
      </trkpt>
      <trkpt lat="42.98622" lon="0.53794">
        <ele>1356.452</ele>
        <time>2020-02-08T14:50:14Z</time>
      </trkpt>
      <trkpt lat="42.98624" lon="0.53783">
        <ele>1357.43</ele>
        <time>2020-02-08T14:50:13Z</time>
      </trkpt>
      <trkpt lat="42.98627" lon="0.53772">
        <ele>1358.137</ele>
        <time>2020-02-08T14:50:12Z</time>
      </trkpt>
      <trkpt lat="42.98629" lon="0.53761">
        <ele>1359.159</ele>
        <time>2020-02-08T14:50:11Z</time>
      </trkpt>
      <trkpt lat="42.98631" lon="0.5375">
        <ele>1360.074</ele>
        <time>2020-02-08T14:50:10Z</time>
      </trkpt>
      <trkpt lat="42.98634" lon="0.5374">
        <ele>1360.884</ele>
        <time>2020-02-08T14:50:09Z</time>
      </trkpt>
      <trkpt lat="42.98636" lon="0.53729">
        <ele>1361.556</ele>
        <time>2020-02-08T14:50:08Z</time>
      </trkpt>
      <trkpt lat="42.98637" lon="0.53719">
        <ele>1362.112</ele>
        <time>2020-02-08T14:50:07Z</time>
      </trkpt>
      <trkpt lat="42.98638" lon="0.53709">
        <ele>1362.865</ele>
        <time>2020-02-08T14:50:06Z</time>
      </trkpt>
      <trkpt lat="42.98638" lon="0.537">
        <ele>1363.186</ele>
        <time>2020-02-08T14:50:05Z</time>
      </trkpt>
      <trkpt lat="42.98639" lon="0.53688">
        <ele>1363.509</ele>
        <time>2020-02-08T14:50:03Z</time>
      </trkpt>
      <trkpt lat="42.98639" lon="0.53662">
        <ele>1363.517</ele>
        <time>2020-02-08T14:49:59Z</time>
      </trkpt>
      <trkpt lat="42.9864" lon="0.53658">
        <ele>1366.158</ele>
        <time>2020-02-08T14:47:48Z</time>
      </trkpt>
      <trkpt lat="42.98641" lon="0.53656">
        <ele>1366.854</ele>
        <time>2020-02-08T14:47:47Z</time>
      </trkpt>
      <trkpt lat="42.98641" lon="0.53654">
        <ele>1367.881</ele>
        <time>2020-02-08T14:47:46Z</time>
      </trkpt>
      <trkpt lat="42.98641" lon="0.53651">
        <ele>1368.883</ele>
        <time>2020-02-08T14:47:45Z</time>
      </trkpt>
      <trkpt lat="42.98639" lon="0.53646">
        <ele>1369.888</ele>
        <time>2020-02-08T14:47:44Z</time>
      </trkpt>
      <trkpt lat="42.98637" lon="0.5364">
        <ele>1370.878</ele>
        <time>2020-02-08T14:47:43Z</time>
      </trkpt>
      <trkpt lat="42.98635" lon="0.53629">
        <ele>1371.86</ele>
        <time>2020-02-08T14:47:42Z</time>
      </trkpt>
      <trkpt lat="42.98635" lon="0.53619">
        <ele>1372.896</ele>
        <time>2020-02-08T14:47:41Z</time>
      </trkpt>
      <trkpt lat="42.98636" lon="0.53608">
        <ele>1373.839</ele>
        <time>2020-02-08T14:47:40Z</time>
      </trkpt>
      <trkpt lat="42.98637" lon="0.53599">
        <ele>1374.88</ele>
        <time>2020-02-08T14:47:39Z</time>
      </trkpt>
      <trkpt lat="42.98639" lon="0.53589">
        <ele>1375.509</ele>
        <time>2020-02-08T14:47:38Z</time>
      </trkpt>
      <trkpt lat="42.98637" lon="0.53585">
        <ele>1377.023</ele>
        <time>2020-02-08T14:47:37Z</time>
      </trkpt>
      <trkpt lat="42.98632" lon="0.5358">
        <ele>1378.449</ele>
        <time>2020-02-08T14:47:36Z</time>
      </trkpt>
      <trkpt lat="42.98629" lon="0.53581">
        <ele>1379.895</ele>
        <time>2020-02-08T14:47:35Z</time>
      </trkpt>
      <trkpt lat="42.98627" lon="0.53587">
        <ele>1381.166</ele>
        <time>2020-02-08T14:47:34Z</time>
      </trkpt>
      <trkpt lat="42.98626" lon="0.53595">
        <ele>1382.823</ele>
        <time>2020-02-08T14:47:33Z</time>
      </trkpt>
      <trkpt lat="42.98625" lon="0.53605">
        <ele>1384.465</ele>
        <time>2020-02-08T14:47:32Z</time>
      </trkpt>
      <trkpt lat="42.98621" lon="0.53613">
        <ele>1386.08</ele>
        <time>2020-02-08T14:47:31Z</time>
      </trkpt>
      <trkpt lat="42.98618" lon="0.53624">
        <ele>1387.54</ele>
        <time>2020-02-08T14:47:30Z</time>
      </trkpt>
      <trkpt lat="42.98614" lon="0.53636">
        <ele>1389.042</ele>
        <time>2020-02-08T14:47:29Z</time>
      </trkpt>
      <trkpt lat="42.98609" lon="0.53648">
        <ele>1390.578</ele>
        <time>2020-02-08T14:47:28Z</time>
      </trkpt>
      <trkpt lat="42.98604" lon="0.53659">
        <ele>1392.161</ele>
        <time>2020-02-08T14:47:27Z</time>
      </trkpt>
      <trkpt lat="42.98599" lon="0.5367">
        <ele>1393.842</ele>
        <time>2020-02-08T14:47:26Z</time>
      </trkpt>
      <trkpt lat="42.98593" lon="0.5368">
        <ele>1395.509</ele>
        <time>2020-02-08T14:47:25Z</time>
      </trkpt>
      <trkpt lat="42.98586" lon="0.53692">
        <ele>1397.013</ele>
        <time>2020-02-08T14:47:24Z</time>
      </trkpt>
      <trkpt lat="42.98581" lon="0.53703">
        <ele>1398.476</ele>
        <time>2020-02-08T14:47:23Z</time>
      </trkpt>
      <trkpt lat="42.98576" lon="0.53714">
        <ele>1399.816</ele>
        <time>2020-02-08T14:47:22Z</time>
      </trkpt>
      <trkpt lat="42.98571" lon="0.53723">
        <ele>1401.19</ele>
        <time>2020-02-08T14:47:21Z</time>
      </trkpt>
      <trkpt lat="42.98567" lon="0.53732">
        <ele>1402.857</ele>
        <time>2020-02-08T14:47:20Z</time>
      </trkpt>
      <trkpt lat="42.98562" lon="0.53742">
        <ele>1404.419</ele>
        <time>2020-02-08T14:47:19Z</time>
      </trkpt>
      <trkpt lat="42.98557" lon="0.53752">
        <ele>1406.024</ele>
        <time>2020-02-08T14:47:18Z</time>
      </trkpt>
      <trkpt lat="42.98552" lon="0.53762">
        <ele>1407.514</ele>
        <time>2020-02-08T14:47:17Z</time>
      </trkpt>
      <trkpt lat="42.98546" lon="0.53771">
        <ele>1409.146</ele>
        <time>2020-02-08T14:47:16Z</time>
      </trkpt>
      <trkpt lat="42.98539" lon="0.5378">
        <ele>1410.832</ele>
        <time>2020-02-08T14:47:15Z</time>
      </trkpt>
      <trkpt lat="42.98532" lon="0.53789">
        <ele>1412.095</ele>
        <time>2020-02-08T14:47:14Z</time>
      </trkpt>
      <trkpt lat="42.98524" lon="0.53797">
        <ele>1413.476</ele>
        <time>2020-02-08T14:47:13Z</time>
      </trkpt>
      <trkpt lat="42.98518" lon="0.53806">
        <ele>1414.809</ele>
        <time>2020-02-08T14:47:12Z</time>
      </trkpt>
      <trkpt lat="42.98512" lon="0.53817">
        <ele>1416.42</ele>
        <time>2020-02-08T14:47:11Z</time>
      </trkpt>
      <trkpt lat="42.98507" lon="0.53826">
        <ele>1418</ele>
        <time>2020-02-08T14:47:10Z</time>
      </trkpt>
      <trkpt lat="42.98501" lon="0.53836">
        <ele>1419.557</ele>
        <time>2020-02-08T14:47:09Z</time>
      </trkpt>
      <trkpt lat="42.98496" lon="0.53846">
        <ele>1421.172</ele>
        <time>2020-02-08T14:47:08Z</time>
      </trkpt>
      <trkpt lat="42.9849" lon="0.53856">
        <ele>1422.889</ele>
        <time>2020-02-08T14:47:07Z</time>
      </trkpt>
      <trkpt lat="42.98483" lon="0.53866">
        <ele>1424.421</ele>
        <time>2020-02-08T14:47:06Z</time>
      </trkpt>
      <trkpt lat="42.98476" lon="0.53875">
        <ele>1426.046</ele>
        <time>2020-02-08T14:47:05Z</time>
      </trkpt>
      <trkpt lat="42.98469" lon="0.53884">
        <ele>1427.166</ele>
        <time>2020-02-08T14:47:04Z</time>
      </trkpt>
      <trkpt lat="42.98461" lon="0.53893">
        <ele>1428.568</ele>
        <time>2020-02-08T14:47:03Z</time>
      </trkpt>
      <trkpt lat="42.98454" lon="0.53903">
        <ele>1430.084</ele>
        <time>2020-02-08T14:47:02Z</time>
      </trkpt>
      <trkpt lat="42.98447" lon="0.53912">
        <ele>1431.417</ele>
        <time>2020-02-08T14:47:01Z</time>
      </trkpt>
      <trkpt lat="42.9844" lon="0.53921">
        <ele>1432.578</ele>
        <time>2020-02-08T14:47:00Z</time>
      </trkpt>
      <trkpt lat="42.98432" lon="0.5393">
        <ele>1433.809</ele>
        <time>2020-02-08T14:46:59Z</time>
      </trkpt>
      <trkpt lat="42.98425" lon="0.53939">
        <ele>1435.027</ele>
        <time>2020-02-08T14:46:58Z</time>
      </trkpt>
      <trkpt lat="42.98418" lon="0.53948">
        <ele>1436.161</ele>
        <time>2020-02-08T14:46:57Z</time>
      </trkpt>
      <trkpt lat="42.98411" lon="0.53958">
        <ele>1437.577</ele>
        <time>2020-02-08T14:46:56Z</time>
      </trkpt>
      <trkpt lat="42.98403" lon="0.53964">
        <ele>1439.043</ele>
        <time>2020-02-08T14:46:55Z</time>
      </trkpt>
      <trkpt lat="42.98394" lon="0.53969">
        <ele>1440.41</ele>
        <time>2020-02-08T14:46:54Z</time>
      </trkpt>
      <trkpt lat="42.98388" lon="0.53972">
        <ele>1441.812</ele>
        <time>2020-02-08T14:46:53Z</time>
      </trkpt>
      <trkpt lat="42.9838" lon="0.53974">
        <ele>1443.417</ele>
        <time>2020-02-08T14:46:52Z</time>
      </trkpt>
      <trkpt lat="42.98373" lon="0.53976">
        <ele>1444.887</ele>
        <time>2020-02-08T14:46:51Z</time>
      </trkpt>
      <trkpt lat="42.98365" lon="0.53975">
        <ele>1446.119</ele>
        <time>2020-02-08T14:46:50Z</time>
      </trkpt>
      <trkpt lat="42.98358" lon="0.53975">
        <ele>1447.585</ele>
        <time>2020-02-08T14:46:49Z</time>
      </trkpt>
      <trkpt lat="42.98351" lon="0.53976">
        <ele>1449.098</ele>
        <time>2020-02-08T14:46:48Z</time>
      </trkpt>
      <trkpt lat="42.98345" lon="0.53978">
        <ele>1450.479</ele>
        <time>2020-02-08T14:46:47Z</time>
      </trkpt>
      <trkpt lat="42.98338" lon="0.53981">
        <ele>1451.809</ele>
        <time>2020-02-08T14:46:46Z</time>
      </trkpt>
      <trkpt lat="42.9833" lon="0.53985">
        <ele>1453.026</ele>
        <time>2020-02-08T14:46:45Z</time>
      </trkpt>
      <trkpt lat="42.98321" lon="0.53988">
        <ele>1454.406</ele>
        <time>2020-02-08T14:46:44Z</time>
      </trkpt>
      <trkpt lat="42.98314" lon="0.53992">
        <ele>1455.589</ele>
        <time>2020-02-08T14:46:43Z</time>
      </trkpt>
      <trkpt lat="42.98306" lon="0.53996">
        <ele>1456.84</ele>
        <time>2020-02-08T14:46:42Z</time>
      </trkpt>
      <trkpt lat="42.98298" lon="0.54">
        <ele>1457.827</ele>
        <time>2020-02-08T14:46:41Z</time>
      </trkpt>
      <trkpt lat="42.9829" lon="0.54005">
        <ele>1459.089</ele>
        <time>2020-02-08T14:46:40Z</time>
      </trkpt>
      <trkpt lat="42.98283" lon="0.5401">
        <ele>1460.024</ele>
        <time>2020-02-08T14:46:39Z</time>
      </trkpt>
      <trkpt lat="42.98276" lon="0.54016">
        <ele>1461.084</ele>
        <time>2020-02-08T14:46:38Z</time>
      </trkpt>
      <trkpt lat="42.98269" lon="0.54021">
        <ele>1462.136</ele>
        <time>2020-02-08T14:46:37Z</time>
      </trkpt>
      <trkpt lat="42.98262" lon="0.54028">
        <ele>1463.442</ele>
        <time>2020-02-08T14:46:36Z</time>
      </trkpt>
      <trkpt lat="42.98257" lon="0.54034">
        <ele>1464.495</ele>
        <time>2020-02-08T14:46:35Z</time>
      </trkpt>
      <trkpt lat="42.9825" lon="0.5404">
        <ele>1465.546</ele>
        <time>2020-02-08T14:46:34Z</time>
      </trkpt>
      <trkpt lat="42.98244" lon="0.54044">
        <ele>1466.809</ele>
        <time>2020-02-08T14:46:33Z</time>
      </trkpt>
      <trkpt lat="42.98238" lon="0.54047">
        <ele>1468.117</ele>
        <time>2020-02-08T14:46:32Z</time>
      </trkpt>
      <trkpt lat="42.98232" lon="0.54049">
        <ele>1469.407</ele>
        <time>2020-02-08T14:46:31Z</time>
      </trkpt>
      <trkpt lat="42.98226" lon="0.54052">
        <ele>1470.455</ele>
        <time>2020-02-08T14:46:30Z</time>
      </trkpt>
      <trkpt lat="42.98219" lon="0.54056">
        <ele>1471.556</ele>
        <time>2020-02-08T14:46:29Z</time>
      </trkpt>
      <trkpt lat="42.98213" lon="0.5406">
        <ele>1472.463</ele>
        <time>2020-02-08T14:46:28Z</time>
      </trkpt>
      <trkpt lat="42.98207" lon="0.54064">
        <ele>1473.145</ele>
        <time>2020-02-08T14:46:27Z</time>
      </trkpt>
      <trkpt lat="42.98204" lon="0.54064">
        <ele>1474.06</ele>
        <time>2020-02-08T14:46:26Z</time>
      </trkpt>
      <trkpt lat="42.98197" lon="0.54067">
        <ele>1474.55</ele>
        <time>2020-02-08T14:46:25Z</time>
      </trkpt>
      <trkpt lat="42.98192" lon="0.54069">
        <ele>1475.182</ele>
        <time>2020-02-08T14:46:24Z</time>
      </trkpt>
      <trkpt lat="42.98186" lon="0.54072">
        <ele>1475.838</ele>
        <time>2020-02-08T14:46:23Z</time>
      </trkpt>
      <trkpt lat="42.98178" lon="0.54077">
        <ele>1476.141</ele>
        <time>2020-02-08T14:46:22Z</time>
      </trkpt>
      <trkpt lat="42.98171" lon="0.54082">
        <ele>1476.162</ele>
        <time>2020-02-08T14:46:21Z</time>
      </trkpt>
      <trkpt lat="42.98167" lon="0.54085">
        <ele>1478.019</ele>
        <time>2020-02-08T14:43:29Z</time>
      </trkpt>
      <trkpt lat="42.98168" lon="0.54084">
        <ele>1478.509</ele>
        <time>2020-02-08T14:43:28Z</time>
      </trkpt>
      <trkpt lat="42.98169" lon="0.54082">
        <ele>1478.519</ele>
        <time>2020-02-08T14:43:27Z</time>
      </trkpt>
      <trkpt lat="42.98172" lon="0.54077">
        <ele>1479.849</ele>
        <time>2020-02-08T14:43:25Z</time>
      </trkpt>
      <trkpt lat="42.98174" lon="0.54073">
        <ele>1480.426</ele>
        <time>2020-02-08T14:43:24Z</time>
      </trkpt>
      <trkpt lat="42.98176" lon="0.5407">
        <ele>1481.198</ele>
        <time>2020-02-08T14:43:23Z</time>
      </trkpt>
      <trkpt lat="42.98179" lon="0.54065">
        <ele>1482.863</ele>
        <time>2020-02-08T14:43:22Z</time>
      </trkpt>
      <trkpt lat="42.98181" lon="0.5406">
        <ele>1483.533</ele>
        <time>2020-02-08T14:43:21Z</time>
      </trkpt>
      <trkpt lat="42.98183" lon="0.54056">
        <ele>1484.575</ele>
        <time>2020-02-08T14:43:20Z</time>
      </trkpt>
      <trkpt lat="42.98185" lon="0.5405">
        <ele>1485.441</ele>
        <time>2020-02-08T14:43:19Z</time>
      </trkpt>
      <trkpt lat="42.98188" lon="0.54044">
        <ele>1486.134</ele>
        <time>2020-02-08T14:43:18Z</time>
      </trkpt>
      <trkpt lat="42.98189" lon="0.54038">
        <ele>1487.095</ele>
        <time>2020-02-08T14:43:17Z</time>
      </trkpt>
      <trkpt lat="42.98192" lon="0.54033">
        <ele>1487.509</ele>
        <time>2020-02-08T14:43:16Z</time>
      </trkpt>
      <trkpt lat="42.98194" lon="0.54026">
        <ele>1488.11</ele>
        <time>2020-02-08T14:43:15Z</time>
      </trkpt>
      <trkpt lat="42.98196" lon="0.54019">
        <ele>1488.564</ele>
        <time>2020-02-08T14:43:14Z</time>
      </trkpt>
      <trkpt lat="42.98199" lon="0.54013">
        <ele>1489.043</ele>
        <time>2020-02-08T14:43:13Z</time>
      </trkpt>
      <trkpt lat="42.98202" lon="0.54006">
        <ele>1489.444</ele>
        <time>2020-02-08T14:43:12Z</time>
      </trkpt>
      <trkpt lat="42.98204" lon="0.54001">
        <ele>1489.851</ele>
        <time>2020-02-08T14:43:11Z</time>
      </trkpt>
      <trkpt lat="42.98211" lon="0.5398">
        <ele>1490.173</ele>
        <time>2020-02-08T14:43:07Z</time>
      </trkpt>
      <trkpt lat="42.98213" lon="0.53975">
        <ele>1490.578</ele>
        <time>2020-02-08T14:43:06Z</time>
      </trkpt>
      <trkpt lat="42.98215" lon="0.5397">
        <ele>1491.058</ele>
        <time>2020-02-08T14:43:05Z</time>
      </trkpt>
      <trkpt lat="42.98217" lon="0.53965">
        <ele>1491.46</ele>
        <time>2020-02-08T14:43:04Z</time>
      </trkpt>
      <trkpt lat="42.98221" lon="0.53959">
        <ele>1491.836</ele>
        <time>2020-02-08T14:43:03Z</time>
      </trkpt>
      <trkpt lat="42.98231" lon="0.53942">
        <ele>1492.179</ele>
        <time>2020-02-08T14:42:59Z</time>
      </trkpt>
      <trkpt lat="42.98247" lon="0.53917">
        <ele>1492.16</ele>
        <time>2020-02-08T14:42:52Z</time>
      </trkpt>
      <trkpt lat="42.98252" lon="0.53912">
        <ele>1492.109</ele>
        <time>2020-02-08T14:42:50Z</time>
      </trkpt>
      <trkpt lat="42.98254" lon="0.53909">
        <ele>1493.021</ele>
        <time>2020-02-08T14:42:49Z</time>
      </trkpt>
      <trkpt lat="42.98256" lon="0.53905">
        <ele>1493.865</ele>
        <time>2020-02-08T14:42:48Z</time>
      </trkpt>
      <trkpt lat="42.98258" lon="0.53902">
        <ele>1494.593</ele>
        <time>2020-02-08T14:42:47Z</time>
      </trkpt>
      <trkpt lat="42.98259" lon="0.53899">
        <ele>1495.469</ele>
        <time>2020-02-08T14:42:46Z</time>
      </trkpt>
      <trkpt lat="42.98261" lon="0.53896">
        <ele>1496.086</ele>
        <time>2020-02-08T14:42:45Z</time>
      </trkpt>
      <trkpt lat="42.98261" lon="0.53892">
        <ele>1497.018</ele>
        <time>2020-02-08T14:42:44Z</time>
      </trkpt>
      <trkpt lat="42.98262" lon="0.53887">
        <ele>1497.853</ele>
        <time>2020-02-08T14:42:43Z</time>
      </trkpt>
      <trkpt lat="42.98262" lon="0.53882">
        <ele>1498.563</ele>
        <time>2020-02-08T14:42:42Z</time>
      </trkpt>
      <trkpt lat="42.98262" lon="0.53877">
        <ele>1499.585</ele>
        <time>2020-02-08T14:42:41Z</time>
      </trkpt>
      <trkpt lat="42.98263" lon="0.53873">
        <ele>1500.441</ele>
        <time>2020-02-08T14:42:40Z</time>
      </trkpt>
      <trkpt lat="42.98264" lon="0.53869">
        <ele>1501.134</ele>
        <time>2020-02-08T14:42:39Z</time>
      </trkpt>
      <trkpt lat="42.98264" lon="0.53865">
        <ele>1502.055</ele>
        <time>2020-02-08T14:42:38Z</time>
      </trkpt>
      <trkpt lat="42.98264" lon="0.53861">
        <ele>1502.809</ele>
        <time>2020-02-08T14:42:37Z</time>
      </trkpt>
      <trkpt lat="42.98264" lon="0.53856">
        <ele>1503.115</ele>
        <time>2020-02-08T14:42:36Z</time>
      </trkpt>
      <trkpt lat="42.98264" lon="0.5385">
        <ele>1503.805</ele>
        <time>2020-02-08T14:42:35Z</time>
      </trkpt>
      <trkpt lat="42.98265" lon="0.53845">
        <ele>1504.444</ele>
        <time>2020-02-08T14:42:34Z</time>
      </trkpt>
      <trkpt lat="42.98266" lon="0.53841">
        <ele>1504.413</ele>
        <time>2020-02-08T14:42:33Z</time>
      </trkpt>
      <trkpt lat="42.98267" lon="0.53827">
        <ele>1505.852</ele>
        <time>2020-02-08T14:42:23Z</time>
      </trkpt>
      <trkpt lat="42.98267" lon="0.53826">
        <ele>1506.147</ele>
        <time>2020-02-08T14:42:22Z</time>
      </trkpt>
      <trkpt lat="42.98268" lon="0.5382">
        <ele>1506.877</ele>
        <time>2020-02-08T14:42:18Z</time>
      </trkpt>
      <trkpt lat="42.98269" lon="0.53818">
        <ele>1507.879</ele>
        <time>2020-02-08T14:42:17Z</time>
      </trkpt>
      <trkpt lat="42.98269" lon="0.53816">
        <ele>1508.855</ele>
        <time>2020-02-08T14:42:16Z</time>
      </trkpt>
      <trkpt lat="42.9827" lon="0.53814">
        <ele>1509.888</ele>
        <time>2020-02-08T14:42:15Z</time>
      </trkpt>
      <trkpt lat="42.9827" lon="0.53812">
        <ele>1510.599</ele>
        <time>2020-02-08T14:42:14Z</time>
      </trkpt>
      <trkpt lat="42.98272" lon="0.53802">
        <ele>1512.509</ele>
        <time>2020-02-08T14:42:12Z</time>
      </trkpt>
      <trkpt lat="42.98272" lon="0.53795">
        <ele>1513.417</ele>
        <time>2020-02-08T14:42:11Z</time>
      </trkpt>
      <trkpt lat="42.98273" lon="0.53788">
        <ele>1514.043</ele>
        <time>2020-02-08T14:42:10Z</time>
      </trkpt>
      <trkpt lat="42.98274" lon="0.53781">
        <ele>1514.582</ele>
        <time>2020-02-08T14:42:09Z</time>
      </trkpt>
      <trkpt lat="42.98274" lon="0.53776">
        <ele>1515.433</ele>
        <time>2020-02-08T14:42:08Z</time>
      </trkpt>
      <trkpt lat="42.98274" lon="0.5377">
        <ele>1516.09</ele>
        <time>2020-02-08T14:42:07Z</time>
      </trkpt>
      <trkpt lat="42.98275" lon="0.53767">
        <ele>1516.842</ele>
        <time>2020-02-08T14:42:06Z</time>
      </trkpt>
      <trkpt lat="42.98275" lon="0.53763">
        <ele>1517.427</ele>
        <time>2020-02-08T14:42:05Z</time>
      </trkpt>
      <trkpt lat="42.98275" lon="0.53761">
        <ele>1518.127</ele>
        <time>2020-02-08T14:42:04Z</time>
      </trkpt>
      <trkpt lat="42.98275" lon="0.53758">
        <ele>1518.599</ele>
        <time>2020-02-08T14:42:03Z</time>
      </trkpt>
      <trkpt lat="42.98274" lon="0.53757">
        <ele>1519.075</ele>
        <time>2020-02-08T14:42:02Z</time>
      </trkpt>
      <trkpt lat="42.98274" lon="0.53754">
        <ele>1519.488</ele>
        <time>2020-02-08T14:42:01Z</time>
      </trkpt>
      <trkpt lat="42.98274" lon="0.53752">
        <ele>1519.829</ele>
        <time>2020-02-08T14:42:00Z</time>
      </trkpt>
      <trkpt lat="42.98274" lon="0.53749">
        <ele>1520.409</ele>
        <time>2020-02-08T14:41:59Z</time>
      </trkpt>
      <trkpt lat="42.98275" lon="0.53745">
        <ele>1520.817</ele>
        <time>2020-02-08T14:41:58Z</time>
      </trkpt>
      <trkpt lat="42.98275" lon="0.53742">
        <ele>1521.189</ele>
        <time>2020-02-08T14:41:57Z</time>
      </trkpt>
      <trkpt lat="42.98275" lon="0.53733">
        <ele>1521.585</ele>
        <time>2020-02-08T14:41:54Z</time>
      </trkpt>
      <trkpt lat="42.98276" lon="0.53727">
        <ele>1521.58</ele>
        <time>2020-02-08T14:41:53Z</time>
      </trkpt>
      <trkpt lat="42.98278" lon="0.53721">
        <ele>1522.869</ele>
        <time>2020-02-08T14:41:40Z</time>
      </trkpt>
      <trkpt lat="42.98278" lon="0.5372">
        <ele>1523.144</ele>
        <time>2020-02-08T14:41:39Z</time>
      </trkpt>
      <trkpt lat="42.98278" lon="0.53713">
        <ele>1523.544</ele>
        <time>2020-02-08T14:41:34Z</time>
      </trkpt>
      <trkpt lat="42.98278" lon="0.53712">
        <ele>1524.186</ele>
        <time>2020-02-08T14:41:33Z</time>
      </trkpt>
      <trkpt lat="42.98279" lon="0.5371">
        <ele>1524.512</ele>
        <time>2020-02-08T14:41:32Z</time>
      </trkpt>
      <trkpt lat="42.9828" lon="0.53709">
        <ele>1525.035</ele>
        <time>2020-02-08T14:41:31Z</time>
      </trkpt>
      <trkpt lat="42.9828" lon="0.53708">
        <ele>1525.576</ele>
        <time>2020-02-08T14:41:30Z</time>
      </trkpt>
      <trkpt lat="42.98281" lon="0.53706">
        <ele>1526.009</ele>
        <time>2020-02-08T14:41:29Z</time>
      </trkpt>
      <trkpt lat="42.98281" lon="0.53704">
        <ele>1526.414</ele>
        <time>2020-02-08T14:41:28Z</time>
      </trkpt>
      <trkpt lat="42.98281" lon="0.53702">
        <ele>1527.004</ele>
        <time>2020-02-08T14:41:27Z</time>
      </trkpt>
      <trkpt lat="42.98282" lon="0.53697">
        <ele>1527.453</ele>
        <time>2020-02-08T14:41:26Z</time>
      </trkpt>
      <trkpt lat="42.98282" lon="0.53687">
        <ele>1528.443</ele>
        <time>2020-02-08T14:41:24Z</time>
      </trkpt>
      <trkpt lat="42.98284" lon="0.53682">
        <ele>1528.88</ele>
        <time>2020-02-08T14:41:23Z</time>
      </trkpt>
      <trkpt lat="42.98286" lon="0.53677">
        <ele>1529.192</ele>
        <time>2020-02-08T14:41:22Z</time>
      </trkpt>
      <trkpt lat="42.98289" lon="0.53671">
        <ele>1529.867</ele>
        <time>2020-02-08T14:41:21Z</time>
      </trkpt>
      <trkpt lat="42.98291" lon="0.53664">
        <ele>1530.197</ele>
        <time>2020-02-08T14:41:20Z</time>
      </trkpt>
      <trkpt lat="42.98293" lon="0.53658">
        <ele>1530.549</ele>
        <time>2020-02-08T14:41:19Z</time>
      </trkpt>
      <trkpt lat="42.98295" lon="0.53651">
        <ele>1531.015</ele>
        <time>2020-02-08T14:41:18Z</time>
      </trkpt>
      <trkpt lat="42.98297" lon="0.53643">
        <ele>1531.488</ele>
        <time>2020-02-08T14:41:17Z</time>
      </trkpt>
      <trkpt lat="42.98299" lon="0.53636">
        <ele>1531.889</ele>
        <time>2020-02-08T14:41:16Z</time>
      </trkpt>
      <trkpt lat="42.983" lon="0.53628">
        <ele>1532.109</ele>
        <time>2020-02-08T14:41:15Z</time>
      </trkpt>
      <trkpt lat="42.98301" lon="0.53621">
        <ele>1532.526</ele>
        <time>2020-02-08T14:41:14Z</time>
      </trkpt>
      <trkpt lat="42.98302" lon="0.53615">
        <ele>1533.006</ele>
        <time>2020-02-08T14:41:13Z</time>
      </trkpt>
      <trkpt lat="42.98303" lon="0.53609">
        <ele>1533.589</ele>
        <time>2020-02-08T14:41:12Z</time>
      </trkpt>
      <trkpt lat="42.98304" lon="0.53603">
        <ele>1534.037</ele>
        <time>2020-02-08T14:41:11Z</time>
      </trkpt>
      <trkpt lat="42.98305" lon="0.53597">
        <ele>1534.424</ele>
        <time>2020-02-08T14:41:10Z</time>
      </trkpt>
      <trkpt lat="42.98308" lon="0.53581">
        <ele>1534.866</ele>
        <time>2020-02-08T14:41:07Z</time>
      </trkpt>
      <trkpt lat="42.98308" lon="0.53576">
        <ele>1535.551</ele>
        <time>2020-02-08T14:41:06Z</time>
      </trkpt>
      <trkpt lat="42.98309" lon="0.53571">
        <ele>1536.171</ele>
        <time>2020-02-08T14:41:05Z</time>
      </trkpt>
      <trkpt lat="42.9831" lon="0.53566">
        <ele>1537.063</ele>
        <time>2020-02-08T14:41:04Z</time>
      </trkpt>
      <trkpt lat="42.98308" lon="0.53563">
        <ele>1537.589</ele>
        <time>2020-02-08T14:41:03Z</time>
      </trkpt>
      <trkpt lat="42.98306" lon="0.53561">
        <ele>1538.472</ele>
        <time>2020-02-08T14:41:02Z</time>
      </trkpt>
      <trkpt lat="42.98305" lon="0.53559">
        <ele>1539.093</ele>
        <time>2020-02-08T14:41:01Z</time>
      </trkpt>
      <trkpt lat="42.98302" lon="0.53559">
        <ele>1539.809</ele>
        <time>2020-02-08T14:41:00Z</time>
      </trkpt>
      <trkpt lat="42.983" lon="0.53561">
        <ele>1540.508</ele>
        <time>2020-02-08T14:40:59Z</time>
      </trkpt>
      <trkpt lat="42.98296" lon="0.53565">
        <ele>1541.126</ele>
        <time>2020-02-08T14:40:58Z</time>
      </trkpt>
      <trkpt lat="42.98293" lon="0.53568">
        <ele>1542.025</ele>
        <time>2020-02-08T14:40:57Z</time>
      </trkpt>
      <trkpt lat="42.98289" lon="0.53572">
        <ele>1542.597</ele>
        <time>2020-02-08T14:40:56Z</time>
      </trkpt>
      <trkpt lat="42.98285" lon="0.53577">
        <ele>1543.174</ele>
        <time>2020-02-08T14:40:55Z</time>
      </trkpt>
      <trkpt lat="42.98281" lon="0.53581">
        <ele>1543.826</ele>
        <time>2020-02-08T14:40:54Z</time>
      </trkpt>
      <trkpt lat="42.98277" lon="0.53586">
        <ele>1544.151</ele>
        <time>2020-02-08T14:40:53Z</time>
      </trkpt>
      <trkpt lat="42.98273" lon="0.5359">
        <ele>1545.091</ele>
        <time>2020-02-08T14:40:52Z</time>
      </trkpt>
      <trkpt lat="42.98269" lon="0.53594">
        <ele>1545.513</ele>
        <time>2020-02-08T14:40:51Z</time>
      </trkpt>
      <trkpt lat="42.98266" lon="0.53598">
        <ele>1546.119</ele>
        <time>2020-02-08T14:40:50Z</time>
      </trkpt>
      <trkpt lat="42.98262" lon="0.53602">
        <ele>1546.832</ele>
        <time>2020-02-08T14:40:49Z</time>
      </trkpt>
      <trkpt lat="42.98259" lon="0.53606">
        <ele>1547.163</ele>
        <time>2020-02-08T14:40:48Z</time>
      </trkpt>
      <trkpt lat="42.98256" lon="0.53611">
        <ele>1547.509</ele>
        <time>2020-02-08T14:40:47Z</time>
      </trkpt>
      <trkpt lat="42.9825" lon="0.53619">
        <ele>1548.117</ele>
        <time>2020-02-08T14:40:45Z</time>
      </trkpt>
      <trkpt lat="42.98247" lon="0.53623">
        <ele>1548.189</ele>
        <time>2020-02-08T14:40:44Z</time>
      </trkpt>
      <trkpt lat="42.98239" lon="0.53634">
        <ele>1548.128</ele>
        <time>2020-02-08T14:40:39Z</time>
      </trkpt>
      <trkpt lat="42.98232" lon="0.53648">
        <ele>1548.172</ele>
        <time>2020-02-08T14:40:33Z</time>
      </trkpt>
      <trkpt lat="42.98229" lon="0.53652">
        <ele>1548.149</ele>
        <time>2020-02-08T14:40:31Z</time>
      </trkpt>
      <trkpt lat="42.98227" lon="0.53655">
        <ele>1548.551</ele>
        <time>2020-02-08T14:40:30Z</time>
      </trkpt>
      <trkpt lat="42.98224" lon="0.53659">
        <ele>1549.056</ele>
        <time>2020-02-08T14:40:29Z</time>
      </trkpt>
      <trkpt lat="42.98222" lon="0.53664">
        <ele>1549.496</ele>
        <time>2020-02-08T14:40:28Z</time>
      </trkpt>
      <trkpt lat="42.9822" lon="0.53669">
        <ele>1550.058</ele>
        <time>2020-02-08T14:40:27Z</time>
      </trkpt>
      <trkpt lat="42.9821" lon="0.53683">
        <ele>1550.424</ele>
        <time>2020-02-08T14:40:23Z</time>
      </trkpt>
      <trkpt lat="42.98208" lon="0.53686">
        <ele>1550.837</ele>
        <time>2020-02-08T14:40:22Z</time>
      </trkpt>
      <trkpt lat="42.98206" lon="0.5369">
        <ele>1551.498</ele>
        <time>2020-02-08T14:40:21Z</time>
      </trkpt>
      <trkpt lat="42.98204" lon="0.53693">
        <ele>1552.009</ele>
        <time>2020-02-08T14:40:20Z</time>
      </trkpt>
      <trkpt lat="42.98202" lon="0.53696">
        <ele>1552.419</ele>
        <time>2020-02-08T14:40:19Z</time>
      </trkpt>
      <trkpt lat="42.982" lon="0.537">
        <ele>1553.09</ele>
        <time>2020-02-08T14:40:18Z</time>
      </trkpt>
      <trkpt lat="42.98197" lon="0.53704">
        <ele>1553.476</ele>
        <time>2020-02-08T14:40:17Z</time>
      </trkpt>
      <trkpt lat="42.98194" lon="0.53709">
        <ele>1553.871</ele>
        <time>2020-02-08T14:40:16Z</time>
      </trkpt>
      <trkpt lat="42.98191" lon="0.53713">
        <ele>1554.138</ele>
        <time>2020-02-08T14:40:15Z</time>
      </trkpt>
      <trkpt lat="42.98181" lon="0.53726">
        <ele>1554.51</ele>
        <time>2020-02-08T14:40:11Z</time>
      </trkpt>
      <trkpt lat="42.98179" lon="0.53729">
        <ele>1556.525</ele>
        <time>2020-02-08T14:38:46Z</time>
      </trkpt>
      <trkpt lat="42.98176" lon="0.53729">
        <ele>1556.525</ele>
        <time>2020-02-08T14:38:43Z</time>
      </trkpt>
      <trkpt lat="42.98169" lon="0.53737">
        <ele>1556.517</ele>
        <time>2020-02-08T14:38:37Z</time>
      </trkpt>
      <trkpt lat="42.98169" lon="0.53739">
        <ele>1556.523</ele>
        <time>2020-02-08T14:38:36Z</time>
      </trkpt>
      <trkpt lat="42.98168" lon="0.53741">
        <ele>1557.126</ele>
        <time>2020-02-08T14:38:35Z</time>
      </trkpt>
      <trkpt lat="42.98166" lon="0.53744">
        <ele>1557.567</ele>
        <time>2020-02-08T14:38:34Z</time>
      </trkpt>
      <trkpt lat="42.98164" lon="0.53747">
        <ele>1558.009</ele>
        <time>2020-02-08T14:38:33Z</time>
      </trkpt>
      <trkpt lat="42.98161" lon="0.53751">
        <ele>1558.416</ele>
        <time>2020-02-08T14:38:32Z</time>
      </trkpt>
      <trkpt lat="42.98154" lon="0.53765">
        <ele>1559.006</ele>
        <time>2020-02-08T14:38:28Z</time>
      </trkpt>
      <trkpt lat="42.98149" lon="0.53772">
        <ele>1554.564</ele>
        <time>2020-02-08T14:15:17Z</time>
      </trkpt>
      <trkpt lat="42.98152" lon="0.53766">
        <ele>1554.529</ele>
        <time>2020-02-08T14:15:11Z</time>
      </trkpt>
      <trkpt lat="42.98152" lon="0.53764">
        <ele>1554.596</ele>
        <time>2020-02-08T14:15:10Z</time>
      </trkpt>
      <trkpt lat="42.98153" lon="0.53762">
        <ele>1554.158</ele>
        <time>2020-02-08T14:15:09Z</time>
      </trkpt>
      <trkpt lat="42.98154" lon="0.53761">
        <ele>1553.873</ele>
        <time>2020-02-08T14:15:08Z</time>
      </trkpt>
      <trkpt lat="42.98155" lon="0.5376">
        <ele>1553.183</ele>
        <time>2020-02-08T14:15:07Z</time>
      </trkpt>
      <trkpt lat="42.98156" lon="0.53759">
        <ele>1552.875</ele>
        <time>2020-02-08T14:15:06Z</time>
      </trkpt>
      <trkpt lat="42.9816" lon="0.53752">
        <ele>1552.441</ele>
        <time>2020-02-08T14:15:00Z</time>
      </trkpt>
      <trkpt lat="42.98167" lon="0.5374">
        <ele>1552.464</ele>
        <time>2020-02-08T14:14:52Z</time>
      </trkpt>
      <trkpt lat="42.98167" lon="0.53739">
        <ele>1552.035</ele>
        <time>2020-02-08T14:14:51Z</time>
      </trkpt>
      <trkpt lat="42.98168" lon="0.53737">
        <ele>1551.509</ele>
        <time>2020-02-08T14:14:50Z</time>
      </trkpt>
      <trkpt lat="42.98168" lon="0.53735">
        <ele>1551.115</ele>
        <time>2020-02-08T14:14:49Z</time>
      </trkpt>
      <trkpt lat="42.98169" lon="0.53734">
        <ele>1550.805</ele>
        <time>2020-02-08T14:14:48Z</time>
      </trkpt>
      <trkpt lat="42.98169" lon="0.53733">
        <ele>1550.444</ele>
        <time>2020-02-08T14:14:47Z</time>
      </trkpt>
      <trkpt lat="42.9818" lon="0.53729">
        <ele>1550.493</ele>
        <time>2020-02-08T14:14:39Z</time>
      </trkpt>
      <trkpt lat="42.98182" lon="0.53729">
        <ele>1550.41</ele>
        <time>2020-02-08T14:14:37Z</time>
      </trkpt>
      <trkpt lat="42.98183" lon="0.53728">
        <ele>1550.032</ele>
        <time>2020-02-08T14:14:36Z</time>
      </trkpt>
      <trkpt lat="42.98184" lon="0.53727">
        <ele>1549.587</ele>
        <time>2020-02-08T14:14:35Z</time>
      </trkpt>
      <trkpt lat="42.98186" lon="0.53726">
        <ele>1549.157</ele>
        <time>2020-02-08T14:14:34Z</time>
      </trkpt>
      <trkpt lat="42.98186" lon="0.53725">
        <ele>1548.559</ele>
        <time>2020-02-08T14:14:33Z</time>
      </trkpt>
      <trkpt lat="42.98189" lon="0.53722">
        <ele>1548.145</ele>
        <time>2020-02-08T14:14:30Z</time>
      </trkpt>
      <trkpt lat="42.98191" lon="0.53721">
        <ele>1548.128</ele>
        <time>2020-02-08T14:14:28Z</time>
      </trkpt>
      <trkpt lat="42.98192" lon="0.53719">
        <ele>1547.879</ele>
        <time>2020-02-08T14:14:27Z</time>
      </trkpt>
      <trkpt lat="42.98193" lon="0.53718">
        <ele>1547.409</ele>
        <time>2020-02-08T14:14:26Z</time>
      </trkpt>
      <trkpt lat="42.98194" lon="0.53717">
        <ele>1547.026</ele>
        <time>2020-02-08T14:14:25Z</time>
      </trkpt>
      <trkpt lat="42.98195" lon="0.53716">
        <ele>1546.56</ele>
        <time>2020-02-08T14:14:24Z</time>
      </trkpt>
      <trkpt lat="42.98199" lon="0.53712">
        <ele>1546.186</ele>
        <time>2020-02-08T14:14:20Z</time>
      </trkpt>
      <trkpt lat="42.98207" lon="0.53701">
        <ele>1546.158</ele>
        <time>2020-02-08T14:14:11Z</time>
      </trkpt>
      <trkpt lat="42.98213" lon="0.53686">
        <ele>1546.195</ele>
        <time>2020-02-08T14:14:02Z</time>
      </trkpt>
      <trkpt lat="42.98214" lon="0.53682">
        <ele>1546.127</ele>
        <time>2020-02-08T14:14:00Z</time>
      </trkpt>
      <trkpt lat="42.98215" lon="0.5368">
        <ele>1545.852</ele>
        <time>2020-02-08T14:13:59Z</time>
      </trkpt>
      <trkpt lat="42.98215" lon="0.53679">
        <ele>1545.492</ele>
        <time>2020-02-08T14:13:58Z</time>
      </trkpt>
      <trkpt lat="42.98216" lon="0.53678">
        <ele>1545.084</ele>
        <time>2020-02-08T14:13:57Z</time>
      </trkpt>
      <trkpt lat="42.98217" lon="0.53677">
        <ele>1544.55</ele>
        <time>2020-02-08T14:13:56Z</time>
      </trkpt>
      <trkpt lat="42.98221" lon="0.53671">
        <ele>1544.183</ele>
        <time>2020-02-08T14:13:52Z</time>
      </trkpt>
      <trkpt lat="42.98227" lon="0.53657">
        <ele>1544.154</ele>
        <time>2020-02-08T14:13:44Z</time>
      </trkpt>
      <trkpt lat="42.98231" lon="0.5365">
        <ele>1544.109</ele>
        <time>2020-02-08T14:13:40Z</time>
      </trkpt>
      <trkpt lat="42.98232" lon="0.53649">
        <ele>1543.815</ele>
        <time>2020-02-08T14:13:39Z</time>
      </trkpt>
      <trkpt lat="42.98233" lon="0.53647">
        <ele>1543.123</ele>
        <time>2020-02-08T14:13:38Z</time>
      </trkpt>
      <trkpt lat="42.98234" lon="0.53645">
        <ele>1542.833</ele>
        <time>2020-02-08T14:13:37Z</time>
      </trkpt>
      <trkpt lat="42.98235" lon="0.53644">
        <ele>1542.421</ele>
        <time>2020-02-08T14:13:36Z</time>
      </trkpt>
      <trkpt lat="42.98236" lon="0.53641">
        <ele>1542.018</ele>
        <time>2020-02-08T14:13:34Z</time>
      </trkpt>
      <trkpt lat="42.98243" lon="0.53629">
        <ele>1542.01</ele>
        <time>2020-02-08T14:13:26Z</time>
      </trkpt>
      <trkpt lat="42.98247" lon="0.53624">
        <ele>1542.045</ele>
        <time>2020-02-08T14:13:21Z</time>
      </trkpt>
      <trkpt lat="42.98248" lon="0.53623">
        <ele>1541.555</ele>
        <time>2020-02-08T14:13:20Z</time>
      </trkpt>
      <trkpt lat="42.98249" lon="0.53621">
        <ele>1541.187</ele>
        <time>2020-02-08T14:13:19Z</time>
      </trkpt>
      <trkpt lat="42.9825" lon="0.5362">
        <ele>1540.853</ele>
        <time>2020-02-08T14:13:18Z</time>
      </trkpt>
      <trkpt lat="42.98251" lon="0.53619">
        <ele>1540.136</ele>
        <time>2020-02-08T14:13:17Z</time>
      </trkpt>
      <trkpt lat="42.98254" lon="0.53614">
        <ele>1539.887</ele>
        <time>2020-02-08T14:13:14Z</time>
      </trkpt>
      <trkpt lat="42.98262" lon="0.53605">
        <ele>1539.809</ele>
        <time>2020-02-08T14:13:06Z</time>
      </trkpt>
      <trkpt lat="42.98263" lon="0.53604">
        <ele>1539.416</ele>
        <time>2020-02-08T14:13:05Z</time>
      </trkpt>
      <trkpt lat="42.98264" lon="0.53603">
        <ele>1538.806</ele>
        <time>2020-02-08T14:13:04Z</time>
      </trkpt>
      <trkpt lat="42.98265" lon="0.53601">
        <ele>1538.464</ele>
        <time>2020-02-08T14:13:03Z</time>
      </trkpt>
      <trkpt lat="42.98266" lon="0.536">
        <ele>1537.881</ele>
        <time>2020-02-08T14:13:02Z</time>
      </trkpt>
      <trkpt lat="42.98267" lon="0.53598">
        <ele>1537.458</ele>
        <time>2020-02-08T14:13:01Z</time>
      </trkpt>
      <trkpt lat="42.98272" lon="0.53591">
        <ele>1537.43</ele>
        <time>2020-02-08T14:12:56Z</time>
      </trkpt>
      <trkpt lat="42.98273" lon="0.5359">
        <ele>1537.025</ele>
        <time>2020-02-08T14:12:55Z</time>
      </trkpt>
      <trkpt lat="42.98274" lon="0.53589">
        <ele>1536.575</ele>
        <time>2020-02-08T14:12:54Z</time>
      </trkpt>
      <trkpt lat="42.98275" lon="0.53588">
        <ele>1536.027</ele>
        <time>2020-02-08T14:12:53Z</time>
      </trkpt>
      <trkpt lat="42.98276" lon="0.53587">
        <ele>1535.593</ele>
        <time>2020-02-08T14:12:52Z</time>
      </trkpt>
      <trkpt lat="42.98278" lon="0.53585">
        <ele>1535.136</ele>
        <time>2020-02-08T14:12:50Z</time>
      </trkpt>
      <trkpt lat="42.98286" lon="0.53576">
        <ele>1535.147</ele>
        <time>2020-02-08T14:12:42Z</time>
      </trkpt>
      <trkpt lat="42.98287" lon="0.53575">
        <ele>1534.809</ele>
        <time>2020-02-08T14:12:41Z</time>
      </trkpt>
      <trkpt lat="42.98288" lon="0.53574">
        <ele>1534.113</ele>
        <time>2020-02-08T14:12:40Z</time>
      </trkpt>
      <trkpt lat="42.98289" lon="0.53573">
        <ele>1533.821</ele>
        <time>2020-02-08T14:12:39Z</time>
      </trkpt>
      <trkpt lat="42.9829" lon="0.53572">
        <ele>1533.461</ele>
        <time>2020-02-08T14:12:38Z</time>
      </trkpt>
      <trkpt lat="42.98293" lon="0.53568">
        <ele>1532.814</ele>
        <time>2020-02-08T14:12:34Z</time>
      </trkpt>
      <trkpt lat="42.98294" lon="0.53567">
        <ele>1532.431</ele>
        <time>2020-02-08T14:12:33Z</time>
      </trkpt>
      <trkpt lat="42.98295" lon="0.53567">
        <ele>1532.013</ele>
        <time>2020-02-08T14:12:32Z</time>
      </trkpt>
      <trkpt lat="42.98295" lon="0.53566">
        <ele>1531.488</ele>
        <time>2020-02-08T14:12:31Z</time>
      </trkpt>
      <trkpt lat="42.98296" lon="0.53565">
        <ele>1531.078</ele>
        <time>2020-02-08T14:12:30Z</time>
      </trkpt>
      <trkpt lat="42.983" lon="0.53563">
        <ele>1530.57</ele>
        <time>2020-02-08T14:12:27Z</time>
      </trkpt>
      <trkpt lat="42.98303" lon="0.5356">
        <ele>1530.596</ele>
        <time>2020-02-08T14:12:24Z</time>
      </trkpt>
      <trkpt lat="42.98307" lon="0.5356">
        <ele>1530.579</ele>
        <time>2020-02-08T14:12:21Z</time>
      </trkpt>
      <trkpt lat="42.98308" lon="0.53565">
        <ele>1530.52</ele>
        <time>2020-02-08T14:12:18Z</time>
      </trkpt>
      <trkpt lat="42.98308" lon="0.53567">
        <ele>1530.009</ele>
        <time>2020-02-08T14:12:17Z</time>
      </trkpt>
      <trkpt lat="42.98307" lon="0.53569">
        <ele>1529.521</ele>
        <time>2020-02-08T14:12:16Z</time>
      </trkpt>
      <trkpt lat="42.98307" lon="0.53574">
        <ele>1529.165</ele>
        <time>2020-02-08T14:12:14Z</time>
      </trkpt>
      <trkpt lat="42.98306" lon="0.53576">
        <ele>1528.893</ele>
        <time>2020-02-08T14:12:13Z</time>
      </trkpt>
      <trkpt lat="42.98304" lon="0.53584">
        <ele>1528.171</ele>
        <time>2020-02-08T14:12:10Z</time>
      </trkpt>
      <trkpt lat="42.98303" lon="0.53596">
        <ele>1528.188</ele>
        <time>2020-02-08T14:12:05Z</time>
      </trkpt>
      <trkpt lat="42.98304" lon="0.53597">
        <ele>1527.85</ele>
        <time>2020-02-08T14:12:04Z</time>
      </trkpt>
      <trkpt lat="42.98304" lon="0.536">
        <ele>1527.445</ele>
        <time>2020-02-08T14:12:03Z</time>
      </trkpt>
      <trkpt lat="42.98303" lon="0.53601">
        <ele>1527.035</ele>
        <time>2020-02-08T14:12:02Z</time>
      </trkpt>
      <trkpt lat="42.98303" lon="0.53604">
        <ele>1526.527</ele>
        <time>2020-02-08T14:12:01Z</time>
      </trkpt>
      <trkpt lat="42.98298" lon="0.53623">
        <ele>1526.133</ele>
        <time>2020-02-08T14:11:52Z</time>
      </trkpt>
      <trkpt lat="42.98298" lon="0.53625">
        <ele>1525.516</ele>
        <time>2020-02-08T14:11:51Z</time>
      </trkpt>
      <trkpt lat="42.98297" lon="0.53628">
        <ele>1525.137</ele>
        <time>2020-02-08T14:11:50Z</time>
      </trkpt>
      <trkpt lat="42.98297" lon="0.5363">
        <ele>1524.809</ele>
        <time>2020-02-08T14:11:49Z</time>
      </trkpt>
      <trkpt lat="42.98296" lon="0.53632">
        <ele>1524.426</ele>
        <time>2020-02-08T14:11:48Z</time>
      </trkpt>
      <trkpt lat="42.98294" lon="0.53643">
        <ele>1523.842</ele>
        <time>2020-02-08T14:11:43Z</time>
      </trkpt>
      <trkpt lat="42.98292" lon="0.53655">
        <ele>1523.868</ele>
        <time>2020-02-08T14:11:38Z</time>
      </trkpt>
      <trkpt lat="42.98291" lon="0.53658">
        <ele>1523.426</ele>
        <time>2020-02-08T14:11:37Z</time>
      </trkpt>
      <trkpt lat="42.98291" lon="0.5366">
        <ele>1523.083</ele>
        <time>2020-02-08T14:11:36Z</time>
      </trkpt>
      <trkpt lat="42.9829" lon="0.53662">
        <ele>1522.555</ele>
        <time>2020-02-08T14:11:35Z</time>
      </trkpt>
      <trkpt lat="42.98288" lon="0.53664">
        <ele>1522.15</ele>
        <time>2020-02-08T14:11:34Z</time>
      </trkpt>
      <trkpt lat="42.98282" lon="0.53679">
        <ele>1521.81</ele>
        <time>2020-02-08T14:11:27Z</time>
      </trkpt>
      <trkpt lat="42.98282" lon="0.53681">
        <ele>1521.852</ele>
        <time>2020-02-08T14:11:26Z</time>
      </trkpt>
      <trkpt lat="42.98278" lon="0.53715">
        <ele>1517.438</ele>
        <time>2020-02-08T14:10:56Z</time>
      </trkpt>
      <trkpt lat="42.98278" lon="0.53716">
        <ele>1517.461</ele>
        <time>2020-02-08T14:10:54Z</time>
      </trkpt>
      <trkpt lat="42.98276" lon="0.53718">
        <ele>1517.432</ele>
        <time>2020-02-08T14:10:52Z</time>
      </trkpt>
      <trkpt lat="42.9827" lon="0.53757">
        <ele>1511.009</ele>
        <time>2020-02-08T14:10:15Z</time>
      </trkpt>
      <trkpt lat="42.9827" lon="0.53758">
        <ele>1511.011</ele>
        <time>2020-02-08T14:10:13Z</time>
      </trkpt>
      <trkpt lat="42.9827" lon="0.53759">
        <ele>1511.065</ele>
        <time>2020-02-08T14:10:12Z</time>
      </trkpt>
      <trkpt lat="42.98271" lon="0.5376">
        <ele>1510.415</ele>
        <time>2020-02-08T14:10:11Z</time>
      </trkpt>
      <trkpt lat="42.9827" lon="0.53761">
        <ele>1510.019</ele>
        <time>2020-02-08T14:10:10Z</time>
      </trkpt>
      <trkpt lat="42.9827" lon="0.53762">
        <ele>1509.546</ele>
        <time>2020-02-08T14:10:09Z</time>
      </trkpt>
      <trkpt lat="42.9827" lon="0.53763">
        <ele>1509.028</ele>
        <time>2020-02-08T14:10:08Z</time>
      </trkpt>
      <trkpt lat="42.9827" lon="0.5377">
        <ele>1508.513</ele>
        <time>2020-02-08T14:10:03Z</time>
      </trkpt>
      <trkpt lat="42.9827" lon="0.53773">
        <ele>1508.573</ele>
        <time>2020-02-08T14:10:01Z</time>
      </trkpt>
      <trkpt lat="42.98269" lon="0.53774">
        <ele>1508.145</ele>
        <time>2020-02-08T14:10:00Z</time>
      </trkpt>
      <trkpt lat="42.98269" lon="0.53776">
        <ele>1507.891</ele>
        <time>2020-02-08T14:09:59Z</time>
      </trkpt>
      <trkpt lat="42.98269" lon="0.53778">
        <ele>1507.194</ele>
        <time>2020-02-08T14:09:58Z</time>
      </trkpt>
      <trkpt lat="42.98269" lon="0.5378">
        <ele>1506.815</ele>
        <time>2020-02-08T14:09:57Z</time>
      </trkpt>
      <trkpt lat="42.98268" lon="0.53787">
        <ele>1506.409</ele>
        <time>2020-02-08T14:09:52Z</time>
      </trkpt>
      <trkpt lat="42.98268" lon="0.53788">
        <ele>1506.017</ele>
        <time>2020-02-08T14:09:51Z</time>
      </trkpt>
      <trkpt lat="42.98268" lon="0.5379">
        <ele>1505.561</ele>
        <time>2020-02-08T14:09:50Z</time>
      </trkpt>
      <trkpt lat="42.98268" lon="0.53792">
        <ele>1505.148</ele>
        <time>2020-02-08T14:09:49Z</time>
      </trkpt>
      <trkpt lat="42.98267" lon="0.53794">
        <ele>1504.594</ele>
        <time>2020-02-08T14:09:48Z</time>
      </trkpt>
      <trkpt lat="42.98266" lon="0.53803">
        <ele>1504.121</ele>
        <time>2020-02-08T14:09:43Z</time>
      </trkpt>
      <trkpt lat="42.98266" lon="0.53805">
        <ele>1503.883</ele>
        <time>2020-02-08T14:09:42Z</time>
      </trkpt>
      <trkpt lat="42.98266" lon="0.53807">
        <ele>1503.438</ele>
        <time>2020-02-08T14:09:41Z</time>
      </trkpt>
      <trkpt lat="42.98265" lon="0.53809">
        <ele>1503.068</ele>
        <time>2020-02-08T14:09:40Z</time>
      </trkpt>
      <trkpt lat="42.98265" lon="0.53811">
        <ele>1502.54</ele>
        <time>2020-02-08T14:09:39Z</time>
      </trkpt>
      <trkpt lat="42.98265" lon="0.53813">
        <ele>1502.156</ele>
        <time>2020-02-08T14:09:38Z</time>
      </trkpt>
      <trkpt lat="42.98265" lon="0.53814">
        <ele>1501.869</ele>
        <time>2020-02-08T14:09:37Z</time>
      </trkpt>
      <trkpt lat="42.98265" lon="0.53816">
        <ele>1501.19</ele>
        <time>2020-02-08T14:09:36Z</time>
      </trkpt>
      <trkpt lat="42.98265" lon="0.53817">
        <ele>1500.809</ele>
        <time>2020-02-08T14:09:35Z</time>
      </trkpt>
      <trkpt lat="42.98265" lon="0.53819">
        <ele>1500.423</ele>
        <time>2020-02-08T14:09:34Z</time>
      </trkpt>
      <trkpt lat="42.98264" lon="0.53825">
        <ele>1500.049</ele>
        <time>2020-02-08T14:09:30Z</time>
      </trkpt>
      <trkpt lat="42.98263" lon="0.53827">
        <ele>1499.595</ele>
        <time>2020-02-08T14:09:28Z</time>
      </trkpt>
      <trkpt lat="42.98261" lon="0.53829">
        <ele>1498.513</ele>
        <time>2020-02-08T14:09:26Z</time>
      </trkpt>
      <trkpt lat="42.98261" lon="0.5383">
        <ele>1498.15</ele>
        <time>2020-02-08T14:09:25Z</time>
      </trkpt>
      <trkpt lat="42.98262" lon="0.53833">
        <ele>1497.812</ele>
        <time>2020-02-08T14:09:23Z</time>
      </trkpt>
      <trkpt lat="42.98262" lon="0.53834">
        <ele>1497.837</ele>
        <time>2020-02-08T14:09:22Z</time>
      </trkpt>
      <trkpt lat="42.98262" lon="0.53835">
        <ele>1497.127</ele>
        <time>2020-02-08T14:09:21Z</time>
      </trkpt>
      <trkpt lat="42.98262" lon="0.53836">
        <ele>1496.819</ele>
        <time>2020-02-08T14:09:20Z</time>
      </trkpt>
      <trkpt lat="42.98262" lon="0.5384">
        <ele>1496.495</ele>
        <time>2020-02-08T14:09:19Z</time>
      </trkpt>
      <trkpt lat="42.98262" lon="0.53841">
        <ele>1496.098</ele>
        <time>2020-02-08T14:09:18Z</time>
      </trkpt>
      <trkpt lat="42.98261" lon="0.53844">
        <ele>1495.569</ele>
        <time>2020-02-08T14:09:16Z</time>
      </trkpt>
      <trkpt lat="42.9826" lon="0.53849">
        <ele>1495.509</ele>
        <time>2020-02-08T14:09:13Z</time>
      </trkpt>
      <trkpt lat="42.9826" lon="0.5385">
        <ele>1495.117</ele>
        <time>2020-02-08T14:09:12Z</time>
      </trkpt>
      <trkpt lat="42.9826" lon="0.53852">
        <ele>1494.561</ele>
        <time>2020-02-08T14:09:11Z</time>
      </trkpt>
      <trkpt lat="42.9826" lon="0.53853">
        <ele>1494.081</ele>
        <time>2020-02-08T14:09:10Z</time>
      </trkpt>
      <trkpt lat="42.9826" lon="0.53855">
        <ele>1493.589</ele>
        <time>2020-02-08T14:09:09Z</time>
      </trkpt>
      <trkpt lat="42.9826" lon="0.53856">
        <ele>1493.086</ele>
        <time>2020-02-08T14:09:08Z</time>
      </trkpt>
      <trkpt lat="42.9826" lon="0.53857">
        <ele>1492.568</ele>
        <time>2020-02-08T14:09:07Z</time>
      </trkpt>
      <trkpt lat="42.9826" lon="0.53858">
        <ele>1492.153</ele>
        <time>2020-02-08T14:09:06Z</time>
      </trkpt>
      <trkpt lat="42.9826" lon="0.5386">
        <ele>1491.583</ele>
        <time>2020-02-08T14:09:05Z</time>
      </trkpt>
      <trkpt lat="42.9826" lon="0.53861">
        <ele>1491.165</ele>
        <time>2020-02-08T14:09:04Z</time>
      </trkpt>
      <trkpt lat="42.9826" lon="0.53862">
        <ele>1490.841</ele>
        <time>2020-02-08T14:09:03Z</time>
      </trkpt>
      <trkpt lat="42.9826" lon="0.53863">
        <ele>1490.454</ele>
        <time>2020-02-08T14:09:02Z</time>
      </trkpt>
      <trkpt lat="42.9826" lon="0.53865">
        <ele>1490.025</ele>
        <time>2020-02-08T14:09:01Z</time>
      </trkpt>
      <trkpt lat="42.9826" lon="0.53866">
        <ele>1489.409</ele>
        <time>2020-02-08T14:09:00Z</time>
      </trkpt>
      <trkpt lat="42.9826" lon="0.53868">
        <ele>1489.016</ele>
        <time>2020-02-08T14:08:59Z</time>
      </trkpt>
      <trkpt lat="42.9826" lon="0.5387">
        <ele>1489.088</ele>
        <time>2020-02-08T14:08:58Z</time>
      </trkpt>
      <trkpt lat="42.98259" lon="0.53871">
        <ele>1488.546</ele>
        <time>2020-02-08T14:08:57Z</time>
      </trkpt>
      <trkpt lat="42.98259" lon="0.53873">
        <ele>1488.137</ele>
        <time>2020-02-08T14:08:56Z</time>
      </trkpt>
      <trkpt lat="42.98259" lon="0.53875">
        <ele>1487.564</ele>
        <time>2020-02-08T14:08:55Z</time>
      </trkpt>
      <trkpt lat="42.98258" lon="0.53877">
        <ele>1487.146</ele>
        <time>2020-02-08T14:08:54Z</time>
      </trkpt>
      <trkpt lat="42.98259" lon="0.53881">
        <ele>1486.861</ele>
        <time>2020-02-08T14:08:52Z</time>
      </trkpt>
      <trkpt lat="42.98259" lon="0.53886">
        <ele>1486.851</ele>
        <time>2020-02-08T14:08:50Z</time>
      </trkpt>
      <trkpt lat="42.98259" lon="0.53884">
        <ele>1486.879</ele>
        <time>2020-02-08T14:08:20Z</time>
      </trkpt>
      <trkpt lat="42.98259" lon="0.53885">
        <ele>1486.852</ele>
        <time>2020-02-08T14:08:18Z</time>
      </trkpt>
      <trkpt lat="42.98259" lon="0.53886">
        <ele>1486.443</ele>
        <time>2020-02-08T14:08:17Z</time>
      </trkpt>
      <trkpt lat="42.98258" lon="0.53887">
        <ele>1486.009</ele>
        <time>2020-02-08T14:08:16Z</time>
      </trkpt>
      <trkpt lat="42.98256" lon="0.5389">
        <ele>1485.414</ele>
        <time>2020-02-08T14:08:15Z</time>
      </trkpt>
      <trkpt lat="42.98254" lon="0.53891">
        <ele>1485.004</ele>
        <time>2020-02-08T14:08:14Z</time>
      </trkpt>
      <trkpt lat="42.98248" lon="0.53903">
        <ele>1484.524</ele>
        <time>2020-02-08T14:08:09Z</time>
      </trkpt>
      <trkpt lat="42.98238" lon="0.53916">
        <ele>1484.581</ele>
        <time>2020-02-08T14:08:03Z</time>
      </trkpt>
      <trkpt lat="42.98227" lon="0.53932">
        <ele>1484.598</ele>
        <time>2020-02-08T14:07:56Z</time>
      </trkpt>
      <trkpt lat="42.98218" lon="0.53943">
        <ele>1484.55</ele>
        <time>2020-02-08T14:07:50Z</time>
      </trkpt>
      <trkpt lat="42.98216" lon="0.53945">
        <ele>1484.185</ele>
        <time>2020-02-08T14:07:49Z</time>
      </trkpt>
      <trkpt lat="42.98214" lon="0.53947">
        <ele>1483.835</ele>
        <time>2020-02-08T14:07:48Z</time>
      </trkpt>
      <trkpt lat="42.98212" lon="0.53949">
        <ele>1483.497</ele>
        <time>2020-02-08T14:07:47Z</time>
      </trkpt>
      <trkpt lat="42.98211" lon="0.53951">
        <ele>1482.813</ele>
        <time>2020-02-08T14:07:46Z</time>
      </trkpt>
      <trkpt lat="42.98202" lon="0.53965">
        <ele>1482.426</ele>
        <time>2020-02-08T14:07:39Z</time>
      </trkpt>
      <trkpt lat="42.98198" lon="0.53976">
        <ele>1482.437</ele>
        <time>2020-02-08T14:07:34Z</time>
      </trkpt>
      <trkpt lat="42.98198" lon="0.53979">
        <ele>1482.009</ele>
        <time>2020-02-08T14:07:33Z</time>
      </trkpt>
      <trkpt lat="42.98196" lon="0.53981">
        <ele>1481.524</ele>
        <time>2020-02-08T14:07:32Z</time>
      </trkpt>
      <trkpt lat="42.98195" lon="0.53983">
        <ele>1481.104</ele>
        <time>2020-02-08T14:07:31Z</time>
      </trkpt>
      <trkpt lat="42.98194" lon="0.53985">
        <ele>1480.869</ele>
        <time>2020-02-08T14:07:30Z</time>
      </trkpt>
      <trkpt lat="42.9819" lon="0.54">
        <ele>1480.447</ele>
        <time>2020-02-08T14:07:21Z</time>
      </trkpt>
      <trkpt lat="42.98189" lon="0.54003">
        <ele>1479.524</ele>
        <time>2020-02-08T14:07:19Z</time>
      </trkpt>
      <trkpt lat="42.98188" lon="0.54007">
        <ele>1478.836</ele>
        <time>2020-02-08T14:07:17Z</time>
      </trkpt>
      <trkpt lat="42.98187" lon="0.5401">
        <ele>1478.461</ele>
        <time>2020-02-08T14:07:15Z</time>
      </trkpt>
      <trkpt lat="42.98163" lon="0.54081">
        <ele>1467.813</ele>
        <time>2020-02-08T14:05:49Z</time>
      </trkpt>
      <trkpt lat="42.98166" lon="0.54081">
        <ele>1467.899</ele>
        <time>2020-02-08T14:05:45Z</time>
      </trkpt>
      <trkpt lat="42.98167" lon="0.54081">
        <ele>1467.432</ele>
        <time>2020-02-08T14:05:44Z</time>
      </trkpt>
      <trkpt lat="42.98167" lon="0.5408">
        <ele>1466.509</ele>
        <time>2020-02-08T14:05:42Z</time>
      </trkpt>
      <trkpt lat="42.98168" lon="0.54079">
        <ele>1466.111</ele>
        <time>2020-02-08T14:05:41Z</time>
      </trkpt>
      <trkpt lat="42.9817" lon="0.54077">
        <ele>1465.883</ele>
        <time>2020-02-08T14:05:37Z</time>
      </trkpt>
      <trkpt lat="42.9817" lon="0.54076">
        <ele>1465.823</ele>
        <time>2020-02-08T14:05:36Z</time>
      </trkpt>
      <trkpt lat="42.98171" lon="0.54075">
        <ele>1465.42</ele>
        <time>2020-02-08T14:05:35Z</time>
      </trkpt>
      <trkpt lat="42.98172" lon="0.54074">
        <ele>1465.057</ele>
        <time>2020-02-08T14:05:34Z</time>
      </trkpt>
      <trkpt lat="42.98172" lon="0.54073">
        <ele>1464.489</ele>
        <time>2020-02-08T14:05:33Z</time>
      </trkpt>
      <trkpt lat="42.98173" lon="0.54072">
        <ele>1464.074</ele>
        <time>2020-02-08T14:05:32Z</time>
      </trkpt>
      <trkpt lat="42.98177" lon="0.54069">
        <ele>1463.554</ele>
        <time>2020-02-08T14:05:28Z</time>
      </trkpt>
      <trkpt lat="42.98178" lon="0.54068">
        <ele>1463.086</ele>
        <time>2020-02-08T14:05:27Z</time>
      </trkpt>
      <trkpt lat="42.98179" lon="0.54068">
        <ele>1462.582</ele>
        <time>2020-02-08T14:05:26Z</time>
      </trkpt>
      <trkpt lat="42.9818" lon="0.54067">
        <ele>1462.095</ele>
        <time>2020-02-08T14:05:25Z</time>
      </trkpt>
      <trkpt lat="42.98181" lon="0.54067">
        <ele>1461.596</ele>
        <time>2020-02-08T14:05:24Z</time>
      </trkpt>
      <trkpt lat="42.98182" lon="0.54066">
        <ele>1461.009</ele>
        <time>2020-02-08T14:05:23Z</time>
      </trkpt>
      <trkpt lat="42.98186" lon="0.54064">
        <ele>1461.02</ele>
        <time>2020-02-08T14:05:20Z</time>
      </trkpt>
      <trkpt lat="42.98187" lon="0.54063">
        <ele>1460.5</ele>
        <time>2020-02-08T14:05:19Z</time>
      </trkpt>
      <trkpt lat="42.98189" lon="0.54062">
        <ele>1460.157</ele>
        <time>2020-02-08T14:05:18Z</time>
      </trkpt>
      <trkpt lat="42.9819" lon="0.54062">
        <ele>1459.841</ele>
        <time>2020-02-08T14:05:17Z</time>
      </trkpt>
      <trkpt lat="42.98192" lon="0.54062">
        <ele>1459.448</ele>
        <time>2020-02-08T14:05:16Z</time>
      </trkpt>
      <trkpt lat="42.98196" lon="0.54059">
        <ele>1458.86</ele>
        <time>2020-02-08T14:05:12Z</time>
      </trkpt>
      <trkpt lat="42.98197" lon="0.54058">
        <ele>1458.425</ele>
        <time>2020-02-08T14:05:11Z</time>
      </trkpt>
      <trkpt lat="42.98198" lon="0.54058">
        <ele>1458.045</ele>
        <time>2020-02-08T14:05:10Z</time>
      </trkpt>
      <trkpt lat="42.98199" lon="0.54058">
        <ele>1457.587</ele>
        <time>2020-02-08T14:05:09Z</time>
      </trkpt>
      <trkpt lat="42.98201" lon="0.54058">
        <ele>1457.193</ele>
        <time>2020-02-08T14:05:08Z</time>
      </trkpt>
      <trkpt lat="42.98205" lon="0.54055">
        <ele>1456.836</ele>
        <time>2020-02-08T14:05:05Z</time>
      </trkpt>
      <trkpt lat="42.98211" lon="0.54051">
        <ele>1456.827</ele>
        <time>2020-02-08T14:05:01Z</time>
      </trkpt>
      <trkpt lat="42.98211" lon="0.5405">
        <ele>1456.409</ele>
        <time>2020-02-08T14:05:00Z</time>
      </trkpt>
      <trkpt lat="42.98212" lon="0.5405">
        <ele>1456.024</ele>
        <time>2020-02-08T14:04:59Z</time>
      </trkpt>
      <trkpt lat="42.98214" lon="0.54049">
        <ele>1455.504</ele>
        <time>2020-02-08T14:04:58Z</time>
      </trkpt>
      <trkpt lat="42.98215" lon="0.54049">
        <ele>1455.169</ele>
        <time>2020-02-08T14:04:57Z</time>
      </trkpt>
      <trkpt lat="42.98219" lon="0.54045">
        <ele>1454.876</ele>
        <time>2020-02-08T14:04:53Z</time>
      </trkpt>
      <trkpt lat="42.9822" lon="0.54043">
        <ele>1454.113</ele>
        <time>2020-02-08T14:04:52Z</time>
      </trkpt>
      <trkpt lat="42.98221" lon="0.54043">
        <ele>1453.875</ele>
        <time>2020-02-08T14:04:51Z</time>
      </trkpt>
      <trkpt lat="42.98222" lon="0.54043">
        <ele>1453.41</ele>
        <time>2020-02-08T14:04:50Z</time>
      </trkpt>
      <trkpt lat="42.98224" lon="0.54042">
        <ele>1453.01</ele>
        <time>2020-02-08T14:04:49Z</time>
      </trkpt>
      <trkpt lat="42.98225" lon="0.54042">
        <ele>1452.572</ele>
        <time>2020-02-08T14:04:47Z</time>
      </trkpt>
      <trkpt lat="42.98227" lon="0.54042">
        <ele>1452.198</ele>
        <time>2020-02-08T14:04:46Z</time>
      </trkpt>
      <trkpt lat="42.98229" lon="0.54042">
        <ele>1451.861</ele>
        <time>2020-02-08T14:04:45Z</time>
      </trkpt>
      <trkpt lat="42.9823" lon="0.54041">
        <ele>1451.482</ele>
        <time>2020-02-08T14:04:44Z</time>
      </trkpt>
      <trkpt lat="42.98231" lon="0.5404">
        <ele>1451.009</ele>
        <time>2020-02-08T14:04:43Z</time>
      </trkpt>
      <trkpt lat="42.98234" lon="0.54038">
        <ele>1450.519</ele>
        <time>2020-02-08T14:04:39Z</time>
      </trkpt>
      <trkpt lat="42.98235" lon="0.54038">
        <ele>1450.109</ele>
        <time>2020-02-08T14:04:38Z</time>
      </trkpt>
      <trkpt lat="42.98236" lon="0.54037">
        <ele>1449.819</ele>
        <time>2020-02-08T14:04:37Z</time>
      </trkpt>
      <trkpt lat="42.98237" lon="0.54036">
        <ele>1449.42</ele>
        <time>2020-02-08T14:04:36Z</time>
      </trkpt>
      <trkpt lat="42.98238" lon="0.54036">
        <ele>1449.087</ele>
        <time>2020-02-08T14:04:35Z</time>
      </trkpt>
      <trkpt lat="42.9824" lon="0.54032">
        <ele>1448.569</ele>
        <time>2020-02-08T14:04:33Z</time>
      </trkpt>
      <trkpt lat="42.98249" lon="0.54025">
        <ele>1448.564</ele>
        <time>2020-02-08T14:04:25Z</time>
      </trkpt>
      <trkpt lat="42.98251" lon="0.54023">
        <ele>1448.044</ele>
        <time>2020-02-08T14:04:24Z</time>
      </trkpt>
      <trkpt lat="42.98252" lon="0.54022">
        <ele>1447.526</ele>
        <time>2020-02-08T14:04:23Z</time>
      </trkpt>
      <trkpt lat="42.98252" lon="0.54021">
        <ele>1447.042</ele>
        <time>2020-02-08T14:04:22Z</time>
      </trkpt>
      <trkpt lat="42.98254" lon="0.5402">
        <ele>1446.545</ele>
        <time>2020-02-08T14:04:21Z</time>
      </trkpt>
      <trkpt lat="42.98256" lon="0.54018">
        <ele>1446.126</ele>
        <time>2020-02-08T14:04:19Z</time>
      </trkpt>
      <trkpt lat="42.98259" lon="0.54015">
        <ele>1446.109</ele>
        <time>2020-02-08T14:04:16Z</time>
      </trkpt>
      <trkpt lat="42.98261" lon="0.54014">
        <ele>1445.823</ele>
        <time>2020-02-08T14:04:15Z</time>
      </trkpt>
      <trkpt lat="42.98262" lon="0.54014">
        <ele>1445.103</ele>
        <time>2020-02-08T14:04:14Z</time>
      </trkpt>
      <trkpt lat="42.98263" lon="0.54014">
        <ele>1444.859</ele>
        <time>2020-02-08T14:04:13Z</time>
      </trkpt>
      <trkpt lat="42.98264" lon="0.54014">
        <ele>1444.484</ele>
        <time>2020-02-08T14:04:12Z</time>
      </trkpt>
      <trkpt lat="42.98268" lon="0.54013">
        <ele>1444.021</ele>
        <time>2020-02-08T14:04:09Z</time>
      </trkpt>
      <trkpt lat="42.98276" lon="0.54006">
        <ele>1444.023</ele>
        <time>2020-02-08T14:04:03Z</time>
      </trkpt>
      <trkpt lat="42.98278" lon="0.54006">
        <ele>1443.558</ele>
        <time>2020-02-08T14:04:02Z</time>
      </trkpt>
      <trkpt lat="42.9828" lon="0.54006">
        <ele>1443.138</ele>
        <time>2020-02-08T14:04:01Z</time>
      </trkpt>
      <trkpt lat="42.98281" lon="0.54005">
        <ele>1442.89</ele>
        <time>2020-02-08T14:04:00Z</time>
      </trkpt>
      <trkpt lat="42.98283" lon="0.54004">
        <ele>1442.496</ele>
        <time>2020-02-08T14:03:59Z</time>
      </trkpt>
      <trkpt lat="42.98285" lon="0.54002">
        <ele>1442.019</ele>
        <time>2020-02-08T14:03:57Z</time>
      </trkpt>
      <trkpt lat="42.98289" lon="0.53999">
        <ele>1442.07</ele>
        <time>2020-02-08T14:03:53Z</time>
      </trkpt>
      <trkpt lat="42.98291" lon="0.53998">
        <ele>1441.509</ele>
        <time>2020-02-08T14:03:52Z</time>
      </trkpt>
      <trkpt lat="42.98292" lon="0.53997">
        <ele>1441.124</ele>
        <time>2020-02-08T14:03:51Z</time>
      </trkpt>
      <trkpt lat="42.98294" lon="0.53996">
        <ele>1440.831</ele>
        <time>2020-02-08T14:03:50Z</time>
      </trkpt>
      <trkpt lat="42.98295" lon="0.53995">
        <ele>1440.496</ele>
        <time>2020-02-08T14:03:49Z</time>
      </trkpt>
      <trkpt lat="42.983" lon="0.53993">
        <ele>1440.093</ele>
        <time>2020-02-08T14:03:45Z</time>
      </trkpt>
      <trkpt lat="42.98301" lon="0.53992">
        <ele>1439.54</ele>
        <time>2020-02-08T14:03:44Z</time>
      </trkpt>
      <trkpt lat="42.98302" lon="0.53992">
        <ele>1439.152</ele>
        <time>2020-02-08T14:03:43Z</time>
      </trkpt>
      <trkpt lat="42.98303" lon="0.53992">
        <ele>1438.897</ele>
        <time>2020-02-08T14:03:42Z</time>
      </trkpt>
      <trkpt lat="42.98303" lon="0.53991">
        <ele>1438.167</ele>
        <time>2020-02-08T14:03:41Z</time>
      </trkpt>
      <trkpt lat="42.98306" lon="0.53989">
        <ele>1437.829</ele>
        <time>2020-02-08T14:03:38Z</time>
      </trkpt>
      <trkpt lat="42.98312" lon="0.53986">
        <ele>1437.855</ele>
        <time>2020-02-08T14:03:33Z</time>
      </trkpt>
      <trkpt lat="42.98314" lon="0.53985">
        <ele>1437.458</ele>
        <time>2020-02-08T14:03:32Z</time>
      </trkpt>
      <trkpt lat="42.98316" lon="0.53984">
        <ele>1437.089</ele>
        <time>2020-02-08T14:03:31Z</time>
      </trkpt>
      <trkpt lat="42.98317" lon="0.53983">
        <ele>1436.509</ele>
        <time>2020-02-08T14:03:30Z</time>
      </trkpt>
      <trkpt lat="42.98319" lon="0.53982">
        <ele>1436.126</ele>
        <time>2020-02-08T14:03:29Z</time>
      </trkpt>
      <trkpt lat="42.98325" lon="0.5398">
        <ele>1435.56</ele>
        <time>2020-02-08T14:03:25Z</time>
      </trkpt>
      <trkpt lat="42.98326" lon="0.5398">
        <ele>1435.586</ele>
        <time>2020-02-08T14:03:24Z</time>
      </trkpt>
      <trkpt lat="42.98327" lon="0.53979">
        <ele>1435.151</ele>
        <time>2020-02-08T14:03:23Z</time>
      </trkpt>
      <trkpt lat="42.98328" lon="0.53979">
        <ele>1434.888</ele>
        <time>2020-02-08T14:03:22Z</time>
      </trkpt>
      <trkpt lat="42.98329" lon="0.53979">
        <ele>1434.16</ele>
        <time>2020-02-08T14:03:21Z</time>
      </trkpt>
      <trkpt lat="42.9833" lon="0.53978">
        <ele>1433.865</ele>
        <time>2020-02-08T14:03:20Z</time>
      </trkpt>
      <trkpt lat="42.98336" lon="0.53977">
        <ele>1433.445</ele>
        <time>2020-02-08T14:03:15Z</time>
      </trkpt>
      <trkpt lat="42.98337" lon="0.53976">
        <ele>1433.017</ele>
        <time>2020-02-08T14:03:14Z</time>
      </trkpt>
      <trkpt lat="42.98338" lon="0.53976">
        <ele>1432.523</ele>
        <time>2020-02-08T14:03:13Z</time>
      </trkpt>
      <trkpt lat="42.98339" lon="0.53976">
        <ele>1432.076</ele>
        <time>2020-02-08T14:03:12Z</time>
      </trkpt>
      <trkpt lat="42.98341" lon="0.53976">
        <ele>1431.537</ele>
        <time>2020-02-08T14:03:11Z</time>
      </trkpt>
      <trkpt lat="42.98342" lon="0.53976">
        <ele>1431.109</ele>
        <time>2020-02-08T14:03:10Z</time>
      </trkpt>
      <trkpt lat="42.98345" lon="0.53976">
        <ele>1431.121</ele>
        <time>2020-02-08T14:03:07Z</time>
      </trkpt>
      <trkpt lat="42.98347" lon="0.53976">
        <ele>1430.466</ele>
        <time>2020-02-08T14:03:05Z</time>
      </trkpt>
      <trkpt lat="42.98348" lon="0.53976">
        <ele>1429.853</ele>
        <time>2020-02-08T14:03:04Z</time>
      </trkpt>
      <trkpt lat="42.98349" lon="0.53975">
        <ele>1429.41</ele>
        <time>2020-02-08T14:03:03Z</time>
      </trkpt>
      <trkpt lat="42.98352" lon="0.53974">
        <ele>1428.832</ele>
        <time>2020-02-08T14:03:01Z</time>
      </trkpt>
      <trkpt lat="42.98353" lon="0.53975">
        <ele>1428.447</ele>
        <time>2020-02-08T14:03:00Z</time>
      </trkpt>
      <trkpt lat="42.98355" lon="0.53974">
        <ele>1428.037</ele>
        <time>2020-02-08T14:02:59Z</time>
      </trkpt>
      <trkpt lat="42.98356" lon="0.53975">
        <ele>1427.569</ele>
        <time>2020-02-08T14:02:58Z</time>
      </trkpt>
      <trkpt lat="42.98358" lon="0.53975">
        <ele>1427.055</ele>
        <time>2020-02-08T14:02:57Z</time>
      </trkpt>
      <trkpt lat="42.98363" lon="0.53973">
        <ele>1426.538</ele>
        <time>2020-02-08T14:02:49Z</time>
      </trkpt>
      <trkpt lat="42.98365" lon="0.53973">
        <ele>1426.549</ele>
        <time>2020-02-08T14:02:45Z</time>
      </trkpt>
      <trkpt lat="42.98367" lon="0.53974">
        <ele>1426.109</ele>
        <time>2020-02-08T14:02:44Z</time>
      </trkpt>
      <trkpt lat="42.98368" lon="0.53973">
        <ele>1425.826</ele>
        <time>2020-02-08T14:02:43Z</time>
      </trkpt>
      <trkpt lat="42.98369" lon="0.53973">
        <ele>1425.142</ele>
        <time>2020-02-08T14:02:42Z</time>
      </trkpt>
      <trkpt lat="42.9837" lon="0.53973">
        <ele>1424.887</ele>
        <time>2020-02-08T14:02:41Z</time>
      </trkpt>
      <trkpt lat="42.98377" lon="0.5397">
        <ele>1424.42</ele>
        <time>2020-02-08T14:02:36Z</time>
      </trkpt>
      <trkpt lat="42.98378" lon="0.53969">
        <ele>1423.857</ele>
        <time>2020-02-08T14:02:35Z</time>
      </trkpt>
      <trkpt lat="42.98379" lon="0.53968">
        <ele>1423.489</ele>
        <time>2020-02-08T14:02:34Z</time>
      </trkpt>
      <trkpt lat="42.9838" lon="0.53967">
        <ele>1422.834</ele>
        <time>2020-02-08T14:02:33Z</time>
      </trkpt>
      <trkpt lat="42.98382" lon="0.53967">
        <ele>1422.414</ele>
        <time>2020-02-08T14:02:32Z</time>
      </trkpt>
      <trkpt lat="42.98391" lon="0.5396">
        <ele>1422.056</ele>
        <time>2020-02-08T14:02:26Z</time>
      </trkpt>
      <trkpt lat="42.98393" lon="0.53959">
        <ele>1421.422</ele>
        <time>2020-02-08T14:02:25Z</time>
      </trkpt>
      <trkpt lat="42.98395" lon="0.53958">
        <ele>1421.055</ele>
        <time>2020-02-08T14:02:24Z</time>
      </trkpt>
      <trkpt lat="42.98396" lon="0.53957">
        <ele>1420.496</ele>
        <time>2020-02-08T14:02:23Z</time>
      </trkpt>
      <trkpt lat="42.98397" lon="0.53955">
        <ele>1420.009</ele>
        <time>2020-02-08T14:02:22Z</time>
      </trkpt>
      <trkpt lat="42.98405" lon="0.53948">
        <ele>1419.514</ele>
        <time>2020-02-08T14:02:16Z</time>
      </trkpt>
      <trkpt lat="42.98406" lon="0.53946">
        <ele>1419.159</ele>
        <time>2020-02-08T14:02:15Z</time>
      </trkpt>
      <trkpt lat="42.98407" lon="0.53945">
        <ele>1418.856</ele>
        <time>2020-02-08T14:02:14Z</time>
      </trkpt>
      <trkpt lat="42.98409" lon="0.53943">
        <ele>1418.426</ele>
        <time>2020-02-08T14:02:13Z</time>
      </trkpt>
      <trkpt lat="42.9841" lon="0.53942">
        <ele>1418.013</ele>
        <time>2020-02-08T14:02:12Z</time>
      </trkpt>
      <trkpt lat="42.98418" lon="0.53935">
        <ele>1417.545</ele>
        <time>2020-02-08T14:02:07Z</time>
      </trkpt>
      <trkpt lat="42.98419" lon="0.53933">
        <ele>1417.18</ele>
        <time>2020-02-08T14:02:06Z</time>
      </trkpt>
      <trkpt lat="42.9842" lon="0.53932">
        <ele>1416.86</ele>
        <time>2020-02-08T14:02:05Z</time>
      </trkpt>
      <trkpt lat="42.98422" lon="0.5393">
        <ele>1416.492</ele>
        <time>2020-02-08T14:02:04Z</time>
      </trkpt>
      <trkpt lat="42.98424" lon="0.53929">
        <ele>1415.818</ele>
        <time>2020-02-08T14:02:03Z</time>
      </trkpt>
      <trkpt lat="42.98426" lon="0.53924">
        <ele>1415.451</ele>
        <time>2020-02-08T14:02:00Z</time>
      </trkpt>
      <trkpt lat="42.98428" lon="0.53922">
        <ele>1415.442</ele>
        <time>2020-02-08T14:01:59Z</time>
      </trkpt>
      <trkpt lat="42.98428" lon="0.53921">
        <ele>1415.009</ele>
        <time>2020-02-08T14:01:58Z</time>
      </trkpt>
      <trkpt lat="42.98429" lon="0.5392">
        <ele>1414.503</ele>
        <time>2020-02-08T14:01:57Z</time>
      </trkpt>
      <trkpt lat="42.9843" lon="0.53919">
        <ele>1414.121</ele>
        <time>2020-02-08T14:01:56Z</time>
      </trkpt>
      <trkpt lat="42.98432" lon="0.53917">
        <ele>1413.811</ele>
        <time>2020-02-08T14:01:55Z</time>
      </trkpt>
      <trkpt lat="42.98436" lon="0.53912">
        <ele>1413.494</ele>
        <time>2020-02-08T14:01:52Z</time>
      </trkpt>
      <trkpt lat="42.98437" lon="0.5391">
        <ele>1413.021</ele>
        <time>2020-02-08T14:01:51Z</time>
      </trkpt>
      <trkpt lat="42.98438" lon="0.53908">
        <ele>1412.593</ele>
        <time>2020-02-08T14:01:50Z</time>
      </trkpt>
      <trkpt lat="42.98439" lon="0.53906">
        <ele>1412.168</ele>
        <time>2020-02-08T14:01:49Z</time>
      </trkpt>
      <trkpt lat="42.9844" lon="0.53904">
        <ele>1411.538</ele>
        <time>2020-02-08T14:01:48Z</time>
      </trkpt>
      <trkpt lat="42.98446" lon="0.53898">
        <ele>1411.11</ele>
        <time>2020-02-08T14:01:43Z</time>
      </trkpt>
      <trkpt lat="42.98447" lon="0.53897">
        <ele>1410.876</ele>
        <time>2020-02-08T14:01:42Z</time>
      </trkpt>
      <trkpt lat="42.98449" lon="0.53896">
        <ele>1410.469</ele>
        <time>2020-02-08T14:01:41Z</time>
      </trkpt>
      <trkpt lat="42.9845" lon="0.53895">
        <ele>1409.85</ele>
        <time>2020-02-08T14:01:40Z</time>
      </trkpt>
      <trkpt lat="42.98451" lon="0.53894">
        <ele>1409.409</ele>
        <time>2020-02-08T14:01:39Z</time>
      </trkpt>
      <trkpt lat="42.98454" lon="0.53891">
        <ele>1409.023</ele>
        <time>2020-02-08T14:01:36Z</time>
      </trkpt>
      <trkpt lat="42.98455" lon="0.53889">
        <ele>1409.049</ele>
        <time>2020-02-08T14:01:34Z</time>
      </trkpt>
      <trkpt lat="42.98456" lon="0.53888">
        <ele>1408.595</ele>
        <time>2020-02-08T14:01:33Z</time>
      </trkpt>
      <trkpt lat="42.98457" lon="0.53887">
        <ele>1408.027</ele>
        <time>2020-02-08T14:01:32Z</time>
      </trkpt>
      <trkpt lat="42.98458" lon="0.53885">
        <ele>1407.584</ele>
        <time>2020-02-08T14:01:31Z</time>
      </trkpt>
      <trkpt lat="42.98459" lon="0.53884">
        <ele>1407.136</ele>
        <time>2020-02-08T14:01:30Z</time>
      </trkpt>
      <trkpt lat="42.98463" lon="0.53878">
        <ele>1406.561</ele>
        <time>2020-02-08T14:01:26Z</time>
      </trkpt>
      <trkpt lat="42.98466" lon="0.53874">
        <ele>1406.581</ele>
        <time>2020-02-08T14:01:24Z</time>
      </trkpt>
      <trkpt lat="42.98468" lon="0.53873">
        <ele>1406.173</ele>
        <time>2020-02-08T14:01:23Z</time>
      </trkpt>
      <trkpt lat="42.98469" lon="0.53872">
        <ele>1405.829</ele>
        <time>2020-02-08T14:01:22Z</time>
      </trkpt>
      <trkpt lat="42.9847" lon="0.53871">
        <ele>1405.452</ele>
        <time>2020-02-08T14:01:21Z</time>
      </trkpt>
      <trkpt lat="42.98472" lon="0.5387">
        <ele>1405.083</ele>
        <time>2020-02-08T14:01:20Z</time>
      </trkpt>
      <trkpt lat="42.98474" lon="0.53864">
        <ele>1404.509</ele>
        <time>2020-02-08T14:01:17Z</time>
      </trkpt>
      <trkpt lat="42.9848" lon="0.53856">
        <ele>1404.514</ele>
        <time>2020-02-08T14:01:12Z</time>
      </trkpt>
      <trkpt lat="42.98481" lon="0.53855">
        <ele>1404.104</ele>
        <time>2020-02-08T14:01:11Z</time>
      </trkpt>
      <trkpt lat="42.98482" lon="0.53854">
        <ele>1403.824</ele>
        <time>2020-02-08T14:01:10Z</time>
      </trkpt>
      <trkpt lat="42.98482" lon="0.53853">
        <ele>1403.479</ele>
        <time>2020-02-08T14:01:09Z</time>
      </trkpt>
      <trkpt lat="42.98483" lon="0.53851">
        <ele>1403.076</ele>
        <time>2020-02-08T14:01:08Z</time>
      </trkpt>
      <trkpt lat="42.98483" lon="0.5385">
        <ele>1402.528</ele>
        <time>2020-02-08T14:01:07Z</time>
      </trkpt>
      <trkpt lat="42.98484" lon="0.53846">
        <ele>1402.563</ele>
        <time>2020-02-08T14:01:04Z</time>
      </trkpt>
      <trkpt lat="42.98485" lon="0.53844">
        <ele>1402.073</ele>
        <time>2020-02-08T14:01:03Z</time>
      </trkpt>
      <trkpt lat="42.98486" lon="0.53842">
        <ele>1401.525</ele>
        <time>2020-02-08T14:01:02Z</time>
      </trkpt>
      <trkpt lat="42.98487" lon="0.53841">
        <ele>1401.141</ele>
        <time>2020-02-08T14:01:01Z</time>
      </trkpt>
      <trkpt lat="42.98488" lon="0.53839">
        <ele>1400.594</ele>
        <time>2020-02-08T14:01:00Z</time>
      </trkpt>
      <trkpt lat="42.98488" lon="0.53838">
        <ele>1400.155</ele>
        <time>2020-02-08T14:00:59Z</time>
      </trkpt>
      <trkpt lat="42.98493" lon="0.53829">
        <ele>1400.109</ele>
        <time>2020-02-08T14:00:53Z</time>
      </trkpt>
      <trkpt lat="42.98494" lon="0.53827">
        <ele>1399.822</ele>
        <time>2020-02-08T14:00:52Z</time>
      </trkpt>
      <trkpt lat="42.98495" lon="0.53825">
        <ele>1399.402</ele>
        <time>2020-02-08T14:00:51Z</time>
      </trkpt>
      <trkpt lat="42.98496" lon="0.53824">
        <ele>1398.849</ele>
        <time>2020-02-08T14:00:50Z</time>
      </trkpt>
      <trkpt lat="42.98496" lon="0.53823">
        <ele>1398.447</ele>
        <time>2020-02-08T14:00:49Z</time>
      </trkpt>
      <trkpt lat="42.98504" lon="0.53812">
        <ele>1398.084</ele>
        <time>2020-02-08T14:00:44Z</time>
      </trkpt>
      <trkpt lat="42.98505" lon="0.5381">
        <ele>1397.566</ele>
        <time>2020-02-08T14:00:43Z</time>
      </trkpt>
      <trkpt lat="42.98505" lon="0.53809">
        <ele>1397.141</ele>
        <time>2020-02-08T14:00:41Z</time>
      </trkpt>
      <trkpt lat="42.98506" lon="0.53807">
        <ele>1396.821</ele>
        <time>2020-02-08T14:00:40Z</time>
      </trkpt>
      <trkpt lat="42.98506" lon="0.53806">
        <ele>1396.183</ele>
        <time>2020-02-08T14:00:39Z</time>
      </trkpt>
      <trkpt lat="42.9851" lon="0.538">
        <ele>1395.839</ele>
        <time>2020-02-08T14:00:35Z</time>
      </trkpt>
      <trkpt lat="42.98511" lon="0.538">
        <ele>1395.832</ele>
        <time>2020-02-08T14:00:34Z</time>
      </trkpt>
      <trkpt lat="42.98512" lon="0.53799">
        <ele>1395.493</ele>
        <time>2020-02-08T14:00:33Z</time>
      </trkpt>
      <trkpt lat="42.98513" lon="0.53796">
        <ele>1395.009</ele>
        <time>2020-02-08T14:00:31Z</time>
      </trkpt>
      <trkpt lat="42.98514" lon="0.53795">
        <ele>1394.514</ele>
        <time>2020-02-08T14:00:30Z</time>
      </trkpt>
      <trkpt lat="42.98515" lon="0.53794">
        <ele>1394.104</ele>
        <time>2020-02-08T14:00:29Z</time>
      </trkpt>
      <trkpt lat="42.98516" lon="0.53793">
        <ele>1393.824</ele>
        <time>2020-02-08T14:00:28Z</time>
      </trkpt>
      <trkpt lat="42.98517" lon="0.53792">
        <ele>1393.886</ele>
        <time>2020-02-08T14:00:27Z</time>
      </trkpt>
      <trkpt lat="42.98519" lon="0.53791">
        <ele>1393.433</ele>
        <time>2020-02-08T14:00:25Z</time>
      </trkpt>
      <trkpt lat="42.9852" lon="0.5379">
        <ele>1393.095</ele>
        <time>2020-02-08T14:00:24Z</time>
      </trkpt>
      <trkpt lat="42.98521" lon="0.5379">
        <ele>1392.58</ele>
        <time>2020-02-08T14:00:23Z</time>
      </trkpt>
      <trkpt lat="42.98522" lon="0.5379">
        <ele>1392.14</ele>
        <time>2020-02-08T14:00:22Z</time>
      </trkpt>
      <trkpt lat="42.98529" lon="0.53784">
        <ele>1391.522</ele>
        <time>2020-02-08T14:00:16Z</time>
      </trkpt>
      <trkpt lat="42.9853" lon="0.53783">
        <ele>1391.148</ele>
        <time>2020-02-08T14:00:15Z</time>
      </trkpt>
      <trkpt lat="42.98532" lon="0.53781">
        <ele>1390.491</ele>
        <time>2020-02-08T14:00:13Z</time>
      </trkpt>
      <trkpt lat="42.98532" lon="0.5378">
        <ele>1390.032</ele>
        <time>2020-02-08T14:00:12Z</time>
      </trkpt>
      <trkpt lat="42.98537" lon="0.53771">
        <ele>1389.509</ele>
        <time>2020-02-08T14:00:05Z</time>
      </trkpt>
      <trkpt lat="42.98539" lon="0.53767">
        <ele>1389.115</ele>
        <time>2020-02-08T14:00:03Z</time>
      </trkpt>
      <trkpt lat="42.98539" lon="0.53765">
        <ele>1388.487</ele>
        <time>2020-02-08T14:00:02Z</time>
      </trkpt>
      <trkpt lat="42.9854" lon="0.53764">
        <ele>1388.417</ele>
        <time>2020-02-08T14:00:01Z</time>
      </trkpt>
      <trkpt lat="42.98541" lon="0.53762">
        <ele>1387.864</ele>
        <time>2020-02-08T14:00:00Z</time>
      </trkpt>
      <trkpt lat="42.9855" lon="0.53753">
        <ele>1387.461</ele>
        <time>2020-02-08T13:59:54Z</time>
      </trkpt>
      <trkpt lat="42.9855" lon="0.53752">
        <ele>1387.083</ele>
        <time>2020-02-08T13:59:53Z</time>
      </trkpt>
      <trkpt lat="42.98551" lon="0.53751">
        <ele>1386.558</ele>
        <time>2020-02-08T13:59:52Z</time>
      </trkpt>
      <trkpt lat="42.98551" lon="0.5375">
        <ele>1386.198</ele>
        <time>2020-02-08T13:59:51Z</time>
      </trkpt>
      <trkpt lat="42.98552" lon="0.53748">
        <ele>1385.11</ele>
        <time>2020-02-08T13:59:50Z</time>
      </trkpt>
      <trkpt lat="42.98558" lon="0.53733">
        <ele>1385.116</ele>
        <time>2020-02-08T13:59:43Z</time>
      </trkpt>
      <trkpt lat="42.9856" lon="0.53729">
        <ele>1384.459</ele>
        <time>2020-02-08T13:59:41Z</time>
      </trkpt>
      <trkpt lat="42.98561" lon="0.53728">
        <ele>1384.02</ele>
        <time>2020-02-08T13:59:40Z</time>
      </trkpt>
      <trkpt lat="42.98562" lon="0.53726">
        <ele>1383.509</ele>
        <time>2020-02-08T13:59:39Z</time>
      </trkpt>
      <trkpt lat="42.98563" lon="0.53722">
        <ele>1383.119</ele>
        <time>2020-02-08T13:59:36Z</time>
      </trkpt>
      <trkpt lat="42.98564" lon="0.53718">
        <ele>1383.181</ele>
        <time>2020-02-08T13:59:33Z</time>
      </trkpt>
      <trkpt lat="42.98564" lon="0.53717">
        <ele>1382.891</ele>
        <time>2020-02-08T13:59:32Z</time>
      </trkpt>
      <trkpt lat="42.98564" lon="0.53716">
        <ele>1382.493</ele>
        <time>2020-02-08T13:59:31Z</time>
      </trkpt>
      <trkpt lat="42.98564" lon="0.53715">
        <ele>1382.08</ele>
        <time>2020-02-08T13:59:30Z</time>
      </trkpt>
      <trkpt lat="42.98564" lon="0.53713">
        <ele>1381.482</ele>
        <time>2020-02-08T13:59:29Z</time>
      </trkpt>
      <trkpt lat="42.98565" lon="0.53705">
        <ele>1381.087</ele>
        <time>2020-02-08T13:59:23Z</time>
      </trkpt>
      <trkpt lat="42.98565" lon="0.53703">
        <ele>1380.567</ele>
        <time>2020-02-08T13:59:22Z</time>
      </trkpt>
      <trkpt lat="42.98565" lon="0.53702">
        <ele>1380.179</ele>
        <time>2020-02-08T13:59:21Z</time>
      </trkpt>
      <trkpt lat="42.98565" lon="0.53701">
        <ele>1379.135</ele>
        <time>2020-02-08T13:59:20Z</time>
      </trkpt>
      <trkpt lat="42.9857" lon="0.53693">
        <ele>1378.828</ele>
        <time>2020-02-08T13:59:13Z</time>
      </trkpt>
      <trkpt lat="42.98571" lon="0.53693">
        <ele>1378.479</ele>
        <time>2020-02-08T13:59:12Z</time>
      </trkpt>
      <trkpt lat="42.98571" lon="0.53691">
        <ele>1377.809</ele>
        <time>2020-02-08T13:59:11Z</time>
      </trkpt>
      <trkpt lat="42.98572" lon="0.5369">
        <ele>1377.417</ele>
        <time>2020-02-08T13:59:10Z</time>
      </trkpt>
      <trkpt lat="42.98574" lon="0.5368">
        <ele>1376.443</ele>
        <time>2020-02-08T13:59:03Z</time>
      </trkpt>
      <trkpt lat="42.98575" lon="0.53677">
        <ele>1376.082</ele>
        <time>2020-02-08T13:59:01Z</time>
      </trkpt>
      <trkpt lat="42.98576" lon="0.53675">
        <ele>1375.144</ele>
        <time>2020-02-08T13:58:59Z</time>
      </trkpt>
      <trkpt lat="42.98576" lon="0.53674">
        <ele>1374.841</ele>
        <time>2020-02-08T13:58:58Z</time>
      </trkpt>
      <trkpt lat="42.98581" lon="0.53665">
        <ele>1374.463</ele>
        <time>2020-02-08T13:58:54Z</time>
      </trkpt>
      <trkpt lat="42.98582" lon="0.53661">
        <ele>1374.418</ele>
        <time>2020-02-08T13:58:52Z</time>
      </trkpt>
      <trkpt lat="42.98582" lon="0.5366">
        <ele>1374.098</ele>
        <time>2020-02-08T13:58:51Z</time>
      </trkpt>
      <trkpt lat="42.98584" lon="0.53658">
        <ele>1373.12</ele>
        <time>2020-02-08T13:58:49Z</time>
      </trkpt>
      <trkpt lat="42.98585" lon="0.53657">
        <ele>1372.176</ele>
        <time>2020-02-08T13:58:48Z</time>
      </trkpt>
      <trkpt lat="42.98585" lon="0.53656">
        <ele>1372.129</ele>
        <time>2020-02-08T13:58:47Z</time>
      </trkpt>
      <trkpt lat="42.98588" lon="0.53649">
        <ele>1372.15</ele>
        <time>2020-02-08T13:58:41Z</time>
      </trkpt>
      <trkpt lat="42.98588" lon="0.53648">
        <ele>1372.109</ele>
        <time>2020-02-08T13:58:40Z</time>
      </trkpt>
      <trkpt lat="42.98591" lon="0.5363">
        <ele>1368.024</ele>
        <time>2020-02-08T13:58:25Z</time>
      </trkpt>
      <trkpt lat="42.98592" lon="0.53629">
        <ele>1368.031</ele>
        <time>2020-02-08T13:58:22Z</time>
      </trkpt>
      <trkpt lat="42.98596" lon="0.53623">
        <ele>1368.096</ele>
        <time>2020-02-08T13:58:18Z</time>
      </trkpt>
      <trkpt lat="42.98596" lon="0.53622">
        <ele>1367.568</ele>
        <time>2020-02-08T13:58:17Z</time>
      </trkpt>
      <trkpt lat="42.98598" lon="0.53618">
        <ele>1367.115</ele>
        <time>2020-02-08T13:58:15Z</time>
      </trkpt>
      <trkpt lat="42.98599" lon="0.53616">
        <ele>1366.437</ele>
        <time>2020-02-08T13:58:14Z</time>
      </trkpt>
      <trkpt lat="42.98599" lon="0.53615">
        <ele>1366.042</ele>
        <time>2020-02-08T13:58:13Z</time>
      </trkpt>
      <trkpt lat="42.98601" lon="0.53606">
        <ele>1366.032</ele>
        <time>2020-02-08T13:58:07Z</time>
      </trkpt>
      <trkpt lat="42.98601" lon="0.53604">
        <ele>1365.084</ele>
        <time>2020-02-08T13:58:06Z</time>
      </trkpt>
      <trkpt lat="42.98601" lon="0.53603">
        <ele>1364.59</ele>
        <time>2020-02-08T13:58:05Z</time>
      </trkpt>
      <trkpt lat="42.98602" lon="0.53601">
        <ele>1364.113</ele>
        <time>2020-02-08T13:58:04Z</time>
      </trkpt>
      <trkpt lat="42.98603" lon="0.53598">
        <ele>1363.884</ele>
        <time>2020-02-08T13:58:02Z</time>
      </trkpt>
      <trkpt lat="42.98603" lon="0.53597">
        <ele>1363.809</ele>
        <time>2020-02-08T13:58:01Z</time>
      </trkpt>
      <trkpt lat="42.98603" lon="0.53596">
        <ele>1363.817</ele>
        <time>2020-02-08T13:58:00Z</time>
      </trkpt>
      <trkpt lat="42.98603" lon="0.53592">
        <ele>1363.47</ele>
        <time>2020-02-08T13:57:58Z</time>
      </trkpt>
      <trkpt lat="42.98603" lon="0.5359">
        <ele>1363.038</ele>
        <time>2020-02-08T13:57:57Z</time>
      </trkpt>
      <trkpt lat="42.98604" lon="0.53589">
        <ele>1362.15</ele>
        <time>2020-02-08T13:57:56Z</time>
      </trkpt>
      <trkpt lat="42.98609" lon="0.53582">
        <ele>1361.577</ele>
        <time>2020-02-08T13:57:50Z</time>
      </trkpt>
      <trkpt lat="42.98611" lon="0.53584">
        <ele>1361.139</ele>
        <time>2020-02-08T13:57:48Z</time>
      </trkpt>
      <trkpt lat="42.98612" lon="0.53586">
        <ele>1360.144</ele>
        <time>2020-02-08T13:57:47Z</time>
      </trkpt>
      <trkpt lat="42.98613" lon="0.53587">
        <ele>1359.874</ele>
        <time>2020-02-08T13:57:46Z</time>
      </trkpt>
      <trkpt lat="42.98615" lon="0.53597">
        <ele>1359.186</ele>
        <time>2020-02-08T13:57:41Z</time>
      </trkpt>
      <trkpt lat="42.98615" lon="0.53599">
        <ele>1358.882</ele>
        <time>2020-02-08T13:57:40Z</time>
      </trkpt>
      <trkpt lat="42.98615" lon="0.536">
        <ele>1358.455</ele>
        <time>2020-02-08T13:57:39Z</time>
      </trkpt>
      <trkpt lat="42.98615" lon="0.53602">
        <ele>1358.016</ele>
        <time>2020-02-08T13:57:38Z</time>
      </trkpt>
      <trkpt lat="42.98615" lon="0.53604">
        <ele>1357.509</ele>
        <time>2020-02-08T13:57:37Z</time>
      </trkpt>
      <trkpt lat="42.98615" lon="0.53614">
        <ele>1357.117</ele>
        <time>2020-02-08T13:57:31Z</time>
      </trkpt>
      <trkpt lat="42.98616" lon="0.53616">
        <ele>1357.152</ele>
        <time>2020-02-08T13:57:30Z</time>
      </trkpt>
      <trkpt lat="42.98616" lon="0.53617">
        <ele>1356.858</ele>
        <time>2020-02-08T13:57:29Z</time>
      </trkpt>
      <trkpt lat="42.98617" lon="0.5362">
        <ele>1356.162</ele>
        <time>2020-02-08T13:57:27Z</time>
      </trkpt>
      <trkpt lat="42.98618" lon="0.53623">
        <ele>1355.429</ele>
        <time>2020-02-08T13:57:25Z</time>
      </trkpt>
      <trkpt lat="42.98619" lon="0.53628">
        <ele>1354.891</ele>
        <time>2020-02-08T13:57:22Z</time>
      </trkpt>
      <trkpt lat="42.9862" lon="0.5363">
        <ele>1354.416</ele>
        <time>2020-02-08T13:57:21Z</time>
      </trkpt>
      <trkpt lat="42.98622" lon="0.53633">
        <ele>1354.026</ele>
        <time>2020-02-08T13:57:19Z</time>
      </trkpt>
      <trkpt lat="42.98623" lon="0.53635">
        <ele>1353.578</ele>
        <time>2020-02-08T13:57:18Z</time>
      </trkpt>
      <trkpt lat="42.98624" lon="0.53636">
        <ele>1353.124</ele>
        <time>2020-02-08T13:57:17Z</time>
      </trkpt>
      <trkpt lat="42.98626" lon="0.53638">
        <ele>1352.877</ele>
        <time>2020-02-08T13:57:16Z</time>
      </trkpt>
      <trkpt lat="42.98633" lon="0.53636">
        <ele>1348.598</ele>
        <time>2020-02-08T13:52:58Z</time>
      </trkpt>
      <trkpt lat="42.98634" lon="0.53626">
        <ele>1348.509</ele>
        <time>2020-02-08T13:52:50Z</time>
      </trkpt>
      <trkpt lat="42.98632" lon="0.53607">
        <ele>1348.525</ele>
        <time>2020-02-08T13:52:42Z</time>
      </trkpt>
      <trkpt lat="42.98632" lon="0.53599">
        <ele>1348.505</ele>
        <time>2020-02-08T13:52:39Z</time>
      </trkpt>
      <trkpt lat="42.98632" lon="0.53597">
        <ele>1348.179</ele>
        <time>2020-02-08T13:52:38Z</time>
      </trkpt>
      <trkpt lat="42.98632" lon="0.53595">
        <ele>1347.821</ele>
        <time>2020-02-08T13:52:37Z</time>
      </trkpt>
      <trkpt lat="42.98632" lon="0.53592">
        <ele>1347.478</ele>
        <time>2020-02-08T13:52:36Z</time>
      </trkpt>
      <trkpt lat="42.98632" lon="0.5359">
        <ele>1347.03</ele>
        <time>2020-02-08T13:52:35Z</time>
      </trkpt>
      <trkpt lat="42.98632" lon="0.53582">
        <ele>1346.495</ele>
        <time>2020-02-08T13:52:32Z</time>
      </trkpt>
      <trkpt lat="42.98631" lon="0.53563">
        <ele>1346.475</ele>
        <time>2020-02-08T13:52:25Z</time>
      </trkpt>
      <trkpt lat="42.9863" lon="0.53557">
        <ele>1346.487</ele>
        <time>2020-02-08T13:52:22Z</time>
      </trkpt>
      <trkpt lat="42.9863" lon="0.53553">
        <ele>1346.013</ele>
        <time>2020-02-08T13:52:21Z</time>
      </trkpt>
      <trkpt lat="42.98632" lon="0.5355">
        <ele>1345.546</ele>
        <time>2020-02-08T13:52:20Z</time>
      </trkpt>
      <trkpt lat="42.98632" lon="0.53547">
        <ele>1345.197</ele>
        <time>2020-02-08T13:52:19Z</time>
      </trkpt>
      <trkpt lat="42.98633" lon="0.53544">
        <ele>1344.509</ele>
        <time>2020-02-08T13:52:18Z</time>
      </trkpt>
      <trkpt lat="42.98634" lon="0.53541">
        <ele>1344.124</ele>
        <time>2020-02-08T13:52:17Z</time>
      </trkpt>
      <trkpt lat="42.98638" lon="0.53525">
        <ele>1344.104</ele>
        <time>2020-02-08T13:52:11Z</time>
      </trkpt>
      <trkpt lat="42.98639" lon="0.53525">
        <ele>1344.169</ele>
        <time>2020-02-08T13:52:10Z</time>
      </trkpt>
      <trkpt lat="42.98639" lon="0.53523">
        <ele>1343.868</ele>
        <time>2020-02-08T13:52:09Z</time>
      </trkpt>
      <trkpt lat="42.98639" lon="0.53521">
        <ele>1343.415</ele>
        <time>2020-02-08T13:52:08Z</time>
      </trkpt>
      <trkpt lat="42.98639" lon="0.5352">
        <ele>1342.867</ele>
        <time>2020-02-08T13:52:07Z</time>
      </trkpt>
      <trkpt lat="42.9864" lon="0.53518">
        <ele>1342.432</ele>
        <time>2020-02-08T13:52:06Z</time>
      </trkpt>
      <trkpt lat="42.98643" lon="0.53513">
        <ele>1342.092</ele>
        <time>2020-02-08T13:52:03Z</time>
      </trkpt>
      <trkpt lat="42.98651" lon="0.53504">
        <ele>1342.034</ele>
        <time>2020-02-08T13:51:57Z</time>
      </trkpt>
      <trkpt lat="42.98653" lon="0.53503">
        <ele>1341.53</ele>
        <time>2020-02-08T13:51:56Z</time>
      </trkpt>
      <trkpt lat="42.98655" lon="0.53502">
        <ele>1341.123</ele>
        <time>2020-02-08T13:51:55Z</time>
      </trkpt>
      <trkpt lat="42.98656" lon="0.53501">
        <ele>1340.874</ele>
        <time>2020-02-08T13:51:54Z</time>
      </trkpt>
      <trkpt lat="42.98658" lon="0.53501">
        <ele>1340.409</ele>
        <time>2020-02-08T13:51:53Z</time>
      </trkpt>
      <trkpt lat="42.98666" lon="0.53497">
        <ele>1340.017</ele>
        <time>2020-02-08T13:51:48Z</time>
      </trkpt>
      <trkpt lat="42.98669" lon="0.53496">
        <ele>1340.07</ele>
        <time>2020-02-08T13:51:46Z</time>
      </trkpt>
      <trkpt lat="42.9867" lon="0.53495">
        <ele>1339.538</ele>
        <time>2020-02-08T13:51:45Z</time>
      </trkpt>
      <trkpt lat="42.98672" lon="0.53494">
        <ele>1339.151</ele>
        <time>2020-02-08T13:51:44Z</time>
      </trkpt>
      <trkpt lat="42.98674" lon="0.53493">
        <ele>1338.888</ele>
        <time>2020-02-08T13:51:43Z</time>
      </trkpt>
      <trkpt lat="42.98675" lon="0.53492">
        <ele>1338.41</ele>
        <time>2020-02-08T13:51:42Z</time>
      </trkpt>
      <trkpt lat="42.98678" lon="0.53489">
        <ele>1338.035</ele>
        <time>2020-02-08T13:51:40Z</time>
      </trkpt>
      <trkpt lat="42.98682" lon="0.53484">
        <ele>1338.055</ele>
        <time>2020-02-08T13:51:37Z</time>
      </trkpt>
      <trkpt lat="42.98683" lon="0.53482">
        <ele>1337.447</ele>
        <time>2020-02-08T13:51:36Z</time>
      </trkpt>
      <trkpt lat="42.98684" lon="0.5348">
        <ele>1337.053</ele>
        <time>2020-02-08T13:51:35Z</time>
      </trkpt>
      <trkpt lat="42.98685" lon="0.53478">
        <ele>1336.546</ele>
        <time>2020-02-08T13:51:34Z</time>
      </trkpt>
      <trkpt lat="42.98686" lon="0.53477">
        <ele>1336.177</ele>
        <time>2020-02-08T13:51:33Z</time>
      </trkpt>
      <trkpt lat="42.98689" lon="0.53474">
        <ele>1335.809</ele>
        <time>2020-02-08T13:51:31Z</time>
      </trkpt>
      <trkpt lat="42.98697" lon="0.5347">
        <ele>1335.813</ele>
        <time>2020-02-08T13:51:24Z</time>
      </trkpt>
      <trkpt lat="42.98698" lon="0.53469">
        <ele>1335.421</ele>
        <time>2020-02-08T13:51:23Z</time>
      </trkpt>
      <trkpt lat="42.98699" lon="0.53468">
        <ele>1334.861</ele>
        <time>2020-02-08T13:51:22Z</time>
      </trkpt>
      <trkpt lat="42.98701" lon="0.53467">
        <ele>1334.476</ele>
        <time>2020-02-08T13:51:21Z</time>
      </trkpt>
      <trkpt lat="42.98702" lon="0.53466">
        <ele>1334.013</ele>
        <time>2020-02-08T13:51:20Z</time>
      </trkpt>
      <trkpt lat="42.9871" lon="0.53465">
        <ele>1333.525</ele>
        <time>2020-02-08T13:51:15Z</time>
      </trkpt>
      <trkpt lat="42.98713" lon="0.53463">
        <ele>1333.52</ele>
        <time>2020-02-08T13:51:13Z</time>
      </trkpt>
      <trkpt lat="42.98715" lon="0.53463">
        <ele>1333.15</ele>
        <time>2020-02-08T13:51:12Z</time>
      </trkpt>
      <trkpt lat="42.98716" lon="0.53461">
        <ele>1332.822</ele>
        <time>2020-02-08T13:51:11Z</time>
      </trkpt>
      <trkpt lat="42.98718" lon="0.53461">
        <ele>1332.118</ele>
        <time>2020-02-08T13:51:10Z</time>
      </trkpt>
      <trkpt lat="42.9872" lon="0.53459">
        <ele>1331.841</ele>
        <time>2020-02-08T13:51:09Z</time>
      </trkpt>
      <trkpt lat="42.98729" lon="0.53448">
        <ele>1331.492</ele>
        <time>2020-02-08T13:51:03Z</time>
      </trkpt>
      <trkpt lat="42.98729" lon="0.53447">
        <ele>1331.009</ele>
        <time>2020-02-08T13:51:02Z</time>
      </trkpt>
      <trkpt lat="42.9873" lon="0.53445">
        <ele>1330.509</ele>
        <time>2020-02-08T13:51:01Z</time>
      </trkpt>
      <trkpt lat="42.9873" lon="0.53444">
        <ele>1330.154</ele>
        <time>2020-02-08T13:51:00Z</time>
      </trkpt>
      <trkpt lat="42.98731" lon="0.53442">
        <ele>1329.814</ele>
        <time>2020-02-08T13:50:59Z</time>
      </trkpt>
      <trkpt lat="42.98735" lon="0.53431">
        <ele>1329.412</ele>
        <time>2020-02-08T13:50:53Z</time>
      </trkpt>
      <trkpt lat="42.98736" lon="0.53426">
        <ele>1329.459</ele>
        <time>2020-02-08T13:50:51Z</time>
      </trkpt>
      <trkpt lat="42.98737" lon="0.53424">
        <ele>1329.081</ele>
        <time>2020-02-08T13:50:50Z</time>
      </trkpt>
      <trkpt lat="42.98738" lon="0.53422">
        <ele>1328.556</ele>
        <time>2020-02-08T13:50:49Z</time>
      </trkpt>
      <trkpt lat="42.98739" lon="0.53421">
        <ele>1328.046</ele>
        <time>2020-02-08T13:50:48Z</time>
      </trkpt>
      <trkpt lat="42.9874" lon="0.5342">
        <ele>1327.578</ele>
        <time>2020-02-08T13:50:47Z</time>
      </trkpt>
      <trkpt lat="42.98741" lon="0.53416">
        <ele>1327.194</ele>
        <time>2020-02-08T13:50:45Z</time>
      </trkpt>
      <trkpt lat="42.98747" lon="0.53403">
        <ele>1327.137</ele>
        <time>2020-02-08T13:50:38Z</time>
      </trkpt>
      <trkpt lat="42.98748" lon="0.53401">
        <ele>1327.128</ele>
        <time>2020-02-08T13:50:37Z</time>
      </trkpt>
      <trkpt lat="42.98748" lon="0.53399">
        <ele>1326.809</ele>
        <time>2020-02-08T13:50:36Z</time>
      </trkpt>
      <trkpt lat="42.98749" lon="0.53397">
        <ele>1326.419</ele>
        <time>2020-02-08T13:50:35Z</time>
      </trkpt>
      <trkpt lat="42.9875" lon="0.53394">
        <ele>1326.09</ele>
        <time>2020-02-08T13:50:34Z</time>
      </trkpt>
      <trkpt lat="42.98751" lon="0.53392">
        <ele>1325.576</ele>
        <time>2020-02-08T13:50:33Z</time>
      </trkpt>
      <trkpt lat="42.98752" lon="0.53388">
        <ele>1325.07</ele>
        <time>2020-02-08T13:50:31Z</time>
      </trkpt>
      <trkpt lat="42.98757" lon="0.53377">
        <ele>1325.067</ele>
        <time>2020-02-08T13:50:25Z</time>
      </trkpt>
      <trkpt lat="42.98758" lon="0.53375">
        <ele>1324.589</ele>
        <time>2020-02-08T13:50:24Z</time>
      </trkpt>
      <trkpt lat="42.98759" lon="0.53372">
        <ele>1324.134</ele>
        <time>2020-02-08T13:50:23Z</time>
      </trkpt>
      <trkpt lat="42.98759" lon="0.53371">
        <ele>1323.834</ele>
        <time>2020-02-08T13:50:22Z</time>
      </trkpt>
      <trkpt lat="42.98759" lon="0.53368">
        <ele>1323.446</ele>
        <time>2020-02-08T13:50:21Z</time>
      </trkpt>
      <trkpt lat="42.98762" lon="0.53357">
        <ele>1323.042</ele>
        <time>2020-02-08T13:50:15Z</time>
      </trkpt>
      <trkpt lat="42.98763" lon="0.53355">
        <ele>1322.565</ele>
        <time>2020-02-08T13:50:14Z</time>
      </trkpt>
      <trkpt lat="42.98763" lon="0.53352">
        <ele>1322.036</ele>
        <time>2020-02-08T13:50:13Z</time>
      </trkpt>
      <trkpt lat="42.98764" lon="0.53351">
        <ele>1321.509</ele>
        <time>2020-02-08T13:50:12Z</time>
      </trkpt>
      <trkpt lat="42.98764" lon="0.53348">
        <ele>1321.114</ele>
        <time>2020-02-08T13:50:11Z</time>
      </trkpt>
      <trkpt lat="42.98767" lon="0.53339">
        <ele>1320.859</ele>
        <time>2020-02-08T13:50:06Z</time>
      </trkpt>
      <trkpt lat="42.98768" lon="0.53334">
        <ele>1320.856</ele>
        <time>2020-02-08T13:50:03Z</time>
      </trkpt>
      <trkpt lat="42.98769" lon="0.53331">
        <ele>1320.489</ele>
        <time>2020-02-08T13:50:02Z</time>
      </trkpt>
      <trkpt lat="42.9877" lon="0.53329">
        <ele>1320.086</ele>
        <time>2020-02-08T13:50:01Z</time>
      </trkpt>
      <trkpt lat="42.98771" lon="0.53327">
        <ele>1319.558</ele>
        <time>2020-02-08T13:50:00Z</time>
      </trkpt>
      <trkpt lat="42.98772" lon="0.53325">
        <ele>1319.163</ele>
        <time>2020-02-08T13:49:59Z</time>
      </trkpt>
      <trkpt lat="42.98772" lon="0.53323">
        <ele>1318.543</ele>
        <time>2020-02-08T13:49:58Z</time>
      </trkpt>
      <trkpt lat="42.98776" lon="0.53312">
        <ele>1318.525</ele>
        <time>2020-02-08T13:49:52Z</time>
      </trkpt>
      <trkpt lat="42.98776" lon="0.5331">
        <ele>1318.191</ele>
        <time>2020-02-08T13:49:51Z</time>
      </trkpt>
      <trkpt lat="42.98776" lon="0.53309">
        <ele>1317.874</ele>
        <time>2020-02-08T13:49:50Z</time>
      </trkpt>
      <trkpt lat="42.98777" lon="0.53307">
        <ele>1317.495</ele>
        <time>2020-02-08T13:49:49Z</time>
      </trkpt>
      <trkpt lat="42.98777" lon="0.53306">
        <ele>1316.809</ele>
        <time>2020-02-08T13:49:48Z</time>
      </trkpt>
      <trkpt lat="42.98782" lon="0.5329">
        <ele>1316.409</ele>
        <time>2020-02-08T13:49:40Z</time>
      </trkpt>
      <trkpt lat="42.98782" lon="0.53288">
        <ele>1316.081</ele>
        <time>2020-02-08T13:49:39Z</time>
      </trkpt>
      <trkpt lat="42.98783" lon="0.53286">
        <ele>1315.441</ele>
        <time>2020-02-08T13:49:38Z</time>
      </trkpt>
      <trkpt lat="42.98783" lon="0.53285">
        <ele>1315.066</ele>
        <time>2020-02-08T13:49:37Z</time>
      </trkpt>
      <trkpt lat="42.98785" lon="0.53283">
        <ele>1314.413</ele>
        <time>2020-02-08T13:49:36Z</time>
      </trkpt>
      <trkpt lat="42.98789" lon="0.53273">
        <ele>1314.015</ele>
        <time>2020-02-08T13:49:30Z</time>
      </trkpt>
      <trkpt lat="42.98793" lon="0.53263">
        <ele>1314.06</ele>
        <time>2020-02-08T13:49:24Z</time>
      </trkpt>
      <trkpt lat="42.98794" lon="0.53261">
        <ele>1313.53</ele>
        <time>2020-02-08T13:49:23Z</time>
      </trkpt>
      <trkpt lat="42.98794" lon="0.53259">
        <ele>1313.162</ele>
        <time>2020-02-08T13:49:22Z</time>
      </trkpt>
      <trkpt lat="42.98795" lon="0.53257">
        <ele>1312.888</ele>
        <time>2020-02-08T13:49:21Z</time>
      </trkpt>
      <trkpt lat="42.98796" lon="0.53255">
        <ele>1312.461</ele>
        <time>2020-02-08T13:49:20Z</time>
      </trkpt>
      <trkpt lat="42.98798" lon="0.53242">
        <ele>1312.022</ele>
        <time>2020-02-08T13:49:13Z</time>
      </trkpt>
      <trkpt lat="42.98798" lon="0.5324">
        <ele>1311.509</ele>
        <time>2020-02-08T13:49:12Z</time>
      </trkpt>
      <trkpt lat="42.98798" lon="0.53239">
        <ele>1311.117</ele>
        <time>2020-02-08T13:49:11Z</time>
      </trkpt>
      <trkpt lat="42.98799" lon="0.53237">
        <ele>1310.898</ele>
        <time>2020-02-08T13:49:10Z</time>
      </trkpt>
      <trkpt lat="42.988" lon="0.53235">
        <ele>1310.418</ele>
        <time>2020-02-08T13:49:09Z</time>
      </trkpt>
      <trkpt lat="42.98803" lon="0.53218">
        <ele>1310.077</ele>
        <time>2020-02-08T13:49:01Z</time>
      </trkpt>
      <trkpt lat="42.98804" lon="0.53214">
        <ele>1310.094</ele>
        <time>2020-02-08T13:48:59Z</time>
      </trkpt>
      <trkpt lat="42.98804" lon="0.53212">
        <ele>1309.546</ele>
        <time>2020-02-08T13:48:58Z</time>
      </trkpt>
      <trkpt lat="42.98805" lon="0.5321">
        <ele>1309.041</ele>
        <time>2020-02-08T13:48:57Z</time>
      </trkpt>
      <trkpt lat="42.98806" lon="0.53208">
        <ele>1308.551</ele>
        <time>2020-02-08T13:48:56Z</time>
      </trkpt>
      <trkpt lat="42.98806" lon="0.53206">
        <ele>1308.143</ele>
        <time>2020-02-08T13:48:55Z</time>
      </trkpt>
      <trkpt lat="42.98806" lon="0.53204">
        <ele>1307.869</ele>
        <time>2020-02-08T13:48:54Z</time>
      </trkpt>
      <trkpt lat="42.98807" lon="0.53197">
        <ele>1307.852</ele>
        <time>2020-02-08T13:48:51Z</time>
      </trkpt>
      <trkpt lat="42.98807" lon="0.53195">
        <ele>1307.453</ele>
        <time>2020-02-08T13:48:50Z</time>
      </trkpt>
      <trkpt lat="42.98808" lon="0.53193">
        <ele>1307.009</ele>
        <time>2020-02-08T13:48:49Z</time>
      </trkpt>
      <trkpt lat="42.98808" lon="0.53191">
        <ele>1306.508</ele>
        <time>2020-02-08T13:48:48Z</time>
      </trkpt>
      <trkpt lat="42.98809" lon="0.53189">
        <ele>1306.126</ele>
        <time>2020-02-08T13:48:47Z</time>
      </trkpt>
      <trkpt lat="42.98812" lon="0.53181">
        <ele>1305.825</ele>
        <time>2020-02-08T13:48:43Z</time>
      </trkpt>
      <trkpt lat="42.98815" lon="0.53172">
        <ele>1305.824</ele>
        <time>2020-02-08T13:48:38Z</time>
      </trkpt>
      <trkpt lat="42.98815" lon="0.5317">
        <ele>1305.491</ele>
        <time>2020-02-08T13:48:37Z</time>
      </trkpt>
      <trkpt lat="42.98816" lon="0.53168">
        <ele>1304.843</ele>
        <time>2020-02-08T13:48:36Z</time>
      </trkpt>
      <trkpt lat="42.98816" lon="0.53166">
        <ele>1304.418</ele>
        <time>2020-02-08T13:48:35Z</time>
      </trkpt>
      <trkpt lat="42.98817" lon="0.53164">
        <ele>1304.088</ele>
        <time>2020-02-08T13:48:34Z</time>
      </trkpt>
      <trkpt lat="42.98819" lon="0.5316">
        <ele>1303.52</ele>
        <time>2020-02-08T13:48:32Z</time>
      </trkpt>
      <trkpt lat="42.98821" lon="0.53148">
        <ele>1303.516</ele>
        <time>2020-02-08T13:48:26Z</time>
      </trkpt>
      <trkpt lat="42.98821" lon="0.53146">
        <ele>1303.159</ele>
        <time>2020-02-08T13:48:25Z</time>
      </trkpt>
      <trkpt lat="42.98821" lon="0.53143">
        <ele>1302.81</ele>
        <time>2020-02-08T13:48:24Z</time>
      </trkpt>
      <trkpt lat="42.98822" lon="0.53141">
        <ele>1302.409</ele>
        <time>2020-02-08T13:48:23Z</time>
      </trkpt>
      <trkpt lat="42.98822" lon="0.53139">
        <ele>1302.027</ele>
        <time>2020-02-08T13:48:22Z</time>
      </trkpt>
      <trkpt lat="42.98822" lon="0.53136">
        <ele>1301.507</ele>
        <time>2020-02-08T13:48:21Z</time>
      </trkpt>
      <trkpt lat="42.98825" lon="0.53124">
        <ele>1301.599</ele>
        <time>2020-02-08T13:48:16Z</time>
      </trkpt>
      <trkpt lat="42.98825" lon="0.53122">
        <ele>1301.164</ele>
        <time>2020-02-08T13:48:15Z</time>
      </trkpt>
      <trkpt lat="42.98826" lon="0.5312">
        <ele>1300.831</ele>
        <time>2020-02-08T13:48:14Z</time>
      </trkpt>
      <trkpt lat="42.98826" lon="0.53119">
        <ele>1300.423</ele>
        <time>2020-02-08T13:48:13Z</time>
      </trkpt>
      <trkpt lat="42.98825" lon="0.53117">
        <ele>1300.048</ele>
        <time>2020-02-08T13:48:12Z</time>
      </trkpt>
      <trkpt lat="42.98828" lon="0.53109">
        <ele>1299.578</ele>
        <time>2020-02-08T13:48:07Z</time>
      </trkpt>
      <trkpt lat="42.9883" lon="0.53103">
        <ele>1299.52</ele>
        <time>2020-02-08T13:48:03Z</time>
      </trkpt>
      <trkpt lat="42.9883" lon="0.53101">
        <ele>1299.016</ele>
        <time>2020-02-08T13:48:02Z</time>
      </trkpt>
      <trkpt lat="42.98831" lon="0.53099">
        <ele>1298.529</ele>
        <time>2020-02-08T13:48:01Z</time>
      </trkpt>
      <trkpt lat="42.98831" lon="0.53097">
        <ele>1298.18</ele>
        <time>2020-02-08T13:48:00Z</time>
      </trkpt>
      <trkpt lat="42.98832" lon="0.53095">
        <ele>1297.509</ele>
        <time>2020-02-08T13:47:59Z</time>
      </trkpt>
      <trkpt lat="42.98832" lon="0.53093">
        <ele>1297.123</ele>
        <time>2020-02-08T13:47:58Z</time>
      </trkpt>
      <trkpt lat="42.98834" lon="0.53082">
        <ele>1297.149</ele>
        <time>2020-02-08T13:47:53Z</time>
      </trkpt>
      <trkpt lat="42.98835" lon="0.5308">
        <ele>1296.895</ele>
        <time>2020-02-08T13:47:52Z</time>
      </trkpt>
      <trkpt lat="42.98835" lon="0.53078">
        <ele>1296.447</ele>
        <time>2020-02-08T13:47:51Z</time>
      </trkpt>
      <trkpt lat="42.98835" lon="0.53076">
        <ele>1296.054</ele>
        <time>2020-02-08T13:47:50Z</time>
      </trkpt>
      <trkpt lat="42.98835" lon="0.53075">
        <ele>1295.526</ele>
        <time>2020-02-08T13:47:49Z</time>
      </trkpt>
      <trkpt lat="42.98837" lon="0.53065">
        <ele>1295.161</ele>
        <time>2020-02-08T13:47:44Z</time>
      </trkpt>
      <trkpt lat="42.98837" lon="0.53063">
        <ele>1294.551</ele>
        <time>2020-02-08T13:47:43Z</time>
      </trkpt>
      <trkpt lat="42.98838" lon="0.53061">
        <ele>1294.163</ele>
        <time>2020-02-08T13:47:42Z</time>
      </trkpt>
      <trkpt lat="42.98837" lon="0.53059">
        <ele>1293.589</ele>
        <time>2020-02-08T13:47:41Z</time>
      </trkpt>
      <trkpt lat="42.98837" lon="0.53057">
        <ele>1293.072</ele>
        <time>2020-02-08T13:47:40Z</time>
      </trkpt>
      <trkpt lat="42.98838" lon="0.53048">
        <ele>1292.533</ele>
        <time>2020-02-08T13:47:36Z</time>
      </trkpt>
      <trkpt lat="42.98839" lon="0.53035">
        <ele>1292.509</ele>
        <time>2020-02-08T13:47:29Z</time>
      </trkpt>
      <trkpt lat="42.9884" lon="0.53033">
        <ele>1292.011</ele>
        <time>2020-02-08T13:47:28Z</time>
      </trkpt>
      <trkpt lat="42.9884" lon="0.5303">
        <ele>1291.583</ele>
        <time>2020-02-08T13:47:27Z</time>
      </trkpt>
      <trkpt lat="42.9884" lon="0.53028">
        <ele>1291.123</ele>
        <time>2020-02-08T13:47:26Z</time>
      </trkpt>
      <trkpt lat="42.98841" lon="0.53027">
        <ele>1290.812</ele>
        <time>2020-02-08T13:47:25Z</time>
      </trkpt>
      <trkpt lat="42.98842" lon="0.53014">
        <ele>1290.419</ele>
        <time>2020-02-08T13:47:19Z</time>
      </trkpt>
      <trkpt lat="42.98842" lon="0.53013">
        <ele>1290.041</ele>
        <time>2020-02-08T13:47:18Z</time>
      </trkpt>
      <trkpt lat="42.98842" lon="0.5301">
        <ele>1289.586</ele>
        <time>2020-02-08T13:47:17Z</time>
      </trkpt>
      <trkpt lat="42.98842" lon="0.53009">
        <ele>1289.176</ele>
        <time>2020-02-08T13:47:16Z</time>
      </trkpt>
      <trkpt lat="42.98843" lon="0.53008">
        <ele>1288.828</ele>
        <time>2020-02-08T13:47:15Z</time>
      </trkpt>
      <trkpt lat="42.98845" lon="0.53">
        <ele>1288.424</ele>
        <time>2020-02-08T13:47:11Z</time>
      </trkpt>
      <trkpt lat="42.98845" lon="0.52998">
        <ele>1287.847</ele>
        <time>2020-02-08T13:47:10Z</time>
      </trkpt>
      <trkpt lat="42.98846" lon="0.52995">
        <ele>1287.428</ele>
        <time>2020-02-08T13:47:09Z</time>
      </trkpt>
      <trkpt lat="42.98846" lon="0.52994">
        <ele>1287.009</ele>
        <time>2020-02-08T13:47:08Z</time>
      </trkpt>
      <trkpt lat="42.98846" lon="0.52992">
        <ele>1286.521</ele>
        <time>2020-02-08T13:47:07Z</time>
      </trkpt>
      <trkpt lat="42.98846" lon="0.52983">
        <ele>1286.156</ele>
        <time>2020-02-08T13:47:03Z</time>
      </trkpt>
      <trkpt lat="42.98847" lon="0.52974">
        <ele>1286.174</ele>
        <time>2020-02-08T13:46:58Z</time>
      </trkpt>
      <trkpt lat="42.98848" lon="0.52972">
        <ele>1285.881</ele>
        <time>2020-02-08T13:46:57Z</time>
      </trkpt>
      <trkpt lat="42.98848" lon="0.5297">
        <ele>1285.458</ele>
        <time>2020-02-08T13:46:56Z</time>
      </trkpt>
      <trkpt lat="42.98847" lon="0.52968">
        <ele>1285.03</ele>
        <time>2020-02-08T13:46:55Z</time>
      </trkpt>
      <trkpt lat="42.98847" lon="0.52966">
        <ele>1284.515</ele>
        <time>2020-02-08T13:46:54Z</time>
      </trkpt>
      <trkpt lat="42.98847" lon="0.52959">
        <ele>1284.115</ele>
        <time>2020-02-08T13:46:51Z</time>
      </trkpt>
      <trkpt lat="42.98847" lon="0.52953">
        <ele>1284.147</ele>
        <time>2020-02-08T13:46:48Z</time>
      </trkpt>
      <trkpt lat="42.98847" lon="0.52951">
        <ele>1283.853</ele>
        <time>2020-02-08T13:46:47Z</time>
      </trkpt>
      <trkpt lat="42.98847" lon="0.52949">
        <ele>1283.436</ele>
        <time>2020-02-08T13:46:46Z</time>
      </trkpt>
      <trkpt lat="42.98848" lon="0.52947">
        <ele>1282.897</ele>
        <time>2020-02-08T13:46:45Z</time>
      </trkpt>
      <trkpt lat="42.98847" lon="0.52945">
        <ele>1282.409</ele>
        <time>2020-02-08T13:46:44Z</time>
      </trkpt>
      <trkpt lat="42.98848" lon="0.52943">
        <ele>1282.016</ele>
        <time>2020-02-08T13:46:43Z</time>
      </trkpt>
      <trkpt lat="42.98849" lon="0.52931">
        <ele>1282.006</ele>
        <time>2020-02-08T13:46:36Z</time>
      </trkpt>
      <trkpt lat="42.98849" lon="0.52929">
        <ele>1281.564</ele>
        <time>2020-02-08T13:46:35Z</time>
      </trkpt>
      <trkpt lat="42.9885" lon="0.52927">
        <ele>1281.144</ele>
        <time>2020-02-08T13:46:34Z</time>
      </trkpt>
      <trkpt lat="42.9885" lon="0.52926">
        <ele>1280.881</ele>
        <time>2020-02-08T13:46:33Z</time>
      </trkpt>
      <trkpt lat="42.98851" lon="0.52924">
        <ele>1280.153</ele>
        <time>2020-02-08T13:46:32Z</time>
      </trkpt>
      <trkpt lat="42.98853" lon="0.52909">
        <ele>1279.838</ele>
        <time>2020-02-08T13:46:23Z</time>
      </trkpt>
      <trkpt lat="42.98852" lon="0.52907">
        <ele>1279.418</ele>
        <time>2020-02-08T13:46:22Z</time>
      </trkpt>
      <trkpt lat="42.98852" lon="0.52905">
        <ele>1279.01</ele>
        <time>2020-02-08T13:46:21Z</time>
      </trkpt>
      <trkpt lat="42.98852" lon="0.52903">
        <ele>1278.536</ele>
        <time>2020-02-08T13:46:20Z</time>
      </trkpt>
      <trkpt lat="42.98852" lon="0.52901">
        <ele>1278.099</ele>
        <time>2020-02-08T13:46:19Z</time>
      </trkpt>
      <trkpt lat="42.98852" lon="0.52894">
        <ele>1277.57</ele>
        <time>2020-02-08T13:46:16Z</time>
      </trkpt>
      <trkpt lat="42.98852" lon="0.52891">
        <ele>1277.509</ele>
        <time>2020-02-08T13:46:14Z</time>
      </trkpt>
      <trkpt lat="42.98852" lon="0.52888">
        <ele>1277.119</ele>
        <time>2020-02-08T13:46:13Z</time>
      </trkpt>
      <trkpt lat="42.98852" lon="0.52885">
        <ele>1276.881</ele>
        <time>2020-02-08T13:46:12Z</time>
      </trkpt>
      <trkpt lat="42.98852" lon="0.52883">
        <ele>1276.491</ele>
        <time>2020-02-08T13:46:11Z</time>
      </trkpt>
      <trkpt lat="42.98853" lon="0.5288">
        <ele>1276.066</ele>
        <time>2020-02-08T13:46:10Z</time>
      </trkpt>
      <trkpt lat="42.98853" lon="0.5287">
        <ele>1275.553</ele>
        <time>2020-02-08T13:46:06Z</time>
      </trkpt>
      <trkpt lat="42.98854" lon="0.52864">
        <ele>1275.525</ele>
        <time>2020-02-08T13:46:03Z</time>
      </trkpt>
      <trkpt lat="42.98854" lon="0.52862">
        <ele>1275.16</ele>
        <time>2020-02-08T13:46:02Z</time>
      </trkpt>
      <trkpt lat="42.98855" lon="0.5286">
        <ele>1274.58</ele>
        <time>2020-02-08T13:46:01Z</time>
      </trkpt>
      <trkpt lat="42.98855" lon="0.52859">
        <ele>1274.182</ele>
        <time>2020-02-08T13:46:00Z</time>
      </trkpt>
      <trkpt lat="42.98855" lon="0.52857">
        <ele>1273.878</ele>
        <time>2020-02-08T13:45:59Z</time>
      </trkpt>
      <trkpt lat="42.98855" lon="0.52854">
        <ele>1273.461</ele>
        <time>2020-02-08T13:45:57Z</time>
      </trkpt>
      <trkpt lat="42.98856" lon="0.52845">
        <ele>1273.422</ele>
        <time>2020-02-08T13:45:53Z</time>
      </trkpt>
      <trkpt lat="42.98857" lon="0.52842">
        <ele>1273.009</ele>
        <time>2020-02-08T13:45:52Z</time>
      </trkpt>
      <trkpt lat="42.98857" lon="0.5284">
        <ele>1272.517</ele>
        <time>2020-02-08T13:45:51Z</time>
      </trkpt>
      <trkpt lat="42.98857" lon="0.52838">
        <ele>1272.198</ele>
        <time>2020-02-08T13:45:50Z</time>
      </trkpt>
      <trkpt lat="42.98857" lon="0.52836">
        <ele>1271.518</ele>
        <time>2020-02-08T13:45:49Z</time>
      </trkpt>
      <trkpt lat="42.98858" lon="0.52823">
        <ele>1271.168</ele>
        <time>2020-02-08T13:45:42Z</time>
      </trkpt>
      <trkpt lat="42.98859" lon="0.52813">
        <ele>1271.175</ele>
        <time>2020-02-08T13:45:37Z</time>
      </trkpt>
      <trkpt lat="42.98859" lon="0.52812">
        <ele>1270.847</ele>
        <time>2020-02-08T13:45:36Z</time>
      </trkpt>
      <trkpt lat="42.98859" lon="0.5281">
        <ele>1270.482</ele>
        <time>2020-02-08T13:45:35Z</time>
      </trkpt>
      <trkpt lat="42.98859" lon="0.52809">
        <ele>1270.062</ele>
        <time>2020-02-08T13:45:34Z</time>
      </trkpt>
      <trkpt lat="42.98859" lon="0.52807">
        <ele>1269.534</ele>
        <time>2020-02-08T13:45:33Z</time>
      </trkpt>
      <trkpt lat="42.9886" lon="0.52794">
        <ele>1269.17</ele>
        <time>2020-02-08T13:45:26Z</time>
      </trkpt>
      <trkpt lat="42.9886" lon="0.52792">
        <ele>1269.193</ele>
        <time>2020-02-08T13:45:25Z</time>
      </trkpt>
      <trkpt lat="42.9886" lon="0.52789">
        <ele>1268.544</ele>
        <time>2020-02-08T13:45:24Z</time>
      </trkpt>
      <trkpt lat="42.9886" lon="0.52787">
        <ele>1268.109</ele>
        <time>2020-02-08T13:45:23Z</time>
      </trkpt>
      <trkpt lat="42.9886" lon="0.52784">
        <ele>1267.513</ele>
        <time>2020-02-08T13:45:22Z</time>
      </trkpt>
      <trkpt lat="42.9886" lon="0.52782">
        <ele>1267.149</ele>
        <time>2020-02-08T13:45:21Z</time>
      </trkpt>
      <trkpt lat="42.98862" lon="0.52776">
        <ele>1266.837</ele>
        <time>2020-02-08T13:45:18Z</time>
      </trkpt>
      <trkpt lat="42.98865" lon="0.52764">
        <ele>1266.874</ele>
        <time>2020-02-08T13:45:12Z</time>
      </trkpt>
      <trkpt lat="42.98865" lon="0.52762">
        <ele>1266.431</ele>
        <time>2020-02-08T13:45:11Z</time>
      </trkpt>
      <trkpt lat="42.98866" lon="0.5276">
        <ele>1266.053</ele>
        <time>2020-02-08T13:45:10Z</time>
      </trkpt>
      <trkpt lat="42.98866" lon="0.52758">
        <ele>1265.598</ele>
        <time>2020-02-08T13:45:09Z</time>
      </trkpt>
      <trkpt lat="42.98866" lon="0.52756">
        <ele>1265.168</ele>
        <time>2020-02-08T13:45:08Z</time>
      </trkpt>
      <trkpt lat="42.98867" lon="0.52754">
        <ele>1264.86</ele>
        <time>2020-02-08T13:45:07Z</time>
      </trkpt>
      <trkpt lat="42.98872" lon="0.52738">
        <ele>1264.876</ele>
        <time>2020-02-08T13:44:59Z</time>
      </trkpt>
      <trkpt lat="42.98873" lon="0.52734">
        <ele>1264.859</ele>
        <time>2020-02-08T13:44:57Z</time>
      </trkpt>
      <trkpt lat="42.98873" lon="0.52732">
        <ele>1264.14</ele>
        <time>2020-02-08T13:44:56Z</time>
      </trkpt>
      <trkpt lat="42.98873" lon="0.52729">
        <ele>1263.809</ele>
        <time>2020-02-08T13:44:55Z</time>
      </trkpt>
      <trkpt lat="42.98873" lon="0.52727">
        <ele>1263.423</ele>
        <time>2020-02-08T13:44:54Z</time>
      </trkpt>
      <trkpt lat="42.98874" lon="0.52725">
        <ele>1263.049</ele>
        <time>2020-02-08T13:44:53Z</time>
      </trkpt>
      <trkpt lat="42.98874" lon="0.52722">
        <ele>1262.595</ele>
        <time>2020-02-08T13:44:51Z</time>
      </trkpt>
      <trkpt lat="42.98878" lon="0.52703">
        <ele>1262.564</ele>
        <time>2020-02-08T13:44:43Z</time>
      </trkpt>
      <trkpt lat="42.98879" lon="0.527">
        <ele>1262.031</ele>
        <time>2020-02-08T13:44:42Z</time>
      </trkpt>
      <trkpt lat="42.98879" lon="0.52698">
        <ele>1261.553</ele>
        <time>2020-02-08T13:44:41Z</time>
      </trkpt>
      <trkpt lat="42.98879" lon="0.52696">
        <ele>1261.078</ele>
        <time>2020-02-08T13:44:40Z</time>
      </trkpt>
      <trkpt lat="42.9888" lon="0.52693">
        <ele>1260.528</ele>
        <time>2020-02-08T13:44:39Z</time>
      </trkpt>
      <trkpt lat="42.98879" lon="0.52682">
        <ele>1260.19</ele>
        <time>2020-02-08T13:44:34Z</time>
      </trkpt>
      <trkpt lat="42.98879" lon="0.52679">
        <ele>1259.546</ele>
        <time>2020-02-08T13:44:33Z</time>
      </trkpt>
      <trkpt lat="42.98879" lon="0.52677">
        <ele>1259.159</ele>
        <time>2020-02-08T13:44:32Z</time>
      </trkpt>
      <trkpt lat="42.98879" lon="0.52675">
        <ele>1258.88</ele>
        <time>2020-02-08T13:44:31Z</time>
      </trkpt>
      <trkpt lat="42.98879" lon="0.52673">
        <ele>1258.109</ele>
        <time>2020-02-08T13:44:30Z</time>
      </trkpt>
      <trkpt lat="42.9888" lon="0.52661">
        <ele>1257.82</ele>
        <time>2020-02-08T13:44:25Z</time>
      </trkpt>
      <trkpt lat="42.98881" lon="0.52659">
        <ele>1257.873</ele>
        <time>2020-02-08T13:44:23Z</time>
      </trkpt>
      <trkpt lat="42.98882" lon="0.52658">
        <ele>1257.892</ele>
        <time>2020-02-08T13:44:22Z</time>
      </trkpt>
      <trkpt lat="42.98885" lon="0.52658">
        <ele>1257.814</ele>
        <time>2020-02-08T13:44:19Z</time>
      </trkpt>
      <trkpt lat="42.98886" lon="0.5266">
        <ele>1257.491</ele>
        <time>2020-02-08T13:44:18Z</time>
      </trkpt>
      <trkpt lat="42.98887" lon="0.52662">
        <ele>1257.073</ele>
        <time>2020-02-08T13:44:17Z</time>
      </trkpt>
      <trkpt lat="42.98888" lon="0.52664">
        <ele>1256.568</ele>
        <time>2020-02-08T13:44:16Z</time>
      </trkpt>
      <trkpt lat="42.98888" lon="0.52667">
        <ele>1256.148</ele>
        <time>2020-02-08T13:44:15Z</time>
      </trkpt>
      <trkpt lat="42.98888" lon="0.52669">
        <ele>1255.82</ele>
        <time>2020-02-08T13:44:14Z</time>
      </trkpt>
      <trkpt lat="42.98889" lon="0.52681">
        <ele>1255.846</ele>
        <time>2020-02-08T13:44:09Z</time>
      </trkpt>
      <trkpt lat="42.98889" lon="0.52683">
        <ele>1255.499</ele>
        <time>2020-02-08T13:44:08Z</time>
      </trkpt>
      <trkpt lat="42.98889" lon="0.52686">
        <ele>1254.85</ele>
        <time>2020-02-08T13:44:07Z</time>
      </trkpt>
      <trkpt lat="42.9889" lon="0.52688">
        <ele>1254.409</ele>
        <time>2020-02-08T13:44:06Z</time>
      </trkpt>
      <trkpt lat="42.9889" lon="0.5269">
        <ele>1254.022</ele>
        <time>2020-02-08T13:44:05Z</time>
      </trkpt>
      <trkpt lat="42.98889" lon="0.52708">
        <ele>1253.557</ele>
        <time>2020-02-08T13:43:56Z</time>
      </trkpt>
      <trkpt lat="42.98889" lon="0.5271">
        <ele>1253.194</ele>
        <time>2020-02-08T13:43:55Z</time>
      </trkpt>
      <trkpt lat="42.98889" lon="0.52712">
        <ele>1252.536</ele>
        <time>2020-02-08T13:43:54Z</time>
      </trkpt>
      <trkpt lat="42.98889" lon="0.52714">
        <ele>1252.143</ele>
        <time>2020-02-08T13:43:53Z</time>
      </trkpt>
      <trkpt lat="42.9889" lon="0.52716">
        <ele>1251.835</ele>
        <time>2020-02-08T13:43:52Z</time>
      </trkpt>
      <trkpt lat="42.9889" lon="0.52718">
        <ele>1251.16</ele>
        <time>2020-02-08T13:43:51Z</time>
      </trkpt>
      <trkpt lat="42.9889" lon="0.52729">
        <ele>1251.17</ele>
        <time>2020-02-08T13:43:45Z</time>
      </trkpt>
      <trkpt lat="42.9889" lon="0.52731">
        <ele>1250.892</ele>
        <time>2020-02-08T13:43:44Z</time>
      </trkpt>
      <trkpt lat="42.9889" lon="0.52733">
        <ele>1250.428</ele>
        <time>2020-02-08T13:43:43Z</time>
      </trkpt>
      <trkpt lat="42.9889" lon="0.52736">
        <ele>1250.081</ele>
        <time>2020-02-08T13:43:42Z</time>
      </trkpt>
      <trkpt lat="42.98891" lon="0.52737">
        <ele>1249.542</ele>
        <time>2020-02-08T13:43:41Z</time>
      </trkpt>
      <trkpt lat="42.98893" lon="0.52747">
        <ele>1249.009</ele>
        <time>2020-02-08T13:43:36Z</time>
      </trkpt>
      <trkpt lat="42.98893" lon="0.52749">
        <ele>1248.513</ele>
        <time>2020-02-08T13:43:35Z</time>
      </trkpt>
      <trkpt lat="42.98894" lon="0.52752">
        <ele>1248.176</ele>
        <time>2020-02-08T13:43:34Z</time>
      </trkpt>
      <trkpt lat="42.98894" lon="0.52755">
        <ele>1247.816</ele>
        <time>2020-02-08T13:43:33Z</time>
      </trkpt>
      <trkpt lat="42.98896" lon="0.52757">
        <ele>1247.449</ele>
        <time>2020-02-08T13:43:32Z</time>
      </trkpt>
      <trkpt lat="42.98897" lon="0.52764">
        <ele>1247.036</ele>
        <time>2020-02-08T13:43:28Z</time>
      </trkpt>
      <trkpt lat="42.98897" lon="0.52766">
        <ele>1246.578</ele>
        <time>2020-02-08T13:43:27Z</time>
      </trkpt>
      <trkpt lat="42.98898" lon="0.52767">
        <ele>1246.133</ele>
        <time>2020-02-08T13:43:26Z</time>
      </trkpt>
      <trkpt lat="42.98898" lon="0.52769">
        <ele>1245.853</ele>
        <time>2020-02-08T13:43:25Z</time>
      </trkpt>
      <trkpt lat="42.98899" lon="0.52771">
        <ele>1245.165</ele>
        <time>2020-02-08T13:43:24Z</time>
      </trkpt>
      <trkpt lat="42.98901" lon="0.52777">
        <ele>1244.881</ele>
        <time>2020-02-08T13:43:20Z</time>
      </trkpt>
      <trkpt lat="42.98902" lon="0.52782">
        <ele>1244.864</ele>
        <time>2020-02-08T13:43:17Z</time>
      </trkpt>
      <trkpt lat="42.98903" lon="0.52784">
        <ele>1244.435</ele>
        <time>2020-02-08T13:43:16Z</time>
      </trkpt>
      <trkpt lat="42.98904" lon="0.52785">
        <ele>1244.009</ele>
        <time>2020-02-08T13:43:15Z</time>
      </trkpt>
      <trkpt lat="42.98904" lon="0.52787">
        <ele>1243.411</ele>
        <time>2020-02-08T13:43:14Z</time>
      </trkpt>
      <trkpt lat="42.98905" lon="0.52788">
        <ele>1243.047</ele>
        <time>2020-02-08T13:43:13Z</time>
      </trkpt>
      <trkpt lat="42.98906" lon="0.52789">
        <ele>1242.545</ele>
        <time>2020-02-08T13:43:12Z</time>
      </trkpt>
      <trkpt lat="42.98909" lon="0.52801">
        <ele>1242.592</ele>
        <time>2020-02-08T13:43:05Z</time>
      </trkpt>
      <trkpt lat="42.9891" lon="0.52804">
        <ele>1242.199</ele>
        <time>2020-02-08T13:43:04Z</time>
      </trkpt>
      <trkpt lat="42.9891" lon="0.52806">
        <ele>1241.531</ele>
        <time>2020-02-08T13:43:03Z</time>
      </trkpt>
      <trkpt lat="42.98911" lon="0.52808">
        <ele>1241.176</ele>
        <time>2020-02-08T13:43:02Z</time>
      </trkpt>
      <trkpt lat="42.98911" lon="0.52812">
        <ele>1240.816</ele>
        <time>2020-02-08T13:43:01Z</time>
      </trkpt>
      <trkpt lat="42.98914" lon="0.5282">
        <ele>1240.498</ele>
        <time>2020-02-08T13:42:56Z</time>
      </trkpt>
      <trkpt lat="42.98914" lon="0.52822">
        <ele>1240.064</ele>
        <time>2020-02-08T13:42:55Z</time>
      </trkpt>
      <trkpt lat="42.98914" lon="0.52824">
        <ele>1239.417</ele>
        <time>2020-02-08T13:42:54Z</time>
      </trkpt>
      <trkpt lat="42.98915" lon="0.52826">
        <ele>1239.058</ele>
        <time>2020-02-08T13:42:53Z</time>
      </trkpt>
      <trkpt lat="42.98915" lon="0.52827">
        <ele>1238.509</ele>
        <time>2020-02-08T13:42:52Z</time>
      </trkpt>
      <trkpt lat="42.9892" lon="0.52838">
        <ele>1238.127</ele>
        <time>2020-02-08T13:42:46Z</time>
      </trkpt>
      <trkpt lat="42.98921" lon="0.52841">
        <ele>1238.161</ele>
        <time>2020-02-08T13:42:44Z</time>
      </trkpt>
      <trkpt lat="42.98921" lon="0.52842">
        <ele>1237.877</ele>
        <time>2020-02-08T13:42:43Z</time>
      </trkpt>
      <trkpt lat="42.98922" lon="0.52843">
        <ele>1237.146</ele>
        <time>2020-02-08T13:42:42Z</time>
      </trkpt>
      <trkpt lat="42.98923" lon="0.52845">
        <ele>1236.813</ele>
        <time>2020-02-08T13:42:41Z</time>
      </trkpt>
      <trkpt lat="42.98924" lon="0.52846">
        <ele>1236.425</ele>
        <time>2020-02-08T13:42:40Z</time>
      </trkpt>
      <trkpt lat="42.98926" lon="0.5285">
        <ele>1236.04</ele>
        <time>2020-02-08T13:42:37Z</time>
      </trkpt>
      <trkpt lat="42.98928" lon="0.52857">
        <ele>1236.02</ele>
        <time>2020-02-08T13:42:33Z</time>
      </trkpt>
      <trkpt lat="42.98928" lon="0.52859">
        <ele>1235.492</ele>
        <time>2020-02-08T13:42:32Z</time>
      </trkpt>
      <trkpt lat="42.98925" lon="0.52862">
        <ele>1235.098</ele>
        <time>2020-02-08T13:42:31Z</time>
      </trkpt>
      <trkpt lat="42.98926" lon="0.52865">
        <ele>1234.561</ele>
        <time>2020-02-08T13:42:30Z</time>
      </trkpt>
      <trkpt lat="42.98926" lon="0.52867">
        <ele>1234.122</ele>
        <time>2020-02-08T13:42:29Z</time>
      </trkpt>
      <trkpt lat="42.9893" lon="0.52881">
        <ele>1233.809</ele>
        <time>2020-02-08T13:42:21Z</time>
      </trkpt>
      <trkpt lat="42.9893" lon="0.52882">
        <ele>1233.409</ele>
        <time>2020-02-08T13:42:20Z</time>
      </trkpt>
      <trkpt lat="42.9893" lon="0.52884">
        <ele>1233.054</ele>
        <time>2020-02-08T13:42:19Z</time>
      </trkpt>
      <trkpt lat="42.9893" lon="0.52886">
        <ele>1232.414</ele>
        <time>2020-02-08T13:42:18Z</time>
      </trkpt>
      <trkpt lat="42.9893" lon="0.52887">
        <ele>1232.048</ele>
        <time>2020-02-08T13:42:17Z</time>
      </trkpt>
      <trkpt lat="42.98931" lon="0.52892">
        <ele>1231.585</ele>
        <time>2020-02-08T13:42:14Z</time>
      </trkpt>
      <trkpt lat="42.98932" lon="0.52894">
        <ele>1231.017</ele>
        <time>2020-02-08T13:42:13Z</time>
      </trkpt>
      <trkpt lat="42.98932" lon="0.52896">
        <ele>1230.542</ele>
        <time>2020-02-08T13:42:12Z</time>
      </trkpt>
      <trkpt lat="42.98933" lon="0.52897">
        <ele>1230.132</ele>
        <time>2020-02-08T13:42:11Z</time>
      </trkpt>
      <trkpt lat="42.98934" lon="0.52899">
        <ele>1229.884</ele>
        <time>2020-02-08T13:42:10Z</time>
      </trkpt>
      <trkpt lat="42.98933" lon="0.52908">
        <ele>1229.41</ele>
        <time>2020-02-08T13:42:05Z</time>
      </trkpt>
      <trkpt lat="42.98933" lon="0.52912">
        <ele>1229.433</ele>
        <time>2020-02-08T13:42:03Z</time>
      </trkpt>
      <trkpt lat="42.98933" lon="0.52914">
        <ele>1229.064</ele>
        <time>2020-02-08T13:42:02Z</time>
      </trkpt>
      <trkpt lat="42.98933" lon="0.52916">
        <ele>1228.509</ele>
        <time>2020-02-08T13:42:01Z</time>
      </trkpt>
      <trkpt lat="42.98933" lon="0.52918">
        <ele>1228.107</ele>
        <time>2020-02-08T13:42:00Z</time>
      </trkpt>
      <trkpt lat="42.98933" lon="0.5292">
        <ele>1227.561</ele>
        <time>2020-02-08T13:41:59Z</time>
      </trkpt>
      <trkpt lat="42.98934" lon="0.52927">
        <ele>1227.131</ele>
        <time>2020-02-08T13:41:55Z</time>
      </trkpt>
      <trkpt lat="42.98936" lon="0.52936">
        <ele>1227.13</ele>
        <time>2020-02-08T13:41:50Z</time>
      </trkpt>
      <trkpt lat="42.98937" lon="0.52938">
        <ele>1226.867</ele>
        <time>2020-02-08T13:41:49Z</time>
      </trkpt>
      <trkpt lat="42.98937" lon="0.5294">
        <ele>1226.449</ele>
        <time>2020-02-08T13:41:48Z</time>
      </trkpt>
      <trkpt lat="42.98937" lon="0.52942">
        <ele>1226.024</ele>
        <time>2020-02-08T13:41:47Z</time>
      </trkpt>
      <trkpt lat="42.98937" lon="0.52943">
        <ele>1225.574</ele>
        <time>2020-02-08T13:41:46Z</time>
      </trkpt>
      <trkpt lat="42.98939" lon="0.52953">
        <ele>1225.196</ele>
        <time>2020-02-08T13:41:41Z</time>
      </trkpt>
      <trkpt lat="42.98939" lon="0.52955">
        <ele>1224.892</ele>
        <time>2020-02-08T13:41:40Z</time>
      </trkpt>
      <trkpt lat="42.98939" lon="0.52957">
        <ele>1224.485</ele>
        <time>2020-02-08T13:41:39Z</time>
      </trkpt>
      <trkpt lat="42.9894" lon="0.52959">
        <ele>1224.046</ele>
        <time>2020-02-08T13:41:38Z</time>
      </trkpt>
      <trkpt lat="42.9894" lon="0.52961">
        <ele>1223.409</ele>
        <time>2020-02-08T13:41:37Z</time>
      </trkpt>
      <trkpt lat="42.9894" lon="0.52963">
        <ele>1223.011</ele>
        <time>2020-02-08T13:41:36Z</time>
      </trkpt>
      <trkpt lat="42.98942" lon="0.52973">
        <ele>1223.056</ele>
        <time>2020-02-08T13:41:30Z</time>
      </trkpt>
      <trkpt lat="42.98943" lon="0.52975">
        <ele>1222.554</ele>
        <time>2020-02-08T13:41:29Z</time>
      </trkpt>
      <trkpt lat="42.98943" lon="0.52978">
        <ele>1222.131</ele>
        <time>2020-02-08T13:41:28Z</time>
      </trkpt>
      <trkpt lat="42.98943" lon="0.52979">
        <ele>1221.898</ele>
        <time>2020-02-08T13:41:27Z</time>
      </trkpt>
      <trkpt lat="42.98944" lon="0.52981">
        <ele>1221.49</ele>
        <time>2020-02-08T13:41:26Z</time>
      </trkpt>
      <trkpt lat="42.98946" lon="0.52995">
        <ele>1221.065</ele>
        <time>2020-02-08T13:41:19Z</time>
      </trkpt>
      <trkpt lat="42.98946" lon="0.52997">
        <ele>1220.585</ele>
        <time>2020-02-08T13:41:18Z</time>
      </trkpt>
      <trkpt lat="42.98946" lon="0.52999">
        <ele>1220.137</ele>
        <time>2020-02-08T13:41:17Z</time>
      </trkpt>
      <trkpt lat="42.98946" lon="0.53001">
        <ele>1219.813</ele>
        <time>2020-02-08T13:41:16Z</time>
      </trkpt>
      <trkpt lat="42.98946" lon="0.53002">
        <ele>1219.116</ele>
        <time>2020-02-08T13:41:15Z</time>
      </trkpt>
      <trkpt lat="42.98949" lon="0.53011">
        <ele>1218.817</ele>
        <time>2020-02-08T13:41:10Z</time>
      </trkpt>
      <trkpt lat="42.9895" lon="0.53012">
        <ele>1218.409</ele>
        <time>2020-02-08T13:41:09Z</time>
      </trkpt>
      <trkpt lat="42.9895" lon="0.53014">
        <ele>1218.013</ele>
        <time>2020-02-08T13:41:08Z</time>
      </trkpt>
      <trkpt lat="42.9895" lon="0.53016">
        <ele>1217.521</ele>
        <time>2020-02-08T13:41:07Z</time>
      </trkpt>
      <trkpt lat="42.9895" lon="0.53017">
        <ele>1217.161</ele>
        <time>2020-02-08T13:41:06Z</time>
      </trkpt>
      <trkpt lat="42.98949" lon="0.53032">
        <ele>1216.574</ele>
        <time>2020-02-08T13:40:58Z</time>
      </trkpt>
      <trkpt lat="42.98949" lon="0.53036">
        <ele>1216.151</ele>
        <time>2020-02-08T13:40:57Z</time>
      </trkpt>
      <trkpt lat="42.98948" lon="0.53038">
        <ele>1215.893</ele>
        <time>2020-02-08T13:40:56Z</time>
      </trkpt>
      <trkpt lat="42.98948" lon="0.5304">
        <ele>1215.478</ele>
        <time>2020-02-08T13:40:55Z</time>
      </trkpt>
      <trkpt lat="42.98949" lon="0.53045">
        <ele>1214.888</ele>
        <time>2020-02-08T13:40:53Z</time>
      </trkpt>
      <trkpt lat="42.98949" lon="0.53049">
        <ele>1214.42</ele>
        <time>2020-02-08T13:40:51Z</time>
      </trkpt>
      <trkpt lat="42.9895" lon="0.53061">
        <ele>1214.486</ele>
        <time>2020-02-08T13:40:45Z</time>
      </trkpt>
      <trkpt lat="42.98951" lon="0.53063">
        <ele>1214.039</ele>
        <time>2020-02-08T13:40:44Z</time>
      </trkpt>
      <trkpt lat="42.98951" lon="0.53064">
        <ele>1213.53</ele>
        <time>2020-02-08T13:40:43Z</time>
      </trkpt>
      <trkpt lat="42.98952" lon="0.53066">
        <ele>1213.009</ele>
        <time>2020-02-08T13:40:42Z</time>
      </trkpt>
      <trkpt lat="42.98953" lon="0.53067">
        <ele>1212.526</ele>
        <time>2020-02-08T13:40:41Z</time>
      </trkpt>
      <trkpt lat="42.98955" lon="0.53077">
        <ele>1212.115</ele>
        <time>2020-02-08T13:40:36Z</time>
      </trkpt>
      <trkpt lat="42.98956" lon="0.53085">
        <ele>1212.198</ele>
        <time>2020-02-08T13:40:32Z</time>
      </trkpt>
      <trkpt lat="42.98957" lon="0.53087">
        <ele>1211.859</ele>
        <time>2020-02-08T13:40:31Z</time>
      </trkpt>
      <trkpt lat="42.98957" lon="0.53089">
        <ele>1211.416</ele>
        <time>2020-02-08T13:40:30Z</time>
      </trkpt>
      <trkpt lat="42.98958" lon="0.53091">
        <ele>1210.878</ele>
        <time>2020-02-08T13:40:29Z</time>
      </trkpt>
      <trkpt lat="42.98958" lon="0.53093">
        <ele>1210.443</ele>
        <time>2020-02-08T13:40:28Z</time>
      </trkpt>
      <trkpt lat="42.98958" lon="0.53095">
        <ele>1210.063</ele>
        <time>2020-02-08T13:40:27Z</time>
      </trkpt>
      <trkpt lat="42.98959" lon="0.53102">
        <ele>1210.085</ele>
        <time>2020-02-08T13:40:24Z</time>
      </trkpt>
      <trkpt lat="42.98959" lon="0.53103">
        <ele>1209.521</ele>
        <time>2020-02-08T13:40:23Z</time>
      </trkpt>
      <trkpt lat="42.98959" lon="0.53105">
        <ele>1209.134</ele>
        <time>2020-02-08T13:40:22Z</time>
      </trkpt>
      <trkpt lat="42.9896" lon="0.53107">
        <ele>1208.865</ele>
        <time>2020-02-08T13:40:21Z</time>
      </trkpt>
      <trkpt lat="42.9896" lon="0.53109">
        <ele>1208.409</ele>
        <time>2020-02-08T13:40:20Z</time>
      </trkpt>
      <trkpt lat="42.9896" lon="0.53113">
        <ele>1208.021</ele>
        <time>2020-02-08T13:40:18Z</time>
      </trkpt>
      <trkpt lat="42.9896" lon="0.53123">
        <ele>1208.029</ele>
        <time>2020-02-08T13:40:13Z</time>
      </trkpt>
      <trkpt lat="42.98959" lon="0.53125">
        <ele>1207.547</ele>
        <time>2020-02-08T13:40:12Z</time>
      </trkpt>
      <trkpt lat="42.98959" lon="0.53127">
        <ele>1207.187</ele>
        <time>2020-02-08T13:40:11Z</time>
      </trkpt>
      <trkpt lat="42.98959" lon="0.53129">
        <ele>1206.834</ele>
        <time>2020-02-08T13:40:10Z</time>
      </trkpt>
      <trkpt lat="42.98959" lon="0.53131">
        <ele>1206.446</ele>
        <time>2020-02-08T13:40:09Z</time>
      </trkpt>
      <trkpt lat="42.98959" lon="0.53135">
        <ele>1206.091</ele>
        <time>2020-02-08T13:40:07Z</time>
      </trkpt>
      <trkpt lat="42.98957" lon="0.53142">
        <ele>1206.061</ele>
        <time>2020-02-08T13:40:03Z</time>
      </trkpt>
      <trkpt lat="42.98958" lon="0.53146">
        <ele>1205.163</ele>
        <time>2020-02-08T13:40:01Z</time>
      </trkpt>
      <trkpt lat="42.98958" lon="0.53149">
        <ele>1204.439</ele>
        <time>2020-02-08T13:39:59Z</time>
      </trkpt>
      <trkpt lat="42.98956" lon="0.53155">
        <ele>1203.862</ele>
        <time>2020-02-08T13:39:56Z</time>
      </trkpt>
      <trkpt lat="42.98956" lon="0.53164">
        <ele>1203.823</ele>
        <time>2020-02-08T13:39:51Z</time>
      </trkpt>
      <trkpt lat="42.98956" lon="0.53165">
        <ele>1203.409</ele>
        <time>2020-02-08T13:39:50Z</time>
      </trkpt>
      <trkpt lat="42.98956" lon="0.53167">
        <ele>1203.011</ele>
        <time>2020-02-08T13:39:49Z</time>
      </trkpt>
      <trkpt lat="42.98956" lon="0.53169">
        <ele>1202.547</ele>
        <time>2020-02-08T13:39:48Z</time>
      </trkpt>
      <trkpt lat="42.98957" lon="0.53171">
        <ele>1202.126</ele>
        <time>2020-02-08T13:39:47Z</time>
      </trkpt>
      <trkpt lat="42.98956" lon="0.5318">
        <ele>1201.871</ele>
        <time>2020-02-08T13:39:42Z</time>
      </trkpt>
      <trkpt lat="42.98956" lon="0.53182">
        <ele>1201.458</ele>
        <time>2020-02-08T13:39:41Z</time>
      </trkpt>
      <trkpt lat="42.98956" lon="0.53183">
        <ele>1200.85</ele>
        <time>2020-02-08T13:39:40Z</time>
      </trkpt>
      <trkpt lat="42.98956" lon="0.53185">
        <ele>1200.485</ele>
        <time>2020-02-08T13:39:39Z</time>
      </trkpt>
      <trkpt lat="42.98956" lon="0.53187">
        <ele>1199.865</ele>
        <time>2020-02-08T13:39:38Z</time>
      </trkpt>
      <trkpt lat="42.98954" lon="0.53196">
        <ele>1199.437</ele>
        <time>2020-02-08T13:39:33Z</time>
      </trkpt>
      <trkpt lat="42.98954" lon="0.53198">
        <ele>1198.883</ele>
        <time>2020-02-08T13:39:32Z</time>
      </trkpt>
      <trkpt lat="42.98953" lon="0.53201">
        <ele>1198.496</ele>
        <time>2020-02-08T13:39:31Z</time>
      </trkpt>
      <trkpt lat="42.98953" lon="0.53203">
        <ele>1198.027</ele>
        <time>2020-02-08T13:39:30Z</time>
      </trkpt>
      <trkpt lat="42.98953" lon="0.53205">
        <ele>1197.509</ele>
        <time>2020-02-08T13:39:29Z</time>
      </trkpt>
      <trkpt lat="42.98951" lon="0.53218">
        <ele>1197.021</ele>
        <time>2020-02-08T13:39:23Z</time>
      </trkpt>
      <trkpt lat="42.98951" lon="0.53219">
        <ele>1196.529</ele>
        <time>2020-02-08T13:39:22Z</time>
      </trkpt>
      <trkpt lat="42.98951" lon="0.53221">
        <ele>1196.166</ele>
        <time>2020-02-08T13:39:21Z</time>
      </trkpt>
      <trkpt lat="42.98952" lon="0.53222">
        <ele>1195.524</ele>
        <time>2020-02-08T13:39:20Z</time>
      </trkpt>
      <trkpt lat="42.98952" lon="0.53224">
        <ele>1195.171</ele>
        <time>2020-02-08T13:39:19Z</time>
      </trkpt>
      <trkpt lat="42.98951" lon="0.53236">
        <ele>1194.553</ele>
        <time>2020-02-08T13:39:12Z</time>
      </trkpt>
      <trkpt lat="42.98952" lon="0.53238">
        <ele>1194.158</ele>
        <time>2020-02-08T13:39:11Z</time>
      </trkpt>
      <trkpt lat="42.98952" lon="0.5324">
        <ele>1193.828</ele>
        <time>2020-02-08T13:39:10Z</time>
      </trkpt>
      <trkpt lat="42.98952" lon="0.53242">
        <ele>1193.43</ele>
        <time>2020-02-08T13:39:09Z</time>
      </trkpt>
      <trkpt lat="42.98952" lon="0.53243">
        <ele>1193.056</ele>
        <time>2020-02-08T13:39:08Z</time>
      </trkpt>
      <trkpt lat="42.98952" lon="0.53248">
        <ele>1192.519</ele>
        <time>2020-02-08T13:39:05Z</time>
      </trkpt>
      <trkpt lat="42.98953" lon="0.53256">
        <ele>1192.51</ele>
        <time>2020-02-08T13:39:00Z</time>
      </trkpt>
      <trkpt lat="42.98953" lon="0.53258">
        <ele>1192.109</ele>
        <time>2020-02-08T13:38:59Z</time>
      </trkpt>
      <trkpt lat="42.98953" lon="0.5326">
        <ele>1191.824</ele>
        <time>2020-02-08T13:38:58Z</time>
      </trkpt>
      <trkpt lat="42.98954" lon="0.53262">
        <ele>1191.431</ele>
        <time>2020-02-08T13:38:57Z</time>
      </trkpt>
      <trkpt lat="42.98953" lon="0.53264">
        <ele>1191.096</ele>
        <time>2020-02-08T13:38:56Z</time>
      </trkpt>
      <trkpt lat="42.98953" lon="0.5327">
        <ele>1190.578</ele>
        <time>2020-02-08T13:38:53Z</time>
      </trkpt>
      <trkpt lat="42.98952" lon="0.53279">
        <ele>1190.565</ele>
        <time>2020-02-08T13:38:48Z</time>
      </trkpt>
      <trkpt lat="42.98952" lon="0.5328">
        <ele>1190.077</ele>
        <time>2020-02-08T13:38:47Z</time>
      </trkpt>
      <trkpt lat="42.98952" lon="0.53282">
        <ele>1189.532</ele>
        <time>2020-02-08T13:38:46Z</time>
      </trkpt>
      <trkpt lat="42.98952" lon="0.53284">
        <ele>1189.142</ele>
        <time>2020-02-08T13:38:45Z</time>
      </trkpt>
      <trkpt lat="42.98952" lon="0.53286">
        <ele>1188.814</ele>
        <time>2020-02-08T13:38:44Z</time>
      </trkpt>
      <trkpt lat="42.98952" lon="0.5329">
        <ele>1188.49</ele>
        <time>2020-02-08T13:38:42Z</time>
      </trkpt>
      <trkpt lat="42.98952" lon="0.53301">
        <ele>1188.473</ele>
        <time>2020-02-08T13:38:36Z</time>
      </trkpt>
      <trkpt lat="42.98952" lon="0.53302">
        <ele>1188.014</ele>
        <time>2020-02-08T13:38:35Z</time>
      </trkpt>
      <trkpt lat="42.98952" lon="0.53304">
        <ele>1187.509</ele>
        <time>2020-02-08T13:38:34Z</time>
      </trkpt>
      <trkpt lat="42.98951" lon="0.53306">
        <ele>1187.015</ele>
        <time>2020-02-08T13:38:33Z</time>
      </trkpt>
      <trkpt lat="42.98951" lon="0.53307">
        <ele>1186.523</ele>
        <time>2020-02-08T13:38:32Z</time>
      </trkpt>
      <trkpt lat="42.9895" lon="0.53313">
        <ele>1186.133</ele>
        <time>2020-02-08T13:38:29Z</time>
      </trkpt>
      <trkpt lat="42.9895" lon="0.53318">
        <ele>1186.176</ele>
        <time>2020-02-08T13:38:26Z</time>
      </trkpt>
      <trkpt lat="42.9895" lon="0.5332">
        <ele>1185.513</ele>
        <time>2020-02-08T13:38:25Z</time>
      </trkpt>
      <trkpt lat="42.9895" lon="0.53322">
        <ele>1185.135</ele>
        <time>2020-02-08T13:38:24Z</time>
      </trkpt>
      <trkpt lat="42.9895" lon="0.53324">
        <ele>1184.85</ele>
        <time>2020-02-08T13:38:23Z</time>
      </trkpt>
      <trkpt lat="42.9895" lon="0.53327">
        <ele>1184.46</ele>
        <time>2020-02-08T13:38:22Z</time>
      </trkpt>
      <trkpt lat="42.98949" lon="0.53335">
        <ele>1184.082</ele>
        <time>2020-02-08T13:38:18Z</time>
      </trkpt>
      <trkpt lat="42.9895" lon="0.53337">
        <ele>1183.558</ele>
        <time>2020-02-08T13:38:17Z</time>
      </trkpt>
      <trkpt lat="42.9895" lon="0.53339">
        <ele>1183.121</ele>
        <time>2020-02-08T13:38:16Z</time>
      </trkpt>
      <trkpt lat="42.9895" lon="0.5334">
        <ele>1182.892</ele>
        <time>2020-02-08T13:38:15Z</time>
      </trkpt>
      <trkpt lat="42.9895" lon="0.53342">
        <ele>1182.409</ele>
        <time>2020-02-08T13:38:14Z</time>
      </trkpt>
      <trkpt lat="42.98949" lon="0.53345">
        <ele>1182.009</ele>
        <time>2020-02-08T13:38:12Z</time>
      </trkpt>
      <trkpt lat="42.98948" lon="0.53351">
        <ele>1182.054</ele>
        <time>2020-02-08T13:38:08Z</time>
      </trkpt>
      <trkpt lat="42.98948" lon="0.53353">
        <ele>1181.514</ele>
        <time>2020-02-08T13:38:07Z</time>
      </trkpt>
      <trkpt lat="42.98947" lon="0.53355">
        <ele>1181.089</ele>
        <time>2020-02-08T13:38:06Z</time>
      </trkpt>
      <trkpt lat="42.98947" lon="0.53358">
        <ele>1180.526</ele>
        <time>2020-02-08T13:38:05Z</time>
      </trkpt>
      <trkpt lat="42.98947" lon="0.5336">
        <ele>1180.188</ele>
        <time>2020-02-08T13:38:04Z</time>
      </trkpt>
      <trkpt lat="42.98944" lon="0.5338">
        <ele>1179.523</ele>
        <time>2020-02-08T13:37:53Z</time>
      </trkpt>
      <trkpt lat="42.98943" lon="0.53383">
        <ele>1179.553</ele>
        <time>2020-02-08T13:37:52Z</time>
      </trkpt>
      <trkpt lat="42.98941" lon="0.53385">
        <ele>1179.175</ele>
        <time>2020-02-08T13:37:51Z</time>
      </trkpt>
      <trkpt lat="42.98941" lon="0.53387">
        <ele>1178.811</ele>
        <time>2020-02-08T13:37:50Z</time>
      </trkpt>
      <trkpt lat="42.9894" lon="0.53388">
        <ele>1178.474</ele>
        <time>2020-02-08T13:37:49Z</time>
      </trkpt>
      <trkpt lat="42.9894" lon="0.53391">
        <ele>1178.025</ele>
        <time>2020-02-08T13:37:48Z</time>
      </trkpt>
      <trkpt lat="42.9894" lon="0.534">
        <ele>1177.409</ele>
        <time>2020-02-08T13:37:43Z</time>
      </trkpt>
      <trkpt lat="42.9894" lon="0.53401">
        <ele>1177.011</ele>
        <time>2020-02-08T13:37:42Z</time>
      </trkpt>
      <trkpt lat="42.98939" lon="0.53403">
        <ele>1176.547</ele>
        <time>2020-02-08T13:37:41Z</time>
      </trkpt>
      <trkpt lat="42.98939" lon="0.53405">
        <ele>1176.145</ele>
        <time>2020-02-08T13:37:40Z</time>
      </trkpt>
      <trkpt lat="42.98939" lon="0.53407">
        <ele>1175.87</ele>
        <time>2020-02-08T13:37:39Z</time>
      </trkpt>
      <trkpt lat="42.9894" lon="0.53414">
        <ele>1175.457</ele>
        <time>2020-02-08T13:37:34Z</time>
      </trkpt>
      <trkpt lat="42.9894" lon="0.53417">
        <ele>1175.429</ele>
        <time>2020-02-08T13:37:32Z</time>
      </trkpt>
      <trkpt lat="42.98939" lon="0.53419">
        <ele>1175.014</ele>
        <time>2020-02-08T13:37:31Z</time>
      </trkpt>
      <trkpt lat="42.98939" lon="0.53421">
        <ele>1174.574</ele>
        <time>2020-02-08T13:37:30Z</time>
      </trkpt>
      <trkpt lat="42.98939" lon="0.53423">
        <ele>1174.166</ele>
        <time>2020-02-08T13:37:29Z</time>
      </trkpt>
      <trkpt lat="42.9894" lon="0.53425">
        <ele>1173.592</ele>
        <time>2020-02-08T13:37:28Z</time>
      </trkpt>
      <trkpt lat="42.9894" lon="0.53429">
        <ele>1173.135</ele>
        <time>2020-02-08T13:37:26Z</time>
      </trkpt>
      <trkpt lat="42.98937" lon="0.53446">
        <ele>1173.196</ele>
        <time>2020-02-08T13:37:17Z</time>
      </trkpt>
      <trkpt lat="42.9893" lon="0.53462">
        <ele>1173.109</ele>
        <time>2020-02-08T13:37:08Z</time>
      </trkpt>
      <trkpt lat="42.9893" lon="0.53464">
        <ele>1172.817</ele>
        <time>2020-02-08T13:37:07Z</time>
      </trkpt>
      <trkpt lat="42.98929" lon="0.53466">
        <ele>1172.407</ele>
        <time>2020-02-08T13:37:06Z</time>
      </trkpt>
      <trkpt lat="42.98928" lon="0.53469">
        <ele>1172.055</ele>
        <time>2020-02-08T13:37:05Z</time>
      </trkpt>
      <trkpt lat="42.98927" lon="0.53471">
        <ele>1171.592</ele>
        <time>2020-02-08T13:37:04Z</time>
      </trkpt>
      <trkpt lat="42.98922" lon="0.53482">
        <ele>1171.039</ele>
        <time>2020-02-08T13:36:59Z</time>
      </trkpt>
      <trkpt lat="42.9892" lon="0.53489">
        <ele>1171.071</ele>
        <time>2020-02-08T13:36:56Z</time>
      </trkpt>
      <trkpt lat="42.98917" lon="0.53496">
        <ele>1171.036</ele>
        <time>2020-02-08T13:36:53Z</time>
      </trkpt>
      <trkpt lat="42.98916" lon="0.53501">
        <ele>1171.026</ele>
        <time>2020-02-08T13:36:51Z</time>
      </trkpt>
      <trkpt lat="42.98915" lon="0.53504">
        <ele>1170.598</ele>
        <time>2020-02-08T13:36:50Z</time>
      </trkpt>
      <trkpt lat="42.98915" lon="0.53507">
        <ele>1170.164</ele>
        <time>2020-02-08T13:36:49Z</time>
      </trkpt>
      <trkpt lat="42.98915" lon="0.53509">
        <ele>1169.817</ele>
        <time>2020-02-08T13:36:48Z</time>
      </trkpt>
      <trkpt lat="42.98915" lon="0.53512">
        <ele>1169.188</ele>
        <time>2020-02-08T13:36:47Z</time>
      </trkpt>
      <trkpt lat="42.98916" lon="0.53514">
        <ele>1168.809</ele>
        <time>2020-02-08T13:36:46Z</time>
      </trkpt>
      <trkpt lat="42.98922" lon="0.53525">
        <ele>1168.814</ele>
        <time>2020-02-08T13:36:39Z</time>
      </trkpt>
      <trkpt lat="42.98924" lon="0.53525">
        <ele>1168.413</ele>
        <time>2020-02-08T13:36:38Z</time>
      </trkpt>
      <trkpt lat="42.98925" lon="0.53524">
        <ele>1168.072</ele>
        <time>2020-02-08T13:36:37Z</time>
      </trkpt>
      <trkpt lat="42.98926" lon="0.53523">
        <ele>1167.597</ele>
        <time>2020-02-08T13:36:36Z</time>
      </trkpt>
      <trkpt lat="42.98928" lon="0.53522">
        <ele>1167.154</ele>
        <time>2020-02-08T13:36:35Z</time>
      </trkpt>
      <trkpt lat="42.98929" lon="0.53521">
        <ele>1166.846</ele>
        <time>2020-02-08T13:36:34Z</time>
      </trkpt>
      <trkpt lat="42.98932" lon="0.53519">
        <ele>1166.861</ele>
        <time>2020-02-08T13:36:32Z</time>
      </trkpt>
      <trkpt lat="42.98936" lon="0.53508">
        <ele>1166.821</ele>
        <time>2020-02-08T13:36:26Z</time>
      </trkpt>
      <trkpt lat="42.98936" lon="0.53506">
        <ele>1166.193</ele>
        <time>2020-02-08T13:36:25Z</time>
      </trkpt>
      <trkpt lat="42.98937" lon="0.53504">
        <ele>1165.839</ele>
        <time>2020-02-08T13:36:24Z</time>
      </trkpt>
      <trkpt lat="42.98937" lon="0.53502">
        <ele>1165.462</ele>
        <time>2020-02-08T13:36:23Z</time>
      </trkpt>
      <trkpt lat="42.98938" lon="0.535">
        <ele>1165.093</ele>
        <time>2020-02-08T13:36:22Z</time>
      </trkpt>
      <trkpt lat="42.98944" lon="0.53481">
        <ele>1164.509</ele>
        <time>2020-02-08T13:36:13Z</time>
      </trkpt>
      <trkpt lat="42.98944" lon="0.53479">
        <ele>1164.52</ele>
        <time>2020-02-08T13:36:12Z</time>
      </trkpt>
      <trkpt lat="42.98945" lon="0.53477">
        <ele>1164.1</ele>
        <time>2020-02-08T13:36:11Z</time>
      </trkpt>
      <trkpt lat="42.98946" lon="0.53475">
        <ele>1163.529</ele>
        <time>2020-02-08T13:36:10Z</time>
      </trkpt>
      <trkpt lat="42.98947" lon="0.53473">
        <ele>1163.162</ele>
        <time>2020-02-08T13:36:09Z</time>
      </trkpt>
      <trkpt lat="42.98947" lon="0.5347">
        <ele>1162.829</ele>
        <time>2020-02-08T13:36:08Z</time>
      </trkpt>
      <trkpt lat="42.9895" lon="0.53462">
        <ele>1162.191</ele>
        <time>2020-02-08T13:36:04Z</time>
      </trkpt>
      <trkpt lat="42.98956" lon="0.53437">
        <ele>1162.156</ele>
        <time>2020-02-08T13:35:54Z</time>
      </trkpt>
      <trkpt lat="42.98956" lon="0.53435">
        <ele>1161.876</ele>
        <time>2020-02-08T13:35:53Z</time>
      </trkpt>
      <trkpt lat="42.98957" lon="0.53433">
        <ele>1161.478</ele>
        <time>2020-02-08T13:35:52Z</time>
      </trkpt>
      <trkpt lat="42.98957" lon="0.53431">
        <ele>1161.064</ele>
        <time>2020-02-08T13:35:51Z</time>
      </trkpt>
      <trkpt lat="42.98958" lon="0.5343">
        <ele>1160.517</ele>
        <time>2020-02-08T13:35:50Z</time>
      </trkpt>
      <trkpt lat="42.98963" lon="0.53424">
        <ele>1160.088</ele>
        <time>2020-02-08T13:35:44Z</time>
      </trkpt>
      <trkpt lat="42.98965" lon="0.53421">
        <ele>1160.009</ele>
        <time>2020-02-08T13:35:41Z</time>
      </trkpt>
      <trkpt lat="42.98966" lon="0.53419">
        <ele>1159.514</ele>
        <time>2020-02-08T13:35:40Z</time>
      </trkpt>
      <trkpt lat="42.98966" lon="0.53417">
        <ele>1159.113</ele>
        <time>2020-02-08T13:35:39Z</time>
      </trkpt>
      <trkpt lat="42.98967" lon="0.53415">
        <ele>1158.872</ele>
        <time>2020-02-08T13:35:38Z</time>
      </trkpt>
      <trkpt lat="42.98967" lon="0.53414">
        <ele>1158.443</ele>
        <time>2020-02-08T13:35:37Z</time>
      </trkpt>
      <trkpt lat="42.98971" lon="0.53407">
        <ele>1158.01</ele>
        <time>2020-02-08T13:35:33Z</time>
      </trkpt>
      <trkpt lat="42.98974" lon="0.53402">
        <ele>1158.052</ele>
        <time>2020-02-08T13:35:29Z</time>
      </trkpt>
      <trkpt lat="42.98975" lon="0.53401">
        <ele>1157.547</ele>
        <time>2020-02-08T13:35:28Z</time>
      </trkpt>
      <trkpt lat="42.98976" lon="0.534">
        <ele>1157.177</ele>
        <time>2020-02-08T13:35:27Z</time>
      </trkpt>
      <trkpt lat="42.98977" lon="0.53399">
        <ele>1156.869</ele>
        <time>2020-02-08T13:35:26Z</time>
      </trkpt>
      <trkpt lat="42.98977" lon="0.53397">
        <ele>1156.485</ele>
        <time>2020-02-08T13:35:25Z</time>
      </trkpt>
      <trkpt lat="42.98978" lon="0.53394">
        <ele>1156.088</ele>
        <time>2020-02-08T13:35:23Z</time>
      </trkpt>
      <trkpt lat="42.98982" lon="0.53386">
        <ele>1156.019</ele>
        <time>2020-02-08T13:35:17Z</time>
      </trkpt>
      <trkpt lat="42.98983" lon="0.53383">
        <ele>1155.509</ele>
        <time>2020-02-08T13:35:16Z</time>
      </trkpt>
      <trkpt lat="42.98984" lon="0.53382">
        <ele>1155.117</ele>
        <time>2020-02-08T13:35:15Z</time>
      </trkpt>
      <trkpt lat="42.98984" lon="0.53381">
        <ele>1154.861</ele>
        <time>2020-02-08T13:35:14Z</time>
      </trkpt>
      <trkpt lat="42.98985" lon="0.53379">
        <ele>1154.481</ele>
        <time>2020-02-08T13:35:13Z</time>
      </trkpt>
      <trkpt lat="42.98994" lon="0.53367">
        <ele>1154.064</ele>
        <time>2020-02-08T13:35:04Z</time>
      </trkpt>
      <trkpt lat="42.98996" lon="0.53364">
        <ele>1154.081</ele>
        <time>2020-02-08T13:35:02Z</time>
      </trkpt>
      <trkpt lat="42.98996" lon="0.53362">
        <ele>1153.413</ele>
        <time>2020-02-08T13:35:01Z</time>
      </trkpt>
      <trkpt lat="42.98997" lon="0.53361">
        <ele>1153.018</ele>
        <time>2020-02-08T13:35:00Z</time>
      </trkpt>
      <trkpt lat="42.98997" lon="0.53359">
        <ele>1152.578</ele>
        <time>2020-02-08T13:34:59Z</time>
      </trkpt>
      <trkpt lat="42.98998" lon="0.53358">
        <ele>1152.19</ele>
        <time>2020-02-08T13:34:58Z</time>
      </trkpt>
      <trkpt lat="42.98999" lon="0.53356">
        <ele>1151.866</ele>
        <time>2020-02-08T13:34:56Z</time>
      </trkpt>
      <trkpt lat="42.99002" lon="0.5335">
        <ele>1151.889</ele>
        <time>2020-02-08T13:34:51Z</time>
      </trkpt>
      <trkpt lat="42.99003" lon="0.53348">
        <ele>1151.42</ele>
        <time>2020-02-08T13:34:50Z</time>
      </trkpt>
      <trkpt lat="42.99004" lon="0.53346">
        <ele>1151.009</ele>
        <time>2020-02-08T13:34:49Z</time>
      </trkpt>
      <trkpt lat="42.99005" lon="0.53344">
        <ele>1150.522</ele>
        <time>2020-02-08T13:34:48Z</time>
      </trkpt>
      <trkpt lat="42.99005" lon="0.53342">
        <ele>1150.157</ele>
        <time>2020-02-08T13:34:47Z</time>
      </trkpt>
      <trkpt lat="42.99008" lon="0.53327">
        <ele>1149.894</ele>
        <time>2020-02-08T13:34:40Z</time>
      </trkpt>
      <trkpt lat="42.99009" lon="0.53325">
        <ele>1149.422</ele>
        <time>2020-02-08T13:34:39Z</time>
      </trkpt>
      <trkpt lat="42.9901" lon="0.53323">
        <ele>1149.029</ele>
        <time>2020-02-08T13:34:38Z</time>
      </trkpt>
      <trkpt lat="42.99011" lon="0.53322">
        <ele>1148.571</ele>
        <time>2020-02-08T13:34:37Z</time>
      </trkpt>
      <trkpt lat="42.99011" lon="0.5332">
        <ele>1148.056</ele>
        <time>2020-02-08T13:34:36Z</time>
      </trkpt>
      <trkpt lat="42.99014" lon="0.53313">
        <ele>1147.576</ele>
        <time>2020-02-08T13:34:32Z</time>
      </trkpt>
      <trkpt lat="42.99017" lon="0.53307">
        <ele>1147.558</ele>
        <time>2020-02-08T13:34:28Z</time>
      </trkpt>
      <trkpt lat="42.99019" lon="0.53306">
        <ele>1147.194</ele>
        <time>2020-02-08T13:34:27Z</time>
      </trkpt>
      <trkpt lat="42.99019" lon="0.53304">
        <ele>1146.897</ele>
        <time>2020-02-08T13:34:26Z</time>
      </trkpt>
      <trkpt lat="42.9902" lon="0.53302">
        <ele>1146.418</ele>
        <time>2020-02-08T13:34:25Z</time>
      </trkpt>
      <trkpt lat="42.99021" lon="0.53301">
        <ele>1146.009</ele>
        <time>2020-02-08T13:34:24Z</time>
      </trkpt>
      <trkpt lat="42.99022" lon="0.53299">
        <ele>1145.526</ele>
        <time>2020-02-08T13:34:23Z</time>
      </trkpt>
      <trkpt lat="42.99028" lon="0.53282">
        <ele>1145.533</ele>
        <time>2020-02-08T13:34:14Z</time>
      </trkpt>
      <trkpt lat="42.9903" lon="0.53272">
        <ele>1145.578</ele>
        <time>2020-02-08T13:34:09Z</time>
      </trkpt>
      <trkpt lat="42.9903" lon="0.5327">
        <ele>1145.177</ele>
        <time>2020-02-08T13:34:08Z</time>
      </trkpt>
      <trkpt lat="42.9903" lon="0.53268">
        <ele>1144.534</ele>
        <time>2020-02-08T13:34:07Z</time>
      </trkpt>
      <trkpt lat="42.99031" lon="0.53266">
        <ele>1144.166</ele>
        <time>2020-02-08T13:34:06Z</time>
      </trkpt>
      <trkpt lat="42.99031" lon="0.53265">
        <ele>1143.851</ele>
        <time>2020-02-08T13:34:05Z</time>
      </trkpt>
      <trkpt lat="42.99034" lon="0.53256">
        <ele>1143.171</ele>
        <time>2020-02-08T13:33:59Z</time>
      </trkpt>
      <trkpt lat="42.99037" lon="0.53252">
        <ele>1143.163</ele>
        <time>2020-02-08T13:33:56Z</time>
      </trkpt>
      <trkpt lat="42.99038" lon="0.53251">
        <ele>1142.849</ele>
        <time>2020-02-08T13:33:55Z</time>
      </trkpt>
      <trkpt lat="42.99038" lon="0.53249">
        <ele>1142.412</ele>
        <time>2020-02-08T13:33:54Z</time>
      </trkpt>
      <trkpt lat="42.99039" lon="0.53248">
        <ele>1141.873</ele>
        <time>2020-02-08T13:33:53Z</time>
      </trkpt>
      <trkpt lat="42.9904" lon="0.53247">
        <ele>1141.409</ele>
        <time>2020-02-08T13:33:52Z</time>
      </trkpt>
      <trkpt lat="42.99041" lon="0.53245">
        <ele>1141.008</ele>
        <time>2020-02-08T13:33:51Z</time>
      </trkpt>
      <trkpt lat="42.99047" lon="0.53237">
        <ele>1140.525</ele>
        <time>2020-02-08T13:33:43Z</time>
      </trkpt>
      <trkpt lat="42.99049" lon="0.53236">
        <ele>1140.119</ele>
        <time>2020-02-08T13:33:42Z</time>
      </trkpt>
      <trkpt lat="42.9905" lon="0.53235">
        <ele>1139.886</ele>
        <time>2020-02-08T13:33:41Z</time>
      </trkpt>
      <trkpt lat="42.99051" lon="0.53234">
        <ele>1139.458</ele>
        <time>2020-02-08T13:33:40Z</time>
      </trkpt>
      <trkpt lat="42.99055" lon="0.53229">
        <ele>1139.073</ele>
        <time>2020-02-08T13:33:36Z</time>
      </trkpt>
      <trkpt lat="42.9906" lon="0.53219">
        <ele>1139.013</ele>
        <time>2020-02-08T13:33:30Z</time>
      </trkpt>
      <trkpt lat="42.99061" lon="0.53217">
        <ele>1138.465</ele>
        <time>2020-02-08T13:33:29Z</time>
      </trkpt>
      <trkpt lat="42.99062" lon="0.53215">
        <ele>1138.091</ele>
        <time>2020-02-08T13:33:28Z</time>
      </trkpt>
      <trkpt lat="42.99063" lon="0.53214">
        <ele>1137.554</ele>
        <time>2020-02-08T13:33:27Z</time>
      </trkpt>
      <trkpt lat="42.99064" lon="0.53213">
        <ele>1137.015</ele>
        <time>2020-02-08T13:33:26Z</time>
      </trkpt>
      <trkpt lat="42.9907" lon="0.53197">
        <ele>1136.509</ele>
        <time>2020-02-08T13:33:17Z</time>
      </trkpt>
      <trkpt lat="42.99073" lon="0.53192">
        <ele>1136.515</ele>
        <time>2020-02-08T13:33:13Z</time>
      </trkpt>
      <trkpt lat="42.99074" lon="0.5319">
        <ele>1136.105</ele>
        <time>2020-02-08T13:33:12Z</time>
      </trkpt>
      <trkpt lat="42.99076" lon="0.53189">
        <ele>1135.844</ele>
        <time>2020-02-08T13:33:11Z</time>
      </trkpt>
      <trkpt lat="42.99077" lon="0.53188">
        <ele>1135.436</ele>
        <time>2020-02-08T13:33:10Z</time>
      </trkpt>
      <trkpt lat="42.99077" lon="0.53186">
        <ele>1134.843</ele>
        <time>2020-02-08T13:33:09Z</time>
      </trkpt>
      <trkpt lat="42.99079" lon="0.53183">
        <ele>1134.495</ele>
        <time>2020-02-08T13:33:07Z</time>
      </trkpt>
      <trkpt lat="42.99085" lon="0.53175">
        <ele>1134.42</ele>
        <time>2020-02-08T13:33:01Z</time>
      </trkpt>
      <trkpt lat="42.99086" lon="0.53174">
        <ele>1134.06</ele>
        <time>2020-02-08T13:33:00Z</time>
      </trkpt>
      <trkpt lat="42.99087" lon="0.53173">
        <ele>1133.592</ele>
        <time>2020-02-08T13:32:59Z</time>
      </trkpt>
      <trkpt lat="42.99087" lon="0.53172">
        <ele>1133.138</ele>
        <time>2020-02-08T13:32:58Z</time>
      </trkpt>
      <trkpt lat="42.99088" lon="0.5317">
        <ele>1132.871</ele>
        <time>2020-02-08T13:32:57Z</time>
      </trkpt>
      <trkpt lat="42.99094" lon="0.53161">
        <ele>1132.192</ele>
        <time>2020-02-08T13:32:50Z</time>
      </trkpt>
      <trkpt lat="42.99095" lon="0.53158">
        <ele>1132.109</ele>
        <time>2020-02-08T13:32:48Z</time>
      </trkpt>
      <trkpt lat="42.99096" lon="0.53157">
        <ele>1131.815</ele>
        <time>2020-02-08T13:32:47Z</time>
      </trkpt>
      <trkpt lat="42.99097" lon="0.53155">
        <ele>1131.487</ele>
        <time>2020-02-08T13:32:46Z</time>
      </trkpt>
      <trkpt lat="42.99098" lon="0.53154">
        <ele>1131.017</ele>
        <time>2020-02-08T13:32:45Z</time>
      </trkpt>
      <trkpt lat="42.99099" lon="0.53153">
        <ele>1130.428</ele>
        <time>2020-02-08T13:32:44Z</time>
      </trkpt>
      <trkpt lat="42.99101" lon="0.53147">
        <ele>1130.035</ele>
        <time>2020-02-08T13:32:41Z</time>
      </trkpt>
      <trkpt lat="42.99106" lon="0.53137">
        <ele>1130.097</ele>
        <time>2020-02-08T13:32:34Z</time>
      </trkpt>
      <trkpt lat="42.99107" lon="0.53136">
        <ele>1130.042</ele>
        <time>2020-02-08T13:32:33Z</time>
      </trkpt>
      <trkpt lat="42.99108" lon="0.53134">
        <ele>1129.562</ele>
        <time>2020-02-08T13:32:32Z</time>
      </trkpt>
      <trkpt lat="42.99109" lon="0.53133">
        <ele>1129.124</ele>
        <time>2020-02-08T13:32:31Z</time>
      </trkpt>
      <trkpt lat="42.9911" lon="0.53131">
        <ele>1128.84</ele>
        <time>2020-02-08T13:32:30Z</time>
      </trkpt>
      <trkpt lat="42.9911" lon="0.5313">
        <ele>1128.453</ele>
        <time>2020-02-08T13:32:29Z</time>
      </trkpt>
      <trkpt lat="42.99114" lon="0.53124">
        <ele>1128.014</ele>
        <time>2020-02-08T13:32:25Z</time>
      </trkpt>
      <trkpt lat="42.99115" lon="0.53119">
        <ele>1128.009</ele>
        <time>2020-02-08T13:32:22Z</time>
      </trkpt>
      <trkpt lat="42.99116" lon="0.53117">
        <ele>1127.518</ele>
        <time>2020-02-08T13:32:21Z</time>
      </trkpt>
      <trkpt lat="42.99117" lon="0.53116">
        <ele>1127.117</ele>
        <time>2020-02-08T13:32:20Z</time>
      </trkpt>
      <trkpt lat="42.99118" lon="0.53114">
        <ele>1126.836</ele>
        <time>2020-02-08T13:32:19Z</time>
      </trkpt>
      <trkpt lat="42.99118" lon="0.53112">
        <ele>1126.178</ele>
        <time>2020-02-08T13:32:18Z</time>
      </trkpt>
      <trkpt lat="42.9912" lon="0.53106">
        <ele>1125.865</ele>
        <time>2020-02-08T13:32:16Z</time>
      </trkpt>
      <trkpt lat="42.99124" lon="0.53093">
        <ele>1125.857</ele>
        <time>2020-02-08T13:32:10Z</time>
      </trkpt>
      <trkpt lat="42.99125" lon="0.53091">
        <ele>1125.422</ele>
        <time>2020-02-08T13:32:09Z</time>
      </trkpt>
      <trkpt lat="42.99125" lon="0.53089">
        <ele>1125.062</ele>
        <time>2020-02-08T13:32:08Z</time>
      </trkpt>
      <trkpt lat="42.99126" lon="0.53088">
        <ele>1124.574</ele>
        <time>2020-02-08T13:32:07Z</time>
      </trkpt>
      <trkpt lat="42.99127" lon="0.53086">
        <ele>1124.14</ele>
        <time>2020-02-08T13:32:06Z</time>
      </trkpt>
      <trkpt lat="42.99128" lon="0.53079">
        <ele>1123.833</ele>
        <time>2020-02-08T13:32:02Z</time>
      </trkpt>
      <trkpt lat="42.99129" lon="0.53073">
        <ele>1123.854</ele>
        <time>2020-02-08T13:31:59Z</time>
      </trkpt>
      <trkpt lat="42.99129" lon="0.53072">
        <ele>1123.409</ele>
        <time>2020-02-08T13:31:58Z</time>
      </trkpt>
      <trkpt lat="42.99129" lon="0.5307">
        <ele>1122.81</ele>
        <time>2020-02-08T13:31:57Z</time>
      </trkpt>
      <trkpt lat="42.9913" lon="0.53068">
        <ele>1122.455</ele>
        <time>2020-02-08T13:31:56Z</time>
      </trkpt>
      <trkpt lat="42.9913" lon="0.53066">
        <ele>1122.034</ele>
        <time>2020-02-08T13:31:55Z</time>
      </trkpt>
      <trkpt lat="42.99132" lon="0.53057">
        <ele>1121.572</ele>
        <time>2020-02-08T13:31:51Z</time>
      </trkpt>
      <trkpt lat="42.99134" lon="0.53051">
        <ele>1121.039</ele>
        <time>2020-02-08T13:31:48Z</time>
      </trkpt>
      <trkpt lat="42.99134" lon="0.53048">
        <ele>1120.441</ele>
        <time>2020-02-08T13:31:47Z</time>
      </trkpt>
      <trkpt lat="42.99134" lon="0.53046">
        <ele>1120.086</ele>
        <time>2020-02-08T13:31:46Z</time>
      </trkpt>
      <trkpt lat="42.99135" lon="0.53044">
        <ele>1119.456</ele>
        <time>2020-02-08T13:31:45Z</time>
      </trkpt>
      <trkpt lat="42.9914" lon="0.53023">
        <ele>1119.028</ele>
        <time>2020-02-08T13:31:37Z</time>
      </trkpt>
      <trkpt lat="42.9914" lon="0.53021">
        <ele>1119.074</ele>
        <time>2020-02-08T13:31:36Z</time>
      </trkpt>
      <trkpt lat="42.9914" lon="0.53019">
        <ele>1118.547</ele>
        <time>2020-02-08T13:31:35Z</time>
      </trkpt>
      <trkpt lat="42.99141" lon="0.53017">
        <ele>1118.078</ele>
        <time>2020-02-08T13:31:34Z</time>
      </trkpt>
      <trkpt lat="42.99141" lon="0.53015">
        <ele>1117.509</ele>
        <time>2020-02-08T13:31:33Z</time>
      </trkpt>
      <trkpt lat="42.9914" lon="0.53013">
        <ele>1117.125</ele>
        <time>2020-02-08T13:31:32Z</time>
      </trkpt>
      <trkpt lat="42.99141" lon="0.53">
        <ele>1116.805</ele>
        <time>2020-02-08T13:31:27Z</time>
      </trkpt>
      <trkpt lat="42.99141" lon="0.52992">
        <ele>1116.879</ele>
        <time>2020-02-08T13:31:24Z</time>
      </trkpt>
      <trkpt lat="42.99141" lon="0.52989">
        <ele>1116.436</ele>
        <time>2020-02-08T13:31:23Z</time>
      </trkpt>
      <trkpt lat="42.99141" lon="0.52987">
        <ele>1116.013</ele>
        <time>2020-02-08T13:31:22Z</time>
      </trkpt>
      <trkpt lat="42.99141" lon="0.52984">
        <ele>1115.565</ele>
        <time>2020-02-08T13:31:21Z</time>
      </trkpt>
      <trkpt lat="42.99141" lon="0.52981">
        <ele>1115.07</ele>
        <time>2020-02-08T13:31:20Z</time>
      </trkpt>
      <trkpt lat="42.99141" lon="0.52962">
        <ele>1114.55</ele>
        <time>2020-02-08T13:31:14Z</time>
      </trkpt>
      <trkpt lat="42.9914" lon="0.52936">
        <ele>1114.552</ele>
        <time>2020-02-08T13:31:06Z</time>
      </trkpt>
      <trkpt lat="42.99138" lon="0.52916">
        <ele>1114.528</ele>
        <time>2020-02-08T13:31:00Z</time>
      </trkpt>
      <trkpt lat="42.99138" lon="0.52912">
        <ele>1114.161</ele>
        <time>2020-02-08T13:30:59Z</time>
      </trkpt>
      <trkpt lat="42.99137" lon="0.52909">
        <ele>1113.892</ele>
        <time>2020-02-08T13:30:58Z</time>
      </trkpt>
      <trkpt lat="42.99137" lon="0.52906">
        <ele>1113.109</ele>
        <time>2020-02-08T13:30:57Z</time>
      </trkpt>
      <trkpt lat="42.99137" lon="0.52903">
        <ele>1112.819</ele>
        <time>2020-02-08T13:30:56Z</time>
      </trkpt>
      <trkpt lat="42.99137" lon="0.52886">
        <ele>1112.409</ele>
        <time>2020-02-08T13:30:51Z</time>
      </trkpt>
      <trkpt lat="42.99138" lon="0.52865">
        <ele>1112.419</ele>
        <time>2020-02-08T13:30:44Z</time>
      </trkpt>
      <trkpt lat="42.99138" lon="0.52862">
        <ele>1112.061</ele>
        <time>2020-02-08T13:30:43Z</time>
      </trkpt>
      <trkpt lat="42.99139" lon="0.52859">
        <ele>1111.578</ele>
        <time>2020-02-08T13:30:42Z</time>
      </trkpt>
      <trkpt lat="42.99139" lon="0.52856">
        <ele>1111.05</ele>
        <time>2020-02-08T13:30:41Z</time>
      </trkpt>
      <trkpt lat="42.99138" lon="0.52853">
        <ele>1110.585</ele>
        <time>2020-02-08T13:30:40Z</time>
      </trkpt>
      <trkpt lat="42.99137" lon="0.52832">
        <ele>1110.165</ele>
        <time>2020-02-08T13:30:33Z</time>
      </trkpt>
      <trkpt lat="42.99135" lon="0.52814">
        <ele>1110.177</ele>
        <time>2020-02-08T13:30:26Z</time>
      </trkpt>
      <trkpt lat="42.99135" lon="0.52792">
        <ele>1110.153</ele>
        <time>2020-02-08T13:30:18Z</time>
      </trkpt>
      <trkpt lat="42.99134" lon="0.52788">
        <ele>1110.126</ele>
        <time>2020-02-08T13:30:17Z</time>
      </trkpt>
      <trkpt lat="42.99134" lon="0.52785">
        <ele>1109.897</ele>
        <time>2020-02-08T13:30:16Z</time>
      </trkpt>
      <trkpt lat="42.99134" lon="0.52783">
        <ele>1109.409</ele>
        <time>2020-02-08T13:30:15Z</time>
      </trkpt>
      <trkpt lat="42.99134" lon="0.5278">
        <ele>1109.014</ele>
        <time>2020-02-08T13:30:14Z</time>
      </trkpt>
      <trkpt lat="42.99134" lon="0.52777">
        <ele>1108.568</ele>
        <time>2020-02-08T13:30:13Z</time>
      </trkpt>
      <trkpt lat="42.99135" lon="0.52772">
        <ele>1108.165</ele>
        <time>2020-02-08T13:30:11Z</time>
      </trkpt>
      <trkpt lat="42.99135" lon="0.5275">
        <ele>1108.124</ele>
        <time>2020-02-08T13:30:03Z</time>
      </trkpt>
      <trkpt lat="42.99134" lon="0.52728">
        <ele>1108.111</ele>
        <time>2020-02-08T13:29:55Z</time>
      </trkpt>
      <trkpt lat="42.99135" lon="0.52714">
        <ele>1108.133</ele>
        <time>2020-02-08T13:29:50Z</time>
      </trkpt>
      <trkpt lat="42.99136" lon="0.52712">
        <ele>1107.848</ele>
        <time>2020-02-08T13:29:49Z</time>
      </trkpt>
      <trkpt lat="42.99135" lon="0.5271">
        <ele>1107.468</ele>
        <time>2020-02-08T13:29:48Z</time>
      </trkpt>
      <trkpt lat="42.99135" lon="0.52707">
        <ele>1106.85</ele>
        <time>2020-02-08T13:29:47Z</time>
      </trkpt>
      <trkpt lat="42.99135" lon="0.52705">
        <ele>1106.466</ele>
        <time>2020-02-08T13:29:46Z</time>
      </trkpt>
      <trkpt lat="42.99138" lon="0.52683">
        <ele>1106.049</ele>
        <time>2020-02-08T13:29:37Z</time>
      </trkpt>
      <trkpt lat="42.99139" lon="0.52672">
        <ele>1106.08</ele>
        <time>2020-02-08T13:29:33Z</time>
      </trkpt>
      <trkpt lat="42.9914" lon="0.5267">
        <ele>1105.509</ele>
        <time>2020-02-08T13:29:32Z</time>
      </trkpt>
      <trkpt lat="42.9914" lon="0.52667">
        <ele>1105.125</ele>
        <time>2020-02-08T13:29:31Z</time>
      </trkpt>
      <trkpt lat="42.9914" lon="0.52665">
        <ele>1104.823</ele>
        <time>2020-02-08T13:29:30Z</time>
      </trkpt>
      <trkpt lat="42.9914" lon="0.52662">
        <ele>1104.497</ele>
        <time>2020-02-08T13:29:29Z</time>
      </trkpt>
      <trkpt lat="42.9914" lon="0.52647">
        <ele>1104.044</ele>
        <time>2020-02-08T13:29:23Z</time>
      </trkpt>
      <trkpt lat="42.99141" lon="0.52628">
        <ele>1104.041</ele>
        <time>2020-02-08T13:29:16Z</time>
      </trkpt>
      <trkpt lat="42.99142" lon="0.52623">
        <ele>1104.093</ele>
        <time>2020-02-08T13:29:14Z</time>
      </trkpt>
      <trkpt lat="42.99143" lon="0.52621">
        <ele>1103.538</ele>
        <time>2020-02-08T13:29:13Z</time>
      </trkpt>
      <trkpt lat="42.99143" lon="0.52619">
        <ele>1103.068</ele>
        <time>2020-02-08T13:29:12Z</time>
      </trkpt>
      <trkpt lat="42.99143" lon="0.52616">
        <ele>1102.57</ele>
        <time>2020-02-08T13:29:11Z</time>
      </trkpt>
      <trkpt lat="42.99144" lon="0.52614">
        <ele>1102.156</ele>
        <time>2020-02-08T13:29:10Z</time>
      </trkpt>
      <trkpt lat="42.99144" lon="0.52612">
        <ele>1101.569</ele>
        <time>2020-02-08T13:29:09Z</time>
      </trkpt>
      <trkpt lat="42.99147" lon="0.52597">
        <ele>1101.57</ele>
        <time>2020-02-08T13:29:03Z</time>
      </trkpt>
      <trkpt lat="42.99147" lon="0.52595">
        <ele>1101.109</ele>
        <time>2020-02-08T13:29:02Z</time>
      </trkpt>
      <trkpt lat="42.99147" lon="0.52593">
        <ele>1100.827</ele>
        <time>2020-02-08T13:29:01Z</time>
      </trkpt>
      <trkpt lat="42.99147" lon="0.52591">
        <ele>1100.407</ele>
        <time>2020-02-08T13:29:00Z</time>
      </trkpt>
      <trkpt lat="42.99147" lon="0.52588">
        <ele>1100.099</ele>
        <time>2020-02-08T13:28:59Z</time>
      </trkpt>
      <trkpt lat="42.99152" lon="0.52574">
        <ele>1099.469</ele>
        <time>2020-02-08T13:28:51Z</time>
      </trkpt>
      <trkpt lat="42.99152" lon="0.52572">
        <ele>1099.076</ele>
        <time>2020-02-08T13:28:50Z</time>
      </trkpt>
      <trkpt lat="42.99153" lon="0.5257">
        <ele>1098.518</ele>
        <time>2020-02-08T13:28:49Z</time>
      </trkpt>
      <trkpt lat="42.99153" lon="0.52568">
        <ele>1098.093</ele>
        <time>2020-02-08T13:28:48Z</time>
      </trkpt>
      <trkpt lat="42.99154" lon="0.52567">
        <ele>1097.583</ele>
        <time>2020-02-08T13:28:47Z</time>
      </trkpt>
      <trkpt lat="42.99159" lon="0.5255">
        <ele>1097.035</ele>
        <time>2020-02-08T13:28:38Z</time>
      </trkpt>
      <trkpt lat="42.9916" lon="0.52547">
        <ele>1096.511</ele>
        <time>2020-02-08T13:28:37Z</time>
      </trkpt>
      <trkpt lat="42.9916" lon="0.52545">
        <ele>1096.114</ele>
        <time>2020-02-08T13:28:36Z</time>
      </trkpt>
      <trkpt lat="42.9916" lon="0.52542">
        <ele>1095.855</ele>
        <time>2020-02-08T13:28:35Z</time>
      </trkpt>
      <trkpt lat="42.9916" lon="0.52539">
        <ele>1095.409</ele>
        <time>2020-02-08T13:28:34Z</time>
      </trkpt>
      <trkpt lat="42.9916" lon="0.52533">
        <ele>1095.01</ele>
        <time>2020-02-08T13:28:31Z</time>
      </trkpt>
      <trkpt lat="42.99162" lon="0.52528">
        <ele>1095.064</ele>
        <time>2020-02-08T13:28:28Z</time>
      </trkpt>
      <trkpt lat="42.99162" lon="0.52525">
        <ele>1094.543</ele>
        <time>2020-02-08T13:28:27Z</time>
      </trkpt>
      <trkpt lat="42.99162" lon="0.52523">
        <ele>1094.149</ele>
        <time>2020-02-08T13:28:26Z</time>
      </trkpt>
      <trkpt lat="42.99163" lon="0.52521">
        <ele>1093.866</ele>
        <time>2020-02-08T13:28:25Z</time>
      </trkpt>
      <trkpt lat="42.99163" lon="0.52518">
        <ele>1093.188</ele>
        <time>2020-02-08T13:28:24Z</time>
      </trkpt>
      <trkpt lat="42.99164" lon="0.52516">
        <ele>1092.833</ele>
        <time>2020-02-08T13:28:23Z</time>
      </trkpt>
      <trkpt lat="42.99167" lon="0.52509">
        <ele>1092.853</ele>
        <time>2020-02-08T13:28:19Z</time>
      </trkpt>
      <trkpt lat="42.99168" lon="0.52507">
        <ele>1092.865</ele>
        <time>2020-02-08T13:28:17Z</time>
      </trkpt>
      <trkpt lat="42.99169" lon="0.52505">
        <ele>1092.461</ele>
        <time>2020-02-08T13:28:16Z</time>
      </trkpt>
      <trkpt lat="42.9917" lon="0.52504">
        <ele>1092.064</ele>
        <time>2020-02-08T13:28:15Z</time>
      </trkpt>
      <trkpt lat="42.9917" lon="0.52503">
        <ele>1091.565</ele>
        <time>2020-02-08T13:28:14Z</time>
      </trkpt>
      <trkpt lat="42.99171" lon="0.52501">
        <ele>1091.109</ele>
        <time>2020-02-08T13:28:13Z</time>
      </trkpt>
      <trkpt lat="42.99173" lon="0.52494">
        <ele>1090.81</ele>
        <time>2020-02-08T13:28:08Z</time>
      </trkpt>
      <trkpt lat="42.99176" lon="0.52482">
        <ele>1090.864</ele>
        <time>2020-02-08T13:28:03Z</time>
      </trkpt>
      <trkpt lat="42.99177" lon="0.52481">
        <ele>1090.143</ele>
        <time>2020-02-08T13:28:02Z</time>
      </trkpt>
      <trkpt lat="42.99178" lon="0.5248">
        <ele>1089.872</ele>
        <time>2020-02-08T13:28:01Z</time>
      </trkpt>
      <trkpt lat="42.99178" lon="0.52478">
        <ele>1089.419</ele>
        <time>2020-02-08T13:28:00Z</time>
      </trkpt>
      <trkpt lat="42.99179" lon="0.52477">
        <ele>1089.081</ele>
        <time>2020-02-08T13:27:59Z</time>
      </trkpt>
      <trkpt lat="42.99179" lon="0.52475">
        <ele>1088.556</ele>
        <time>2020-02-08T13:27:58Z</time>
      </trkpt>
      <trkpt lat="42.99182" lon="0.52465">
        <ele>1088.526</ele>
        <time>2020-02-08T13:27:52Z</time>
      </trkpt>
      <trkpt lat="42.99183" lon="0.52463">
        <ele>1088.028</ele>
        <time>2020-02-08T13:27:51Z</time>
      </trkpt>
      <trkpt lat="42.99184" lon="0.52462">
        <ele>1087.524</ele>
        <time>2020-02-08T13:27:50Z</time>
      </trkpt>
      <trkpt lat="42.99185" lon="0.52461">
        <ele>1087.157</ele>
        <time>2020-02-08T13:27:49Z</time>
      </trkpt>
      <trkpt lat="42.99185" lon="0.5246">
        <ele>1086.818</ele>
        <time>2020-02-08T13:27:48Z</time>
      </trkpt>
      <trkpt lat="42.99191" lon="0.5245">
        <ele>1086.409</ele>
        <time>2020-02-08T13:27:42Z</time>
      </trkpt>
      <trkpt lat="42.99192" lon="0.52448">
        <ele>1086.025</ele>
        <time>2020-02-08T13:27:41Z</time>
      </trkpt>
      <trkpt lat="42.99192" lon="0.52447">
        <ele>1085.505</ele>
        <time>2020-02-08T13:27:40Z</time>
      </trkpt>
      <trkpt lat="42.99193" lon="0.52445">
        <ele>1085.079</ele>
        <time>2020-02-08T13:27:39Z</time>
      </trkpt>
      <trkpt lat="42.99193" lon="0.52444">
        <ele>1084.526</ele>
        <time>2020-02-08T13:27:38Z</time>
      </trkpt>
      <trkpt lat="42.99196" lon="0.52432">
        <ele>1084.183</ele>
        <time>2020-02-08T13:27:32Z</time>
      </trkpt>
      <trkpt lat="42.99197" lon="0.52428">
        <ele>1084.145</ele>
        <time>2020-02-08T13:27:30Z</time>
      </trkpt>
      <trkpt lat="42.99197" lon="0.52426">
        <ele>1083.58</ele>
        <time>2020-02-08T13:27:29Z</time>
      </trkpt>
      <trkpt lat="42.99198" lon="0.52424">
        <ele>1083.11</ele>
        <time>2020-02-08T13:27:28Z</time>
      </trkpt>
      <trkpt lat="42.99199" lon="0.52422">
        <ele>1082.572</ele>
        <time>2020-02-08T13:27:27Z</time>
      </trkpt>
      <trkpt lat="42.99199" lon="0.5242">
        <ele>1082.198</ele>
        <time>2020-02-08T13:27:26Z</time>
      </trkpt>
      <trkpt lat="42.99202" lon="0.52413">
        <ele>1081.581</ele>
        <time>2020-02-08T13:27:22Z</time>
      </trkpt>
      <trkpt lat="42.99207" lon="0.52399">
        <ele>1081.109</ele>
        <time>2020-02-08T13:27:12Z</time>
      </trkpt>
      <trkpt lat="42.99208" lon="0.52397">
        <ele>1080.805</ele>
        <time>2020-02-08T13:27:11Z</time>
      </trkpt>
      <trkpt lat="42.99208" lon="0.52395">
        <ele>1080.432</ele>
        <time>2020-02-08T13:27:10Z</time>
      </trkpt>
      <trkpt lat="42.99208" lon="0.52393">
        <ele>1080.012</ele>
        <time>2020-02-08T13:27:09Z</time>
      </trkpt>
      <trkpt lat="42.99209" lon="0.52389">
        <ele>1079.547</ele>
        <time>2020-02-08T13:27:07Z</time>
      </trkpt>
      <trkpt lat="42.9921" lon="0.52383">
        <ele>1079.534</ele>
        <time>2020-02-08T13:27:04Z</time>
      </trkpt>
      <trkpt lat="42.9921" lon="0.52381">
        <ele>1079.126</ele>
        <time>2020-02-08T13:27:03Z</time>
      </trkpt>
      <trkpt lat="42.99211" lon="0.52379">
        <ele>1078.841</ele>
        <time>2020-02-08T13:27:02Z</time>
      </trkpt>
      <trkpt lat="42.99211" lon="0.52378">
        <ele>1078.191</ele>
        <time>2020-02-08T13:27:01Z</time>
      </trkpt>
      <trkpt lat="42.99211" lon="0.52376">
        <ele>1077.843</ele>
        <time>2020-02-08T13:27:00Z</time>
      </trkpt>
      <trkpt lat="42.99215" lon="0.52363">
        <ele>1077.439</ele>
        <time>2020-02-08T13:26:53Z</time>
      </trkpt>
      <trkpt lat="42.99216" lon="0.52361">
        <ele>1077.092</ele>
        <time>2020-02-08T13:26:52Z</time>
      </trkpt>
      <trkpt lat="42.99216" lon="0.52359">
        <ele>1076.563</ele>
        <time>2020-02-08T13:26:51Z</time>
      </trkpt>
      <trkpt lat="42.99217" lon="0.52356">
        <ele>1076.009</ele>
        <time>2020-02-08T13:26:50Z</time>
      </trkpt>
      <trkpt lat="42.99217" lon="0.52354">
        <ele>1075.511</ele>
        <time>2020-02-08T13:26:49Z</time>
      </trkpt>
      <trkpt lat="42.9922" lon="0.52342">
        <ele>1075.147</ele>
        <time>2020-02-08T13:26:43Z</time>
      </trkpt>
      <trkpt lat="42.99223" lon="0.52332">
        <ele>1075.126</ele>
        <time>2020-02-08T13:26:37Z</time>
      </trkpt>
      <trkpt lat="42.99223" lon="0.5233">
        <ele>1074.843</ele>
        <time>2020-02-08T13:26:36Z</time>
      </trkpt>
      <trkpt lat="42.99224" lon="0.52329">
        <ele>1074.49</ele>
        <time>2020-02-08T13:26:35Z</time>
      </trkpt>
      <trkpt lat="42.99224" lon="0.52328">
        <ele>1074.042</ele>
        <time>2020-02-08T13:26:34Z</time>
      </trkpt>
      <trkpt lat="42.99224" lon="0.52327">
        <ele>1073.517</ele>
        <time>2020-02-08T13:26:33Z</time>
      </trkpt>
      <trkpt lat="42.99227" lon="0.52319">
        <ele>1073.157</ele>
        <time>2020-02-08T13:26:27Z</time>
      </trkpt>
      <trkpt lat="42.99227" lon="0.52317">
        <ele>1072.829</ele>
        <time>2020-02-08T13:26:26Z</time>
      </trkpt>
      <trkpt lat="42.99227" lon="0.52315">
        <ele>1072.415</ele>
        <time>2020-02-08T13:26:25Z</time>
      </trkpt>
      <trkpt lat="42.99228" lon="0.52314">
        <ele>1072.058</ele>
        <time>2020-02-08T13:26:24Z</time>
      </trkpt>
      <trkpt lat="42.99228" lon="0.52312">
        <ele>1071.599</ele>
        <time>2020-02-08T13:26:23Z</time>
      </trkpt>
      <trkpt lat="42.99234" lon="0.523">
        <ele>1071.009</ele>
        <time>2020-02-08T13:26:16Z</time>
      </trkpt>
      <trkpt lat="42.99234" lon="0.52298">
        <ele>1070.517</ele>
        <time>2020-02-08T13:26:15Z</time>
      </trkpt>
      <trkpt lat="42.99235" lon="0.52296">
        <ele>1070.161</ele>
        <time>2020-02-08T13:26:14Z</time>
      </trkpt>
      <trkpt lat="42.99235" lon="0.52294">
        <ele>1069.881</ele>
        <time>2020-02-08T13:26:13Z</time>
      </trkpt>
      <trkpt lat="42.99236" lon="0.52292">
        <ele>1069.419</ele>
        <time>2020-02-08T13:26:12Z</time>
      </trkpt>
      <trkpt lat="42.99238" lon="0.52288">
        <ele>1069.076</ele>
        <time>2020-02-08T13:26:09Z</time>
      </trkpt>
      <trkpt lat="42.99241" lon="0.52283">
        <ele>1069.018</ele>
        <time>2020-02-08T13:26:04Z</time>
      </trkpt>
      <trkpt lat="42.99242" lon="0.52282">
        <ele>1068.523</ele>
        <time>2020-02-08T13:26:03Z</time>
      </trkpt>
      <trkpt lat="42.99242" lon="0.52281">
        <ele>1068.153</ele>
        <time>2020-02-08T13:26:02Z</time>
      </trkpt>
      <trkpt lat="42.99243" lon="0.52279">
        <ele>1067.555</ele>
        <time>2020-02-08T13:26:01Z</time>
      </trkpt>
      <trkpt lat="42.99244" lon="0.52278">
        <ele>1067.131</ele>
        <time>2020-02-08T13:26:00Z</time>
      </trkpt>
      <trkpt lat="42.99248" lon="0.52267">
        <ele>1066.894</ele>
        <time>2020-02-08T13:25:53Z</time>
      </trkpt>
      <trkpt lat="42.99249" lon="0.52265">
        <ele>1066.815</ele>
        <time>2020-02-08T13:25:52Z</time>
      </trkpt>
      <trkpt lat="42.99249" lon="0.52263">
        <ele>1066.409</ele>
        <time>2020-02-08T13:25:51Z</time>
      </trkpt>
      <trkpt lat="42.9925" lon="0.52261">
        <ele>1066.016</ele>
        <time>2020-02-08T13:25:50Z</time>
      </trkpt>
      <trkpt lat="42.9925" lon="0.5226">
        <ele>1065.488</ele>
        <time>2020-02-08T13:25:49Z</time>
      </trkpt>
      <trkpt lat="42.99251" lon="0.52258">
        <ele>1065.046</ele>
        <time>2020-02-08T13:25:48Z</time>
      </trkpt>
      <trkpt lat="42.99253" lon="0.52254">
        <ele>1064.564</ele>
        <time>2020-02-08T13:25:45Z</time>
      </trkpt>
      <trkpt lat="42.99258" lon="0.52241">
        <ele>1064.551</ele>
        <time>2020-02-08T13:25:39Z</time>
      </trkpt>
      <trkpt lat="42.99259" lon="0.5224">
        <ele>1064.013</ele>
        <time>2020-02-08T13:25:38Z</time>
      </trkpt>
      <trkpt lat="42.9926" lon="0.52238">
        <ele>1063.548</ele>
        <time>2020-02-08T13:25:37Z</time>
      </trkpt>
      <trkpt lat="42.99261" lon="0.52237">
        <ele>1063.148</ele>
        <time>2020-02-08T13:25:36Z</time>
      </trkpt>
      <trkpt lat="42.99261" lon="0.52236">
        <ele>1062.86</ele>
        <time>2020-02-08T13:25:35Z</time>
      </trkpt>
      <trkpt lat="42.99265" lon="0.52225">
        <ele>1062.446</ele>
        <time>2020-02-08T13:25:29Z</time>
      </trkpt>
      <trkpt lat="42.99267" lon="0.52217">
        <ele>1062.449</ele>
        <time>2020-02-08T13:25:26Z</time>
      </trkpt>
      <trkpt lat="42.99268" lon="0.52215">
        <ele>1062.04</ele>
        <time>2020-02-08T13:25:25Z</time>
      </trkpt>
      <trkpt lat="42.99269" lon="0.52214">
        <ele>1061.509</ele>
        <time>2020-02-08T13:25:24Z</time>
      </trkpt>
      <trkpt lat="42.99269" lon="0.52213">
        <ele>1061.122</ele>
        <time>2020-02-08T13:25:23Z</time>
      </trkpt>
      <trkpt lat="42.9927" lon="0.52211">
        <ele>1060.857</ele>
        <time>2020-02-08T13:25:22Z</time>
      </trkpt>
      <trkpt lat="42.99275" lon="0.52197">
        <ele>1060.494</ele>
        <time>2020-02-08T13:25:14Z</time>
      </trkpt>
      <trkpt lat="42.99278" lon="0.52192">
        <ele>1060.44</ele>
        <time>2020-02-08T13:25:09Z</time>
      </trkpt>
      <trkpt lat="42.99279" lon="0.5219">
        <ele>1059.857</ele>
        <time>2020-02-08T13:25:08Z</time>
      </trkpt>
      <trkpt lat="42.99279" lon="0.52189">
        <ele>1059.479</ele>
        <time>2020-02-08T13:25:07Z</time>
      </trkpt>
      <trkpt lat="42.9928" lon="0.52188">
        <ele>1059.064</ele>
        <time>2020-02-08T13:25:06Z</time>
      </trkpt>
      <trkpt lat="42.99281" lon="0.52187">
        <ele>1058.574</ele>
        <time>2020-02-08T13:25:05Z</time>
      </trkpt>
      <trkpt lat="42.99287" lon="0.52179">
        <ele>1058.066</ele>
        <time>2020-02-08T13:24:59Z</time>
      </trkpt>
      <trkpt lat="42.99289" lon="0.52175">
        <ele>1058.052</ele>
        <time>2020-02-08T13:24:55Z</time>
      </trkpt>
      <trkpt lat="42.9929" lon="0.52174">
        <ele>1057.525</ele>
        <time>2020-02-08T13:24:54Z</time>
      </trkpt>
      <trkpt lat="42.99291" lon="0.52172">
        <ele>1057.186</ele>
        <time>2020-02-08T13:24:53Z</time>
      </trkpt>
      <trkpt lat="42.99291" lon="0.52171">
        <ele>1056.809</ele>
        <time>2020-02-08T13:24:52Z</time>
      </trkpt>
      <trkpt lat="42.99292" lon="0.52169">
        <ele>1056.411</ele>
        <time>2020-02-08T13:24:51Z</time>
      </trkpt>
      <trkpt lat="42.99294" lon="0.52166">
        <ele>1056.056</ele>
        <time>2020-02-08T13:24:49Z</time>
      </trkpt>
      <trkpt lat="42.99297" lon="0.52159">
        <ele>1056.054</ele>
        <time>2020-02-08T13:24:44Z</time>
      </trkpt>
      <trkpt lat="42.99297" lon="0.52157">
        <ele>1055.556</ele>
        <time>2020-02-08T13:24:43Z</time>
      </trkpt>
      <trkpt lat="42.99298" lon="0.52156">
        <ele>1055.183</ele>
        <time>2020-02-08T13:24:42Z</time>
      </trkpt>
      <trkpt lat="42.99299" lon="0.52155">
        <ele>1054.555</ele>
        <time>2020-02-08T13:24:41Z</time>
      </trkpt>
      <trkpt lat="42.993" lon="0.52154">
        <ele>1054.14</ele>
        <time>2020-02-08T13:24:40Z</time>
      </trkpt>
      <trkpt lat="42.99304" lon="0.52145">
        <ele>1053.58</ele>
        <time>2020-02-08T13:24:34Z</time>
      </trkpt>
      <trkpt lat="42.99307" lon="0.52138">
        <ele>1053.582</ele>
        <time>2020-02-08T13:24:29Z</time>
      </trkpt>
      <trkpt lat="42.99308" lon="0.52136">
        <ele>1053.178</ele>
        <time>2020-02-08T13:24:28Z</time>
      </trkpt>
      <trkpt lat="42.99308" lon="0.52134">
        <ele>1052.821</ele>
        <time>2020-02-08T13:24:27Z</time>
      </trkpt>
      <trkpt lat="42.99309" lon="0.52132">
        <ele>1052.422</ele>
        <time>2020-02-08T13:24:26Z</time>
      </trkpt>
      <trkpt lat="42.9931" lon="0.52131">
        <ele>1051.809</ele>
        <time>2020-02-08T13:24:25Z</time>
      </trkpt>
      <trkpt lat="42.99315" lon="0.52123">
        <ele>1051.415</ele>
        <time>2020-02-08T13:24:19Z</time>
      </trkpt>
      <trkpt lat="42.99315" lon="0.52121">
        <ele>1051.487</ele>
        <time>2020-02-08T13:24:18Z</time>
      </trkpt>
      <trkpt lat="42.99316" lon="0.52119">
        <ele>1051.017</ele>
        <time>2020-02-08T13:24:17Z</time>
      </trkpt>
      <trkpt lat="42.99316" lon="0.52118">
        <ele>1050.58</ele>
        <time>2020-02-08T13:24:16Z</time>
      </trkpt>
      <trkpt lat="42.99317" lon="0.52117">
        <ele>1050.137</ele>
        <time>2020-02-08T13:24:15Z</time>
      </trkpt>
      <trkpt lat="42.99317" lon="0.52115">
        <ele>1049.849</ele>
        <time>2020-02-08T13:24:14Z</time>
      </trkpt>
      <trkpt lat="42.99318" lon="0.52112">
        <ele>1049.494</ele>
        <time>2020-02-08T13:24:11Z</time>
      </trkpt>
      <trkpt lat="42.9932" lon="0.52105">
        <ele>1049.424</ele>
        <time>2020-02-08T13:24:06Z</time>
      </trkpt>
      <trkpt lat="42.9932" lon="0.52104">
        <ele>1049.016</ele>
        <time>2020-02-08T13:24:05Z</time>
      </trkpt>
      <trkpt lat="42.99321" lon="0.52104">
        <ele>1048.572</ele>
        <time>2020-02-08T13:24:04Z</time>
      </trkpt>
      <trkpt lat="42.99322" lon="0.52103">
        <ele>1048.145</ele>
        <time>2020-02-08T13:24:03Z</time>
      </trkpt>
      <trkpt lat="42.99323" lon="0.52102">
        <ele>1047.886</ele>
        <time>2020-02-08T13:24:02Z</time>
      </trkpt>
      <trkpt lat="42.99325" lon="0.52101">
        <ele>1047.409</ele>
        <time>2020-02-08T13:24:01Z</time>
      </trkpt>
      <trkpt lat="42.99334" lon="0.52103">
        <ele>1047.42</ele>
        <time>2020-02-08T13:23:54Z</time>
      </trkpt>
      <trkpt lat="42.99336" lon="0.52104">
        <ele>1047</ele>
        <time>2020-02-08T13:23:53Z</time>
      </trkpt>
      <trkpt lat="42.99337" lon="0.52107">
        <ele>1046.557</ele>
        <time>2020-02-08T13:23:52Z</time>
      </trkpt>
      <trkpt lat="42.99338" lon="0.52108">
        <ele>1046.196</ele>
        <time>2020-02-08T13:23:51Z</time>
      </trkpt>
      <trkpt lat="42.99339" lon="0.52109">
        <ele>1045.573</ele>
        <time>2020-02-08T13:23:50Z</time>
      </trkpt>
      <trkpt lat="42.99343" lon="0.52112">
        <ele>1045.175</ele>
        <time>2020-02-08T13:23:46Z</time>
      </trkpt>
      <trkpt lat="42.99344" lon="0.52113">
        <ele>1044.81</ele>
        <time>2020-02-08T13:23:45Z</time>
      </trkpt>
      <trkpt lat="42.99345" lon="0.52114">
        <ele>1044.43</ele>
        <time>2020-02-08T13:23:44Z</time>
      </trkpt>
      <trkpt lat="42.99346" lon="0.52115">
        <ele>1044.012</ele>
        <time>2020-02-08T13:23:43Z</time>
      </trkpt>
      <trkpt lat="42.99347" lon="0.52116">
        <ele>1043.568</ele>
        <time>2020-02-08T13:23:42Z</time>
      </trkpt>
      <trkpt lat="42.99354" lon="0.5212">
        <ele>1043.111</ele>
        <time>2020-02-08T13:23:36Z</time>
      </trkpt>
      <trkpt lat="42.99368" lon="0.52118">
        <ele>1043.172</ele>
        <time>2020-02-08T13:23:27Z</time>
      </trkpt>
      <trkpt lat="42.99382" lon="0.52116">
        <ele>1043.109</ele>
        <time>2020-02-08T13:23:20Z</time>
      </trkpt>
      <trkpt lat="42.99384" lon="0.52115">
        <ele>1042.819</ele>
        <time>2020-02-08T13:23:19Z</time>
      </trkpt>
      <trkpt lat="42.99385" lon="0.52115">
        <ele>1042.109</ele>
        <time>2020-02-08T13:23:18Z</time>
      </trkpt>
      <trkpt lat="42.99387" lon="0.52115">
        <ele>1041.819</ele>
        <time>2020-02-08T13:23:17Z</time>
      </trkpt>
      <trkpt lat="42.99388" lon="0.52115">
        <ele>1041.49</ele>
        <time>2020-02-08T13:23:16Z</time>
      </trkpt>
      <trkpt lat="42.99392" lon="0.52113">
        <ele>1041.087</ele>
        <time>2020-02-08T13:23:14Z</time>
      </trkpt>
      <trkpt lat="42.994" lon="0.52102">
        <ele>1041.029</ele>
        <time>2020-02-08T13:23:07Z</time>
      </trkpt>
      <trkpt lat="42.99404" lon="0.52091">
        <ele>1041.014</ele>
        <time>2020-02-08T13:23:01Z</time>
      </trkpt>
      <trkpt lat="42.99404" lon="0.5209">
        <ele>1040.514</ele>
        <time>2020-02-08T13:23:00Z</time>
      </trkpt>
      <trkpt lat="42.99405" lon="0.52088">
        <ele>1040.156</ele>
        <time>2020-02-08T13:22:59Z</time>
      </trkpt>
      <trkpt lat="42.99405" lon="0.52087">
        <ele>1039.822</ele>
        <time>2020-02-08T13:22:58Z</time>
      </trkpt>
      <trkpt lat="42.99405" lon="0.52085">
        <ele>1039.425</ele>
        <time>2020-02-08T13:22:57Z</time>
      </trkpt>
      <trkpt lat="42.99402" lon="0.52067">
        <ele>1038.846</ele>
        <time>2020-02-08T13:22:49Z</time>
      </trkpt>
      <trkpt lat="42.99402" lon="0.52065">
        <ele>1038.409</ele>
        <time>2020-02-08T13:22:48Z</time>
      </trkpt>
      <trkpt lat="42.99402" lon="0.52063">
        <ele>1038.011</ele>
        <time>2020-02-08T13:22:47Z</time>
      </trkpt>
      <trkpt lat="42.99402" lon="0.52061">
        <ele>1037.456</ele>
        <time>2020-02-08T13:22:46Z</time>
      </trkpt>
      <trkpt lat="42.99402" lon="0.52059">
        <ele>1037.054</ele>
        <time>2020-02-08T13:22:45Z</time>
      </trkpt>
      <trkpt lat="42.99401" lon="0.52049">
        <ele>1036.443</ele>
        <time>2020-02-08T13:22:40Z</time>
      </trkpt>
      <trkpt lat="42.99401" lon="0.52047">
        <ele>1036.44</ele>
        <time>2020-02-08T13:22:39Z</time>
      </trkpt>
      <trkpt lat="42.99402" lon="0.52045">
        <ele>1036.072</ele>
        <time>2020-02-08T13:22:38Z</time>
      </trkpt>
      <trkpt lat="42.99402" lon="0.52044">
        <ele>1035.517</ele>
        <time>2020-02-08T13:22:37Z</time>
      </trkpt>
      <trkpt lat="42.99402" lon="0.52042">
        <ele>1035.187</ele>
        <time>2020-02-08T13:22:36Z</time>
      </trkpt>
      <trkpt lat="42.99402" lon="0.52041">
        <ele>1034.829</ele>
        <time>2020-02-08T13:22:35Z</time>
      </trkpt>
      <trkpt lat="42.99402" lon="0.52035">
        <ele>1034.445</ele>
        <time>2020-02-08T13:22:31Z</time>
      </trkpt>
      <trkpt lat="42.99402" lon="0.52031">
        <ele>1034.478</ele>
        <time>2020-02-08T13:22:28Z</time>
      </trkpt>
      <trkpt lat="42.99403" lon="0.5203">
        <ele>1034.039</ele>
        <time>2020-02-08T13:22:27Z</time>
      </trkpt>
      <trkpt lat="42.99403" lon="0.52028">
        <ele>1033.509</ele>
        <time>2020-02-08T13:22:26Z</time>
      </trkpt>
      <trkpt lat="42.99403" lon="0.52026">
        <ele>1033.117</ele>
        <time>2020-02-08T13:22:25Z</time>
      </trkpt>
      <trkpt lat="42.99403" lon="0.52025">
        <ele>1032.889</ele>
        <time>2020-02-08T13:22:24Z</time>
      </trkpt>
      <trkpt lat="42.99404" lon="0.52023">
        <ele>1032.485</ele>
        <time>2020-02-08T13:22:23Z</time>
      </trkpt>
      <trkpt lat="42.99405" lon="0.52012">
        <ele>1032.441</ele>
        <time>2020-02-08T13:22:17Z</time>
      </trkpt>
      <trkpt lat="42.99406" lon="0.52011">
        <ele>1032.098</ele>
        <time>2020-02-08T13:22:16Z</time>
      </trkpt>
      <trkpt lat="42.99405" lon="0.52009">
        <ele>1031.49</ele>
        <time>2020-02-08T13:22:15Z</time>
      </trkpt>
      <trkpt lat="42.99405" lon="0.52007">
        <ele>1031.025</ele>
        <time>2020-02-08T13:22:14Z</time>
      </trkpt>
      <trkpt lat="42.99404" lon="0.52005">
        <ele>1030.515</ele>
        <time>2020-02-08T13:22:13Z</time>
      </trkpt>
      <trkpt lat="42.99404" lon="0.51995">
        <ele>1030.147</ele>
        <time>2020-02-08T13:22:08Z</time>
      </trkpt>
      <trkpt lat="42.99403" lon="0.51988">
        <ele>1030.183</ele>
        <time>2020-02-08T13:22:04Z</time>
      </trkpt>
      <trkpt lat="42.99403" lon="0.51986">
        <ele>1029.896</ele>
        <time>2020-02-08T13:22:03Z</time>
      </trkpt>
      <trkpt lat="42.99403" lon="0.51984">
        <ele>1029.117</ele>
        <time>2020-02-08T13:22:02Z</time>
      </trkpt>
      <trkpt lat="42.99402" lon="0.51982">
        <ele>1028.809</ele>
        <time>2020-02-08T13:22:01Z</time>
      </trkpt>
      <trkpt lat="42.99401" lon="0.5198">
        <ele>1028.414</ele>
        <time>2020-02-08T13:22:00Z</time>
      </trkpt>
      <trkpt lat="42.994" lon="0.51972">
        <ele>1028.068</ele>
        <time>2020-02-08T13:21:56Z</time>
      </trkpt>
      <trkpt lat="42.994" lon="0.51958">
        <ele>1028.065</ele>
        <time>2020-02-08T13:21:49Z</time>
      </trkpt>
      <trkpt lat="42.994" lon="0.51955">
        <ele>1027.481</ele>
        <time>2020-02-08T13:21:48Z</time>
      </trkpt>
      <trkpt lat="42.994" lon="0.51953">
        <ele>1027.068</ele>
        <time>2020-02-08T13:21:47Z</time>
      </trkpt>
      <trkpt lat="42.994" lon="0.51951">
        <ele>1026.52</ele>
        <time>2020-02-08T13:21:46Z</time>
      </trkpt>
      <trkpt lat="42.994" lon="0.51949">
        <ele>1026.055</ele>
        <time>2020-02-08T13:21:45Z</time>
      </trkpt>
      <trkpt lat="42.99403" lon="0.51936">
        <ele>1025.555</ele>
        <time>2020-02-08T13:21:39Z</time>
      </trkpt>
      <trkpt lat="42.99403" lon="0.51934">
        <ele>1025.157</ele>
        <time>2020-02-08T13:21:38Z</time>
      </trkpt>
      <trkpt lat="42.99403" lon="0.51933">
        <ele>1024.843</ele>
        <time>2020-02-08T13:21:37Z</time>
      </trkpt>
      <trkpt lat="42.99403" lon="0.51931">
        <ele>1024.446</ele>
        <time>2020-02-08T13:21:36Z</time>
      </trkpt>
      <trkpt lat="42.99403" lon="0.51929">
        <ele>1024.037</ele>
        <time>2020-02-08T13:21:35Z</time>
      </trkpt>
      <trkpt lat="42.99404" lon="0.51921">
        <ele>1023.509</ele>
        <time>2020-02-08T13:21:31Z</time>
      </trkpt>
      <trkpt lat="42.99404" lon="0.51913">
        <ele>1023.524</ele>
        <time>2020-02-08T13:21:27Z</time>
      </trkpt>
      <trkpt lat="42.99404" lon="0.51911">
        <ele>1023.204</ele>
        <time>2020-02-08T13:21:26Z</time>
      </trkpt>
      <trkpt lat="42.99404" lon="0.51909">
        <ele>1022.769</ele>
        <time>2020-02-08T13:21:25Z</time>
      </trkpt>
      <trkpt lat="42.99404" lon="0.51907">
        <ele>1022.494</ele>
        <time>2020-02-08T13:21:24Z</time>
      </trkpt>
      <trkpt lat="42.99404" lon="0.51905">
        <ele>1022.011</ele>
        <time>2020-02-08T13:21:23Z</time>
      </trkpt>
      <trkpt lat="42.99402" lon="0.51889">
        <ele>1021.543</ele>
        <time>2020-02-08T13:21:15Z</time>
      </trkpt>
      <trkpt lat="42.99402" lon="0.51887">
        <ele>1021.268</ele>
        <time>2020-02-08T13:21:14Z</time>
      </trkpt>
      <trkpt lat="42.99402" lon="0.51884">
        <ele>1020.528</ele>
        <time>2020-02-08T13:21:13Z</time>
      </trkpt>
      <trkpt lat="42.99402" lon="0.51882">
        <ele>1020.22</ele>
        <time>2020-02-08T13:21:12Z</time>
      </trkpt>
      <trkpt lat="42.99403" lon="0.5188">
        <ele>1019.786</ele>
        <time>2020-02-08T13:21:11Z</time>
      </trkpt>
      <trkpt lat="42.99405" lon="0.5187">
        <ele>1019.229</ele>
        <time>2020-02-08T13:21:06Z</time>
      </trkpt>
      <trkpt lat="42.99407" lon="0.51854">
        <ele>1019.22</ele>
        <time>2020-02-08T13:20:58Z</time>
      </trkpt>
      <trkpt lat="42.99407" lon="0.51852">
        <ele>1018.709</ele>
        <time>2020-02-08T13:20:57Z</time>
      </trkpt>
      <trkpt lat="42.99407" lon="0.5185">
        <ele>1018.423</ele>
        <time>2020-02-08T13:20:56Z</time>
      </trkpt>
      <trkpt lat="42.99407" lon="0.51848">
        <ele>1018.049</ele>
        <time>2020-02-08T13:20:55Z</time>
      </trkpt>
      <trkpt lat="42.99407" lon="0.51846">
        <ele>1017.595</ele>
        <time>2020-02-08T13:20:54Z</time>
      </trkpt>
      <trkpt lat="42.99406" lon="0.51833">
        <ele>1017.292</ele>
        <time>2020-02-08T13:20:49Z</time>
      </trkpt>
      <trkpt lat="42.99405" lon="0.5182">
        <ele>1017.229</ele>
        <time>2020-02-08T13:20:44Z</time>
      </trkpt>
      <trkpt lat="42.99405" lon="0.51818">
        <ele>1016.591</ele>
        <time>2020-02-08T13:20:43Z</time>
      </trkpt>
      <trkpt lat="42.99405" lon="0.51816">
        <ele>1016.296</ele>
        <time>2020-02-08T13:20:42Z</time>
      </trkpt>
      <trkpt lat="42.99404" lon="0.51813">
        <ele>1015.596</ele>
        <time>2020-02-08T13:20:41Z</time>
      </trkpt>
      <trkpt lat="42.99404" lon="0.51811">
        <ele>1015.258</ele>
        <time>2020-02-08T13:20:40Z</time>
      </trkpt>
      <trkpt lat="42.99405" lon="0.51804">
        <ele>1014.524</ele>
        <time>2020-02-08T13:20:37Z</time>
      </trkpt>
      <trkpt lat="42.99405" lon="0.51791">
        <ele>1014.517</ele>
        <time>2020-02-08T13:20:31Z</time>
      </trkpt>
      <trkpt lat="42.99405" lon="0.51789">
        <ele>1014.298</ele>
        <time>2020-02-08T13:20:30Z</time>
      </trkpt>
      <trkpt lat="42.99405" lon="0.51787">
        <ele>1013.709</ele>
        <time>2020-02-08T13:20:29Z</time>
      </trkpt>
      <trkpt lat="42.99404" lon="0.51786">
        <ele>1013.419</ele>
        <time>2020-02-08T13:20:28Z</time>
      </trkpt>
      <trkpt lat="42.99405" lon="0.51784">
        <ele>1013.09</ele>
        <time>2020-02-08T13:20:27Z</time>
      </trkpt>
      <trkpt lat="42.99406" lon="0.51771">
        <ele>1012.576</ele>
        <time>2020-02-08T13:20:21Z</time>
      </trkpt>
      <trkpt lat="42.99405" lon="0.51744">
        <ele>1010.289</ele>
        <time>2020-02-08T13:20:08Z</time>
      </trkpt>
      <trkpt lat="42.99405" lon="0.51743">
        <ele>1009.776</ele>
        <time>2020-02-08T13:20:07Z</time>
      </trkpt>
      <trkpt lat="42.99405" lon="0.51741">
        <ele>1009.428</ele>
        <time>2020-02-08T13:20:06Z</time>
      </trkpt>
      <trkpt lat="42.99406" lon="0.5174">
        <ele>1008.743</ele>
        <time>2020-02-08T13:20:05Z</time>
      </trkpt>
      <trkpt lat="42.99406" lon="0.51739">
        <ele>1008.493</ele>
        <time>2020-02-08T13:20:04Z</time>
      </trkpt>
      <trkpt lat="42.99408" lon="0.51723">
        <ele>1008.095</ele>
        <time>2020-02-08T13:19:56Z</time>
      </trkpt>
      <trkpt lat="42.99407" lon="0.51719">
        <ele>1008.051</ele>
        <time>2020-02-08T13:19:54Z</time>
      </trkpt>
      <trkpt lat="42.99407" lon="0.51717">
        <ele>1007.584</ele>
        <time>2020-02-08T13:19:53Z</time>
      </trkpt>
      <trkpt lat="42.99407" lon="0.51715">
        <ele>1007.215</ele>
        <time>2020-02-08T13:19:52Z</time>
      </trkpt>
      <trkpt lat="42.99407" lon="0.51713">
        <ele>1006.709</ele>
        <time>2020-02-08T13:19:51Z</time>
      </trkpt>
      <trkpt lat="42.99407" lon="0.51711">
        <ele>1006.416</ele>
        <time>2020-02-08T13:19:50Z</time>
      </trkpt>
      <trkpt lat="42.99407" lon="0.51709">
        <ele>1006.088</ele>
        <time>2020-02-08T13:19:49Z</time>
      </trkpt>
      <trkpt lat="42.99408" lon="0.51695">
        <ele>1006.046</ele>
        <time>2020-02-08T13:19:42Z</time>
      </trkpt>
      <trkpt lat="42.99408" lon="0.51692">
        <ele>1005.561</ele>
        <time>2020-02-08T13:19:41Z</time>
      </trkpt>
      <trkpt lat="42.99408" lon="0.5169">
        <ele>1005.238</ele>
        <time>2020-02-08T13:19:40Z</time>
      </trkpt>
      <trkpt lat="42.99408" lon="0.51688">
        <ele>1004.78</ele>
        <time>2020-02-08T13:19:39Z</time>
      </trkpt>
      <trkpt lat="42.99408" lon="0.51685">
        <ele>1004.455</ele>
        <time>2020-02-08T13:19:38Z</time>
      </trkpt>
      <trkpt lat="42.9941" lon="0.5167">
        <ele>1003.715</ele>
        <time>2020-02-08T13:19:31Z</time>
      </trkpt>
      <trkpt lat="42.99412" lon="0.51657">
        <ele>1003.737</ele>
        <time>2020-02-08T13:19:25Z</time>
      </trkpt>
      <trkpt lat="42.99412" lon="0.51654">
        <ele>1003.463</ele>
        <time>2020-02-08T13:19:24Z</time>
      </trkpt>
      <trkpt lat="42.99413" lon="0.51652">
        <ele>1003.036</ele>
        <time>2020-02-08T13:19:23Z</time>
      </trkpt>
      <trkpt lat="42.99413" lon="0.5165">
        <ele>1002.467</ele>
        <time>2020-02-08T13:19:22Z</time>
      </trkpt>
      <trkpt lat="42.99413" lon="0.51648">
        <ele>1002.009</ele>
        <time>2020-02-08T13:19:21Z</time>
      </trkpt>
      <trkpt lat="42.99415" lon="0.51639">
        <ele>1001.414</ele>
        <time>2020-02-08T13:19:17Z</time>
      </trkpt>
      <trkpt lat="42.99415" lon="0.51632">
        <ele>1001.468</ele>
        <time>2020-02-08T13:19:13Z</time>
      </trkpt>
      <trkpt lat="42.99416" lon="0.5163">
        <ele>1001.065</ele>
        <time>2020-02-08T13:19:12Z</time>
      </trkpt>
      <trkpt lat="42.99416" lon="0.51628">
        <ele>1000.533</ele>
        <time>2020-02-08T13:19:11Z</time>
      </trkpt>
      <trkpt lat="42.99417" lon="0.51626">
        <ele>1000.28</ele>
        <time>2020-02-08T13:19:10Z</time>
      </trkpt>
      <trkpt lat="42.99417" lon="0.51624">
        <ele>999.722</ele>
        <time>2020-02-08T13:19:09Z</time>
      </trkpt>
      <trkpt lat="42.99417" lon="0.51622">
        <ele>999.417</ele>
        <time>2020-02-08T13:19:08Z</time>
      </trkpt>
      <trkpt lat="42.99422" lon="0.51608">
        <ele>999.427</ele>
        <time>2020-02-08T13:19:00Z</time>
      </trkpt>
      <trkpt lat="42.99422" lon="0.51606">
        <ele>999.039</ele>
        <time>2020-02-08T13:18:59Z</time>
      </trkpt>
      <trkpt lat="42.99423" lon="0.51603">
        <ele>998.595</ele>
        <time>2020-02-08T13:18:58Z</time>
      </trkpt>
      <trkpt lat="42.99423" lon="0.51601">
        <ele>998.068</ele>
        <time>2020-02-08T13:18:57Z</time>
      </trkpt>
      <trkpt lat="42.99423" lon="0.51599">
        <ele>997.579</ele>
        <time>2020-02-08T13:18:56Z</time>
      </trkpt>
      <trkpt lat="42.99426" lon="0.51582">
        <ele>997.009</ele>
        <time>2020-02-08T13:18:48Z</time>
      </trkpt>
      <trkpt lat="42.99426" lon="0.5158">
        <ele>997.017</ele>
        <time>2020-02-08T13:18:47Z</time>
      </trkpt>
      <trkpt lat="42.99426" lon="0.51578">
        <ele>996.589</ele>
        <time>2020-02-08T13:18:46Z</time>
      </trkpt>
      <trkpt lat="42.99426" lon="0.51576">
        <ele>996.285</ele>
        <time>2020-02-08T13:18:45Z</time>
      </trkpt>
      <trkpt lat="42.99427" lon="0.51574">
        <ele>995.746</ele>
        <time>2020-02-08T13:18:44Z</time>
      </trkpt>
      <trkpt lat="42.99427" lon="0.51572">
        <ele>995.443</ele>
        <time>2020-02-08T13:18:43Z</time>
      </trkpt>
      <trkpt lat="42.99427" lon="0.51565">
        <ele>995.085</ele>
        <time>2020-02-08T13:18:40Z</time>
      </trkpt>
      <trkpt lat="42.99427" lon="0.51557">
        <ele>995.04</ele>
        <time>2020-02-08T13:18:36Z</time>
      </trkpt>
      <trkpt lat="42.99427" lon="0.51554">
        <ele>994.49</ele>
        <time>2020-02-08T13:18:35Z</time>
      </trkpt>
      <trkpt lat="42.99427" lon="0.51553">
        <ele>994.072</ele>
        <time>2020-02-08T13:18:34Z</time>
      </trkpt>
      <trkpt lat="42.99427" lon="0.51551">
        <ele>993.538</ele>
        <time>2020-02-08T13:18:33Z</time>
      </trkpt>
      <trkpt lat="42.99426" lon="0.51549">
        <ele>993.091</ele>
        <time>2020-02-08T13:18:32Z</time>
      </trkpt>
      <trkpt lat="42.99426" lon="0.51543">
        <ele>992.542</ele>
        <time>2020-02-08T13:18:29Z</time>
      </trkpt>
      <trkpt lat="42.99424" lon="0.51531">
        <ele>992.509</ele>
        <time>2020-02-08T13:18:23Z</time>
      </trkpt>
      <trkpt lat="42.99424" lon="0.51529">
        <ele>992.213</ele>
        <time>2020-02-08T13:18:22Z</time>
      </trkpt>
      <trkpt lat="42.99423" lon="0.51527">
        <ele>991.776</ele>
        <time>2020-02-08T13:18:21Z</time>
      </trkpt>
      <trkpt lat="42.99422" lon="0.51525">
        <ele>991.416</ele>
        <time>2020-02-08T13:18:20Z</time>
      </trkpt>
      <trkpt lat="42.99421" lon="0.51523">
        <ele>991.04</ele>
        <time>2020-02-08T13:18:19Z</time>
      </trkpt>
      <trkpt lat="42.99417" lon="0.51503">
        <ele>990.567</ele>
        <time>2020-02-08T13:18:10Z</time>
      </trkpt>
      <trkpt lat="42.99417" lon="0.51501">
        <ele>990.289</ele>
        <time>2020-02-08T13:18:09Z</time>
      </trkpt>
      <trkpt lat="42.99417" lon="0.51499">
        <ele>989.534</ele>
        <time>2020-02-08T13:18:08Z</time>
      </trkpt>
      <trkpt lat="42.99416" lon="0.51497">
        <ele>989.214</ele>
        <time>2020-02-08T13:18:07Z</time>
      </trkpt>
      <trkpt lat="42.99416" lon="0.51496">
        <ele>988.786</ele>
        <time>2020-02-08T13:18:06Z</time>
      </trkpt>
      <trkpt lat="42.99414" lon="0.51485">
        <ele>988.442</ele>
        <time>2020-02-08T13:18:01Z</time>
      </trkpt>
      <trkpt lat="42.99414" lon="0.51483">
        <ele>988.095</ele>
        <time>2020-02-08T13:18:00Z</time>
      </trkpt>
      <trkpt lat="42.99413" lon="0.51481">
        <ele>987.546</ele>
        <time>2020-02-08T13:17:59Z</time>
      </trkpt>
      <trkpt lat="42.99412" lon="0.51479">
        <ele>987.209</ele>
        <time>2020-02-08T13:17:58Z</time>
      </trkpt>
      <trkpt lat="42.99411" lon="0.51477">
        <ele>986.708</ele>
        <time>2020-02-08T13:17:57Z</time>
      </trkpt>
      <trkpt lat="42.99408" lon="0.51465">
        <ele>986.253</ele>
        <time>2020-02-08T13:17:51Z</time>
      </trkpt>
      <trkpt lat="42.99405" lon="0.51453">
        <ele>986.252</ele>
        <time>2020-02-08T13:17:45Z</time>
      </trkpt>
      <trkpt lat="42.99404" lon="0.51451">
        <ele>985.75</ele>
        <time>2020-02-08T13:17:44Z</time>
      </trkpt>
      <trkpt lat="42.99404" lon="0.51448">
        <ele>985.487</ele>
        <time>2020-02-08T13:17:43Z</time>
      </trkpt>
      <trkpt lat="42.99403" lon="0.51445">
        <ele>985.079</ele>
        <time>2020-02-08T13:17:42Z</time>
      </trkpt>
      <trkpt lat="42.99403" lon="0.51442">
        <ele>984.574</ele>
        <time>2020-02-08T13:17:41Z</time>
      </trkpt>
      <trkpt lat="42.99397" lon="0.5143">
        <ele>984.264</ele>
        <time>2020-02-08T13:17:35Z</time>
      </trkpt>
      <trkpt lat="42.99396" lon="0.51429">
        <ele>984.236</ele>
        <time>2020-02-08T13:17:34Z</time>
      </trkpt>
      <trkpt lat="42.99395" lon="0.51427">
        <ele>983.752</ele>
        <time>2020-02-08T13:17:33Z</time>
      </trkpt>
      <trkpt lat="42.99394" lon="0.51426">
        <ele>983.435</ele>
        <time>2020-02-08T13:17:32Z</time>
      </trkpt>
      <trkpt lat="42.99393" lon="0.51424">
        <ele>983.076</ele>
        <time>2020-02-08T13:17:31Z</time>
      </trkpt>
      <trkpt lat="42.99392" lon="0.51422">
        <ele>982.509</ele>
        <time>2020-02-08T13:17:30Z</time>
      </trkpt>
      <trkpt lat="42.99387" lon="0.51414">
        <ele>982.211</ele>
        <time>2020-02-08T13:17:25Z</time>
      </trkpt>
      <trkpt lat="42.99384" lon="0.5141">
        <ele>982.256</ele>
        <time>2020-02-08T13:17:22Z</time>
      </trkpt>
      <trkpt lat="42.99382" lon="0.51408">
        <ele>981.754</ele>
        <time>2020-02-08T13:17:21Z</time>
      </trkpt>
      <trkpt lat="42.99381" lon="0.51407">
        <ele>981.461</ele>
        <time>2020-02-08T13:17:20Z</time>
      </trkpt>
      <trkpt lat="42.9938" lon="0.51406">
        <ele>981.038</ele>
        <time>2020-02-08T13:17:19Z</time>
      </trkpt>
      <trkpt lat="42.99378" lon="0.51405">
        <ele>980.47</ele>
        <time>2020-02-08T13:17:18Z</time>
      </trkpt>
      <trkpt lat="42.99377" lon="0.51404">
        <ele>980.035</ele>
        <time>2020-02-08T13:17:17Z</time>
      </trkpt>
      <trkpt lat="42.99367" lon="0.51401">
        <ele>980.045</ele>
        <time>2020-02-08T13:17:11Z</time>
      </trkpt>
      <trkpt lat="42.99365" lon="0.514">
        <ele>980.047</ele>
        <time>2020-02-08T13:17:10Z</time>
      </trkpt>
      <trkpt lat="42.99363" lon="0.51399">
        <ele>979.523</ele>
        <time>2020-02-08T13:17:09Z</time>
      </trkpt>
      <trkpt lat="42.99361" lon="0.51397">
        <ele>979.246</ele>
        <time>2020-02-08T13:17:08Z</time>
      </trkpt>
      <trkpt lat="42.99359" lon="0.51396">
        <ele>978.767</ele>
        <time>2020-02-08T13:17:07Z</time>
      </trkpt>
      <trkpt lat="42.99359" lon="0.51394">
        <ele>978.209</ele>
        <time>2020-02-08T13:17:06Z</time>
      </trkpt>
      <trkpt lat="42.99358" lon="0.51392">
        <ele>977.718</ele>
        <time>2020-02-08T13:17:05Z</time>
      </trkpt>
      <trkpt lat="42.9936" lon="0.51385">
        <ele>977.744</ele>
        <time>2020-02-08T13:17:02Z</time>
      </trkpt>
      <trkpt lat="42.99363" lon="0.51383">
        <ele>977.763</ele>
        <time>2020-02-08T13:17:00Z</time>
      </trkpt>
      <trkpt lat="42.99374" lon="0.51387">
        <ele>977.79</ele>
        <time>2020-02-08T13:16:54Z</time>
      </trkpt>
      <trkpt lat="42.99376" lon="0.51389">
        <ele>977.417</ele>
        <time>2020-02-08T13:16:53Z</time>
      </trkpt>
      <trkpt lat="42.99378" lon="0.5139">
        <ele>977.019</ele>
        <time>2020-02-08T13:16:52Z</time>
      </trkpt>
      <trkpt lat="42.9938" lon="0.51391">
        <ele>976.564</ele>
        <time>2020-02-08T13:16:51Z</time>
      </trkpt>
      <trkpt lat="42.99382" lon="0.51392">
        <ele>976.274</ele>
        <time>2020-02-08T13:16:50Z</time>
      </trkpt>
      <trkpt lat="42.99396" lon="0.514">
        <ele>975.796</ele>
        <time>2020-02-08T13:16:44Z</time>
      </trkpt>
      <trkpt lat="42.9942" lon="0.51411">
        <ele>975.792</ele>
        <time>2020-02-08T13:16:35Z</time>
      </trkpt>
      <trkpt lat="42.99432" lon="0.51419">
        <ele>975.725</ele>
        <time>2020-02-08T13:16:30Z</time>
      </trkpt>
      <trkpt lat="42.99452" lon="0.51414">
        <ele>975.766</ele>
        <time>2020-02-08T13:16:22Z</time>
      </trkpt>
      <trkpt lat="42.99463" lon="0.51405">
        <ele>975.709</ele>
        <time>2020-02-08T13:16:16Z</time>
      </trkpt>
      <trkpt lat="42.99484" lon="0.51396">
        <ele>975.714</ele>
        <time>2020-02-08T13:16:08Z</time>
      </trkpt>
      <trkpt lat="42.99493" lon="0.5139">
        <ele>975.704</ele>
        <time>2020-02-08T13:16:04Z</time>
      </trkpt>
      <trkpt lat="42.99496" lon="0.51388">
        <ele>975.453</ele>
        <time>2020-02-08T13:16:03Z</time>
      </trkpt>
      <trkpt lat="42.99499" lon="0.51387">
        <ele>975.01</ele>
        <time>2020-02-08T13:16:02Z</time>
      </trkpt>
      <trkpt lat="42.99501" lon="0.51385">
        <ele>974.477</ele>
        <time>2020-02-08T13:16:01Z</time>
      </trkpt>
      <trkpt lat="42.99505" lon="0.51384">
        <ele>974.049</ele>
        <time>2020-02-08T13:16:00Z</time>
      </trkpt>
      <trkpt lat="42.9952" lon="0.51377">
        <ele>973.554</ele>
        <time>2020-02-08T13:15:54Z</time>
      </trkpt>
      <trkpt lat="42.99537" lon="0.51374">
        <ele>973.564</ele>
        <time>2020-02-08T13:15:48Z</time>
      </trkpt>
      <trkpt lat="42.99548" lon="0.51381">
        <ele>973.526</ele>
        <time>2020-02-08T13:15:43Z</time>
      </trkpt>
      <trkpt lat="42.9955" lon="0.51383">
        <ele>973.282</ele>
        <time>2020-02-08T13:15:42Z</time>
      </trkpt>
      <trkpt lat="42.99552" lon="0.51386">
        <ele>972.775</ele>
        <time>2020-02-08T13:15:41Z</time>
      </trkpt>
      <trkpt lat="42.99555" lon="0.51387">
        <ele>972.436</ele>
        <time>2020-02-08T13:15:40Z</time>
      </trkpt>
      <trkpt lat="42.99557" lon="0.51389">
        <ele>972.009</ele>
        <time>2020-02-08T13:15:39Z</time>
      </trkpt>
      <trkpt lat="42.9957" lon="0.51395">
        <ele>971.514</ele>
        <time>2020-02-08T13:15:34Z</time>
      </trkpt>
      <trkpt lat="42.99583" lon="0.51408">
        <ele>971.559</ele>
        <time>2020-02-08T13:15:29Z</time>
      </trkpt>
      <trkpt lat="42.99585" lon="0.51411">
        <ele>971.256</ele>
        <time>2020-02-08T13:15:28Z</time>
      </trkpt>
      <trkpt lat="42.99588" lon="0.51414">
        <ele>970.749</ele>
        <time>2020-02-08T13:15:27Z</time>
      </trkpt>
      <trkpt lat="42.99591" lon="0.51417">
        <ele>970.436</ele>
        <time>2020-02-08T13:15:26Z</time>
      </trkpt>
      <trkpt lat="42.99593" lon="0.51421">
        <ele>969.768</ele>
        <time>2020-02-08T13:15:25Z</time>
      </trkpt>
      <trkpt lat="42.99609" lon="0.51443">
        <ele>969.453</ele>
        <time>2020-02-08T13:15:18Z</time>
      </trkpt>
      <trkpt lat="42.99628" lon="0.51474">
        <ele>969.413</ele>
        <time>2020-02-08T13:15:08Z</time>
      </trkpt>
      <trkpt lat="42.99631" lon="0.51481">
        <ele>969.465</ele>
        <time>2020-02-08T13:15:06Z</time>
      </trkpt>
      <trkpt lat="42.99633" lon="0.51485">
        <ele>969.031</ele>
        <time>2020-02-08T13:15:05Z</time>
      </trkpt>
      <trkpt lat="42.99635" lon="0.51488">
        <ele>968.534</ele>
        <time>2020-02-08T13:15:04Z</time>
      </trkpt>
      <trkpt lat="42.99637" lon="0.51491">
        <ele>968.235</ele>
        <time>2020-02-08T13:15:03Z</time>
      </trkpt>
      <trkpt lat="42.99639" lon="0.51494">
        <ele>967.709</ele>
        <time>2020-02-08T13:15:02Z</time>
      </trkpt>
      <trkpt lat="42.99649" lon="0.51507">
        <ele>967.415</ele>
        <time>2020-02-08T13:14:57Z</time>
      </trkpt>
      <trkpt lat="42.99653" lon="0.51512">
        <ele>967.405</ele>
        <time>2020-02-08T13:14:55Z</time>
      </trkpt>
      <trkpt lat="42.99655" lon="0.51514">
        <ele>967.044</ele>
        <time>2020-02-08T13:14:54Z</time>
      </trkpt>
      <trkpt lat="42.99657" lon="0.51516">
        <ele>966.59</ele>
        <time>2020-02-08T13:14:53Z</time>
      </trkpt>
      <trkpt lat="42.99659" lon="0.51519">
        <ele>966.027</ele>
        <time>2020-02-08T13:14:52Z</time>
      </trkpt>
      <trkpt lat="42.99661" lon="0.51521">
        <ele>965.579</ele>
        <time>2020-02-08T13:14:51Z</time>
      </trkpt>
      <trkpt lat="42.99663" lon="0.51524">
        <ele>965.284</ele>
        <time>2020-02-08T13:14:50Z</time>
      </trkpt>
      <trkpt lat="42.99676" lon="0.51546">
        <ele>965.244</ele>
        <time>2020-02-08T13:14:42Z</time>
      </trkpt>
      <trkpt lat="42.99687" lon="0.51572">
        <ele>965.236</ele>
        <time>2020-02-08T13:14:35Z</time>
      </trkpt>
      <trkpt lat="42.9969" lon="0.51582">
        <ele>965.252</ele>
        <time>2020-02-08T13:14:33Z</time>
      </trkpt>
      <trkpt lat="42.99692" lon="0.51586">
        <ele>964.745</ele>
        <time>2020-02-08T13:14:32Z</time>
      </trkpt>
      <trkpt lat="42.99693" lon="0.51589">
        <ele>964.426</ele>
        <time>2020-02-08T13:14:31Z</time>
      </trkpt>
      <trkpt lat="42.99695" lon="0.51593">
        <ele>964.009</ele>
        <time>2020-02-08T13:14:30Z</time>
      </trkpt>
      <trkpt lat="42.99696" lon="0.51596">
        <ele>963.511</ele>
        <time>2020-02-08T13:14:29Z</time>
      </trkpt>
      <trkpt lat="42.99699" lon="0.51604">
        <ele>963.201</ele>
        <time>2020-02-08T13:14:27Z</time>
      </trkpt>
      <trkpt lat="42.99706" lon="0.51625">
        <ele>963.251</ele>
        <time>2020-02-08T13:14:21Z</time>
      </trkpt>
      <trkpt lat="42.99709" lon="0.51633">
        <ele>963.23</ele>
        <time>2020-02-08T13:14:18Z</time>
      </trkpt>
      <trkpt lat="42.9971" lon="0.51635">
        <ele>962.727</ele>
        <time>2020-02-08T13:14:17Z</time>
      </trkpt>
      <trkpt lat="42.99711" lon="0.51638">
        <ele>962.429</ele>
        <time>2020-02-08T13:14:16Z</time>
      </trkpt>
      <trkpt lat="42.99712" lon="0.51641">
        <ele>962.024</ele>
        <time>2020-02-08T13:14:15Z</time>
      </trkpt>
      <trkpt lat="42.99713" lon="0.51643">
        <ele>961.544</ele>
        <time>2020-02-08T13:14:14Z</time>
      </trkpt>
      <trkpt lat="42.99718" lon="0.51666">
        <ele>961.056</ele>
        <time>2020-02-08T13:14:07Z</time>
      </trkpt>
      <trkpt lat="42.99718" lon="0.5167">
        <ele>961.092</ele>
        <time>2020-02-08T13:14:06Z</time>
      </trkpt>
      <trkpt lat="42.99719" lon="0.51674">
        <ele>960.585</ele>
        <time>2020-02-08T13:14:05Z</time>
      </trkpt>
      <trkpt lat="42.9972" lon="0.51679">
        <ele>960.296</ele>
        <time>2020-02-08T13:14:04Z</time>
      </trkpt>
      <trkpt lat="42.99722" lon="0.51685">
        <ele>959.709</ele>
        <time>2020-02-08T13:14:03Z</time>
      </trkpt>
      <trkpt lat="42.99723" lon="0.51689">
        <ele>959.42</ele>
        <time>2020-02-08T13:14:02Z</time>
      </trkpt>
      <trkpt lat="42.99732" lon="0.51721">
        <ele>958.7</ele>
        <time>2020-02-08T13:13:54Z</time>
      </trkpt>
      <trkpt lat="42.99743" lon="0.51745">
        <ele>958.757</ele>
        <time>2020-02-08T13:13:48Z</time>
      </trkpt>
      <trkpt lat="42.99745" lon="0.51749">
        <ele>958.436</ele>
        <time>2020-02-08T13:13:47Z</time>
      </trkpt>
      <trkpt lat="42.99746" lon="0.51752">
        <ele>958.033</ele>
        <time>2020-02-08T13:13:46Z</time>
      </trkpt>
      <trkpt lat="42.99748" lon="0.51756">
        <ele>957.565</ele>
        <time>2020-02-08T13:13:45Z</time>
      </trkpt>
      <trkpt lat="42.9975" lon="0.51759">
        <ele>957.29</ele>
        <time>2020-02-08T13:13:44Z</time>
      </trkpt>
      <trkpt lat="42.99757" lon="0.51772">
        <ele>956.57</ele>
        <time>2020-02-08T13:13:40Z</time>
      </trkpt>
      <trkpt lat="42.99765" lon="0.51798">
        <ele>956.512</ele>
        <time>2020-02-08T13:13:34Z</time>
      </trkpt>
      <trkpt lat="42.99771" lon="0.51827">
        <ele>956.598</ele>
        <time>2020-02-08T13:13:29Z</time>
      </trkpt>
      <trkpt lat="42.99772" lon="0.51834">
        <ele>957.041</ele>
        <time>2020-02-08T13:13:28Z</time>
      </trkpt>
      <trkpt lat="42.99773" lon="0.51841">
        <ele>957.512</ele>
        <time>2020-02-08T13:13:27Z</time>
      </trkpt>
      <trkpt lat="42.99774" lon="0.51849">
        <ele>958.009</ele>
        <time>2020-02-08T13:13:26Z</time>
      </trkpt>
      <trkpt lat="42.99775" lon="0.51858">
        <ele>958.413</ele>
        <time>2020-02-08T13:13:25Z</time>
      </trkpt>
      <trkpt lat="42.99776" lon="0.51866">
        <ele>958.776</ele>
        <time>2020-02-08T13:13:24Z</time>
      </trkpt>
      <trkpt lat="42.99778" lon="0.51873">
        <ele>958.716</ele>
        <time>2020-02-08T13:13:23Z</time>
      </trkpt>
      <trkpt lat="42.9978" lon="0.5188">
        <ele>959.248</ele>
        <time>2020-02-08T13:13:22Z</time>
      </trkpt>
      <trkpt lat="42.99782" lon="0.51886">
        <ele>959.725</ele>
        <time>2020-02-08T13:13:21Z</time>
      </trkpt>
      <trkpt lat="42.99784" lon="0.51893">
        <ele>960.297</ele>
        <time>2020-02-08T13:13:20Z</time>
      </trkpt>
      <trkpt lat="42.99787" lon="0.51899">
        <ele>960.572</ele>
        <time>2020-02-08T13:13:19Z</time>
      </trkpt>
      <trkpt lat="42.99794" lon="0.51923">
        <ele>961.252</ele>
        <time>2020-02-08T13:13:15Z</time>
      </trkpt>
      <trkpt lat="42.99796" lon="0.51929">
        <ele>961.224</ele>
        <time>2020-02-08T13:13:14Z</time>
      </trkpt>
      <trkpt lat="42.99798" lon="0.51935">
        <ele>961.56</ele>
        <time>2020-02-08T13:13:13Z</time>
      </trkpt>
      <trkpt lat="42.99801" lon="0.51941">
        <ele>962.013</ele>
        <time>2020-02-08T13:13:12Z</time>
      </trkpt>
      <trkpt lat="42.99803" lon="0.51947">
        <ele>962.444</ele>
        <time>2020-02-08T13:13:11Z</time>
      </trkpt>
      <trkpt lat="42.99805" lon="0.51953">
        <ele>962.709</ele>
        <time>2020-02-08T13:13:10Z</time>
      </trkpt>
      <trkpt lat="42.99809" lon="0.5197">
        <ele>963.21</ele>
        <time>2020-02-08T13:13:07Z</time>
      </trkpt>
      <trkpt lat="42.99815" lon="0.52005">
        <ele>963.255</ele>
        <time>2020-02-08T13:13:00Z</time>
      </trkpt>
      <trkpt lat="42.99818" lon="0.52029">
        <ele>963.234</ele>
        <time>2020-02-08T13:12:53Z</time>
      </trkpt>
      <trkpt lat="42.99821" lon="0.52039">
        <ele>963.232</ele>
        <time>2020-02-08T13:12:49Z</time>
      </trkpt>
      <trkpt lat="42.99822" lon="0.52042">
        <ele>962.739</ele>
        <time>2020-02-08T13:12:48Z</time>
      </trkpt>
      <trkpt lat="42.99824" lon="0.52046">
        <ele>962.061</ele>
        <time>2020-02-08T13:12:46Z</time>
      </trkpt>
      <trkpt lat="42.99834" lon="0.52064">
        <ele>961.286</ele>
        <time>2020-02-08T13:12:38Z</time>
      </trkpt>
      <trkpt lat="42.99835" lon="0.52066">
        <ele>960.726</ele>
        <time>2020-02-08T13:12:37Z</time>
      </trkpt>
      <trkpt lat="42.99836" lon="0.52068">
        <ele>960.488</ele>
        <time>2020-02-08T13:12:36Z</time>
      </trkpt>
      <trkpt lat="42.99837" lon="0.5207">
        <ele>959.794</ele>
        <time>2020-02-08T13:12:35Z</time>
      </trkpt>
      <trkpt lat="42.99837" lon="0.52072">
        <ele>959.447</ele>
        <time>2020-02-08T13:12:34Z</time>
      </trkpt>
      <trkpt lat="42.99841" lon="0.5208">
        <ele>959.098</ele>
        <time>2020-02-08T13:12:30Z</time>
      </trkpt>
      <trkpt lat="42.99847" lon="0.52095">
        <ele>959.009</ele>
        <time>2020-02-08T13:12:23Z</time>
      </trkpt>
      <trkpt lat="42.99849" lon="0.52099">
        <ele>959.013</ele>
        <time>2020-02-08T13:12:21Z</time>
      </trkpt>
      <trkpt lat="42.9985" lon="0.52101">
        <ele>958.585</ele>
        <time>2020-02-08T13:12:20Z</time>
      </trkpt>
      <trkpt lat="42.9985" lon="0.52104">
        <ele>958.273</ele>
        <time>2020-02-08T13:12:19Z</time>
      </trkpt>
      <trkpt lat="42.99851" lon="0.52107">
        <ele>957.744</ele>
        <time>2020-02-08T13:12:18Z</time>
      </trkpt>
      <trkpt lat="42.99852" lon="0.52109">
        <ele>957.231</ele>
        <time>2020-02-08T13:12:17Z</time>
      </trkpt>
      <trkpt lat="42.99853" lon="0.52113">
        <ele>956.763</ele>
        <time>2020-02-08T13:12:15Z</time>
      </trkpt>
      <trkpt lat="42.99857" lon="0.52131">
        <ele>956.798</ele>
        <time>2020-02-08T13:12:07Z</time>
      </trkpt>
      <trkpt lat="42.99858" lon="0.52133">
        <ele>956.448</ele>
        <time>2020-02-08T13:12:06Z</time>
      </trkpt>
      <trkpt lat="42.99858" lon="0.52135">
        <ele>956.07</ele>
        <time>2020-02-08T13:12:05Z</time>
      </trkpt>
      <trkpt lat="42.99858" lon="0.52137">
        <ele>955.526</ele>
        <time>2020-02-08T13:12:04Z</time>
      </trkpt>
      <trkpt lat="42.99859" lon="0.52139">
        <ele>955.219</ele>
        <time>2020-02-08T13:12:03Z</time>
      </trkpt>
      <trkpt lat="42.99861" lon="0.52154">
        <ele>954.57</ele>
        <time>2020-02-08T13:11:57Z</time>
      </trkpt>
      <trkpt lat="42.99861" lon="0.52158">
        <ele>954.509</ele>
        <time>2020-02-08T13:11:55Z</time>
      </trkpt>
      <trkpt lat="42.99861" lon="0.52161">
        <ele>954.227</ele>
        <time>2020-02-08T13:11:54Z</time>
      </trkpt>
      <trkpt lat="42.99862" lon="0.52164">
        <ele>953.707</ele>
        <time>2020-02-08T13:11:53Z</time>
      </trkpt>
      <trkpt lat="42.99863" lon="0.52166">
        <ele>953.499</ele>
        <time>2020-02-08T13:11:52Z</time>
      </trkpt>
      <trkpt lat="42.99864" lon="0.52168">
        <ele>953.039</ele>
        <time>2020-02-08T13:11:51Z</time>
      </trkpt>
      <trkpt lat="42.99866" lon="0.52174">
        <ele>952.576</ele>
        <time>2020-02-08T13:11:48Z</time>
      </trkpt>
      <trkpt lat="42.99867" lon="0.52189">
        <ele>952.578</ele>
        <time>2020-02-08T13:11:42Z</time>
      </trkpt>
      <trkpt lat="42.99867" lon="0.52191">
        <ele>952.223</ele>
        <time>2020-02-08T13:11:41Z</time>
      </trkpt>
      <trkpt lat="42.99868" lon="0.52194">
        <ele>951.723</ele>
        <time>2020-02-08T13:11:40Z</time>
      </trkpt>
      <trkpt lat="42.99868" lon="0.52196">
        <ele>951.485</ele>
        <time>2020-02-08T13:11:39Z</time>
      </trkpt>
      <trkpt lat="42.99868" lon="0.52198">
        <ele>951.061</ele>
        <time>2020-02-08T13:11:38Z</time>
      </trkpt>
      <trkpt lat="42.99867" lon="0.52207">
        <ele>950.574</ele>
        <time>2020-02-08T13:11:34Z</time>
      </trkpt>
      <trkpt lat="42.99867" lon="0.5221">
        <ele>950.015</ele>
        <time>2020-02-08T13:11:33Z</time>
      </trkpt>
      <trkpt lat="42.99867" lon="0.52212">
        <ele>949.509</ele>
        <time>2020-02-08T13:11:32Z</time>
      </trkpt>
      <trkpt lat="42.99867" lon="0.52214">
        <ele>949.222</ele>
        <time>2020-02-08T13:11:31Z</time>
      </trkpt>
      <trkpt lat="42.99868" lon="0.52216">
        <ele>948.702</ele>
        <time>2020-02-08T13:11:30Z</time>
      </trkpt>
      <trkpt lat="42.99869" lon="0.52232">
        <ele>948.449</ele>
        <time>2020-02-08T13:11:23Z</time>
      </trkpt>
      <trkpt lat="42.9987" lon="0.52245">
        <ele>948.447</ele>
        <time>2020-02-08T13:11:18Z</time>
      </trkpt>
      <trkpt lat="42.9987" lon="0.52247">
        <ele>948.034</ele>
        <time>2020-02-08T13:11:17Z</time>
      </trkpt>
      <trkpt lat="42.99869" lon="0.5225">
        <ele>947.516</ele>
        <time>2020-02-08T13:11:16Z</time>
      </trkpt>
      <trkpt lat="42.9987" lon="0.52253">
        <ele>947.271</ele>
        <time>2020-02-08T13:11:15Z</time>
      </trkpt>
      <trkpt lat="42.9987" lon="0.52256">
        <ele>946.761</ele>
        <time>2020-02-08T13:11:14Z</time>
      </trkpt>
      <trkpt lat="42.9987" lon="0.52273">
        <ele>946.463</ele>
        <time>2020-02-08T13:11:08Z</time>
      </trkpt>
      <trkpt lat="42.9987" lon="0.52275">
        <ele>946.029</ele>
        <time>2020-02-08T13:11:07Z</time>
      </trkpt>
      <trkpt lat="42.9987" lon="0.52278">
        <ele>945.582</ele>
        <time>2020-02-08T13:11:06Z</time>
      </trkpt>
      <trkpt lat="42.9987" lon="0.52281">
        <ele>945.223</ele>
        <time>2020-02-08T13:11:05Z</time>
      </trkpt>
      <trkpt lat="42.9987" lon="0.52283">
        <ele>944.509</ele>
        <time>2020-02-08T13:11:04Z</time>
      </trkpt>
      <trkpt lat="42.99871" lon="0.52301">
        <ele>944.22</ele>
        <time>2020-02-08T13:10:57Z</time>
      </trkpt>
      <trkpt lat="42.99871" lon="0.52308">
        <ele>944.2</ele>
        <time>2020-02-08T13:10:54Z</time>
      </trkpt>
      <trkpt lat="42.9987" lon="0.52311">
        <ele>943.729</ele>
        <time>2020-02-08T13:10:53Z</time>
      </trkpt>
      <trkpt lat="42.9987" lon="0.52314">
        <ele>943.482</ele>
        <time>2020-02-08T13:10:52Z</time>
      </trkpt>
      <trkpt lat="42.9987" lon="0.52317">
        <ele>943.099</ele>
        <time>2020-02-08T13:10:51Z</time>
      </trkpt>
      <trkpt lat="42.9987" lon="0.52319">
        <ele>942.521</ele>
        <time>2020-02-08T13:10:50Z</time>
      </trkpt>
      <trkpt lat="42.9987" lon="0.52327">
        <ele>942.266</ele>
        <time>2020-02-08T13:10:47Z</time>
      </trkpt>
      <trkpt lat="42.99871" lon="0.52343">
        <ele>942.246</ele>
        <time>2020-02-08T13:10:41Z</time>
      </trkpt>
      <trkpt lat="42.99871" lon="0.52346">
        <ele>941.778</ele>
        <time>2020-02-08T13:10:40Z</time>
      </trkpt>
      <trkpt lat="42.99871" lon="0.52348">
        <ele>941.254</ele>
        <time>2020-02-08T13:10:39Z</time>
      </trkpt>
      <trkpt lat="42.99871" lon="0.52351">
        <ele>940.757</ele>
        <time>2020-02-08T13:10:38Z</time>
      </trkpt>
      <trkpt lat="42.9987" lon="0.52354">
        <ele>940.418</ele>
        <time>2020-02-08T13:10:37Z</time>
      </trkpt>
      <trkpt lat="42.99868" lon="0.52373">
        <ele>940.009</ele>
        <time>2020-02-08T13:10:29Z</time>
      </trkpt>
      <trkpt lat="42.99868" lon="0.52376">
        <ele>940.025</ele>
        <time>2020-02-08T13:10:28Z</time>
      </trkpt>
      <trkpt lat="42.99868" lon="0.52378">
        <ele>939.505</ele>
        <time>2020-02-08T13:10:27Z</time>
      </trkpt>
      <trkpt lat="42.99868" lon="0.5238">
        <ele>939.279</ele>
        <time>2020-02-08T13:10:26Z</time>
      </trkpt>
      <trkpt lat="42.99867" lon="0.52382">
        <ele>938.78</ele>
        <time>2020-02-08T13:10:25Z</time>
      </trkpt>
      <trkpt lat="42.99867" lon="0.52384">
        <ele>938.467</ele>
        <time>2020-02-08T13:10:24Z</time>
      </trkpt>
      <trkpt lat="42.99868" lon="0.52396">
        <ele>938.049</ele>
        <time>2020-02-08T13:10:19Z</time>
      </trkpt>
      <trkpt lat="42.99866" lon="0.52413">
        <ele>938.084</ele>
        <time>2020-02-08T13:10:12Z</time>
      </trkpt>
      <trkpt lat="42.99866" lon="0.52416">
        <ele>937.534</ele>
        <time>2020-02-08T13:10:11Z</time>
      </trkpt>
      <trkpt lat="42.99866" lon="0.52418">
        <ele>937.246</ele>
        <time>2020-02-08T13:10:10Z</time>
      </trkpt>
      <trkpt lat="42.99866" lon="0.52421">
        <ele>936.742</ele>
        <time>2020-02-08T13:10:09Z</time>
      </trkpt>
      <trkpt lat="42.99865" lon="0.52423">
        <ele>936.275</ele>
        <time>2020-02-08T13:10:08Z</time>
      </trkpt>
      <trkpt lat="42.99864" lon="0.52435">
        <ele>935.736</ele>
        <time>2020-02-08T13:10:03Z</time>
      </trkpt>
      <trkpt lat="42.99864" lon="0.52438">
        <ele>935.409</ele>
        <time>2020-02-08T13:10:02Z</time>
      </trkpt>
      <trkpt lat="42.99863" lon="0.5244">
        <ele>935.014</ele>
        <time>2020-02-08T13:10:01Z</time>
      </trkpt>
      <trkpt lat="42.99863" lon="0.52442">
        <ele>934.504</ele>
        <time>2020-02-08T13:10:00Z</time>
      </trkpt>
      <trkpt lat="42.99863" lon="0.52445">
        <ele>934.253</ele>
        <time>2020-02-08T13:09:59Z</time>
      </trkpt>
      <trkpt lat="42.99865" lon="0.52463">
        <ele>933.793</ele>
        <time>2020-02-08T13:09:53Z</time>
      </trkpt>
      <trkpt lat="42.99865" lon="0.52466">
        <ele>933.43</ele>
        <time>2020-02-08T13:09:52Z</time>
      </trkpt>
      <trkpt lat="42.99866" lon="0.52468">
        <ele>933.022</ele>
        <time>2020-02-08T13:09:51Z</time>
      </trkpt>
      <trkpt lat="42.99866" lon="0.52471">
        <ele>932.577</ele>
        <time>2020-02-08T13:09:50Z</time>
      </trkpt>
      <trkpt lat="42.99865" lon="0.52474">
        <ele>932.297</ele>
        <time>2020-02-08T13:09:49Z</time>
      </trkpt>
      <trkpt lat="42.99866" lon="0.52495">
        <ele>931.739</ele>
        <time>2020-02-08T13:09:42Z</time>
      </trkpt>
      <trkpt lat="42.99866" lon="0.52498">
        <ele>931.435</ele>
        <time>2020-02-08T13:09:41Z</time>
      </trkpt>
      <trkpt lat="42.99866" lon="0.52501">
        <ele>931.078</ele>
        <time>2020-02-08T13:09:40Z</time>
      </trkpt>
      <trkpt lat="42.99866" lon="0.52504">
        <ele>930.559</ele>
        <time>2020-02-08T13:09:39Z</time>
      </trkpt>
      <trkpt lat="42.99866" lon="0.52507">
        <ele>930.009</ele>
        <time>2020-02-08T13:09:38Z</time>
      </trkpt>
      <trkpt lat="42.99866" lon="0.52519">
        <ele>929.526</ele>
        <time>2020-02-08T13:09:34Z</time>
      </trkpt>
      <trkpt lat="42.99866" lon="0.52522">
        <ele>929.206</ele>
        <time>2020-02-08T13:09:33Z</time>
      </trkpt>
      <trkpt lat="42.99867" lon="0.52525">
        <ele>928.789</ele>
        <time>2020-02-08T13:09:32Z</time>
      </trkpt>
      <trkpt lat="42.99867" lon="0.52529">
        <ele>928.45</ele>
        <time>2020-02-08T13:09:31Z</time>
      </trkpt>
      <trkpt lat="42.99867" lon="0.52532">
        <ele>928.087</ele>
        <time>2020-02-08T13:09:30Z</time>
      </trkpt>
      <trkpt lat="42.99865" lon="0.52555">
        <ele>927.569</ele>
        <time>2020-02-08T13:09:23Z</time>
      </trkpt>
      <trkpt lat="42.99865" lon="0.52573">
        <ele>927.564</ele>
        <time>2020-02-08T13:09:17Z</time>
      </trkpt>
      <trkpt lat="42.99864" lon="0.52575">
        <ele>927.264</ele>
        <time>2020-02-08T13:09:16Z</time>
      </trkpt>
      <trkpt lat="42.99864" lon="0.52579">
        <ele>926.766</ele>
        <time>2020-02-08T13:09:15Z</time>
      </trkpt>
      <trkpt lat="42.99864" lon="0.52581">
        <ele>926.472</ele>
        <time>2020-02-08T13:09:14Z</time>
      </trkpt>
      <trkpt lat="42.99864" lon="0.52584">
        <ele>926.025</ele>
        <time>2020-02-08T13:09:13Z</time>
      </trkpt>
      <trkpt lat="42.99861" lon="0.52609">
        <ele>925.556</ele>
        <time>2020-02-08T13:09:05Z</time>
      </trkpt>
      <trkpt lat="42.99861" lon="0.52626">
        <ele>925.509</ele>
        <time>2020-02-08T13:09:00Z</time>
      </trkpt>
      <trkpt lat="42.9986" lon="0.5263">
        <ele>925.22</ele>
        <time>2020-02-08T13:08:59Z</time>
      </trkpt>
      <trkpt lat="42.9986" lon="0.52633">
        <ele>924.5</ele>
        <time>2020-02-08T13:08:58Z</time>
      </trkpt>
      <trkpt lat="42.9986" lon="0.52636">
        <ele>924.257</ele>
        <time>2020-02-08T13:08:57Z</time>
      </trkpt>
      <trkpt lat="42.9986" lon="0.52639">
        <ele>923.798</ele>
        <time>2020-02-08T13:08:56Z</time>
      </trkpt>
      <trkpt lat="42.99859" lon="0.52665">
        <ele>923.445</ele>
        <time>2020-02-08T13:08:48Z</time>
      </trkpt>
      <trkpt lat="42.99858" lon="0.52668">
        <ele>923.077</ele>
        <time>2020-02-08T13:08:47Z</time>
      </trkpt>
      <trkpt lat="42.99858" lon="0.52671">
        <ele>922.512</ele>
        <time>2020-02-08T13:08:46Z</time>
      </trkpt>
      <trkpt lat="42.99859" lon="0.52675">
        <ele>922.272</ele>
        <time>2020-02-08T13:08:45Z</time>
      </trkpt>
      <trkpt lat="42.99858" lon="0.52678">
        <ele>921.754</ele>
        <time>2020-02-08T13:08:44Z</time>
      </trkpt>
      <trkpt lat="42.99855" lon="0.52694">
        <ele>921.49</ele>
        <time>2020-02-08T13:08:39Z</time>
      </trkpt>
      <trkpt lat="42.99853" lon="0.52701">
        <ele>921.413</ele>
        <time>2020-02-08T13:08:37Z</time>
      </trkpt>
      <trkpt lat="42.99853" lon="0.52704">
        <ele>921.044</ele>
        <time>2020-02-08T13:08:36Z</time>
      </trkpt>
      <trkpt lat="42.99852" lon="0.52707">
        <ele>920.409</ele>
        <time>2020-02-08T13:08:35Z</time>
      </trkpt>
      <trkpt lat="42.99851" lon="0.5271">
        <ele>920.021</ele>
        <time>2020-02-08T13:08:34Z</time>
      </trkpt>
      <trkpt lat="42.9985" lon="0.52713">
        <ele>919.501</ele>
        <time>2020-02-08T13:08:33Z</time>
      </trkpt>
      <trkpt lat="42.99846" lon="0.52729">
        <ele>919.239</ele>
        <time>2020-02-08T13:08:28Z</time>
      </trkpt>
      <trkpt lat="42.99845" lon="0.52737">
        <ele>919.224</ele>
        <time>2020-02-08T13:08:26Z</time>
      </trkpt>
      <trkpt lat="42.99844" lon="0.52745">
        <ele>919.211</ele>
        <time>2020-02-08T13:08:24Z</time>
      </trkpt>
      <trkpt lat="42.99844" lon="0.52749">
        <ele>918.733</ele>
        <time>2020-02-08T13:08:23Z</time>
      </trkpt>
      <trkpt lat="42.99843" lon="0.52753">
        <ele>918.468</ele>
        <time>2020-02-08T13:08:22Z</time>
      </trkpt>
      <trkpt lat="42.99842" lon="0.52757">
        <ele>917.788</ele>
        <time>2020-02-08T13:08:21Z</time>
      </trkpt>
      <trkpt lat="42.99841" lon="0.52761">
        <ele>917.41</ele>
        <time>2020-02-08T13:08:20Z</time>
      </trkpt>
      <trkpt lat="42.99841" lon="0.52768">
        <ele>917.036</ele>
        <time>2020-02-08T13:08:18Z</time>
      </trkpt>
      <trkpt lat="42.99843" lon="0.52804">
        <ele>917.049</ele>
        <time>2020-02-08T13:08:08Z</time>
      </trkpt>
      <trkpt lat="42.99843" lon="0.52808">
        <ele>917.07</ele>
        <time>2020-02-08T13:08:07Z</time>
      </trkpt>
      <trkpt lat="42.99843" lon="0.52812">
        <ele>916.509</ele>
        <time>2020-02-08T13:08:06Z</time>
      </trkpt>
      <trkpt lat="42.99843" lon="0.52816">
        <ele>916.021</ele>
        <time>2020-02-08T13:08:05Z</time>
      </trkpt>
      <trkpt lat="42.99843" lon="0.5282">
        <ele>915.565</ele>
        <time>2020-02-08T13:08:04Z</time>
      </trkpt>
      <trkpt lat="42.99843" lon="0.52824">
        <ele>915.293</ele>
        <time>2020-02-08T13:08:03Z</time>
      </trkpt>
      <trkpt lat="42.99844" lon="0.52839">
        <ele>914.799</ele>
        <time>2020-02-08T13:07:59Z</time>
      </trkpt>
      <trkpt lat="42.99849" lon="0.52869">
        <ele>914.726</ele>
        <time>2020-02-08T13:07:51Z</time>
      </trkpt>
      <trkpt lat="42.99849" lon="0.52873">
        <ele>914.488</ele>
        <time>2020-02-08T13:07:50Z</time>
      </trkpt>
      <trkpt lat="42.9985" lon="0.52877">
        <ele>914.023</ele>
        <time>2020-02-08T13:07:49Z</time>
      </trkpt>
      <trkpt lat="42.99851" lon="0.52881">
        <ele>913.523</ele>
        <time>2020-02-08T13:07:48Z</time>
      </trkpt>
      <trkpt lat="42.99852" lon="0.52884">
        <ele>913.265</ele>
        <time>2020-02-08T13:07:47Z</time>
      </trkpt>
      <trkpt lat="42.99857" lon="0.5291">
        <ele>912.761</ele>
        <time>2020-02-08T13:07:40Z</time>
      </trkpt>
      <trkpt lat="42.99858" lon="0.52948">
        <ele>912.774</ele>
        <time>2020-02-08T13:07:30Z</time>
      </trkpt>
      <trkpt lat="42.99858" lon="0.52953">
        <ele>912.495</ele>
        <time>2020-02-08T13:07:29Z</time>
      </trkpt>
      <trkpt lat="42.99858" lon="0.52957">
        <ele>912.009</ele>
        <time>2020-02-08T13:07:28Z</time>
      </trkpt>
      <trkpt lat="42.99858" lon="0.5296">
        <ele>912.022</ele>
        <time>2020-02-08T13:07:27Z</time>
      </trkpt>
      <trkpt lat="42.99858" lon="0.52964">
        <ele>911.202</ele>
        <time>2020-02-08T13:07:26Z</time>
      </trkpt>
      <trkpt lat="42.99859" lon="0.52997">
        <ele>910.749</ele>
        <time>2020-02-08T13:07:17Z</time>
      </trkpt>
      <trkpt lat="42.99859" lon="0.53004">
        <ele>910.764</ele>
        <time>2020-02-08T13:07:15Z</time>
      </trkpt>
      <trkpt lat="42.99859" lon="0.53008">
        <ele>910.481</ele>
        <time>2020-02-08T13:07:14Z</time>
      </trkpt>
      <trkpt lat="42.99859" lon="0.53011">
        <ele>909.733</ele>
        <time>2020-02-08T13:07:13Z</time>
      </trkpt>
      <trkpt lat="42.9986" lon="0.53015">
        <ele>909.438</ele>
        <time>2020-02-08T13:07:12Z</time>
      </trkpt>
      <trkpt lat="42.9986" lon="0.53018">
        <ele>909.018</ele>
        <time>2020-02-08T13:07:11Z</time>
      </trkpt>
      <trkpt lat="42.99861" lon="0.53035">
        <ele>908.54</ele>
        <time>2020-02-08T13:07:06Z</time>
      </trkpt>
      <trkpt lat="42.99861" lon="0.53064">
        <ele>908.556</ele>
        <time>2020-02-08T13:06:57Z</time>
      </trkpt>
      <trkpt lat="42.99862" lon="0.53073">
        <ele>908.529</ele>
        <time>2020-02-08T13:06:54Z</time>
      </trkpt>
      <trkpt lat="42.99863" lon="0.53077">
        <ele>908.26</ele>
        <time>2020-02-08T13:06:53Z</time>
      </trkpt>
      <trkpt lat="42.99863" lon="0.5308">
        <ele>907.709</ele>
        <time>2020-02-08T13:06:52Z</time>
      </trkpt>
      <trkpt lat="42.99863" lon="0.53083">
        <ele>907.427</ele>
        <time>2020-02-08T13:06:51Z</time>
      </trkpt>
      <trkpt lat="42.99864" lon="0.53086">
        <ele>907.007</ele>
        <time>2020-02-08T13:06:50Z</time>
      </trkpt>
      <trkpt lat="42.99865" lon="0.53093">
        <ele>906.599</ele>
        <time>2020-02-08T13:06:48Z</time>
      </trkpt>
      <trkpt lat="42.99866" lon="0.53117">
        <ele>906.519</ele>
        <time>2020-02-08T13:06:40Z</time>
      </trkpt>
      <trkpt lat="42.99866" lon="0.53123">
        <ele>906.526</ele>
        <time>2020-02-08T13:06:38Z</time>
      </trkpt>
      <trkpt lat="42.99866" lon="0.53126">
        <ele>906.098</ele>
        <time>2020-02-08T13:06:37Z</time>
      </trkpt>
      <trkpt lat="42.99867" lon="0.53129">
        <ele>905.553</ele>
        <time>2020-02-08T13:06:36Z</time>
      </trkpt>
      <trkpt lat="42.99867" lon="0.53133">
        <ele>905.263</ele>
        <time>2020-02-08T13:06:35Z</time>
      </trkpt>
      <trkpt lat="42.99867" lon="0.53136">
        <ele>904.745</ele>
        <time>2020-02-08T13:06:34Z</time>
      </trkpt>
      <trkpt lat="42.99866" lon="0.53148">
        <ele>904.491</ele>
        <time>2020-02-08T13:06:30Z</time>
      </trkpt>
      <trkpt lat="42.99868" lon="0.53175">
        <ele>904.454</ele>
        <time>2020-02-08T13:06:21Z</time>
      </trkpt>
      <trkpt lat="42.99869" lon="0.53178">
        <ele>904.025</ele>
        <time>2020-02-08T13:06:20Z</time>
      </trkpt>
      <trkpt lat="42.99869" lon="0.53181">
        <ele>903.509</ele>
        <time>2020-02-08T13:06:19Z</time>
      </trkpt>
      <trkpt lat="42.99869" lon="0.53185">
        <ele>903.209</ele>
        <time>2020-02-08T13:06:18Z</time>
      </trkpt>
      <trkpt lat="42.99869" lon="0.53189">
        <ele>902.581</ele>
        <time>2020-02-08T13:06:17Z</time>
      </trkpt>
      <trkpt lat="42.99869" lon="0.53205">
        <ele>902.241</ele>
        <time>2020-02-08T13:06:12Z</time>
      </trkpt>
      <trkpt lat="42.99869" lon="0.53234">
        <ele>902.269</ele>
        <time>2020-02-08T13:06:03Z</time>
      </trkpt>
      <trkpt lat="42.99869" lon="0.5326">
        <ele>902.266</ele>
        <time>2020-02-08T13:05:55Z</time>
      </trkpt>
      <trkpt lat="42.99869" lon="0.53263">
        <ele>901.768</ele>
        <time>2020-02-08T13:05:54Z</time>
      </trkpt>
      <trkpt lat="42.99869" lon="0.53266">
        <ele>901.433</ele>
        <time>2020-02-08T13:05:53Z</time>
      </trkpt>
      <trkpt lat="42.99869" lon="0.53269">
        <ele>901.053</ele>
        <time>2020-02-08T13:05:52Z</time>
      </trkpt>
      <trkpt lat="42.99869" lon="0.53271">
        <ele>900.575</ele>
        <time>2020-02-08T13:05:51Z</time>
      </trkpt>
      <trkpt lat="42.99866" lon="0.53286">
        <ele>900.221</ele>
        <time>2020-02-08T13:05:46Z</time>
      </trkpt>
      <trkpt lat="42.99866" lon="0.53288">
        <ele>899.754</ele>
        <time>2020-02-08T13:05:45Z</time>
      </trkpt>
      <trkpt lat="42.99866" lon="0.53291">
        <ele>899.455</ele>
        <time>2020-02-08T13:05:44Z</time>
      </trkpt>
      <trkpt lat="42.99866" lon="0.53294">
        <ele>899.009</ele>
        <time>2020-02-08T13:05:43Z</time>
      </trkpt>
      <trkpt lat="42.99866" lon="0.53297">
        <ele>898.516</ele>
        <time>2020-02-08T13:05:42Z</time>
      </trkpt>
      <trkpt lat="42.99865" lon="0.53317">
        <ele>898.288</ele>
        <time>2020-02-08T13:05:35Z</time>
      </trkpt>
      <trkpt lat="42.99864" lon="0.53326">
        <ele>898.246</ele>
        <time>2020-02-08T13:05:32Z</time>
      </trkpt>
      <trkpt lat="42.99864" lon="0.53328">
        <ele>897.74</ele>
        <time>2020-02-08T13:05:31Z</time>
      </trkpt>
      <trkpt lat="42.99864" lon="0.53331">
        <ele>897.497</ele>
        <time>2020-02-08T13:05:30Z</time>
      </trkpt>
      <trkpt lat="42.99864" lon="0.53333">
        <ele>897.049</ele>
        <time>2020-02-08T13:05:29Z</time>
      </trkpt>
      <trkpt lat="42.99865" lon="0.53336">
        <ele>896.584</ele>
        <time>2020-02-08T13:05:28Z</time>
      </trkpt>
      <trkpt lat="42.99865" lon="0.53342">
        <ele>896.224</ele>
        <time>2020-02-08T13:05:26Z</time>
      </trkpt>
      <trkpt lat="42.99861" lon="0.53365">
        <ele>896.236</ele>
        <time>2020-02-08T13:05:18Z</time>
      </trkpt>
      <trkpt lat="42.99861" lon="0.53368">
        <ele>895.742</ele>
        <time>2020-02-08T13:05:17Z</time>
      </trkpt>
      <trkpt lat="42.9986" lon="0.5337">
        <ele>895.275</ele>
        <time>2020-02-08T13:05:16Z</time>
      </trkpt>
      <trkpt lat="42.99859" lon="0.53373">
        <ele>894.786</ele>
        <time>2020-02-08T13:05:15Z</time>
      </trkpt>
      <trkpt lat="42.99858" lon="0.53375">
        <ele>894.409</ele>
        <time>2020-02-08T13:05:14Z</time>
      </trkpt>
      <trkpt lat="42.99854" lon="0.53405">
        <ele>894.017</ele>
        <time>2020-02-08T13:05:03Z</time>
      </trkpt>
      <trkpt lat="42.99853" lon="0.53412">
        <ele>894.007</ele>
        <time>2020-02-08T13:05:00Z</time>
      </trkpt>
      <trkpt lat="42.99853" lon="0.53415">
        <ele>893.555</ele>
        <time>2020-02-08T13:04:59Z</time>
      </trkpt>
      <trkpt lat="42.99852" lon="0.53418">
        <ele>893.262</ele>
        <time>2020-02-08T13:04:58Z</time>
      </trkpt>
      <trkpt lat="42.99852" lon="0.5342">
        <ele>892.779</ele>
        <time>2020-02-08T13:04:57Z</time>
      </trkpt>
      <trkpt lat="42.99851" lon="0.53423">
        <ele>892.441</ele>
        <time>2020-02-08T13:04:56Z</time>
      </trkpt>
      <trkpt lat="42.9985" lon="0.53433">
        <ele>892.056</ele>
        <time>2020-02-08T13:04:52Z</time>
      </trkpt>
      <trkpt lat="42.99846" lon="0.53453">
        <ele>892.056</ele>
        <time>2020-02-08T13:04:44Z</time>
      </trkpt>
      <trkpt lat="42.99847" lon="0.53455">
        <ele>891.518</ele>
        <time>2020-02-08T13:04:43Z</time>
      </trkpt>
      <trkpt lat="42.99847" lon="0.53458">
        <ele>891.254</ele>
        <time>2020-02-08T13:04:42Z</time>
      </trkpt>
      <trkpt lat="42.99847" lon="0.5346">
        <ele>890.787</ele>
        <time>2020-02-08T13:04:41Z</time>
      </trkpt>
      <trkpt lat="42.99846" lon="0.53463">
        <ele>890.448</ele>
        <time>2020-02-08T13:04:40Z</time>
      </trkpt>
      <trkpt lat="42.99844" lon="0.53471">
        <ele>889.709</ele>
        <time>2020-02-08T13:04:36Z</time>
      </trkpt>
      <trkpt lat="42.99844" lon="0.53475">
        <ele>889.713</ele>
        <time>2020-02-08T13:04:34Z</time>
      </trkpt>
      <trkpt lat="42.99843" lon="0.53477">
        <ele>889.485</ele>
        <time>2020-02-08T13:04:33Z</time>
      </trkpt>
      <trkpt lat="42.99843" lon="0.5348">
        <ele>889.073</ele>
        <time>2020-02-08T13:04:32Z</time>
      </trkpt>
      <trkpt lat="42.99842" lon="0.53482">
        <ele>888.447</ele>
        <time>2020-02-08T13:04:31Z</time>
      </trkpt>
      <trkpt lat="42.99842" lon="0.53485">
        <ele>888.064</ele>
        <time>2020-02-08T13:04:30Z</time>
      </trkpt>
      <trkpt lat="42.99839" lon="0.53494">
        <ele>887.526</ele>
        <time>2020-02-08T13:04:26Z</time>
      </trkpt>
      <trkpt lat="42.99837" lon="0.53503">
        <ele>887.521</ele>
        <time>2020-02-08T13:04:21Z</time>
      </trkpt>
      <trkpt lat="42.99837" lon="0.53505">
        <ele>887.221</ele>
        <time>2020-02-08T13:04:20Z</time>
      </trkpt>
      <trkpt lat="42.99837" lon="0.53507">
        <ele>886.783</ele>
        <time>2020-02-08T13:04:19Z</time>
      </trkpt>
      <trkpt lat="42.99837" lon="0.53509">
        <ele>886.459</ele>
        <time>2020-02-08T13:04:18Z</time>
      </trkpt>
      <trkpt lat="42.99836" lon="0.53511">
        <ele>886.072</ele>
        <time>2020-02-08T13:04:17Z</time>
      </trkpt>
      <trkpt lat="42.99831" lon="0.5353">
        <ele>885.523</ele>
        <time>2020-02-08T13:04:08Z</time>
      </trkpt>
      <trkpt lat="42.9983" lon="0.53534">
        <ele>884.709</ele>
        <time>2020-02-08T13:04:06Z</time>
      </trkpt>
      <trkpt lat="42.9983" lon="0.53536">
        <ele>884.42</ele>
        <time>2020-02-08T13:04:05Z</time>
      </trkpt>
      <trkpt lat="42.9983" lon="0.53538">
        <ele>884</ele>
        <time>2020-02-08T13:04:04Z</time>
      </trkpt>
      <trkpt lat="42.99829" lon="0.53544">
        <ele>883.529</ele>
        <time>2020-02-08T13:04:01Z</time>
      </trkpt>
      <trkpt lat="42.99828" lon="0.53546">
        <ele>883.077</ele>
        <time>2020-02-08T13:04:00Z</time>
      </trkpt>
      <trkpt lat="42.99827" lon="0.53548">
        <ele>882.534</ele>
        <time>2020-02-08T13:03:59Z</time>
      </trkpt>
      <trkpt lat="42.99827" lon="0.5355">
        <ele>882.236</ele>
        <time>2020-02-08T13:03:58Z</time>
      </trkpt>
      <trkpt lat="42.99826" lon="0.53552">
        <ele>881.761</ele>
        <time>2020-02-08T13:03:57Z</time>
      </trkpt>
      <trkpt lat="42.99823" lon="0.5357">
        <ele>881.421</ele>
        <time>2020-02-08T13:03:48Z</time>
      </trkpt>
      <trkpt lat="42.99822" lon="0.53573">
        <ele>881.453</ele>
        <time>2020-02-08T13:03:47Z</time>
      </trkpt>
      <trkpt lat="42.99822" lon="0.53575">
        <ele>881.019</ele>
        <time>2020-02-08T13:03:46Z</time>
      </trkpt>
      <trkpt lat="42.99822" lon="0.53577">
        <ele>880.572</ele>
        <time>2020-02-08T13:03:45Z</time>
      </trkpt>
      <trkpt lat="42.99821" lon="0.5358">
        <ele>880.283</ele>
        <time>2020-02-08T13:03:44Z</time>
      </trkpt>
      <trkpt lat="42.99821" lon="0.53583">
        <ele>879.709</ele>
        <time>2020-02-08T13:03:43Z</time>
      </trkpt>
      <trkpt lat="42.99819" lon="0.53591">
        <ele>879.414</ele>
        <time>2020-02-08T13:03:39Z</time>
      </trkpt>
      <trkpt lat="42.99819" lon="0.53592">
        <ele>879.468</ele>
        <time>2020-02-08T13:03:38Z</time>
      </trkpt>
      <trkpt lat="42.99817" lon="0.53599">
        <ele>879.427</ele>
        <time>2020-02-08T13:03:34Z</time>
      </trkpt>
      <trkpt lat="42.99817" lon="0.53601">
        <ele>878.788</ele>
        <time>2020-02-08T13:03:33Z</time>
      </trkpt>
      <trkpt lat="42.99817" lon="0.53603">
        <ele>878.485</ele>
        <time>2020-02-08T13:03:32Z</time>
      </trkpt>
      <trkpt lat="42.99816" lon="0.53605">
        <ele>878.077</ele>
        <time>2020-02-08T13:03:31Z</time>
      </trkpt>
      <trkpt lat="42.99816" lon="0.53607">
        <ele>877.532</ele>
        <time>2020-02-08T13:03:30Z</time>
      </trkpt>
      <trkpt lat="42.99811" lon="0.53618">
        <ele>877.242</ele>
        <time>2020-02-08T13:03:23Z</time>
      </trkpt>
      <trkpt lat="42.9981" lon="0.53624">
        <ele>877.214</ele>
        <time>2020-02-08T13:03:20Z</time>
      </trkpt>
      <trkpt lat="42.99809" lon="0.53626">
        <ele>876.59</ele>
        <time>2020-02-08T13:03:19Z</time>
      </trkpt>
      <trkpt lat="42.99809" lon="0.53628">
        <ele>876.213</ele>
        <time>2020-02-08T13:03:18Z</time>
      </trkpt>
      <trkpt lat="42.99809" lon="0.53631">
        <ele>875.774</ele>
        <time>2020-02-08T13:03:17Z</time>
      </trkpt>
      <trkpt lat="42.99808" lon="0.53633">
        <ele>875.409</ele>
        <time>2020-02-08T13:03:16Z</time>
      </trkpt>
      <trkpt lat="42.99807" lon="0.5364">
        <ele>875.015</ele>
        <time>2020-02-08T13:03:13Z</time>
      </trkpt>
      <trkpt lat="42.99804" lon="0.5365">
        <ele>875.023</ele>
        <time>2020-02-08T13:03:07Z</time>
      </trkpt>
      <trkpt lat="42.99804" lon="0.53652">
        <ele>874.533</ele>
        <time>2020-02-08T13:03:06Z</time>
      </trkpt>
      <trkpt lat="42.99803" lon="0.53654">
        <ele>874.08</ele>
        <time>2020-02-08T13:03:05Z</time>
      </trkpt>
      <trkpt lat="42.99803" lon="0.53655">
        <ele>873.577</ele>
        <time>2020-02-08T13:03:04Z</time>
      </trkpt>
      <trkpt lat="42.99803" lon="0.53656">
        <ele>873.279</ele>
        <time>2020-02-08T13:03:03Z</time>
      </trkpt>
      <trkpt lat="42.998" lon="0.53667">
        <ele>872.584</ele>
        <time>2020-02-08T13:02:57Z</time>
      </trkpt>
      <trkpt lat="42.99799" lon="0.53669">
        <ele>872.254</ele>
        <time>2020-02-08T13:02:56Z</time>
      </trkpt>
      <trkpt lat="42.99799" lon="0.53671">
        <ele>871.786</ele>
        <time>2020-02-08T13:02:55Z</time>
      </trkpt>
      <trkpt lat="42.99799" lon="0.53673">
        <ele>871.472</ele>
        <time>2020-02-08T13:02:54Z</time>
      </trkpt>
      <trkpt lat="42.99798" lon="0.53675">
        <ele>871.015</ele>
        <time>2020-02-08T13:02:53Z</time>
      </trkpt>
      <trkpt lat="42.99795" lon="0.53685">
        <ele>870.546</ele>
        <time>2020-02-08T13:02:48Z</time>
      </trkpt>
      <trkpt lat="42.99794" lon="0.53689">
        <ele>870.509</ele>
        <time>2020-02-08T13:02:46Z</time>
      </trkpt>
      <trkpt lat="42.99794" lon="0.5369">
        <ele>870.223</ele>
        <time>2020-02-08T13:02:45Z</time>
      </trkpt>
      <trkpt lat="42.99793" lon="0.53692">
        <ele>869.703</ele>
        <time>2020-02-08T13:02:44Z</time>
      </trkpt>
      <trkpt lat="42.99793" lon="0.53693">
        <ele>869.459</ele>
        <time>2020-02-08T13:02:43Z</time>
      </trkpt>
      <trkpt lat="42.99793" lon="0.53695">
        <ele>869.076</ele>
        <time>2020-02-08T13:02:42Z</time>
      </trkpt>
      <trkpt lat="42.99791" lon="0.53704">
        <ele>868.563</ele>
        <time>2020-02-08T13:02:37Z</time>
      </trkpt>
      <trkpt lat="42.99789" lon="0.53707">
        <ele>868.525</ele>
        <time>2020-02-08T13:02:35Z</time>
      </trkpt>
      <trkpt lat="42.99788" lon="0.53709">
        <ele>868.27</ele>
        <time>2020-02-08T13:02:34Z</time>
      </trkpt>
      <trkpt lat="42.99788" lon="0.5371">
        <ele>867.76</ele>
        <time>2020-02-08T13:02:33Z</time>
      </trkpt>
      <trkpt lat="42.99787" lon="0.53712">
        <ele>867.422</ele>
        <time>2020-02-08T13:02:32Z</time>
      </trkpt>
      <trkpt lat="42.99787" lon="0.53713">
        <ele>867.048</ele>
        <time>2020-02-08T13:02:31Z</time>
      </trkpt>
      <trkpt lat="42.99785" lon="0.5372">
        <ele>866.591</ele>
        <time>2020-02-08T13:02:27Z</time>
      </trkpt>
      <trkpt lat="42.99784" lon="0.5373">
        <ele>866.592</ele>
        <time>2020-02-08T13:02:21Z</time>
      </trkpt>
      <trkpt lat="42.99784" lon="0.53732">
        <ele>866.209</ele>
        <time>2020-02-08T13:02:20Z</time>
      </trkpt>
      <trkpt lat="42.99784" lon="0.53734">
        <ele>865.517</ele>
        <time>2020-02-08T13:02:19Z</time>
      </trkpt>
      <trkpt lat="42.99784" lon="0.53735">
        <ele>865.298</ele>
        <time>2020-02-08T13:02:18Z</time>
      </trkpt>
      <trkpt lat="42.99784" lon="0.53737">
        <ele>864.718</ele>
        <time>2020-02-08T13:02:17Z</time>
      </trkpt>
      <trkpt lat="42.99782" lon="0.53748">
        <ele>864.48</ele>
        <time>2020-02-08T13:02:12Z</time>
      </trkpt>
      <trkpt lat="42.99781" lon="0.53751">
        <ele>864.067</ele>
        <time>2020-02-08T13:02:11Z</time>
      </trkpt>
      <trkpt lat="42.99781" lon="0.53753">
        <ele>863.529</ele>
        <time>2020-02-08T13:02:10Z</time>
      </trkpt>
      <trkpt lat="42.9978" lon="0.53755">
        <ele>863.294</ele>
        <time>2020-02-08T13:02:09Z</time>
      </trkpt>
      <trkpt lat="42.99779" lon="0.53757">
        <ele>862.754</ele>
        <time>2020-02-08T13:02:08Z</time>
      </trkpt>
      <trkpt lat="42.99775" lon="0.53771">
        <ele>862.496</ele>
        <time>2020-02-08T13:02:00Z</time>
      </trkpt>
      <trkpt lat="42.99774" lon="0.53773">
        <ele>861.782</ele>
        <time>2020-02-08T13:01:59Z</time>
      </trkpt>
      <trkpt lat="42.99774" lon="0.53775">
        <ele>861.495</ele>
        <time>2020-02-08T13:01:58Z</time>
      </trkpt>
      <trkpt lat="42.99773" lon="0.53777">
        <ele>861.076</ele>
        <time>2020-02-08T13:01:57Z</time>
      </trkpt>
      <trkpt lat="42.99773" lon="0.53779">
        <ele>860.409</ele>
        <time>2020-02-08T13:01:56Z</time>
      </trkpt>
      <trkpt lat="42.99769" lon="0.53792">
        <ele>860.02</ele>
        <time>2020-02-08T13:01:49Z</time>
      </trkpt>
      <trkpt lat="42.99767" lon="0.53806">
        <ele>860</ele>
        <time>2020-02-08T13:01:43Z</time>
      </trkpt>
      <trkpt lat="42.99768" lon="0.53809">
        <ele>859.557</ele>
        <time>2020-02-08T13:01:42Z</time>
      </trkpt>
      <trkpt lat="42.99768" lon="0.53812">
        <ele>859.236</ele>
        <time>2020-02-08T13:01:41Z</time>
      </trkpt>
      <trkpt lat="42.99768" lon="0.53814">
        <ele>858.743</ele>
        <time>2020-02-08T13:01:40Z</time>
      </trkpt>
      <trkpt lat="42.99768" lon="0.53817">
        <ele>858.475</ele>
        <time>2020-02-08T13:01:39Z</time>
      </trkpt>
      <trkpt lat="42.99766" lon="0.53828">
        <ele>858.07</ele>
        <time>2020-02-08T13:01:34Z</time>
      </trkpt>
      <trkpt lat="42.99765" lon="0.5383">
        <ele>858.05</ele>
        <time>2020-02-08T13:01:33Z</time>
      </trkpt>
      <trkpt lat="42.99765" lon="0.53832">
        <ele>857.522</ele>
        <time>2020-02-08T13:01:32Z</time>
      </trkpt>
      <trkpt lat="42.99765" lon="0.53834">
        <ele>857.248</ele>
        <time>2020-02-08T13:01:31Z</time>
      </trkpt>
      <trkpt lat="42.99765" lon="0.53836">
        <ele>856.791</ele>
        <time>2020-02-08T13:01:30Z</time>
      </trkpt>
      <trkpt lat="42.99765" lon="0.53838">
        <ele>856.412</ele>
        <time>2020-02-08T13:01:29Z</time>
      </trkpt>
      <trkpt lat="42.99764" lon="0.5385">
        <ele>856.009</ele>
        <time>2020-02-08T13:01:24Z</time>
      </trkpt>
      <trkpt lat="42.99764" lon="0.53854">
        <ele>856.015</ele>
        <time>2020-02-08T13:01:22Z</time>
      </trkpt>
      <trkpt lat="42.99764" lon="0.53857">
        <ele>855.487</ele>
        <time>2020-02-08T13:01:21Z</time>
      </trkpt>
      <trkpt lat="42.99764" lon="0.53859">
        <ele>855.017</ele>
        <time>2020-02-08T13:01:20Z</time>
      </trkpt>
      <trkpt lat="42.99764" lon="0.53861">
        <ele>854.549</ele>
        <time>2020-02-08T13:01:19Z</time>
      </trkpt>
      <trkpt lat="42.99764" lon="0.53864">
        <ele>854.296</ele>
        <time>2020-02-08T13:01:18Z</time>
      </trkpt>
      <trkpt lat="42.99763" lon="0.53877">
        <ele>853.568</ele>
        <time>2020-02-08T13:01:12Z</time>
      </trkpt>
      <trkpt lat="42.99762" lon="0.53895">
        <ele>853.513</ele>
        <time>2020-02-08T13:01:04Z</time>
      </trkpt>
      <trkpt lat="42.99762" lon="0.53898">
        <ele>853.283</ele>
        <time>2020-02-08T13:01:03Z</time>
      </trkpt>
      <trkpt lat="42.99762" lon="0.539">
        <ele>852.745</ele>
        <time>2020-02-08T13:01:02Z</time>
      </trkpt>
      <trkpt lat="42.99762" lon="0.53902">
        <ele>852.271</ele>
        <time>2020-02-08T13:01:01Z</time>
      </trkpt>
      <trkpt lat="42.99762" lon="0.53904">
        <ele>851.734</ele>
        <time>2020-02-08T13:01:00Z</time>
      </trkpt>
      <trkpt lat="42.99762" lon="0.53921">
        <ele>851.435</ele>
        <time>2020-02-08T13:00:52Z</time>
      </trkpt>
      <trkpt lat="42.99762" lon="0.53929">
        <ele>851.409</ele>
        <time>2020-02-08T13:00:49Z</time>
      </trkpt>
      <trkpt lat="42.99762" lon="0.53931">
        <ele>851.016</ele>
        <time>2020-02-08T13:00:48Z</time>
      </trkpt>
      <trkpt lat="42.99762" lon="0.53934">
        <ele>850.588</ele>
        <time>2020-02-08T13:00:47Z</time>
      </trkpt>
      <trkpt lat="42.99762" lon="0.53936">
        <ele>850.246</ele>
        <time>2020-02-08T13:00:46Z</time>
      </trkpt>
      <trkpt lat="42.99762" lon="0.53939">
        <ele>849.761</ele>
        <time>2020-02-08T13:00:45Z</time>
      </trkpt>
      <trkpt lat="42.99764" lon="0.53961">
        <ele>849.418</ele>
        <time>2020-02-08T13:00:37Z</time>
      </trkpt>
      <trkpt lat="42.99777" lon="0.53959">
        <ele>849.48</ele>
        <time>2020-02-08T13:00:30Z</time>
      </trkpt>
      <trkpt lat="42.99787" lon="0.53939">
        <ele>849.485</ele>
        <time>2020-02-08T13:00:23Z</time>
      </trkpt>
      <trkpt lat="42.99792" lon="0.5393">
        <ele>849.485</ele>
        <time>2020-02-08T13:00:20Z</time>
      </trkpt>
      <trkpt lat="42.99793" lon="0.53926">
        <ele>849.057</ele>
        <time>2020-02-08T13:00:19Z</time>
      </trkpt>
      <trkpt lat="42.99794" lon="0.53923">
        <ele>848.553</ele>
        <time>2020-02-08T13:00:18Z</time>
      </trkpt>
      <trkpt lat="42.99795" lon="0.53921">
        <ele>848.296</ele>
        <time>2020-02-08T13:00:17Z</time>
      </trkpt>
      <trkpt lat="42.99796" lon="0.53918">
        <ele>847.717</ele>
        <time>2020-02-08T13:00:16Z</time>
      </trkpt>
      <trkpt lat="42.99799" lon="0.53913">
        <ele>847.409</ele>
        <time>2020-02-08T13:00:14Z</time>
      </trkpt>
      <trkpt lat="42.99808" lon="0.53892">
        <ele>847.411</ele>
        <time>2020-02-08T13:00:06Z</time>
      </trkpt>
      <trkpt lat="42.99812" lon="0.53884">
        <ele>847.483</ele>
        <time>2020-02-08T13:00:03Z</time>
      </trkpt>
      <trkpt lat="42.99818" lon="0.53877">
        <ele>847.462</ele>
        <time>2020-02-08T13:00:00Z</time>
      </trkpt>
      <trkpt lat="42.99831" lon="0.53869">
        <ele>847.422</ele>
        <time>2020-02-08T12:59:54Z</time>
      </trkpt>
      <trkpt lat="42.99854" lon="0.53862">
        <ele>847.419</ele>
        <time>2020-02-08T12:59:47Z</time>
      </trkpt>
      <trkpt lat="42.99873" lon="0.53853">
        <ele>847.421</ele>
        <time>2020-02-08T12:59:41Z</time>
      </trkpt>
      <trkpt lat="42.99889" lon="0.5384">
        <ele>847.496</ele>
        <time>2020-02-08T12:59:32Z</time>
      </trkpt>
      <trkpt lat="42.99899" lon="0.53831">
        <ele>847.486</ele>
        <time>2020-02-08T12:59:26Z</time>
      </trkpt>
      <trkpt lat="42.999" lon="0.5383">
        <ele>847.038</ele>
        <time>2020-02-08T12:59:25Z</time>
      </trkpt>
      <trkpt lat="42.99901" lon="0.53828">
        <ele>846.574</ele>
        <time>2020-02-08T12:59:24Z</time>
      </trkpt>
      <trkpt lat="42.99903" lon="0.53826">
        <ele>846.057</ele>
        <time>2020-02-08T12:59:23Z</time>
      </trkpt>
      <trkpt lat="42.99904" lon="0.53824">
        <ele>845.578</ele>
        <time>2020-02-08T12:59:22Z</time>
      </trkpt>
      <trkpt lat="42.99914" lon="0.53812">
        <ele>845.209</ele>
        <time>2020-02-08T12:59:15Z</time>
      </trkpt>
      <trkpt lat="42.99915" lon="0.53809">
        <ele>845.227</ele>
        <time>2020-02-08T12:59:14Z</time>
      </trkpt>
      <trkpt lat="42.99916" lon="0.53807">
        <ele>844.761</ele>
        <time>2020-02-08T12:59:13Z</time>
      </trkpt>
      <trkpt lat="42.99918" lon="0.53805">
        <ele>844.277</ele>
        <time>2020-02-08T12:59:12Z</time>
      </trkpt>
      <trkpt lat="42.9992" lon="0.53803">
        <ele>843.72</ele>
        <time>2020-02-08T12:59:11Z</time>
      </trkpt>
      <trkpt lat="42.99921" lon="0.53801">
        <ele>843.287</ele>
        <time>2020-02-08T12:59:10Z</time>
      </trkpt>
      <trkpt lat="42.99931" lon="0.53789">
        <ele>842.739</ele>
        <time>2020-02-08T12:59:04Z</time>
      </trkpt>
      <trkpt lat="42.99937" lon="0.53783">
        <ele>842.734</ele>
        <time>2020-02-08T12:59:00Z</time>
      </trkpt>
      <trkpt lat="42.99938" lon="0.53781">
        <ele>842.474</ele>
        <time>2020-02-08T12:58:59Z</time>
      </trkpt>
      <trkpt lat="42.99939" lon="0.53779">
        <ele>842.016</ele>
        <time>2020-02-08T12:58:58Z</time>
      </trkpt>
      <trkpt lat="42.9994" lon="0.53778">
        <ele>841.552</ele>
        <time>2020-02-08T12:58:57Z</time>
      </trkpt>
      <trkpt lat="42.99941" lon="0.53776">
        <ele>841.055</ele>
        <time>2020-02-08T12:58:56Z</time>
      </trkpt>
      <trkpt lat="42.99953" lon="0.5376">
        <ele>840.546</ele>
        <time>2020-02-08T12:58:47Z</time>
      </trkpt>
      <trkpt lat="42.99956" lon="0.53757">
        <ele>840.509</ele>
        <time>2020-02-08T12:58:45Z</time>
      </trkpt>
      <trkpt lat="42.99957" lon="0.53756">
        <ele>840.22</ele>
        <time>2020-02-08T12:58:44Z</time>
      </trkpt>
      <trkpt lat="42.99959" lon="0.53754">
        <ele>839.7</ele>
        <time>2020-02-08T12:58:43Z</time>
      </trkpt>
      <trkpt lat="42.9996" lon="0.53753">
        <ele>839.257</ele>
        <time>2020-02-08T12:58:42Z</time>
      </trkpt>
      <trkpt lat="42.99962" lon="0.53752">
        <ele>838.729</ele>
        <time>2020-02-08T12:58:41Z</time>
      </trkpt>
      <trkpt lat="42.99967" lon="0.5375">
        <ele>838.226</ele>
        <time>2020-02-08T12:58:38Z</time>
      </trkpt>
      <trkpt lat="42.99978" lon="0.5374">
        <ele>838.298</ele>
        <time>2020-02-08T12:58:30Z</time>
      </trkpt>
      <trkpt lat="42.99984" lon="0.53736">
        <ele>838.253</ele>
        <time>2020-02-08T12:58:26Z</time>
      </trkpt>
      <trkpt lat="42.99985" lon="0.53735">
        <ele>837.723</ele>
        <time>2020-02-08T12:58:25Z</time>
      </trkpt>
      <trkpt lat="42.99986" lon="0.53733">
        <ele>837.475</ele>
        <time>2020-02-08T12:58:24Z</time>
      </trkpt>
      <trkpt lat="42.99988" lon="0.53733">
        <ele>837.041</ele>
        <time>2020-02-08T12:58:23Z</time>
      </trkpt>
      <trkpt lat="42.9999" lon="0.53732">
        <ele>836.574</ele>
        <time>2020-02-08T12:58:22Z</time>
      </trkpt>
      <trkpt lat="43.00006" lon="0.53723">
        <ele>836.255</ele>
        <time>2020-02-08T12:58:12Z</time>
      </trkpt>
      <trkpt lat="43.00009" lon="0.53722">
        <ele>836.209</ele>
        <time>2020-02-08T12:58:10Z</time>
      </trkpt>
      <trkpt lat="43.00011" lon="0.5372">
        <ele>835.715</ele>
        <time>2020-02-08T12:58:09Z</time>
      </trkpt>
      <trkpt lat="43.00012" lon="0.53719">
        <ele>835.405</ele>
        <time>2020-02-08T12:58:08Z</time>
      </trkpt>
      <trkpt lat="43.00014" lon="0.53718">
        <ele>835.044</ele>
        <time>2020-02-08T12:58:07Z</time>
      </trkpt>
      <trkpt lat="43.00015" lon="0.53716">
        <ele>834.592</ele>
        <time>2020-02-08T12:58:06Z</time>
      </trkpt>
      <trkpt lat="43.00017" lon="0.53714">
        <ele>834.239</ele>
        <time>2020-02-08T12:58:04Z</time>
      </trkpt>
      <trkpt lat="43.00021" lon="0.53711">
        <ele>834.251</ele>
        <time>2020-02-08T12:58:02Z</time>
      </trkpt>
      <trkpt lat="43.00022" lon="0.53709">
        <ele>833.526</ele>
        <time>2020-02-08T12:58:01Z</time>
      </trkpt>
      <trkpt lat="43.00024" lon="0.53708">
        <ele>833.226</ele>
        <time>2020-02-08T12:58:00Z</time>
      </trkpt>
      <trkpt lat="43.00026" lon="0.53707">
        <ele>832.738</ele>
        <time>2020-02-08T12:57:59Z</time>
      </trkpt>
      <trkpt lat="43.00027" lon="0.53706">
        <ele>832.434</ele>
        <time>2020-02-08T12:57:58Z</time>
      </trkpt>
      <trkpt lat="43.00031" lon="0.53704">
        <ele>831.787</ele>
        <time>2020-02-08T12:57:56Z</time>
      </trkpt>
      <trkpt lat="43.00043" lon="0.53698">
        <ele>831.778</ele>
        <time>2020-02-08T12:57:50Z</time>
      </trkpt>
      <trkpt lat="43.00052" lon="0.53689">
        <ele>831.709</ele>
        <time>2020-02-08T12:57:44Z</time>
      </trkpt>
      <trkpt lat="43.00054" lon="0.53688">
        <ele>831.421</ele>
        <time>2020-02-08T12:57:43Z</time>
      </trkpt>
      <trkpt lat="43.00055" lon="0.53686">
        <ele>831.056</ele>
        <time>2020-02-08T12:57:42Z</time>
      </trkpt>
      <trkpt lat="43.00057" lon="0.53685">
        <ele>830.474</ele>
        <time>2020-02-08T12:57:41Z</time>
      </trkpt>
      <trkpt lat="43.00059" lon="0.53684">
        <ele>830.068</ele>
        <time>2020-02-08T12:57:40Z</time>
      </trkpt>
      <trkpt lat="43.00075" lon="0.53672">
        <ele>829.575</ele>
        <time>2020-02-08T12:57:32Z</time>
      </trkpt>
      <trkpt lat="43.00077" lon="0.53668">
        <ele>829.047</ele>
        <time>2020-02-08T12:57:31Z</time>
      </trkpt>
      <trkpt lat="43.00078" lon="0.53666">
        <ele>828.562</ele>
        <time>2020-02-08T12:57:30Z</time>
      </trkpt>
      <trkpt lat="43.00079" lon="0.53664">
        <ele>828.222</ele>
        <time>2020-02-08T12:57:29Z</time>
      </trkpt>
      <trkpt lat="43.00081" lon="0.53662">
        <ele>827.784</ele>
        <time>2020-02-08T12:57:28Z</time>
      </trkpt>
      <trkpt lat="43.00089" lon="0.5365">
        <ele>827.48</ele>
        <time>2020-02-08T12:57:21Z</time>
      </trkpt>
      <trkpt lat="43.00089" lon="0.53647">
        <ele>827.043</ele>
        <time>2020-02-08T12:57:20Z</time>
      </trkpt>
      <trkpt lat="43.0009" lon="0.53646">
        <ele>826.584</ele>
        <time>2020-02-08T12:57:19Z</time>
      </trkpt>
      <trkpt lat="43.00091" lon="0.53643">
        <ele>826.209</ele>
        <time>2020-02-08T12:57:18Z</time>
      </trkpt>
      <trkpt lat="43.00092" lon="0.53642">
        <ele>825.511</ele>
        <time>2020-02-08T12:57:17Z</time>
      </trkpt>
      <trkpt lat="43.00098" lon="0.53635">
        <ele>825.292</ele>
        <time>2020-02-08T12:57:12Z</time>
      </trkpt>
      <trkpt lat="43.00101" lon="0.53632">
        <ele>825.232</ele>
        <time>2020-02-08T12:57:09Z</time>
      </trkpt>
      <trkpt lat="43.00102" lon="0.53632">
        <ele>824.748</ele>
        <time>2020-02-08T12:57:08Z</time>
      </trkpt>
      <trkpt lat="43.00103" lon="0.53632">
        <ele>824.435</ele>
        <time>2020-02-08T12:57:07Z</time>
      </trkpt>
      <trkpt lat="43.00105" lon="0.53631">
        <ele>824.087</ele>
        <time>2020-02-08T12:57:06Z</time>
      </trkpt>
      <trkpt lat="43.00106" lon="0.5363">
        <ele>823.532</ele>
        <time>2020-02-08T12:57:05Z</time>
      </trkpt>
      <trkpt lat="43.00117" lon="0.53617">
        <ele>823.222</ele>
        <time>2020-02-08T12:56:57Z</time>
      </trkpt>
      <trkpt lat="43.0012" lon="0.53614">
        <ele>823.274</ele>
        <time>2020-02-08T12:56:54Z</time>
      </trkpt>
      <trkpt lat="43.00121" lon="0.53612">
        <ele>822.79</ele>
        <time>2020-02-08T12:56:53Z</time>
      </trkpt>
      <trkpt lat="43.00123" lon="0.53611">
        <ele>822.413</ele>
        <time>2020-02-08T12:56:52Z</time>
      </trkpt>
      <trkpt lat="43.00123" lon="0.5361">
        <ele>822.074</ele>
        <time>2020-02-08T12:56:51Z</time>
      </trkpt>
      <trkpt lat="43.00124" lon="0.53608">
        <ele>821.509</ele>
        <time>2020-02-08T12:56:50Z</time>
      </trkpt>
      <trkpt lat="43.00125" lon="0.53606">
        <ele>821.211</ele>
        <time>2020-02-08T12:56:49Z</time>
      </trkpt>
      <trkpt lat="43.00136" lon="0.53591">
        <ele>821.292</ele>
        <time>2020-02-08T12:56:41Z</time>
      </trkpt>
      <trkpt lat="43.00137" lon="0.53589">
        <ele>820.732</ele>
        <time>2020-02-08T12:56:40Z</time>
      </trkpt>
      <trkpt lat="43.00139" lon="0.53587">
        <ele>820.461</ele>
        <time>2020-02-08T12:56:39Z</time>
      </trkpt>
      <trkpt lat="43.0014" lon="0.53584">
        <ele>820.068</ele>
        <time>2020-02-08T12:56:38Z</time>
      </trkpt>
      <trkpt lat="43.00141" lon="0.53582">
        <ele>819.55</ele>
        <time>2020-02-08T12:56:37Z</time>
      </trkpt>
      <trkpt lat="43.00146" lon="0.5357">
        <ele>819.225</ele>
        <time>2020-02-08T12:56:32Z</time>
      </trkpt>
      <trkpt lat="43.00149" lon="0.53562">
        <ele>819.275</ele>
        <time>2020-02-08T12:56:28Z</time>
      </trkpt>
      <trkpt lat="43.0015" lon="0.5356">
        <ele>818.797</ele>
        <time>2020-02-08T12:56:27Z</time>
      </trkpt>
      <trkpt lat="43.00152" lon="0.53558">
        <ele>818.413</ele>
        <time>2020-02-08T12:56:26Z</time>
      </trkpt>
      <trkpt lat="43.00153" lon="0.53556">
        <ele>817.776</ele>
        <time>2020-02-08T12:56:25Z</time>
      </trkpt>
      <trkpt lat="43.00155" lon="0.53554">
        <ele>817.477</ele>
        <time>2020-02-08T12:56:24Z</time>
      </trkpt>
      <trkpt lat="43.00157" lon="0.5355">
        <ele>817.009</ele>
        <time>2020-02-08T12:56:22Z</time>
      </trkpt>
      <trkpt lat="43.00167" lon="0.53532">
        <ele>817.016</ele>
        <time>2020-02-08T12:56:13Z</time>
      </trkpt>
      <trkpt lat="43.00169" lon="0.53529">
        <ele>817.006</ele>
        <time>2020-02-08T12:56:11Z</time>
      </trkpt>
      <trkpt lat="43.0017" lon="0.53527">
        <ele>816.564</ele>
        <time>2020-02-08T12:56:10Z</time>
      </trkpt>
      <trkpt lat="43.00171" lon="0.53525">
        <ele>816.292</ele>
        <time>2020-02-08T12:56:09Z</time>
      </trkpt>
      <trkpt lat="43.00172" lon="0.53524">
        <ele>815.799</ele>
        <time>2020-02-08T12:56:08Z</time>
      </trkpt>
      <trkpt lat="43.00173" lon="0.53522">
        <ele>815.281</ele>
        <time>2020-02-08T12:56:07Z</time>
      </trkpt>
      <trkpt lat="43.00177" lon="0.53516">
        <ele>814.766</ele>
        <time>2020-02-08T12:56:04Z</time>
      </trkpt>
      <trkpt lat="43.0018" lon="0.53508">
        <ele>814.746</ele>
        <time>2020-02-08T12:56:00Z</time>
      </trkpt>
      <trkpt lat="43.00181" lon="0.53506">
        <ele>814.418</ele>
        <time>2020-02-08T12:55:59Z</time>
      </trkpt>
      <trkpt lat="43.00182" lon="0.53503">
        <ele>814.054</ele>
        <time>2020-02-08T12:55:58Z</time>
      </trkpt>
      <trkpt lat="43.00183" lon="0.53501">
        <ele>813.587</ele>
        <time>2020-02-08T12:55:57Z</time>
      </trkpt>
      <trkpt lat="43.00183" lon="0.53499">
        <ele>813.228</ele>
        <time>2020-02-08T12:55:56Z</time>
      </trkpt>
      <trkpt lat="43.00184" lon="0.53497">
        <ele>812.709</ele>
        <time>2020-02-08T12:55:55Z</time>
      </trkpt>
      <trkpt lat="43.00189" lon="0.53481">
        <ele>812.72</ele>
        <time>2020-02-08T12:55:47Z</time>
      </trkpt>
      <trkpt lat="43.0019" lon="0.53476">
        <ele>812.728</ele>
        <time>2020-02-08T12:55:45Z</time>
      </trkpt>
      <trkpt lat="43.00191" lon="0.53474">
        <ele>812.475</ele>
        <time>2020-02-08T12:55:44Z</time>
      </trkpt>
      <trkpt lat="43.00192" lon="0.53472">
        <ele>812.083</ele>
        <time>2020-02-08T12:55:43Z</time>
      </trkpt>
      <trkpt lat="43.00193" lon="0.5347">
        <ele>811.52</ele>
        <time>2020-02-08T12:55:42Z</time>
      </trkpt>
      <trkpt lat="43.00194" lon="0.53468">
        <ele>811.222</ele>
        <time>2020-02-08T12:55:41Z</time>
      </trkpt>
      <trkpt lat="43.00199" lon="0.53454">
        <ele>810.737</ele>
        <time>2020-02-08T12:55:35Z</time>
      </trkpt>
      <trkpt lat="43.00204" lon="0.53436">
        <ele>810.797</ele>
        <time>2020-02-08T12:55:28Z</time>
      </trkpt>
      <trkpt lat="43.00205" lon="0.53434">
        <ele>810.439</ele>
        <time>2020-02-08T12:55:27Z</time>
      </trkpt>
      <trkpt lat="43.00205" lon="0.53432">
        <ele>809.745</ele>
        <time>2020-02-08T12:55:26Z</time>
      </trkpt>
      <trkpt lat="43.00206" lon="0.53429">
        <ele>809.418</ele>
        <time>2020-02-08T12:55:25Z</time>
      </trkpt>
      <trkpt lat="43.00207" lon="0.53427">
        <ele>809.019</ele>
        <time>2020-02-08T12:55:24Z</time>
      </trkpt>
      <trkpt lat="43.00211" lon="0.53407">
        <ele>808.509</ele>
        <time>2020-02-08T12:55:15Z</time>
      </trkpt>
      <trkpt lat="43.00214" lon="0.534">
        <ele>808.526</ele>
        <time>2020-02-08T12:55:12Z</time>
      </trkpt>
      <trkpt lat="43.00215" lon="0.53398">
        <ele>808.242</ele>
        <time>2020-02-08T12:55:11Z</time>
      </trkpt>
      <trkpt lat="43.00216" lon="0.53397">
        <ele>807.787</ele>
        <time>2020-02-08T12:55:10Z</time>
      </trkpt>
      <trkpt lat="43.00217" lon="0.53395">
        <ele>807.493</ele>
        <time>2020-02-08T12:55:09Z</time>
      </trkpt>
      <trkpt lat="43.00218" lon="0.53393">
        <ele>807.07</ele>
        <time>2020-02-08T12:55:08Z</time>
      </trkpt>
      <trkpt lat="43.0023" lon="0.5339">
        <ele>806.512</ele>
        <time>2020-02-08T12:55:01Z</time>
      </trkpt>
      <trkpt lat="43.00233" lon="0.53392">
        <ele>806.517</ele>
        <time>2020-02-08T12:54:59Z</time>
      </trkpt>
      <trkpt lat="43.00234" lon="0.53393">
        <ele>806.247</ele>
        <time>2020-02-08T12:54:58Z</time>
      </trkpt>
      <trkpt lat="43.00236" lon="0.53394">
        <ele>805.799</ele>
        <time>2020-02-08T12:54:57Z</time>
      </trkpt>
      <trkpt lat="43.00238" lon="0.53396">
        <ele>805.425</ele>
        <time>2020-02-08T12:54:56Z</time>
      </trkpt>
      <trkpt lat="43.00239" lon="0.53397">
        <ele>805.038</ele>
        <time>2020-02-08T12:54:55Z</time>
      </trkpt>
      <trkpt lat="43.00246" lon="0.53406">
        <ele>804.549</ele>
        <time>2020-02-08T12:54:49Z</time>
      </trkpt>
      <trkpt lat="43.00247" lon="0.53408">
        <ele>804.209</ele>
        <time>2020-02-08T12:54:48Z</time>
      </trkpt>
      <trkpt lat="43.00248" lon="0.53409">
        <ele>803.726</ele>
        <time>2020-02-08T12:54:47Z</time>
      </trkpt>
      <trkpt lat="43.00248" lon="0.53411">
        <ele>803.46</ele>
        <time>2020-02-08T12:54:46Z</time>
      </trkpt>
      <trkpt lat="43.00249" lon="0.53413">
        <ele>803.086</ele>
        <time>2020-02-08T12:54:45Z</time>
      </trkpt>
      <trkpt lat="43.00252" lon="0.53425">
        <ele>802.561</ele>
        <time>2020-02-08T12:54:39Z</time>
      </trkpt>
      <trkpt lat="43.00253" lon="0.53427">
        <ele>802.028</ele>
        <time>2020-02-08T12:54:38Z</time>
      </trkpt>
      <trkpt lat="43.00253" lon="0.53428">
        <ele>801.53</ele>
        <time>2020-02-08T12:54:37Z</time>
      </trkpt>
      <trkpt lat="43.00253" lon="0.5343">
        <ele>801.015</ele>
        <time>2020-02-08T12:54:36Z</time>
      </trkpt>
      <trkpt lat="43.00254" lon="0.53432">
        <ele>800.535</ele>
        <time>2020-02-08T12:54:35Z</time>
      </trkpt>
      <trkpt lat="43.00255" lon="0.53443">
        <ele>800.237</ele>
        <time>2020-02-08T12:54:30Z</time>
      </trkpt>
      <trkpt lat="43.00255" lon="0.53445">
        <ele>799.733</ele>
        <time>2020-02-08T12:54:29Z</time>
      </trkpt>
      <trkpt lat="43.00255" lon="0.53447">
        <ele>799.246</ele>
        <time>2020-02-08T12:54:28Z</time>
      </trkpt>
      <trkpt lat="43.00255" lon="0.53449">
        <ele>798.777</ele>
        <time>2020-02-08T12:54:27Z</time>
      </trkpt>
      <trkpt lat="43.00256" lon="0.53451">
        <ele>798.409</ele>
        <time>2020-02-08T12:54:26Z</time>
      </trkpt>
      <trkpt lat="43.00259" lon="0.53468">
        <ele>798.004</ele>
        <time>2020-02-08T12:53:27Z</time>
      </trkpt>
      <trkpt lat="43.0026" lon="0.53469">
        <ele>798.052</ele>
        <time>2020-02-08T12:52:59Z</time>
      </trkpt>
      <trkpt lat="43.00264" lon="0.53471">
        <ele>798.049</ele>
        <time>2020-02-08T12:52:52Z</time>
      </trkpt>
      <trkpt lat="43.00265" lon="0.53472">
        <ele>797.581</ele>
        <time>2020-02-08T12:52:51Z</time>
      </trkpt>
      <trkpt lat="43.00265" lon="0.53474">
        <ele>797.046</ele>
        <time>2020-02-08T12:52:50Z</time>
      </trkpt>
      <trkpt lat="43.00266" lon="0.53476">
        <ele>796.576</ele>
        <time>2020-02-08T12:52:49Z</time>
      </trkpt>
      <trkpt lat="43.00266" lon="0.53479">
        <ele>796.218</ele>
        <time>2020-02-08T12:52:48Z</time>
      </trkpt>
      <trkpt lat="43.00267" lon="0.53487">
        <ele>795.794</ele>
        <time>2020-02-08T12:52:44Z</time>
      </trkpt>
      <trkpt lat="43.00267" lon="0.53495">
        <ele>795.767</ele>
        <time>2020-02-08T12:52:39Z</time>
      </trkpt>
      <trkpt lat="43.00267" lon="0.53498">
        <ele>795.428</ele>
        <time>2020-02-08T12:52:38Z</time>
      </trkpt>
      <trkpt lat="43.00267" lon="0.535">
        <ele>795.009</ele>
        <time>2020-02-08T12:52:37Z</time>
      </trkpt>
      <trkpt lat="43.00267" lon="0.53501">
        <ele>794.525</ele>
        <time>2020-02-08T12:52:36Z</time>
      </trkpt>
      <trkpt lat="43.00267" lon="0.53504">
        <ele>794.205</ele>
        <time>2020-02-08T12:52:35Z</time>
      </trkpt>
      <trkpt lat="43.00267" lon="0.53514">
        <ele>793.579</ele>
        <time>2020-02-08T12:52:29Z</time>
      </trkpt>
      <trkpt lat="43.00267" lon="0.53515">
        <ele>793.221</ele>
        <time>2020-02-08T12:52:28Z</time>
      </trkpt>
      <trkpt lat="43.00268" lon="0.53517">
        <ele>792.798</ele>
        <time>2020-02-08T12:52:27Z</time>
      </trkpt>
      <trkpt lat="43.00268" lon="0.53519">
        <ele>792.49</ele>
        <time>2020-02-08T12:52:26Z</time>
      </trkpt>
      <trkpt lat="43.00269" lon="0.5352">
        <ele>792.055</ele>
        <time>2020-02-08T12:52:25Z</time>
      </trkpt>
      <trkpt lat="43.0027" lon="0.53531">
        <ele>791.415</ele>
        <time>2020-02-08T12:52:20Z</time>
      </trkpt>
      <trkpt lat="43.00273" lon="0.5354">
        <ele>791.497</ele>
        <time>2020-02-08T12:52:15Z</time>
      </trkpt>
      <trkpt lat="43.00274" lon="0.53542">
        <ele>791.073</ele>
        <time>2020-02-08T12:52:14Z</time>
      </trkpt>
      <trkpt lat="43.00275" lon="0.53544">
        <ele>790.516</ele>
        <time>2020-02-08T12:52:13Z</time>
      </trkpt>
      <trkpt lat="43.00276" lon="0.53546">
        <ele>790.047</ele>
        <time>2020-02-08T12:52:12Z</time>
      </trkpt>
      <trkpt lat="43.00277" lon="0.53548">
        <ele>789.509</ele>
        <time>2020-02-08T12:52:11Z</time>
      </trkpt>
      <trkpt lat="43.00284" lon="0.5357">
        <ele>789.218</ele>
        <time>2020-02-08T12:52:01Z</time>
      </trkpt>
      <trkpt lat="43.00285" lon="0.53572">
        <ele>788.744</ele>
        <time>2020-02-08T12:52:00Z</time>
      </trkpt>
      <trkpt lat="43.00285" lon="0.53575">
        <ele>788.463</ele>
        <time>2020-02-08T12:51:59Z</time>
      </trkpt>
      <trkpt lat="43.00286" lon="0.53577">
        <ele>788.088</ele>
        <time>2020-02-08T12:51:58Z</time>
      </trkpt>
      <trkpt lat="43.00286" lon="0.53579">
        <ele>787.515</ele>
        <time>2020-02-08T12:51:57Z</time>
      </trkpt>
      <trkpt lat="43.00291" lon="0.53593">
        <ele>787.237</ele>
        <time>2020-02-08T12:51:51Z</time>
      </trkpt>
      <trkpt lat="43.00293" lon="0.53595">
        <ele>787.292</ele>
        <time>2020-02-08T12:51:50Z</time>
      </trkpt>
      <trkpt lat="43.00294" lon="0.53598">
        <ele>786.592</ele>
        <time>2020-02-08T12:51:49Z</time>
      </trkpt>
      <trkpt lat="43.00295" lon="0.536">
        <ele>786.284</ele>
        <time>2020-02-08T12:51:48Z</time>
      </trkpt>
      <trkpt lat="43.00295" lon="0.53603">
        <ele>785.79</ele>
        <time>2020-02-08T12:51:47Z</time>
      </trkpt>
      <trkpt lat="43.00296" lon="0.53605">
        <ele>785.463</ele>
        <time>2020-02-08T12:51:46Z</time>
      </trkpt>
      <trkpt lat="43.00299" lon="0.53611">
        <ele>785.074</ele>
        <time>2020-02-08T12:51:43Z</time>
      </trkpt>
      <trkpt lat="43.00301" lon="0.53618">
        <ele>785.009</ele>
        <time>2020-02-08T12:51:40Z</time>
      </trkpt>
      <trkpt lat="43.00302" lon="0.53621">
        <ele>784.51</ele>
        <time>2020-02-08T12:51:39Z</time>
      </trkpt>
      <trkpt lat="43.00303" lon="0.53623">
        <ele>784.255</ele>
        <time>2020-02-08T12:51:38Z</time>
      </trkpt>
      <trkpt lat="43.00304" lon="0.53625">
        <ele>783.734</ele>
        <time>2020-02-08T12:51:37Z</time>
      </trkpt>
      <trkpt lat="43.00305" lon="0.53627">
        <ele>783.436</ele>
        <time>2020-02-08T12:51:36Z</time>
      </trkpt>
      <trkpt lat="43.00306" lon="0.5363">
        <ele>782.783</ele>
        <time>2020-02-08T12:51:35Z</time>
      </trkpt>
      <trkpt lat="43.00315" lon="0.53644">
        <ele>782.735</ele>
        <time>2020-02-08T12:51:28Z</time>
      </trkpt>
      <trkpt lat="43.00317" lon="0.53646">
        <ele>782.46</ele>
        <time>2020-02-08T12:51:27Z</time>
      </trkpt>
      <trkpt lat="43.00318" lon="0.53648">
        <ele>782.03</ele>
        <time>2020-02-08T12:51:26Z</time>
      </trkpt>
      <trkpt lat="43.00321" lon="0.53652">
        <ele>781.242</ele>
        <time>2020-02-08T12:51:24Z</time>
      </trkpt>
      <trkpt lat="43.00329" lon="0.53659">
        <ele>780.758</ele>
        <time>2020-02-08T12:51:18Z</time>
      </trkpt>
      <trkpt lat="43.0033" lon="0.53661">
        <ele>780.281</ele>
        <time>2020-02-08T12:51:17Z</time>
      </trkpt>
      <trkpt lat="43.00332" lon="0.53662">
        <ele>779.712</ele>
        <time>2020-02-08T12:51:16Z</time>
      </trkpt>
      <trkpt lat="43.00334" lon="0.53663">
        <ele>779.409</ele>
        <time>2020-02-08T12:51:15Z</time>
      </trkpt>
      <trkpt lat="43.00336" lon="0.53664">
        <ele>779.013</ele>
        <time>2020-02-08T12:51:14Z</time>
      </trkpt>
      <trkpt lat="43.00345" lon="0.53668">
        <ele>778.576</ele>
        <time>2020-02-08T12:51:09Z</time>
      </trkpt>
      <trkpt lat="43.0035" lon="0.5367">
        <ele>778.516</ele>
        <time>2020-02-08T12:51:06Z</time>
      </trkpt>
      <trkpt lat="43.00352" lon="0.5367">
        <ele>778.257</ele>
        <time>2020-02-08T12:51:05Z</time>
      </trkpt>
      <trkpt lat="43.00354" lon="0.5367">
        <ele>777.784</ele>
        <time>2020-02-08T12:51:04Z</time>
      </trkpt>
      <trkpt lat="43.00356" lon="0.5367">
        <ele>777.266</ele>
        <time>2020-02-08T12:51:03Z</time>
      </trkpt>
      <trkpt lat="43.00357" lon="0.53671">
        <ele>776.781</ele>
        <time>2020-02-08T12:51:02Z</time>
      </trkpt>
      <trkpt lat="43.00359" lon="0.53671">
        <ele>776.491</ele>
        <time>2020-02-08T12:51:01Z</time>
      </trkpt>
      <trkpt lat="43.00371" lon="0.53672">
        <ele>776.493</ele>
        <time>2020-02-08T12:50:55Z</time>
      </trkpt>
      <trkpt lat="43.00373" lon="0.53672">
        <ele>776.099</ele>
        <time>2020-02-08T12:50:54Z</time>
      </trkpt>
      <trkpt lat="43.00374" lon="0.53673">
        <ele>775.532</ele>
        <time>2020-02-08T12:50:53Z</time>
      </trkpt>
      <trkpt lat="43.00376" lon="0.53673">
        <ele>775.083</ele>
        <time>2020-02-08T12:50:52Z</time>
      </trkpt>
      <trkpt lat="43.00378" lon="0.53674">
        <ele>774.509</ele>
        <time>2020-02-08T12:50:51Z</time>
      </trkpt>
      <trkpt lat="43.00392" lon="0.53678">
        <ele>774.208</ele>
        <time>2020-02-08T12:50:45Z</time>
      </trkpt>
      <trkpt lat="43.00393" lon="0.53679">
        <ele>773.726</ele>
        <time>2020-02-08T12:50:44Z</time>
      </trkpt>
      <trkpt lat="43.00395" lon="0.5368">
        <ele>773.225</ele>
        <time>2020-02-08T12:50:43Z</time>
      </trkpt>
      <trkpt lat="43.00397" lon="0.53681">
        <ele>772.78</ele>
        <time>2020-02-08T12:50:42Z</time>
      </trkpt>
      <trkpt lat="43.00399" lon="0.53682">
        <ele>772.297</ele>
        <time>2020-02-08T12:50:41Z</time>
      </trkpt>
      <trkpt lat="43.00403" lon="0.53687">
        <ele>771.719</ele>
        <time>2020-02-08T12:50:38Z</time>
      </trkpt>
      <trkpt lat="43.00404" lon="0.53694">
        <ele>771.744</ele>
        <time>2020-02-08T12:50:34Z</time>
      </trkpt>
      <trkpt lat="43.00404" lon="0.53696">
        <ele>771.494</ele>
        <time>2020-02-08T12:50:33Z</time>
      </trkpt>
      <trkpt lat="43.00404" lon="0.53699">
        <ele>771.036</ele>
        <time>2020-02-08T12:50:32Z</time>
      </trkpt>
      <trkpt lat="43.00404" lon="0.53701">
        <ele>770.592</ele>
        <time>2020-02-08T12:50:31Z</time>
      </trkpt>
      <trkpt lat="43.00404" lon="0.53704">
        <ele>770.245</ele>
        <time>2020-02-08T12:50:30Z</time>
      </trkpt>
      <trkpt lat="43.00406" lon="0.53713">
        <ele>769.586</ele>
        <time>2020-02-08T12:50:26Z</time>
      </trkpt>
      <trkpt lat="43.00407" lon="0.53718">
        <ele>769.509</ele>
        <time>2020-02-08T12:50:24Z</time>
      </trkpt>
      <trkpt lat="43.00408" lon="0.5372">
        <ele>769.223</ele>
        <time>2020-02-08T12:50:23Z</time>
      </trkpt>
      <trkpt lat="43.00409" lon="0.53722">
        <ele>768.703</ele>
        <time>2020-02-08T12:50:22Z</time>
      </trkpt>
      <trkpt lat="43.0041" lon="0.53725">
        <ele>768.459</ele>
        <time>2020-02-08T12:50:21Z</time>
      </trkpt>
      <trkpt lat="43.00411" lon="0.53728">
        <ele>768.062</ele>
        <time>2020-02-08T12:50:20Z</time>
      </trkpt>
      <trkpt lat="43.00419" lon="0.53742">
        <ele>767.549</ele>
        <time>2020-02-08T12:50:12Z</time>
      </trkpt>
      <trkpt lat="43.00421" lon="0.53744">
        <ele>767.051</ele>
        <time>2020-02-08T12:50:11Z</time>
      </trkpt>
      <trkpt lat="43.00422" lon="0.53745">
        <ele>766.526</ele>
        <time>2020-02-08T12:50:10Z</time>
      </trkpt>
      <trkpt lat="43.00423" lon="0.53746">
        <ele>766.236</ele>
        <time>2020-02-08T12:50:09Z</time>
      </trkpt>
      <trkpt lat="43.00425" lon="0.53747">
        <ele>765.768</ele>
        <time>2020-02-08T12:50:08Z</time>
      </trkpt>
      <trkpt lat="43.00434" lon="0.53755">
        <ele>765.294</ele>
        <time>2020-02-08T12:50:02Z</time>
      </trkpt>
      <trkpt lat="43.00439" lon="0.53759">
        <ele>765.237</ele>
        <time>2020-02-08T12:49:59Z</time>
      </trkpt>
      <trkpt lat="43.0044" lon="0.5376">
        <ele>764.788</ele>
        <time>2020-02-08T12:49:58Z</time>
      </trkpt>
      <trkpt lat="43.00442" lon="0.53761">
        <ele>764.409</ele>
        <time>2020-02-08T12:49:57Z</time>
      </trkpt>
      <trkpt lat="43.00443" lon="0.53763">
        <ele>764.014</ele>
        <time>2020-02-08T12:49:56Z</time>
      </trkpt>
      <trkpt lat="43.00445" lon="0.53764">
        <ele>763.513</ele>
        <time>2020-02-08T12:49:55Z</time>
      </trkpt>
      <trkpt lat="43.00449" lon="0.53767">
        <ele>763.272</ele>
        <time>2020-02-08T12:49:53Z</time>
      </trkpt>
      <trkpt lat="43.00454" lon="0.53772">
        <ele>763.213</ele>
        <time>2020-02-08T12:49:50Z</time>
      </trkpt>
      <trkpt lat="43.00456" lon="0.53774">
        <ele>762.73</ele>
        <time>2020-02-08T12:49:49Z</time>
      </trkpt>
      <trkpt lat="43.00458" lon="0.53776">
        <ele>762.432</ele>
        <time>2020-02-08T12:49:48Z</time>
      </trkpt>
      <trkpt lat="43.00461" lon="0.53777">
        <ele>762.017</ele>
        <time>2020-02-08T12:49:47Z</time>
      </trkpt>
      <trkpt lat="43.00462" lon="0.53779">
        <ele>761.547</ele>
        <time>2020-02-08T12:49:46Z</time>
      </trkpt>
      <trkpt lat="43.00466" lon="0.53782">
        <ele>761.239</ele>
        <time>2020-02-08T12:49:44Z</time>
      </trkpt>
      <trkpt lat="43.00477" lon="0.5379">
        <ele>761.285</ele>
        <time>2020-02-08T12:49:38Z</time>
      </trkpt>
      <trkpt lat="43.00479" lon="0.53792">
        <ele>760.718</ele>
        <time>2020-02-08T12:49:37Z</time>
      </trkpt>
      <trkpt lat="43.00481" lon="0.53794">
        <ele>760.439</ele>
        <time>2020-02-08T12:49:36Z</time>
      </trkpt>
      <trkpt lat="43.00483" lon="0.53797">
        <ele>760.009</ele>
        <time>2020-02-08T12:49:35Z</time>
      </trkpt>
      <trkpt lat="43.00485" lon="0.53799">
        <ele>759.517</ele>
        <time>2020-02-08T12:49:34Z</time>
      </trkpt>
      <trkpt lat="43.00492" lon="0.5381">
        <ele>759.225</ele>
        <time>2020-02-08T12:49:28Z</time>
      </trkpt>
      <trkpt lat="43.00493" lon="0.53811">
        <ele>758.783</ele>
        <time>2020-02-08T12:49:27Z</time>
      </trkpt>
      <trkpt lat="43.00494" lon="0.53813">
        <ele>758.482</ele>
        <time>2020-02-08T12:49:26Z</time>
      </trkpt>
      <trkpt lat="43.00495" lon="0.53815">
        <ele>757.789</ele>
        <time>2020-02-08T12:49:25Z</time>
      </trkpt>
      <trkpt lat="43.00495" lon="0.53816">
        <ele>757.411</ele>
        <time>2020-02-08T12:49:24Z</time>
      </trkpt>
      <trkpt lat="43.00497" lon="0.53822">
        <ele>757.036</ele>
        <time>2020-02-08T12:49:21Z</time>
      </trkpt>
      <trkpt lat="43.00497" lon="0.53824">
        <ele>757.016</ele>
        <time>2020-02-08T12:49:20Z</time>
      </trkpt>
      <trkpt lat="43.00499" lon="0.53832">
        <ele>757.068</ele>
        <time>2020-02-08T12:49:17Z</time>
      </trkpt>
      <trkpt lat="43.005" lon="0.53835">
        <ele>756.574</ele>
        <time>2020-02-08T12:49:16Z</time>
      </trkpt>
      <trkpt lat="43.005" lon="0.53837">
        <ele>756.287</ele>
        <time>2020-02-08T12:49:15Z</time>
      </trkpt>
      <trkpt lat="43.00501" lon="0.5384">
        <ele>755.768</ele>
        <time>2020-02-08T12:49:14Z</time>
      </trkpt>
      <trkpt lat="43.00501" lon="0.53842">
        <ele>755.409</ele>
        <time>2020-02-08T12:49:13Z</time>
      </trkpt>
      <trkpt lat="43.00503" lon="0.53857">
        <ele>755.02</ele>
        <time>2020-02-08T12:49:07Z</time>
      </trkpt>
      <trkpt lat="43.00502" lon="0.5386">
        <ele>754.528</ele>
        <time>2020-02-08T12:49:06Z</time>
      </trkpt>
      <trkpt lat="43.00503" lon="0.53862">
        <ele>754.275</ele>
        <time>2020-02-08T12:49:05Z</time>
      </trkpt>
      <trkpt lat="43.00502" lon="0.53865">
        <ele>753.71</ele>
        <time>2020-02-08T12:49:04Z</time>
      </trkpt>
      <trkpt lat="43.00502" lon="0.53867">
        <ele>753.497</ele>
        <time>2020-02-08T12:49:03Z</time>
      </trkpt>
      <trkpt lat="43.00504" lon="0.53877">
        <ele>753.069</ele>
        <time>2020-02-08T12:48:59Z</time>
      </trkpt>
      <trkpt lat="43.00505" lon="0.53881">
        <ele>753.034</ele>
        <time>2020-02-08T12:48:57Z</time>
      </trkpt>
      <trkpt lat="43.00505" lon="0.53882">
        <ele>752.574</ele>
        <time>2020-02-08T12:48:56Z</time>
      </trkpt>
      <trkpt lat="43.00506" lon="0.53885">
        <ele>752.226</ele>
        <time>2020-02-08T12:48:55Z</time>
      </trkpt>
      <trkpt lat="43.00506" lon="0.53887">
        <ele>751.712</ele>
        <time>2020-02-08T12:48:54Z</time>
      </trkpt>
      <trkpt lat="43.00507" lon="0.53889">
        <ele>751.425</ele>
        <time>2020-02-08T12:48:53Z</time>
      </trkpt>
      <trkpt lat="43.00507" lon="0.53891">
        <ele>751.036</ele>
        <time>2020-02-08T12:48:52Z</time>
      </trkpt>
      <trkpt lat="43.00512" lon="0.53911">
        <ele>751.009</ele>
        <time>2020-02-08T12:48:45Z</time>
      </trkpt>
      <trkpt lat="43.00513" lon="0.53913">
        <ele>750.414</ele>
        <time>2020-02-08T12:48:44Z</time>
      </trkpt>
      <trkpt lat="43.00513" lon="0.53916">
        <ele>750.059</ele>
        <time>2020-02-08T12:48:43Z</time>
      </trkpt>
      <trkpt lat="43.00513" lon="0.53919">
        <ele>749.556</ele>
        <time>2020-02-08T12:48:42Z</time>
      </trkpt>
      <trkpt lat="43.00514" lon="0.53921">
        <ele>749.073</ele>
        <time>2020-02-08T12:48:41Z</time>
      </trkpt>
      <trkpt lat="43.00516" lon="0.53934">
        <ele>748.56</ele>
        <time>2020-02-08T12:48:35Z</time>
      </trkpt>
      <trkpt lat="43.00517" lon="0.53937">
        <ele>748.562</ele>
        <time>2020-02-08T12:48:34Z</time>
      </trkpt>
      <trkpt lat="43.00517" lon="0.53939">
        <ele>748.217</ele>
        <time>2020-02-08T12:48:33Z</time>
      </trkpt>
      <trkpt lat="43.00516" lon="0.53941">
        <ele>747.737</ele>
        <time>2020-02-08T12:48:32Z</time>
      </trkpt>
      <trkpt lat="43.00516" lon="0.53943">
        <ele>747.459</ele>
        <time>2020-02-08T12:48:31Z</time>
      </trkpt>
      <trkpt lat="43.00517" lon="0.53946">
        <ele>746.775</ele>
        <time>2020-02-08T12:48:30Z</time>
      </trkpt>
      <trkpt lat="43.00517" lon="0.53956">
        <ele>746.448</ele>
        <time>2020-02-08T12:48:25Z</time>
      </trkpt>
      <trkpt lat="43.00517" lon="0.5397">
        <ele>746.439</ele>
        <time>2020-02-08T12:48:20Z</time>
      </trkpt>
      <trkpt lat="43.00517" lon="0.53972">
        <ele>746.009</ele>
        <time>2020-02-08T12:48:19Z</time>
      </trkpt>
      <trkpt lat="43.00517" lon="0.53974">
        <ele>745.517</ele>
        <time>2020-02-08T12:48:18Z</time>
      </trkpt>
      <trkpt lat="43.00517" lon="0.53977">
        <ele>745.289</ele>
        <time>2020-02-08T12:48:17Z</time>
      </trkpt>
      <trkpt lat="43.00517" lon="0.53979">
        <ele>744.785</ele>
        <time>2020-02-08T12:48:16Z</time>
      </trkpt>
      <trkpt lat="43.00519" lon="0.53989">
        <ele>744.478</ele>
        <time>2020-02-08T12:48:12Z</time>
      </trkpt>
      <trkpt lat="43.00519" lon="0.53992">
        <ele>744.075</ele>
        <time>2020-02-08T12:48:11Z</time>
      </trkpt>
      <trkpt lat="43.0052" lon="0.53995">
        <ele>743.557</ele>
        <time>2020-02-08T12:48:10Z</time>
      </trkpt>
      <trkpt lat="43.0052" lon="0.53997">
        <ele>743.272</ele>
        <time>2020-02-08T12:48:09Z</time>
      </trkpt>
      <trkpt lat="43.00521" lon="0.54">
        <ele>742.792</ele>
        <time>2020-02-08T12:48:08Z</time>
      </trkpt>
      <trkpt lat="43.00524" lon="0.54015">
        <ele>742.444</ele>
        <time>2020-02-08T12:48:02Z</time>
      </trkpt>
      <trkpt lat="43.00526" lon="0.54021">
        <ele>742.45</ele>
        <time>2020-02-08T12:47:59Z</time>
      </trkpt>
      <trkpt lat="43.00527" lon="0.54023">
        <ele>742.073</ele>
        <time>2020-02-08T12:47:58Z</time>
      </trkpt>
      <trkpt lat="43.00528" lon="0.54026">
        <ele>741.494</ele>
        <time>2020-02-08T12:47:57Z</time>
      </trkpt>
      <trkpt lat="43.00528" lon="0.54028">
        <ele>741.009</ele>
        <time>2020-02-08T12:47:56Z</time>
      </trkpt>
      <trkpt lat="43.00529" lon="0.5403">
        <ele>740.517</ele>
        <time>2020-02-08T12:47:55Z</time>
      </trkpt>
      <trkpt lat="43.0053" lon="0.54033">
        <ele>740.27</ele>
        <time>2020-02-08T12:47:54Z</time>
      </trkpt>
      <trkpt lat="43.00536" lon="0.54047">
        <ele>740.238</ele>
        <time>2020-02-08T12:47:49Z</time>
      </trkpt>
      <trkpt lat="43.00537" lon="0.5405">
        <ele>740.238</ele>
        <time>2020-02-08T12:47:48Z</time>
      </trkpt>
      <trkpt lat="43.00539" lon="0.54055">
        <ele>740.245</ele>
        <time>2020-02-08T12:47:46Z</time>
      </trkpt>
      <trkpt lat="43.00542" lon="0.54058">
        <ele>739.517</ele>
        <time>2020-02-08T12:47:45Z</time>
      </trkpt>
      <trkpt lat="43.00544" lon="0.54061">
        <ele>739.252</ele>
        <time>2020-02-08T12:47:44Z</time>
      </trkpt>
      <trkpt lat="43.00545" lon="0.54062">
        <ele>738.542</ele>
        <time>2020-02-08T12:47:43Z</time>
      </trkpt>
      <trkpt lat="43.00546" lon="0.54064">
        <ele>738.254</ele>
        <time>2020-02-08T12:47:42Z</time>
      </trkpt>
      <trkpt lat="43.0055" lon="0.54066">
        <ele>737.59</ele>
        <time>2020-02-08T12:47:38Z</time>
      </trkpt>
      <trkpt lat="43.00553" lon="0.54065">
        <ele>737.573</ele>
        <time>2020-02-08T12:47:36Z</time>
      </trkpt>
      <trkpt lat="43.00557" lon="0.54063">
        <ele>737.524</ele>
        <time>2020-02-08T12:47:34Z</time>
      </trkpt>
      <trkpt lat="43.00559" lon="0.54062">
        <ele>737.209</ele>
        <time>2020-02-08T12:47:33Z</time>
      </trkpt>
      <trkpt lat="43.00561" lon="0.54061">
        <ele>736.717</ele>
        <time>2020-02-08T12:47:32Z</time>
      </trkpt>
      <trkpt lat="43.00563" lon="0.5406">
        <ele>736.27</ele>
        <time>2020-02-08T12:47:31Z</time>
      </trkpt>
      <trkpt lat="43.00565" lon="0.54058">
        <ele>735.738</ele>
        <time>2020-02-08T12:47:30Z</time>
      </trkpt>
      <trkpt lat="43.00571" lon="0.54052">
        <ele>735.457</ele>
        <time>2020-02-08T12:47:26Z</time>
      </trkpt>
      <trkpt lat="43.00573" lon="0.5405">
        <ele>735.044</ele>
        <time>2020-02-08T12:47:25Z</time>
      </trkpt>
      <trkpt lat="43.00574" lon="0.54049">
        <ele>734.576</ele>
        <time>2020-02-08T12:47:24Z</time>
      </trkpt>
      <trkpt lat="43.00576" lon="0.54047">
        <ele>734.251</ele>
        <time>2020-02-08T12:47:23Z</time>
      </trkpt>
      <trkpt lat="43.00577" lon="0.54045">
        <ele>733.741</ele>
        <time>2020-02-08T12:47:22Z</time>
      </trkpt>
      <trkpt lat="43.00578" lon="0.54042">
        <ele>733.413</ele>
        <time>2020-02-08T12:47:21Z</time>
      </trkpt>
      <trkpt lat="43.00585" lon="0.54037">
        <ele>733.439</ele>
        <time>2020-02-08T12:47:16Z</time>
      </trkpt>
      <trkpt lat="43.00587" lon="0.54035">
        <ele>732.712</ele>
        <time>2020-02-08T12:47:15Z</time>
      </trkpt>
      <trkpt lat="43.00588" lon="0.54034">
        <ele>732.483</ele>
        <time>2020-02-08T12:47:14Z</time>
      </trkpt>
      <trkpt lat="43.00589" lon="0.54034">
        <ele>732.009</ele>
        <time>2020-02-08T12:47:13Z</time>
      </trkpt>
      <trkpt lat="43.00593" lon="0.5403">
        <ele>731.414</ele>
        <time>2020-02-08T12:47:12Z</time>
      </trkpt>
      <trkpt lat="43.00601" lon="0.54025">
        <ele>731.068</ele>
        <time>2020-02-08T12:47:06Z</time>
      </trkpt>
      <trkpt lat="43.00605" lon="0.54024">
        <ele>731.027</ele>
        <time>2020-02-08T12:47:04Z</time>
      </trkpt>
      <trkpt lat="43.00607" lon="0.54024">
        <ele>730.539</ele>
        <time>2020-02-08T12:47:03Z</time>
      </trkpt>
      <trkpt lat="43.00608" lon="0.54023">
        <ele>730.226</ele>
        <time>2020-02-08T12:47:02Z</time>
      </trkpt>
      <trkpt lat="43.00609" lon="0.54022">
        <ele>729.798</ele>
        <time>2020-02-08T12:47:01Z</time>
      </trkpt>
      <trkpt lat="43.0061" lon="0.5402">
        <ele>729.443</ele>
        <time>2020-02-08T12:47:00Z</time>
      </trkpt>
      <trkpt lat="43.00611" lon="0.54019">
        <ele>729.073</ele>
        <time>2020-02-08T12:46:59Z</time>
      </trkpt>
      <trkpt lat="43.00619" lon="0.54013">
        <ele>729.035</ele>
        <time>2020-02-08T12:46:53Z</time>
      </trkpt>
      <trkpt lat="43.0062" lon="0.54012">
        <ele>728.521</ele>
        <time>2020-02-08T12:46:52Z</time>
      </trkpt>
      <trkpt lat="43.00622" lon="0.5401">
        <ele>728.074</ele>
        <time>2020-02-08T12:46:51Z</time>
      </trkpt>
      <trkpt lat="43.00624" lon="0.54009">
        <ele>727.595</ele>
        <time>2020-02-08T12:46:50Z</time>
      </trkpt>
      <trkpt lat="43.00625" lon="0.54008">
        <ele>727.209</ele>
        <time>2020-02-08T12:46:49Z</time>
      </trkpt>
      <trkpt lat="43.00632" lon="0.53993">
        <ele>726.716</ele>
        <time>2020-02-08T12:46:42Z</time>
      </trkpt>
      <trkpt lat="43.00634" lon="0.5399">
        <ele>726.788</ele>
        <time>2020-02-08T12:46:41Z</time>
      </trkpt>
      <trkpt lat="43.00635" lon="0.53989">
        <ele>726.446</ele>
        <time>2020-02-08T12:46:40Z</time>
      </trkpt>
      <trkpt lat="43.00636" lon="0.53987">
        <ele>726.01</ele>
        <time>2020-02-08T12:46:39Z</time>
      </trkpt>
      <trkpt lat="43.00638" lon="0.53986">
        <ele>725.417</ele>
        <time>2020-02-08T12:46:38Z</time>
      </trkpt>
      <trkpt lat="43.00639" lon="0.53985">
        <ele>725.049</ele>
        <time>2020-02-08T12:46:37Z</time>
      </trkpt>
      <trkpt lat="43.00642" lon="0.53983">
        <ele>724.544</ele>
        <time>2020-02-08T12:46:35Z</time>
      </trkpt>
      <trkpt lat="43.00644" lon="0.53981">
        <ele>724.524</ele>
        <time>2020-02-08T12:46:33Z</time>
      </trkpt>
      <trkpt lat="43.00646" lon="0.53981">
        <ele>724.226</ele>
        <time>2020-02-08T12:46:32Z</time>
      </trkpt>
      <trkpt lat="43.00648" lon="0.5398">
        <ele>723.592</ele>
        <time>2020-02-08T12:46:31Z</time>
      </trkpt>
      <trkpt lat="43.0065" lon="0.53979">
        <ele>723.235</ele>
        <time>2020-02-08T12:46:30Z</time>
      </trkpt>
      <trkpt lat="43.00652" lon="0.53978">
        <ele>722.546</ele>
        <time>2020-02-08T12:46:29Z</time>
      </trkpt>
      <trkpt lat="43.00665" lon="0.53979">
        <ele>722.209</ele>
        <time>2020-02-08T12:46:23Z</time>
      </trkpt>
      <trkpt lat="43.00667" lon="0.53981">
        <ele>721.717</ele>
        <time>2020-02-08T12:46:22Z</time>
      </trkpt>
      <trkpt lat="43.00669" lon="0.53981">
        <ele>721.407</ele>
        <time>2020-02-08T12:46:21Z</time>
      </trkpt>
      <trkpt lat="43.0067" lon="0.53981">
        <ele>721.055</ele>
        <time>2020-02-08T12:46:20Z</time>
      </trkpt>
      <trkpt lat="43.00671" lon="0.53983">
        <ele>720.431</ele>
        <time>2020-02-08T12:46:19Z</time>
      </trkpt>
      <trkpt lat="43.00678" lon="0.53987">
        <ele>720.098</ele>
        <time>2020-02-08T12:46:15Z</time>
      </trkpt>
      <trkpt lat="43.0068" lon="0.53987">
        <ele>720.08</ele>
        <time>2020-02-08T12:46:14Z</time>
      </trkpt>
      <trkpt lat="43.00689" lon="0.53992">
        <ele>720.085</ele>
        <time>2020-02-08T12:46:09Z</time>
      </trkpt>
      <trkpt lat="43.00692" lon="0.53993">
        <ele>719.565</ele>
        <time>2020-02-08T12:46:08Z</time>
      </trkpt>
      <trkpt lat="43.00694" lon="0.53994">
        <ele>719.257</ele>
        <time>2020-02-08T12:46:07Z</time>
      </trkpt>
      <trkpt lat="43.00696" lon="0.53994">
        <ele>718.713</ele>
        <time>2020-02-08T12:46:06Z</time>
      </trkpt>
      <trkpt lat="43.00698" lon="0.53995">
        <ele>718.486</ele>
        <time>2020-02-08T12:46:05Z</time>
      </trkpt>
      <trkpt lat="43.00705" lon="0.53998">
        <ele>718.057</ele>
        <time>2020-02-08T12:46:01Z</time>
      </trkpt>
      <trkpt lat="43.00707" lon="0.53999">
        <ele>717.509</ele>
        <time>2020-02-08T12:46:00Z</time>
      </trkpt>
      <trkpt lat="43.00709" lon="0.54">
        <ele>717.218</ele>
        <time>2020-02-08T12:45:59Z</time>
      </trkpt>
      <trkpt lat="43.00711" lon="0.54001">
        <ele>716.744</ele>
        <time>2020-02-08T12:45:58Z</time>
      </trkpt>
      <trkpt lat="43.00713" lon="0.54002">
        <ele>716.463</ele>
        <time>2020-02-08T12:45:57Z</time>
      </trkpt>
      <trkpt lat="43.00722" lon="0.54005">
        <ele>715.743</ele>
        <time>2020-02-08T12:45:52Z</time>
      </trkpt>
      <trkpt lat="43.00733" lon="0.54009">
        <ele>715.76</ele>
        <time>2020-02-08T12:45:47Z</time>
      </trkpt>
      <trkpt lat="43.00735" lon="0.5401">
        <ele>715.422</ele>
        <time>2020-02-08T12:45:46Z</time>
      </trkpt>
      <trkpt lat="43.00738" lon="0.54011">
        <ele>715.067</ele>
        <time>2020-02-08T12:45:45Z</time>
      </trkpt>
      <trkpt lat="43.0074" lon="0.54011">
        <ele>714.557</ele>
        <time>2020-02-08T12:45:44Z</time>
      </trkpt>
      <trkpt lat="43.00742" lon="0.54012">
        <ele>714.259</ele>
        <time>2020-02-08T12:45:43Z</time>
      </trkpt>
      <trkpt lat="43.00755" lon="0.54016">
        <ele>713.765</ele>
        <time>2020-02-08T12:45:38Z</time>
      </trkpt>
      <trkpt lat="43.00757" lon="0.54017">
        <ele>713.438</ele>
        <time>2020-02-08T12:45:37Z</time>
      </trkpt>
      <trkpt lat="43.00759" lon="0.54018">
        <ele>713.099</ele>
        <time>2020-02-08T12:45:36Z</time>
      </trkpt>
      <trkpt lat="43.00761" lon="0.54017">
        <ele>712.509</ele>
        <time>2020-02-08T12:45:35Z</time>
      </trkpt>
      <trkpt lat="43.00762" lon="0.54018">
        <ele>712.017</ele>
        <time>2020-02-08T12:45:34Z</time>
      </trkpt>
      <trkpt lat="43.00769" lon="0.54021">
        <ele>711.561</ele>
        <time>2020-02-08T12:45:30Z</time>
      </trkpt>
      <trkpt lat="43.00779" lon="0.54024">
        <ele>711.581</ele>
        <time>2020-02-08T12:45:25Z</time>
      </trkpt>
      <trkpt lat="43.00782" lon="0.54025">
        <ele>711.269</ele>
        <time>2020-02-08T12:45:24Z</time>
      </trkpt>
      <trkpt lat="43.00784" lon="0.54025">
        <ele>710.546</ele>
        <time>2020-02-08T12:45:23Z</time>
      </trkpt>
      <trkpt lat="43.00785" lon="0.54026">
        <ele>710.278</ele>
        <time>2020-02-08T12:45:22Z</time>
      </trkpt>
      <trkpt lat="43.00787" lon="0.54027">
        <ele>709.783</ele>
        <time>2020-02-08T12:45:21Z</time>
      </trkpt>
      <trkpt lat="43.00791" lon="0.54028">
        <ele>709.433</ele>
        <time>2020-02-08T12:45:18Z</time>
      </trkpt>
      <trkpt lat="43.00803" lon="0.54032">
        <ele>709.495</ele>
        <time>2020-02-08T12:45:12Z</time>
      </trkpt>
      <trkpt lat="43.00805" lon="0.54032">
        <ele>709.011</ele>
        <time>2020-02-08T12:45:11Z</time>
      </trkpt>
      <trkpt lat="43.00807" lon="0.54031">
        <ele>708.494</ele>
        <time>2020-02-08T12:45:10Z</time>
      </trkpt>
      <trkpt lat="43.00808" lon="0.54032">
        <ele>708.085</ele>
        <time>2020-02-08T12:45:09Z</time>
      </trkpt>
      <trkpt lat="43.0081" lon="0.54031">
        <ele>707.509</ele>
        <time>2020-02-08T12:45:08Z</time>
      </trkpt>
      <trkpt lat="43.00818" lon="0.54023">
        <ele>707.214</ele>
        <time>2020-02-08T12:45:02Z</time>
      </trkpt>
      <trkpt lat="43.00819" lon="0.54021">
        <ele>707.222</ele>
        <time>2020-02-08T12:45:01Z</time>
      </trkpt>
      <trkpt lat="43.0082" lon="0.54019">
        <ele>706.742</ele>
        <time>2020-02-08T12:45:00Z</time>
      </trkpt>
      <trkpt lat="43.00821" lon="0.54017">
        <ele>706.464</ele>
        <time>2020-02-08T12:44:59Z</time>
      </trkpt>
      <trkpt lat="43.00822" lon="0.54015">
        <ele>706.051</ele>
        <time>2020-02-08T12:44:58Z</time>
      </trkpt>
      <trkpt lat="43.00823" lon="0.54013">
        <ele>705.513</ele>
        <time>2020-02-08T12:44:57Z</time>
      </trkpt>
      <trkpt lat="43.00827" lon="0.54004">
        <ele>705.088</ele>
        <time>2020-02-08T12:44:53Z</time>
      </trkpt>
      <trkpt lat="43.00829" lon="0.53997">
        <ele>705.068</ele>
        <time>2020-02-08T12:44:50Z</time>
      </trkpt>
      <trkpt lat="43.00829" lon="0.53995">
        <ele>704.54</ele>
        <time>2020-02-08T12:44:49Z</time>
      </trkpt>
      <trkpt lat="43.0083" lon="0.53994">
        <ele>704.286</ele>
        <time>2020-02-08T12:44:48Z</time>
      </trkpt>
      <trkpt lat="43.00831" lon="0.53992">
        <ele>703.789</ele>
        <time>2020-02-08T12:44:47Z</time>
      </trkpt>
      <trkpt lat="43.00832" lon="0.53991">
        <ele>703.47</ele>
        <time>2020-02-08T12:44:46Z</time>
      </trkpt>
      <trkpt lat="43.00837" lon="0.53985">
        <ele>703.009</ele>
        <time>2020-02-08T12:44:42Z</time>
      </trkpt>
      <trkpt lat="43.00839" lon="0.53983">
        <ele>703.021</ele>
        <time>2020-02-08T12:44:41Z</time>
      </trkpt>
      <trkpt lat="43.00841" lon="0.53983">
        <ele>702.565</ele>
        <time>2020-02-08T12:44:40Z</time>
      </trkpt>
      <trkpt lat="43.00842" lon="0.53982">
        <ele>702.293</ele>
        <time>2020-02-08T12:44:39Z</time>
      </trkpt>
      <trkpt lat="43.00844" lon="0.53981">
        <ele>701.791</ele>
        <time>2020-02-08T12:44:38Z</time>
      </trkpt>
      <trkpt lat="43.00847" lon="0.5398">
        <ele>701.438</ele>
        <time>2020-02-08T12:44:37Z</time>
      </trkpt>
      <trkpt lat="43.00857" lon="0.53985">
        <ele>701.01</ele>
        <time>2020-02-08T12:44:31Z</time>
      </trkpt>
      <trkpt lat="43.00859" lon="0.53987">
        <ele>700.475</ele>
        <time>2020-02-08T12:44:30Z</time>
      </trkpt>
      <trkpt lat="43.0086" lon="0.53988">
        <ele>700.085</ele>
        <time>2020-02-08T12:44:29Z</time>
      </trkpt>
      <trkpt lat="43.00862" lon="0.5399">
        <ele>699.517</ele>
        <time>2020-02-08T12:44:28Z</time>
      </trkpt>
      <trkpt lat="43.00864" lon="0.53991">
        <ele>699.253</ele>
        <time>2020-02-08T12:44:27Z</time>
      </trkpt>
      <trkpt lat="43.00869" lon="0.53996">
        <ele>698.766</ele>
        <time>2020-02-08T12:44:24Z</time>
      </trkpt>
      <trkpt lat="43.00871" lon="0.53998">
        <ele>698.447</ele>
        <time>2020-02-08T12:44:23Z</time>
      </trkpt>
      <trkpt lat="43.00874" lon="0.54001">
        <ele>698.009</ele>
        <time>2020-02-08T12:44:22Z</time>
      </trkpt>
      <trkpt lat="43.00877" lon="0.54003">
        <ele>697.511</ele>
        <time>2020-02-08T12:44:21Z</time>
      </trkpt>
      <trkpt lat="43.00878" lon="0.54004">
        <ele>697.283</ele>
        <time>2020-02-08T12:44:20Z</time>
      </trkpt>
      <trkpt lat="43.00895" lon="0.54026">
        <ele>696.762</ele>
        <time>2020-02-08T12:44:10Z</time>
      </trkpt>
      <trkpt lat="43.00897" lon="0.54029">
        <ele>696.258</ele>
        <time>2020-02-08T12:44:09Z</time>
      </trkpt>
      <trkpt lat="43.00899" lon="0.54031">
        <ele>695.765</ele>
        <time>2020-02-08T12:44:08Z</time>
      </trkpt>
      <trkpt lat="43.009" lon="0.54033">
        <ele>695.417</ele>
        <time>2020-02-08T12:44:07Z</time>
      </trkpt>
      <trkpt lat="43.00901" lon="0.54036">
        <ele>695.072</ele>
        <time>2020-02-08T12:44:06Z</time>
      </trkpt>
      <trkpt lat="43.00907" lon="0.54045">
        <ele>694.512</ele>
        <time>2020-02-08T12:44:01Z</time>
      </trkpt>
      <trkpt lat="43.00908" lon="0.54046">
        <ele>694.524</ele>
        <time>2020-02-08T12:44:00Z</time>
      </trkpt>
      <trkpt lat="43.00909" lon="0.54048">
        <ele>694.25</ele>
        <time>2020-02-08T12:43:59Z</time>
      </trkpt>
      <trkpt lat="43.0091" lon="0.5405">
        <ele>693.533</ele>
        <time>2020-02-08T12:43:58Z</time>
      </trkpt>
      <trkpt lat="43.00911" lon="0.54052">
        <ele>693.294</ele>
        <time>2020-02-08T12:43:57Z</time>
      </trkpt>
      <trkpt lat="43.00912" lon="0.54054">
        <ele>692.709</ele>
        <time>2020-02-08T12:43:56Z</time>
      </trkpt>
      <trkpt lat="43.00914" lon="0.54061">
        <ele>692.418</ele>
        <time>2020-02-08T12:43:53Z</time>
      </trkpt>
      <trkpt lat="43.00917" lon="0.54072">
        <ele>692.417</ele>
        <time>2020-02-08T12:43:48Z</time>
      </trkpt>
      <trkpt lat="43.00918" lon="0.54075">
        <ele>692.036</ele>
        <time>2020-02-08T12:43:47Z</time>
      </trkpt>
      <trkpt lat="43.00918" lon="0.54077">
        <ele>691.519</ele>
        <time>2020-02-08T12:43:46Z</time>
      </trkpt>
      <trkpt lat="43.00919" lon="0.5408">
        <ele>691.216</ele>
        <time>2020-02-08T12:43:45Z</time>
      </trkpt>
      <trkpt lat="43.0092" lon="0.54082">
        <ele>690.548</ele>
        <time>2020-02-08T12:43:44Z</time>
      </trkpt>
      <trkpt lat="43.00921" lon="0.54085">
        <ele>690.283</ele>
        <time>2020-02-08T12:43:43Z</time>
      </trkpt>
      <trkpt lat="43.00921" lon="0.54087">
        <ele>690.273</ele>
        <time>2020-02-08T12:43:42Z</time>
      </trkpt>
      <trkpt lat="43.00923" lon="0.54099">
        <ele>690.215</ele>
        <time>2020-02-08T12:43:37Z</time>
      </trkpt>
      <trkpt lat="43.00924" lon="0.54102">
        <ele>689.761</ele>
        <time>2020-02-08T12:43:36Z</time>
      </trkpt>
      <trkpt lat="43.00924" lon="0.54106">
        <ele>689.424</ele>
        <time>2020-02-08T12:43:35Z</time>
      </trkpt>
      <trkpt lat="43.00925" lon="0.54108">
        <ele>688.715</ele>
        <time>2020-02-08T12:43:34Z</time>
      </trkpt>
      <trkpt lat="43.00926" lon="0.5411">
        <ele>688.409</ele>
        <time>2020-02-08T12:43:33Z</time>
      </trkpt>
      <trkpt lat="43.00929" lon="0.54125">
        <ele>687.715</ele>
        <time>2020-02-08T12:43:27Z</time>
      </trkpt>
      <trkpt lat="43.0093" lon="0.54127">
        <ele>687.405</ele>
        <time>2020-02-08T12:43:26Z</time>
      </trkpt>
      <trkpt lat="43.00931" lon="0.54129">
        <ele>687.044</ele>
        <time>2020-02-08T12:43:25Z</time>
      </trkpt>
      <trkpt lat="43.00932" lon="0.54132">
        <ele>686.529</ele>
        <time>2020-02-08T12:43:24Z</time>
      </trkpt>
      <trkpt lat="43.00932" lon="0.54134">
        <ele>686.296</ele>
        <time>2020-02-08T12:43:23Z</time>
      </trkpt>
      <trkpt lat="43.00932" lon="0.54142">
        <ele>685.588</ele>
        <time>2020-02-08T12:43:19Z</time>
      </trkpt>
      <trkpt lat="43.00933" lon="0.54153">
        <ele>685.593</ele>
        <time>2020-02-08T12:43:14Z</time>
      </trkpt>
      <trkpt lat="43.00934" lon="0.54158">
        <ele>684.743</ele>
        <time>2020-02-08T12:43:12Z</time>
      </trkpt>
      <trkpt lat="43.00935" lon="0.54161">
        <ele>684.245</ele>
        <time>2020-02-08T12:43:11Z</time>
      </trkpt>
      <trkpt lat="43.00936" lon="0.54164">
        <ele>683.411</ele>
        <time>2020-02-08T12:43:10Z</time>
      </trkpt>
      <trkpt lat="43.00936" lon="0.54186">
        <ele>683.464</ele>
        <time>2020-02-08T12:43:03Z</time>
      </trkpt>
      <trkpt lat="43.00936" lon="0.54189">
        <ele>682.475</ele>
        <time>2020-02-08T12:43:02Z</time>
      </trkpt>
      <trkpt lat="43.00936" lon="0.54192">
        <ele>682.009</ele>
        <time>2020-02-08T12:43:01Z</time>
      </trkpt>
      <trkpt lat="43.00936" lon="0.54195">
        <ele>681.509</ele>
        <time>2020-02-08T12:43:00Z</time>
      </trkpt>
      <trkpt lat="43.00936" lon="0.54206">
        <ele>681.081</ele>
        <time>2020-02-08T12:42:56Z</time>
      </trkpt>
      <trkpt lat="43.00932" lon="0.54219">
        <ele>681.041</ele>
        <time>2020-02-08T12:42:51Z</time>
      </trkpt>
      <trkpt lat="43.00932" lon="0.54222">
        <ele>680.594</ele>
        <time>2020-02-08T12:42:50Z</time>
      </trkpt>
      <trkpt lat="43.00931" lon="0.54224">
        <ele>679.751</ele>
        <time>2020-02-08T12:42:49Z</time>
      </trkpt>
      <trkpt lat="43.00931" lon="0.54227">
        <ele>679.453</ele>
        <time>2020-02-08T12:42:48Z</time>
      </trkpt>
      <trkpt lat="43.00929" lon="0.54244">
        <ele>679.028</ele>
        <time>2020-02-08T12:42:41Z</time>
      </trkpt>
      <trkpt lat="43.00928" lon="0.54249">
        <ele>679.078</ele>
        <time>2020-02-08T12:42:39Z</time>
      </trkpt>
      <trkpt lat="43.00927" lon="0.54256">
        <ele>678.23</ele>
        <time>2020-02-08T12:42:37Z</time>
      </trkpt>
      <trkpt lat="43.00926" lon="0.54258">
        <ele>677.536</ele>
        <time>2020-02-08T12:42:36Z</time>
      </trkpt>
      <trkpt lat="43.00926" lon="0.54261">
        <ele>677.299</ele>
        <time>2020-02-08T12:42:35Z</time>
      </trkpt>
      <trkpt lat="43.00925" lon="0.54263">
        <ele>676.77</ele>
        <time>2020-02-08T12:42:34Z</time>
      </trkpt>
      <trkpt lat="43.00918" lon="0.54281">
        <ele>676.709</ele>
        <time>2020-02-08T12:42:27Z</time>
      </trkpt>
      <trkpt lat="43.00916" lon="0.54287">
        <ele>676.022</ele>
        <time>2020-02-08T12:42:25Z</time>
      </trkpt>
      <trkpt lat="43.00914" lon="0.5429">
        <ele>675.557</ele>
        <time>2020-02-08T12:42:24Z</time>
      </trkpt>
      <trkpt lat="43.00913" lon="0.54293">
        <ele>675.094</ele>
        <time>2020-02-08T12:42:23Z</time>
      </trkpt>
      <trkpt lat="43.00911" lon="0.543">
        <ele>674.573</ele>
        <time>2020-02-08T12:42:20Z</time>
      </trkpt>
      <trkpt lat="43.00909" lon="0.54306">
        <ele>674.55</ele>
        <time>2020-02-08T12:42:17Z</time>
      </trkpt>
      <trkpt lat="43.00909" lon="0.54309">
        <ele>674.252</ele>
        <time>2020-02-08T12:42:16Z</time>
      </trkpt>
      <trkpt lat="43.00909" lon="0.54311">
        <ele>673.797</ele>
        <time>2020-02-08T12:42:15Z</time>
      </trkpt>
      <trkpt lat="43.00908" lon="0.54313">
        <ele>673.437</ele>
        <time>2020-02-08T12:42:14Z</time>
      </trkpt>
      <trkpt lat="43.00908" lon="0.54316">
        <ele>673.059</ele>
        <time>2020-02-08T12:42:13Z</time>
      </trkpt>
      <trkpt lat="43.00908" lon="0.54318">
        <ele>672.585</ele>
        <time>2020-02-08T12:42:12Z</time>
      </trkpt>
      <trkpt lat="43.00904" lon="0.54332">
        <ele>672.578</ele>
        <time>2020-02-08T12:42:06Z</time>
      </trkpt>
      <trkpt lat="43.00903" lon="0.54334">
        <ele>672.579</ele>
        <time>2020-02-08T12:42:05Z</time>
      </trkpt>
      <trkpt lat="43.00903" lon="0.54337">
        <ele>672.209</ele>
        <time>2020-02-08T12:42:04Z</time>
      </trkpt>
      <trkpt lat="43.00903" lon="0.5434">
        <ele>671.717</ele>
        <time>2020-02-08T12:42:03Z</time>
      </trkpt>
      <trkpt lat="43.00903" lon="0.54343">
        <ele>671.425</ele>
        <time>2020-02-08T12:42:02Z</time>
      </trkpt>
      <trkpt lat="43.00903" lon="0.54345">
        <ele>671.083</ele>
        <time>2020-02-08T12:42:01Z</time>
      </trkpt>
      <trkpt lat="43.009" lon="0.54355">
        <ele>670.529</ele>
        <time>2020-02-08T12:41:57Z</time>
      </trkpt>
      <trkpt lat="43.00897" lon="0.5436">
        <ele>670.586</ele>
        <time>2020-02-08T12:41:55Z</time>
      </trkpt>
      <trkpt lat="43.00895" lon="0.54362">
        <ele>670.258</ele>
        <time>2020-02-08T12:41:54Z</time>
      </trkpt>
      <trkpt lat="43.00894" lon="0.54364">
        <ele>669.783</ele>
        <time>2020-02-08T12:41:53Z</time>
      </trkpt>
      <trkpt lat="43.00894" lon="0.54367">
        <ele>669.223</ele>
        <time>2020-02-08T12:41:52Z</time>
      </trkpt>
      <trkpt lat="43.00894" lon="0.54369">
        <ele>668.745</ele>
        <time>2020-02-08T12:41:51Z</time>
      </trkpt>
      <trkpt lat="43.00892" lon="0.54375">
        <ele>668.431</ele>
        <time>2020-02-08T12:41:49Z</time>
      </trkpt>
      <trkpt lat="43.00886" lon="0.54391">
        <ele>668.494</ele>
        <time>2020-02-08T12:41:42Z</time>
      </trkpt>
      <trkpt lat="43.00885" lon="0.54394">
        <ele>668.445</ele>
        <time>2020-02-08T12:41:41Z</time>
      </trkpt>
      <trkpt lat="43.00885" lon="0.54397">
        <ele>668.009</ele>
        <time>2020-02-08T12:41:40Z</time>
      </trkpt>
      <trkpt lat="43.00885" lon="0.54399">
        <ele>667.422</ele>
        <time>2020-02-08T12:41:39Z</time>
      </trkpt>
      <trkpt lat="43.00886" lon="0.54402">
        <ele>667.002</ele>
        <time>2020-02-08T12:41:38Z</time>
      </trkpt>
      <trkpt lat="43.00886" lon="0.54404">
        <ele>666.549</ele>
        <time>2020-02-08T12:41:37Z</time>
      </trkpt>
      <trkpt lat="43.00886" lon="0.54406">
        <ele>666.284</ele>
        <time>2020-02-08T12:41:36Z</time>
      </trkpt>
      <trkpt lat="43.00886" lon="0.54433">
        <ele>666.291</ele>
        <time>2020-02-08T12:41:27Z</time>
      </trkpt>
      <trkpt lat="43.00886" lon="0.54436">
        <ele>665.513</ele>
        <time>2020-02-08T12:41:26Z</time>
      </trkpt>
      <trkpt lat="43.00885" lon="0.54438">
        <ele>665.278</ele>
        <time>2020-02-08T12:41:25Z</time>
      </trkpt>
      <trkpt lat="43.00885" lon="0.54443">
        <ele>664.458</ele>
        <time>2020-02-08T12:41:23Z</time>
      </trkpt>
      <trkpt lat="43.00885" lon="0.54446">
        <ele>664.04</ele>
        <time>2020-02-08T12:41:22Z</time>
      </trkpt>
      <trkpt lat="43.00886" lon="0.54459">
        <ele>664.076</ele>
        <time>2020-02-08T12:41:17Z</time>
      </trkpt>
      <trkpt lat="43.00887" lon="0.54463">
        <ele>663.519</ele>
        <time>2020-02-08T12:41:15Z</time>
      </trkpt>
      <trkpt lat="43.00887" lon="0.54465">
        <ele>663.23</ele>
        <time>2020-02-08T12:41:14Z</time>
      </trkpt>
      <trkpt lat="43.00886" lon="0.54467">
        <ele>662.709</ele>
        <time>2020-02-08T12:41:13Z</time>
      </trkpt>
      <trkpt lat="43.00885" lon="0.54469">
        <ele>662.227</ele>
        <time>2020-02-08T12:41:12Z</time>
      </trkpt>
      <trkpt lat="43.00884" lon="0.5448">
        <ele>661.707</ele>
        <time>2020-02-08T12:41:07Z</time>
      </trkpt>
      <trkpt lat="43.00884" lon="0.54486">
        <ele>661.799</ele>
        <time>2020-02-08T12:41:05Z</time>
      </trkpt>
      <trkpt lat="43.00884" lon="0.54489">
        <ele>661.496</ele>
        <time>2020-02-08T12:41:04Z</time>
      </trkpt>
      <trkpt lat="43.00884" lon="0.54492">
        <ele>661.073</ele>
        <time>2020-02-08T12:41:03Z</time>
      </trkpt>
      <trkpt lat="43.00883" lon="0.54494">
        <ele>660.545</ele>
        <time>2020-02-08T12:41:02Z</time>
      </trkpt>
      <trkpt lat="43.00883" lon="0.54498">
        <ele>660.24</ele>
        <time>2020-02-08T12:41:01Z</time>
      </trkpt>
      <trkpt lat="43.00884" lon="0.54503">
        <ele>659.78</ele>
        <time>2020-02-08T12:40:59Z</time>
      </trkpt>
      <trkpt lat="43.00882" lon="0.54516">
        <ele>659.712</ele>
        <time>2020-02-08T12:40:54Z</time>
      </trkpt>
      <trkpt lat="43.00883" lon="0.54522">
        <ele>659.458</ele>
        <time>2020-02-08T12:40:52Z</time>
      </trkpt>
      <trkpt lat="43.00883" lon="0.54524">
        <ele>658.441</ele>
        <time>2020-02-08T12:40:51Z</time>
      </trkpt>
      <trkpt lat="43.00883" lon="0.54526">
        <ele>658.422</ele>
        <time>2020-02-08T12:40:50Z</time>
      </trkpt>
      <trkpt lat="43.00883" lon="0.54528">
        <ele>658.009</ele>
        <time>2020-02-08T12:40:49Z</time>
      </trkpt>
      <trkpt lat="43.00884" lon="0.54541">
        <ele>657.513</ele>
        <time>2020-02-08T12:40:44Z</time>
      </trkpt>
      <trkpt lat="43.00885" lon="0.54544">
        <ele>657.576</ele>
        <time>2020-02-08T12:40:43Z</time>
      </trkpt>
      <trkpt lat="43.00886" lon="0.54547">
        <ele>657.216</ele>
        <time>2020-02-08T12:40:42Z</time>
      </trkpt>
      <trkpt lat="43.00887" lon="0.5455">
        <ele>656.764</ele>
        <time>2020-02-08T12:40:41Z</time>
      </trkpt>
      <trkpt lat="43.00887" lon="0.54553">
        <ele>656.421</ele>
        <time>2020-02-08T12:40:40Z</time>
      </trkpt>
      <trkpt lat="43.00888" lon="0.54556">
        <ele>656.053</ele>
        <time>2020-02-08T12:40:39Z</time>
      </trkpt>
      <trkpt lat="43.00889" lon="0.54558">
        <ele>655.558</ele>
        <time>2020-02-08T12:40:38Z</time>
      </trkpt>
      <trkpt lat="43.00894" lon="0.54566">
        <ele>655.518</ele>
        <time>2020-02-08T12:40:34Z</time>
      </trkpt>
      <trkpt lat="43.009" lon="0.54571">
        <ele>655.53</ele>
        <time>2020-02-08T12:40:30Z</time>
      </trkpt>
      <trkpt lat="43.00903" lon="0.54572">
        <ele>655.216</ele>
        <time>2020-02-08T12:40:29Z</time>
      </trkpt>
      <trkpt lat="43.00905" lon="0.54573">
        <ele>654.719</ele>
        <time>2020-02-08T12:40:28Z</time>
      </trkpt>
      <trkpt lat="43.00907" lon="0.54575">
        <ele>654.26</ele>
        <time>2020-02-08T12:40:27Z</time>
      </trkpt>
      <trkpt lat="43.0091" lon="0.54577">
        <ele>653.709</ele>
        <time>2020-02-08T12:40:26Z</time>
      </trkpt>
      <trkpt lat="43.00918" lon="0.54589">
        <ele>653.049</ele>
        <time>2020-02-08T12:40:18Z</time>
      </trkpt>
      <trkpt lat="43.00918" lon="0.5459">
        <ele>652.595</ele>
        <time>2020-02-08T12:40:17Z</time>
      </trkpt>
      <trkpt lat="43.00919" lon="0.54591">
        <ele>652.233</ele>
        <time>2020-02-08T12:40:16Z</time>
      </trkpt>
      <trkpt lat="43.0092" lon="0.54592">
        <ele>651.79</ele>
        <time>2020-02-08T12:40:15Z</time>
      </trkpt>
      <trkpt lat="43.0092" lon="0.54593">
        <ele>651.412</ele>
        <time>2020-02-08T12:40:14Z</time>
      </trkpt>
      <trkpt lat="43.00929" lon="0.546">
        <ele>651.477</ele>
        <time>2020-02-08T12:40:07Z</time>
      </trkpt>
      <trkpt lat="43.0093" lon="0.54601">
        <ele>650.757</ele>
        <time>2020-02-08T12:40:06Z</time>
      </trkpt>
      <trkpt lat="43.00931" lon="0.54601">
        <ele>650.489</ele>
        <time>2020-02-08T12:40:05Z</time>
      </trkpt>
      <trkpt lat="43.00932" lon="0.54602">
        <ele>650.045</ele>
        <time>2020-02-08T12:40:04Z</time>
      </trkpt>
      <trkpt lat="43.00933" lon="0.54603">
        <ele>649.598</ele>
        <time>2020-02-08T12:40:03Z</time>
      </trkpt>
      <trkpt lat="43.00939" lon="0.54607">
        <ele>649.219</ele>
        <time>2020-02-08T12:39:58Z</time>
      </trkpt>
      <trkpt lat="43.00941" lon="0.54608">
        <ele>649.209</ele>
        <time>2020-02-08T12:39:56Z</time>
      </trkpt>
      <trkpt lat="43.00942" lon="0.54608">
        <ele>648.717</ele>
        <time>2020-02-08T12:39:55Z</time>
      </trkpt>
      <trkpt lat="43.00944" lon="0.54609">
        <ele>648.407</ele>
        <time>2020-02-08T12:39:54Z</time>
      </trkpt>
      <trkpt lat="43.00946" lon="0.54609">
        <ele>647.784</ele>
        <time>2020-02-08T12:39:53Z</time>
      </trkpt>
      <trkpt lat="43.00948" lon="0.5461">
        <ele>647.432</ele>
        <time>2020-02-08T12:39:52Z</time>
      </trkpt>
      <trkpt lat="43.00959" lon="0.54617">
        <ele>647.069</ele>
        <time>2020-02-08T12:39:46Z</time>
      </trkpt>
      <trkpt lat="43.00961" lon="0.54619">
        <ele>647.031</ele>
        <time>2020-02-08T12:39:45Z</time>
      </trkpt>
      <trkpt lat="43.00963" lon="0.5462">
        <ele>646.526</ele>
        <time>2020-02-08T12:39:44Z</time>
      </trkpt>
      <trkpt lat="43.00965" lon="0.54622">
        <ele>646.226</ele>
        <time>2020-02-08T12:39:43Z</time>
      </trkpt>
      <trkpt lat="43.00966" lon="0.54624">
        <ele>645.778</ele>
        <time>2020-02-08T12:39:42Z</time>
      </trkpt>
      <trkpt lat="43.00968" lon="0.54626">
        <ele>645.424</ele>
        <time>2020-02-08T12:39:41Z</time>
      </trkpt>
      <trkpt lat="43.0097" lon="0.54628">
        <ele>644.727</ele>
        <time>2020-02-08T12:39:40Z</time>
      </trkpt>
      <trkpt lat="43.00982" lon="0.54634">
        <ele>644.758</ele>
        <time>2020-02-08T12:39:34Z</time>
      </trkpt>
      <trkpt lat="43.00985" lon="0.54634">
        <ele>644.709</ele>
        <time>2020-02-08T12:39:33Z</time>
      </trkpt>
      <trkpt lat="43.00987" lon="0.54634">
        <ele>644.425</ele>
        <time>2020-02-08T12:39:32Z</time>
      </trkpt>
      <trkpt lat="43.00989" lon="0.54634">
        <ele>644.005</ele>
        <time>2020-02-08T12:39:31Z</time>
      </trkpt>
      <trkpt lat="43.0099" lon="0.54634">
        <ele>643.579</ele>
        <time>2020-02-08T12:39:30Z</time>
      </trkpt>
      <trkpt lat="43.00992" lon="0.54632">
        <ele>643.271</ele>
        <time>2020-02-08T12:39:29Z</time>
      </trkpt>
      <trkpt lat="43.00994" lon="0.54625">
        <ele>642.718</ele>
        <time>2020-02-08T12:39:26Z</time>
      </trkpt>
      <trkpt lat="43.00996" lon="0.54623">
        <ele>642.74</ele>
        <time>2020-02-08T12:39:25Z</time>
      </trkpt>
      <trkpt lat="43.00997" lon="0.54621">
        <ele>642.415</ele>
        <time>2020-02-08T12:39:24Z</time>
      </trkpt>
      <trkpt lat="43.00998" lon="0.54619">
        <ele>642.055</ele>
        <time>2020-02-08T12:39:23Z</time>
      </trkpt>
      <trkpt lat="43.00999" lon="0.54616">
        <ele>641.577</ele>
        <time>2020-02-08T12:39:22Z</time>
      </trkpt>
      <trkpt lat="43.01" lon="0.54614">
        <ele>641.043</ele>
        <time>2020-02-08T12:39:21Z</time>
      </trkpt>
      <trkpt lat="43.01001" lon="0.54604">
        <ele>640.516</ele>
        <time>2020-02-08T12:39:18Z</time>
      </trkpt>
      <trkpt lat="43.01006" lon="0.54584">
        <ele>640.587</ele>
        <time>2020-02-08T12:39:10Z</time>
      </trkpt>
      <trkpt lat="43.01006" lon="0.54581">
        <ele>640.209</ele>
        <time>2020-02-08T12:39:09Z</time>
      </trkpt>
      <trkpt lat="43.01007" lon="0.54579">
        <ele>639.511</ele>
        <time>2020-02-08T12:39:08Z</time>
      </trkpt>
      <trkpt lat="43.01008" lon="0.54576">
        <ele>639.283</ele>
        <time>2020-02-08T12:39:07Z</time>
      </trkpt>
      <trkpt lat="43.01008" lon="0.54573">
        <ele>638.762</ele>
        <time>2020-02-08T12:39:06Z</time>
      </trkpt>
      <trkpt lat="43.01014" lon="0.54561">
        <ele>638.249</ele>
        <time>2020-02-08T12:39:01Z</time>
      </trkpt>
      <trkpt lat="43.01015" lon="0.5456">
        <ele>638.266</ele>
        <time>2020-02-08T12:39:00Z</time>
      </trkpt>
      <trkpt lat="43.01017" lon="0.54559">
        <ele>637.738</ele>
        <time>2020-02-08T12:38:59Z</time>
      </trkpt>
      <trkpt lat="43.01019" lon="0.54558">
        <ele>637.493</ele>
        <time>2020-02-08T12:38:58Z</time>
      </trkpt>
      <trkpt lat="43.0102" lon="0.54557">
        <ele>637.013</ele>
        <time>2020-02-08T12:38:57Z</time>
      </trkpt>
      <trkpt lat="43.01021" lon="0.54556">
        <ele>636.535</ele>
        <time>2020-02-08T12:38:56Z</time>
      </trkpt>
      <trkpt lat="43.01026" lon="0.54552">
        <ele>636.211</ele>
        <time>2020-02-08T12:38:53Z</time>
      </trkpt>
      <trkpt lat="43.01037" lon="0.54546">
        <ele>636.214</ele>
        <time>2020-02-08T12:38:48Z</time>
      </trkpt>
      <trkpt lat="43.01039" lon="0.54545">
        <ele>635.725</ele>
        <time>2020-02-08T12:38:47Z</time>
      </trkpt>
      <trkpt lat="43.0104" lon="0.54545">
        <ele>635.409</ele>
        <time>2020-02-08T12:38:46Z</time>
      </trkpt>
      <trkpt lat="43.01042" lon="0.54545">
        <ele>635.021</ele>
        <time>2020-02-08T12:38:45Z</time>
      </trkpt>
      <trkpt lat="43.01044" lon="0.54544">
        <ele>634.429</ele>
        <time>2020-02-08T12:38:44Z</time>
      </trkpt>
      <trkpt lat="43.01052" lon="0.54539">
        <ele>634.047</ele>
        <time>2020-02-08T12:38:39Z</time>
      </trkpt>
      <trkpt lat="43.01061" lon="0.54536">
        <ele>634.038</ele>
        <time>2020-02-08T12:38:34Z</time>
      </trkpt>
      <trkpt lat="43.01063" lon="0.54535">
        <ele>633.535</ele>
        <time>2020-02-08T12:38:33Z</time>
      </trkpt>
      <trkpt lat="43.01065" lon="0.54534">
        <ele>633.297</ele>
        <time>2020-02-08T12:38:32Z</time>
      </trkpt>
      <trkpt lat="43.01067" lon="0.54533">
        <ele>632.742</ele>
        <time>2020-02-08T12:38:31Z</time>
      </trkpt>
      <trkpt lat="43.01069" lon="0.54533">
        <ele>632.442</ele>
        <time>2020-02-08T12:38:30Z</time>
      </trkpt>
      <trkpt lat="43.01082" lon="0.54526">
        <ele>632.074</ele>
        <time>2020-02-08T12:38:23Z</time>
      </trkpt>
      <trkpt lat="43.01084" lon="0.54525">
        <ele>631.52</ele>
        <time>2020-02-08T12:38:22Z</time>
      </trkpt>
      <trkpt lat="43.01086" lon="0.54524">
        <ele>631.223</ele>
        <time>2020-02-08T12:38:21Z</time>
      </trkpt>
      <trkpt lat="43.01088" lon="0.54523">
        <ele>630.764</ele>
        <time>2020-02-08T12:38:20Z</time>
      </trkpt>
      <trkpt lat="43.01091" lon="0.54521">
        <ele>630.409</ele>
        <time>2020-02-08T12:38:19Z</time>
      </trkpt>
      <trkpt lat="43.011" lon="0.54516">
        <ele>630.015</ele>
        <time>2020-02-08T12:38:16Z</time>
      </trkpt>
      <trkpt lat="43.01102" lon="0.54515">
        <ele>629.423</ele>
        <time>2020-02-08T12:38:15Z</time>
      </trkpt>
      <trkpt lat="43.01104" lon="0.54514">
        <ele>629.033</ele>
        <time>2020-02-08T12:38:14Z</time>
      </trkpt>
      <trkpt lat="43.01106" lon="0.54513">
        <ele>628.492</ele>
        <time>2020-02-08T12:38:13Z</time>
      </trkpt>
      <trkpt lat="43.01108" lon="0.54512">
        <ele>628.049</ele>
        <time>2020-02-08T12:38:12Z</time>
      </trkpt>
      <trkpt lat="43.01116" lon="0.54509">
        <ele>627.581</ele>
        <time>2020-02-08T12:38:09Z</time>
      </trkpt>
      <trkpt lat="43.01127" lon="0.54507">
        <ele>627.576</ele>
        <time>2020-02-08T12:38:06Z</time>
      </trkpt>
      <trkpt lat="43.01131" lon="0.54507">
        <ele>627.286</ele>
        <time>2020-02-08T12:38:05Z</time>
      </trkpt>
      <trkpt lat="43.01135" lon="0.54507">
        <ele>626.758</ele>
        <time>2020-02-08T12:38:04Z</time>
      </trkpt>
      <trkpt lat="43.0114" lon="0.54506">
        <ele>626.454</ele>
        <time>2020-02-08T12:38:03Z</time>
      </trkpt>
      <trkpt lat="43.01144" lon="0.54507">
        <ele>626.077</ele>
        <time>2020-02-08T12:38:02Z</time>
      </trkpt>
      <trkpt lat="43.01148" lon="0.54507">
        <ele>625.548</ele>
        <time>2020-02-08T12:38:01Z</time>
      </trkpt>
      <trkpt lat="43.01173" lon="0.54504">
        <ele>625.509</ele>
        <time>2020-02-08T12:37:55Z</time>
      </trkpt>
      <trkpt lat="43.01176" lon="0.545">
        <ele>625.527</ele>
        <time>2020-02-08T12:37:54Z</time>
      </trkpt>
      <trkpt lat="43.01196" lon="0.54484">
        <ele>625.561</ele>
        <time>2020-02-08T12:37:48Z</time>
      </trkpt>
      <trkpt lat="43.01221" lon="0.54474">
        <ele>625.577</ele>
        <time>2020-02-08T12:37:40Z</time>
      </trkpt>
      <trkpt lat="43.01241" lon="0.54465">
        <ele>625.554</ele>
        <time>2020-02-08T12:37:33Z</time>
      </trkpt>
      <trkpt lat="43.01258" lon="0.54452">
        <ele>625.511</ele>
        <time>2020-02-08T12:37:27Z</time>
      </trkpt>
      <trkpt lat="43.01284" lon="0.54435">
        <ele>625.593</ele>
        <time>2020-02-08T12:37:19Z</time>
      </trkpt>
      <trkpt lat="43.01307" lon="0.54423">
        <ele>625.548</ele>
        <time>2020-02-08T12:37:13Z</time>
      </trkpt>
      <trkpt lat="43.01332" lon="0.54417">
        <ele>625.558</ele>
        <time>2020-02-08T12:37:06Z</time>
      </trkpt>
      <trkpt lat="43.01355" lon="0.54415">
        <ele>625.56</ele>
        <time>2020-02-08T12:36:59Z</time>
      </trkpt>
      <trkpt lat="43.01378" lon="0.54415">
        <ele>625.546</ele>
        <time>2020-02-08T12:36:52Z</time>
      </trkpt>
      <trkpt lat="43.014" lon="0.5442">
        <ele>625.569</ele>
        <time>2020-02-08T12:36:45Z</time>
      </trkpt>
      <trkpt lat="43.01416" lon="0.54428">
        <ele>625.54</ele>
        <time>2020-02-08T12:36:39Z</time>
      </trkpt>
      <trkpt lat="43.01425" lon="0.54436">
        <ele>625.509</ele>
        <time>2020-02-08T12:36:36Z</time>
      </trkpt>
      <trkpt lat="43.01436" lon="0.54445">
        <ele>625.521</ele>
        <time>2020-02-08T12:36:33Z</time>
      </trkpt>
      <trkpt lat="43.01443" lon="0.54454">
        <ele>625.565</ele>
        <time>2020-02-08T12:36:31Z</time>
      </trkpt>
      <trkpt lat="43.01446" lon="0.54461">
        <ele>625.593</ele>
        <time>2020-02-08T12:36:29Z</time>
      </trkpt>
      <trkpt lat="43.01449" lon="0.54492">
        <ele>625.567</ele>
        <time>2020-02-08T12:36:22Z</time>
      </trkpt>
      <trkpt lat="43.01465" lon="0.54531">
        <ele>625.544</ele>
        <time>2020-02-08T12:36:13Z</time>
      </trkpt>
      <trkpt lat="43.01472" lon="0.54543">
        <ele>625.546</ele>
        <time>2020-02-08T12:36:09Z</time>
      </trkpt>
      <trkpt lat="43.01475" lon="0.54546">
        <ele>625.241</ele>
        <time>2020-02-08T12:36:08Z</time>
      </trkpt>
      <trkpt lat="43.01476" lon="0.54549">
        <ele>624.731</ele>
        <time>2020-02-08T12:36:07Z</time>
      </trkpt>
      <trkpt lat="43.01477" lon="0.5455">
        <ele>624.453</ele>
        <time>2020-02-08T12:36:06Z</time>
      </trkpt>
      <trkpt lat="43.01478" lon="0.54553">
        <ele>624.039</ele>
        <time>2020-02-08T12:36:05Z</time>
      </trkpt>
      <trkpt lat="43.0148" lon="0.54562">
        <ele>623.522</ele>
        <time>2020-02-08T12:36:01Z</time>
      </trkpt>
      <trkpt lat="43.01484" lon="0.54577">
        <ele>623.593</ele>
        <time>2020-02-08T12:35:55Z</time>
      </trkpt>
      <trkpt lat="43.01492" lon="0.54602">
        <ele>623.509</ele>
        <time>2020-02-08T12:35:48Z</time>
      </trkpt>
      <trkpt lat="43.01492" lon="0.54605">
        <ele>623.208</ele>
        <time>2020-02-08T12:35:47Z</time>
      </trkpt>
      <trkpt lat="43.01494" lon="0.54608">
        <ele>622.726</ele>
        <time>2020-02-08T12:35:46Z</time>
      </trkpt>
      <trkpt lat="43.01496" lon="0.54612">
        <ele>622.425</ele>
        <time>2020-02-08T12:35:45Z</time>
      </trkpt>
      <trkpt lat="43.01499" lon="0.54616">
        <ele>622.092</ele>
        <time>2020-02-08T12:35:44Z</time>
      </trkpt>
      <trkpt lat="43.01507" lon="0.54631">
        <ele>621.519</ele>
        <time>2020-02-08T12:35:40Z</time>
      </trkpt>
      <trkpt lat="43.01517" lon="0.5465">
        <ele>621.571</ele>
        <time>2020-02-08T12:35:34Z</time>
      </trkpt>
      <trkpt lat="43.01518" lon="0.54653">
        <ele>621.236</ele>
        <time>2020-02-08T12:35:33Z</time>
      </trkpt>
      <trkpt lat="43.01519" lon="0.54655">
        <ele>620.526</ele>
        <time>2020-02-08T12:35:32Z</time>
      </trkpt>
      <trkpt lat="43.01519" lon="0.54658">
        <ele>620.238</ele>
        <time>2020-02-08T12:35:31Z</time>
      </trkpt>
      <trkpt lat="43.0152" lon="0.5466">
        <ele>619.764</ele>
        <time>2020-02-08T12:35:30Z</time>
      </trkpt>
      <trkpt lat="43.01524" lon="0.54665">
        <ele>619.497</ele>
        <time>2020-02-08T12:35:25Z</time>
      </trkpt>
      <trkpt lat="43.01538" lon="0.54671">
        <ele>619.478</ele>
        <time>2020-02-08T12:35:18Z</time>
      </trkpt>
      <trkpt lat="43.01544" lon="0.54674">
        <ele>619.409</ele>
        <time>2020-02-08T12:35:16Z</time>
      </trkpt>
      <trkpt lat="43.01547" lon="0.54675">
        <ele>619.013</ele>
        <time>2020-02-08T12:35:15Z</time>
      </trkpt>
      <trkpt lat="43.0155" lon="0.54677">
        <ele>618.585</ele>
        <time>2020-02-08T12:35:14Z</time>
      </trkpt>
      <trkpt lat="43.01554" lon="0.54679">
        <ele>618.273</ele>
        <time>2020-02-08T12:35:13Z</time>
      </trkpt>
      <trkpt lat="43.01558" lon="0.54681">
        <ele>617.79</ele>
        <time>2020-02-08T12:35:12Z</time>
      </trkpt>
      <trkpt lat="43.01573" lon="0.54693">
        <ele>617.457</ele>
        <time>2020-02-08T12:35:09Z</time>
      </trkpt>
      <trkpt lat="43.01585" lon="0.54703">
        <ele>617.479</ele>
        <time>2020-02-08T12:35:06Z</time>
      </trkpt>
      <trkpt lat="43.01587" lon="0.54705">
        <ele>617.424</ele>
        <time>2020-02-08T12:35:05Z</time>
      </trkpt>
      <trkpt lat="43.01594" lon="0.54717">
        <ele>617.464</ele>
        <time>2020-02-08T12:35:01Z</time>
      </trkpt>
      <trkpt lat="43.01598" lon="0.54725">
        <ele>617.486</ele>
        <time>2020-02-08T12:34:55Z</time>
      </trkpt>
      <trkpt lat="43.01606" lon="0.54728">
        <ele>617.492</ele>
        <time>2020-02-08T12:34:50Z</time>
      </trkpt>
      <trkpt lat="43.01625" lon="0.54723">
        <ele>617.435</ele>
        <time>2020-02-08T12:34:44Z</time>
      </trkpt>
      <trkpt lat="43.01647" lon="0.54711">
        <ele>617.496</ele>
        <time>2020-02-08T12:34:37Z</time>
      </trkpt>
      <trkpt lat="43.01662" lon="0.54699">
        <ele>617.409</ele>
        <time>2020-02-08T12:34:29Z</time>
      </trkpt>
      <trkpt lat="43.0167" lon="0.54688">
        <ele>617.414</ele>
        <time>2020-02-08T12:34:24Z</time>
      </trkpt>
      <trkpt lat="43.01672" lon="0.54687">
        <ele>617.004</ele>
        <time>2020-02-08T12:34:23Z</time>
      </trkpt>
      <trkpt lat="43.01674" lon="0.54685">
        <ele>616.453</ele>
        <time>2020-02-08T12:34:22Z</time>
      </trkpt>
      <trkpt lat="43.01675" lon="0.54682">
        <ele>616.036</ele>
        <time>2020-02-08T12:34:21Z</time>
      </trkpt>
      <trkpt lat="43.01677" lon="0.5468">
        <ele>615.583</ele>
        <time>2020-02-08T12:34:20Z</time>
      </trkpt>
      <trkpt lat="43.0169" lon="0.54664">
        <ele>615.275</ele>
        <time>2020-02-08T12:34:13Z</time>
      </trkpt>
      <trkpt lat="43.01698" lon="0.54657">
        <ele>615.29</ele>
        <time>2020-02-08T12:34:10Z</time>
      </trkpt>
      <trkpt lat="43.01703" lon="0.54651">
        <ele>615.23</ele>
        <time>2020-02-08T12:34:08Z</time>
      </trkpt>
      <trkpt lat="43.01705" lon="0.54648">
        <ele>614.732</ele>
        <time>2020-02-08T12:34:07Z</time>
      </trkpt>
      <trkpt lat="43.01708" lon="0.54646">
        <ele>614.418</ele>
        <time>2020-02-08T12:34:06Z</time>
      </trkpt>
      <trkpt lat="43.0171" lon="0.54643">
        <ele>614.031</ele>
        <time>2020-02-08T12:34:05Z</time>
      </trkpt>
      <trkpt lat="43.01711" lon="0.5464">
        <ele>613.442</ele>
        <time>2020-02-08T12:34:04Z</time>
      </trkpt>
      <trkpt lat="43.01717" lon="0.54631">
        <ele>613.009</ele>
        <time>2020-02-08T12:34:01Z</time>
      </trkpt>
      <trkpt lat="43.0173" lon="0.54613">
        <ele>613.011</ele>
        <time>2020-02-08T12:33:54Z</time>
      </trkpt>
      <trkpt lat="43.01733" lon="0.54611">
        <ele>612.565</ele>
        <time>2020-02-08T12:33:53Z</time>
      </trkpt>
      <trkpt lat="43.01735" lon="0.54609">
        <ele>612.215</ele>
        <time>2020-02-08T12:33:52Z</time>
      </trkpt>
      <trkpt lat="43.01736" lon="0.54606">
        <ele>611.712</ele>
        <time>2020-02-08T12:33:51Z</time>
      </trkpt>
      <trkpt lat="43.01738" lon="0.54604">
        <ele>611.469</ele>
        <time>2020-02-08T12:33:50Z</time>
      </trkpt>
      <trkpt lat="43.01745" lon="0.54599">
        <ele>611.041</ele>
        <time>2020-02-08T12:33:47Z</time>
      </trkpt>
      <trkpt lat="43.01759" lon="0.54591">
        <ele>611.026</ele>
        <time>2020-02-08T12:33:41Z</time>
      </trkpt>
      <trkpt lat="43.0178" lon="0.54588">
        <ele>611.016</ele>
        <time>2020-02-08T12:33:34Z</time>
      </trkpt>
      <trkpt lat="43.01792" lon="0.54588">
        <ele>611.078</ele>
        <time>2020-02-08T12:33:30Z</time>
      </trkpt>
      <trkpt lat="43.01794" lon="0.54588">
        <ele>610.524</ele>
        <time>2020-02-08T12:33:29Z</time>
      </trkpt>
      <trkpt lat="43.01797" lon="0.54587">
        <ele>610.077</ele>
        <time>2020-02-08T12:33:28Z</time>
      </trkpt>
      <trkpt lat="43.01799" lon="0.54588">
        <ele>609.518</ele>
        <time>2020-02-08T12:33:27Z</time>
      </trkpt>
      <trkpt lat="43.01802" lon="0.54588">
        <ele>609.209</ele>
        <time>2020-02-08T12:33:26Z</time>
      </trkpt>
      <trkpt lat="43.01817" lon="0.54584">
        <ele>608.719</ele>
        <time>2020-02-08T12:33:19Z</time>
      </trkpt>
      <trkpt lat="43.01824" lon="0.54579">
        <ele>608.79</ele>
        <time>2020-02-08T12:33:15Z</time>
      </trkpt>
      <trkpt lat="43.01827" lon="0.54578">
        <ele>608.476</ele>
        <time>2020-02-08T12:33:14Z</time>
      </trkpt>
      <trkpt lat="43.01829" lon="0.54577">
        <ele>608.079</ele>
        <time>2020-02-08T12:33:13Z</time>
      </trkpt>
      <trkpt lat="43.01831" lon="0.54577">
        <ele>607.516</ele>
        <time>2020-02-08T12:33:12Z</time>
      </trkpt>
      <trkpt lat="43.01833" lon="0.54576">
        <ele>607.288</ele>
        <time>2020-02-08T12:33:11Z</time>
      </trkpt>
      <trkpt lat="43.01835" lon="0.54575">
        <ele>606.783</ele>
        <time>2020-02-08T12:33:10Z</time>
      </trkpt>
      <trkpt lat="43.01847" lon="0.54573">
        <ele>606.733</ele>
        <time>2020-02-08T12:33:04Z</time>
      </trkpt>
      <trkpt lat="43.01849" lon="0.54572">
        <ele>606.455</ele>
        <time>2020-02-08T12:33:03Z</time>
      </trkpt>
      <trkpt lat="43.01851" lon="0.54571">
        <ele>606.081</ele>
        <time>2020-02-08T12:33:02Z</time>
      </trkpt>
      <trkpt lat="43.01853" lon="0.54571">
        <ele>605.474</ele>
        <time>2020-02-08T12:33:01Z</time>
      </trkpt>
      <trkpt lat="43.01854" lon="0.5457">
        <ele>605.035</ele>
        <time>2020-02-08T12:33:00Z</time>
      </trkpt>
      <trkpt lat="43.01864" lon="0.54571">
        <ele>604.509</ele>
        <time>2020-02-08T12:32:56Z</time>
      </trkpt>
      <trkpt lat="43.01869" lon="0.54574">
        <ele>604.515</ele>
        <time>2020-02-08T12:32:54Z</time>
      </trkpt>
      <trkpt lat="43.01877" lon="0.54581">
        <ele>604.505</ele>
        <time>2020-02-08T12:32:50Z</time>
      </trkpt>
      <trkpt lat="43.01881" lon="0.54586">
        <ele>604.544</ele>
        <time>2020-02-08T12:32:48Z</time>
      </trkpt>
      <trkpt lat="43.0188" lon="0.54589">
        <ele>604.267</ele>
        <time>2020-02-08T12:32:47Z</time>
      </trkpt>
      <trkpt lat="43.01879" lon="0.54591">
        <ele>603.764</ele>
        <time>2020-02-08T12:32:46Z</time>
      </trkpt>
      <trkpt lat="43.01877" lon="0.54592">
        <ele>603.236</ele>
        <time>2020-02-08T12:32:45Z</time>
      </trkpt>
      <trkpt lat="43.01877" lon="0.54595">
        <ele>602.731</ele>
        <time>2020-02-08T12:32:44Z</time>
      </trkpt>
      <trkpt lat="43.01876" lon="0.546">
        <ele>602.461</ele>
        <time>2020-02-08T12:32:42Z</time>
      </trkpt>
      <trkpt lat="43.01876" lon="0.54604">
        <ele>602.443</ele>
        <time>2020-02-08T12:32:40Z</time>
      </trkpt>
      <trkpt lat="43.01886" lon="0.54621">
        <ele>602.459</ele>
        <time>2020-02-08T12:32:35Z</time>
      </trkpt>
      <trkpt lat="43.01895" lon="0.54637">
        <ele>602.412</ele>
        <time>2020-02-08T12:32:28Z</time>
      </trkpt>
      <trkpt lat="43.01896" lon="0.54639">
        <ele>602.083</ele>
        <time>2020-02-08T12:32:27Z</time>
      </trkpt>
      <trkpt lat="43.01896" lon="0.54642">
        <ele>601.509</ele>
        <time>2020-02-08T12:32:26Z</time>
      </trkpt>
      <trkpt lat="43.01897" lon="0.54644">
        <ele>601.211</ele>
        <time>2020-02-08T12:32:25Z</time>
      </trkpt>
      <trkpt lat="43.01898" lon="0.54645">
        <ele>600.747</ele>
        <time>2020-02-08T12:32:24Z</time>
      </trkpt>
      <trkpt lat="43.019" lon="0.54654">
        <ele>600.426</ele>
        <time>2020-02-08T12:32:18Z</time>
      </trkpt>
      <trkpt lat="43.01901" lon="0.54655">
        <ele>600.494</ele>
        <time>2020-02-08T12:32:11Z</time>
      </trkpt>
      <trkpt lat="43.01905" lon="0.54653">
        <ele>600.411</ele>
        <time>2020-02-08T12:32:08Z</time>
      </trkpt>
      <trkpt lat="43.01908" lon="0.54653">
        <ele>600.043</ele>
        <time>2020-02-08T12:32:07Z</time>
      </trkpt>
      <trkpt lat="43.01909" lon="0.54653">
        <ele>599.518</ele>
        <time>2020-02-08T12:32:06Z</time>
      </trkpt>
      <trkpt lat="43.01911" lon="0.54653">
        <ele>599.238</ele>
        <time>2020-02-08T12:32:05Z</time>
      </trkpt>
      <trkpt lat="43.01913" lon="0.54653">
        <ele>598.55</ele>
        <time>2020-02-08T12:32:04Z</time>
      </trkpt>
      <trkpt lat="43.01914" lon="0.54651">
        <ele>598.296</ele>
        <time>2020-02-08T12:32:03Z</time>
      </trkpt>
      <trkpt lat="43.01933" lon="0.54636">
        <ele>598.219</ele>
        <time>2020-02-08T12:31:54Z</time>
      </trkpt>
      <trkpt lat="43.01935" lon="0.54634">
        <ele>598.28</ele>
        <time>2020-02-08T12:31:53Z</time>
      </trkpt>
      <trkpt lat="43.01937" lon="0.54632">
        <ele>597.709</ele>
        <time>2020-02-08T12:31:52Z</time>
      </trkpt>
      <trkpt lat="43.01938" lon="0.54631">
        <ele>597.426</ele>
        <time>2020-02-08T12:31:51Z</time>
      </trkpt>
      <trkpt lat="43.01939" lon="0.54629">
        <ele>596.715</ele>
        <time>2020-02-08T12:31:50Z</time>
      </trkpt>
      <trkpt lat="43.0194" lon="0.54628">
        <ele>596.498</ele>
        <time>2020-02-08T12:31:49Z</time>
      </trkpt>
      <trkpt lat="43.01942" lon="0.54624">
        <ele>596.036</ele>
        <time>2020-02-08T12:31:47Z</time>
      </trkpt>
      <trkpt lat="43.01948" lon="0.54612">
        <ele>596.053</ele>
        <time>2020-02-08T12:31:42Z</time>
      </trkpt>
      <trkpt lat="43.01949" lon="0.5461">
        <ele>595.515</ele>
        <time>2020-02-08T12:31:41Z</time>
      </trkpt>
      <trkpt lat="43.0195" lon="0.54608">
        <ele>595.24</ele>
        <time>2020-02-08T12:31:40Z</time>
      </trkpt>
      <trkpt lat="43.01952" lon="0.54606">
        <ele>594.51</ele>
        <time>2020-02-08T12:31:39Z</time>
      </trkpt>
      <trkpt lat="43.01953" lon="0.54604">
        <ele>594.232</ele>
        <time>2020-02-08T12:31:38Z</time>
      </trkpt>
      <trkpt lat="43.01971" lon="0.54592">
        <ele>593.718</ele>
        <time>2020-02-08T12:31:30Z</time>
      </trkpt>
      <trkpt lat="43.01977" lon="0.54586">
        <ele>593.781</ele>
        <time>2020-02-08T12:31:26Z</time>
      </trkpt>
      <trkpt lat="43.01979" lon="0.54586">
        <ele>593.482</ele>
        <time>2020-02-08T12:31:25Z</time>
      </trkpt>
      <trkpt lat="43.01981" lon="0.54585">
        <ele>593.009</ele>
        <time>2020-02-08T12:31:24Z</time>
      </trkpt>
      <trkpt lat="43.01984" lon="0.54584">
        <ele>592.513</ele>
        <time>2020-02-08T12:31:23Z</time>
      </trkpt>
      <trkpt lat="43.01985" lon="0.54583">
        <ele>592.276</ele>
        <time>2020-02-08T12:31:22Z</time>
      </trkpt>
      <trkpt lat="43.01993" lon="0.54574">
        <ele>591.516</ele>
        <time>2020-02-08T12:31:16Z</time>
      </trkpt>
      <trkpt lat="43.01995" lon="0.54574">
        <ele>591.527</ele>
        <time>2020-02-08T12:31:15Z</time>
      </trkpt>
      <trkpt lat="43.01996" lon="0.54573">
        <ele>591.244</ele>
        <time>2020-02-08T12:31:14Z</time>
      </trkpt>
      <trkpt lat="43.01998" lon="0.54571">
        <ele>590.776</ele>
        <time>2020-02-08T12:31:13Z</time>
      </trkpt>
      <trkpt lat="43.01999" lon="0.54569">
        <ele>590.491</ele>
        <time>2020-02-08T12:31:12Z</time>
      </trkpt>
      <trkpt lat="43.02" lon="0.54567">
        <ele>590.041</ele>
        <time>2020-02-08T12:31:11Z</time>
      </trkpt>
      <trkpt lat="43.02006" lon="0.54562">
        <ele>589.593</ele>
        <time>2020-02-08T12:31:06Z</time>
      </trkpt>
      <trkpt lat="43.02012" lon="0.54562">
        <ele>589.569</ele>
        <time>2020-02-08T12:31:02Z</time>
      </trkpt>
      <trkpt lat="43.02014" lon="0.54562">
        <ele>589.262</ele>
        <time>2020-02-08T12:31:01Z</time>
      </trkpt>
      <trkpt lat="43.02017" lon="0.54562">
        <ele>588.743</ele>
        <time>2020-02-08T12:31:00Z</time>
      </trkpt>
      <trkpt lat="43.02021" lon="0.54561">
        <ele>588.409</ele>
        <time>2020-02-08T12:30:59Z</time>
      </trkpt>
      <trkpt lat="43.02022" lon="0.5456">
        <ele>588.005</ele>
        <time>2020-02-08T12:30:58Z</time>
      </trkpt>
      <trkpt lat="43.02033" lon="0.54558">
        <ele>587.541</ele>
        <time>2020-02-08T12:30:52Z</time>
      </trkpt>
      <trkpt lat="43.02041" lon="0.54559">
        <ele>587.521</ele>
        <time>2020-02-08T12:30:46Z</time>
      </trkpt>
      <trkpt lat="43.02043" lon="0.54559">
        <ele>587.048</ele>
        <time>2020-02-08T12:30:45Z</time>
      </trkpt>
      <trkpt lat="43.02044" lon="0.5456">
        <ele>586.525</ele>
        <time>2020-02-08T12:30:44Z</time>
      </trkpt>
      <trkpt lat="43.02046" lon="0.5456">
        <ele>586.257</ele>
        <time>2020-02-08T12:30:43Z</time>
      </trkpt>
      <trkpt lat="43.02048" lon="0.54561">
        <ele>585.762</ele>
        <time>2020-02-08T12:30:42Z</time>
      </trkpt>
      <trkpt lat="43.02062" lon="0.54562">
        <ele>585.442</ele>
        <time>2020-02-08T12:30:33Z</time>
      </trkpt>
      <trkpt lat="43.0207" lon="0.5456">
        <ele>585.414</ele>
        <time>2020-02-08T12:30:28Z</time>
      </trkpt>
      <trkpt lat="43.02071" lon="0.5456">
        <ele>585.03</ele>
        <time>2020-02-08T12:30:27Z</time>
      </trkpt>
      <trkpt lat="43.02073" lon="0.5456">
        <ele>584.583</ele>
        <time>2020-02-08T12:30:26Z</time>
      </trkpt>
      <trkpt lat="43.02074" lon="0.5456">
        <ele>584.234</ele>
        <time>2020-02-08T12:30:25Z</time>
      </trkpt>
      <trkpt lat="43.02076" lon="0.54561">
        <ele>583.709</ele>
        <time>2020-02-08T12:30:24Z</time>
      </trkpt>
      <trkpt lat="43.02078" lon="0.54561">
        <ele>583.421</ele>
        <time>2020-02-08T12:30:23Z</time>
      </trkpt>
      <trkpt lat="43.02089" lon="0.54562">
        <ele>583.401</ele>
        <time>2020-02-08T12:30:10Z</time>
      </trkpt>
      <trkpt lat="43.02091" lon="0.54561">
        <ele>583.439</ele>
        <time>2020-02-08T12:30:08Z</time>
      </trkpt>
      <trkpt lat="43.02092" lon="0.54561">
        <ele>583.064</ele>
        <time>2020-02-08T12:30:07Z</time>
      </trkpt>
      <trkpt lat="43.02092" lon="0.5456">
        <ele>582.571</ele>
        <time>2020-02-08T12:30:06Z</time>
      </trkpt>
      <trkpt lat="43.02093" lon="0.54561">
        <ele>582.283</ele>
        <time>2020-02-08T12:30:05Z</time>
      </trkpt>
      <trkpt lat="43.02094" lon="0.54562">
        <ele>581.738</ele>
        <time>2020-02-08T12:30:04Z</time>
      </trkpt>
      <trkpt lat="43.02095" lon="0.54562">
        <ele>581.468</ele>
        <time>2020-02-08T12:30:03Z</time>
      </trkpt>
      <trkpt lat="43.02114" lon="0.54572">
        <ele>581.48</ele>
        <time>2020-02-08T12:29:56Z</time>
      </trkpt>
      <trkpt lat="43.02116" lon="0.54573">
        <ele>581.096</ele>
        <time>2020-02-08T12:29:55Z</time>
      </trkpt>
      <trkpt lat="43.02119" lon="0.54574">
        <ele>580.529</ele>
        <time>2020-02-08T12:29:54Z</time>
      </trkpt>
      <trkpt lat="43.02122" lon="0.54575">
        <ele>580.04</ele>
        <time>2020-02-08T12:29:53Z</time>
      </trkpt>
      <trkpt lat="43.02124" lon="0.54577">
        <ele>579.509</ele>
        <time>2020-02-08T12:29:52Z</time>
      </trkpt>
      <trkpt lat="43.02127" lon="0.54578">
        <ele>579.219</ele>
        <time>2020-02-08T12:29:51Z</time>
      </trkpt>
      <trkpt lat="43.02138" lon="0.54582">
        <ele>579.281</ele>
        <time>2020-02-08T12:29:45Z</time>
      </trkpt>
      <trkpt lat="43.0214" lon="0.54582">
        <ele>578.791</ele>
        <time>2020-02-08T12:29:44Z</time>
      </trkpt>
      <trkpt lat="43.02142" lon="0.54581">
        <ele>578.467</ele>
        <time>2020-02-08T12:29:43Z</time>
      </trkpt>
      <trkpt lat="43.02144" lon="0.54581">
        <ele>578.094</ele>
        <time>2020-02-08T12:29:42Z</time>
      </trkpt>
      <trkpt lat="43.02146" lon="0.54582">
        <ele>577.546</ele>
        <time>2020-02-08T12:29:41Z</time>
      </trkpt>
      <trkpt lat="43.0215" lon="0.54583">
        <ele>577.241</ele>
        <time>2020-02-08T12:29:37Z</time>
      </trkpt>
      <trkpt lat="43.02157" lon="0.54585">
        <ele>577.241</ele>
        <time>2020-02-08T12:29:32Z</time>
      </trkpt>
      <trkpt lat="43.02159" lon="0.54586">
        <ele>576.793</ele>
        <time>2020-02-08T12:29:31Z</time>
      </trkpt>
      <trkpt lat="43.02161" lon="0.54585">
        <ele>576.499</ele>
        <time>2020-02-08T12:29:30Z</time>
      </trkpt>
      <trkpt lat="43.02163" lon="0.54586">
        <ele>576.022</ele>
        <time>2020-02-08T12:29:29Z</time>
      </trkpt>
      <trkpt lat="43.02165" lon="0.54586">
        <ele>575.553</ele>
        <time>2020-02-08T12:29:28Z</time>
      </trkpt>
      <trkpt lat="43.02173" lon="0.54586">
        <ele>575.209</ele>
        <time>2020-02-08T12:29:23Z</time>
      </trkpt>
      <trkpt lat="43.02175" lon="0.54587">
        <ele>575.22</ele>
        <time>2020-02-08T12:29:22Z</time>
      </trkpt>
      <trkpt lat="43.02176" lon="0.54587">
        <ele>574.7</ele>
        <time>2020-02-08T12:29:21Z</time>
      </trkpt>
      <trkpt lat="43.02178" lon="0.54588">
        <ele>574.429</ele>
        <time>2020-02-08T12:29:20Z</time>
      </trkpt>
      <trkpt lat="43.0218" lon="0.54589">
        <ele>574.056</ele>
        <time>2020-02-08T12:29:19Z</time>
      </trkpt>
      <trkpt lat="43.02183" lon="0.54588">
        <ele>573.543</ele>
        <time>2020-02-08T12:29:18Z</time>
      </trkpt>
      <trkpt lat="43.02189" lon="0.54589">
        <ele>573.235</ele>
        <time>2020-02-08T12:29:14Z</time>
      </trkpt>
      <trkpt lat="43.02198" lon="0.54593">
        <ele>573.24</ele>
        <time>2020-02-08T12:29:08Z</time>
      </trkpt>
      <trkpt lat="43.022" lon="0.54594">
        <ele>572.59</ele>
        <time>2020-02-08T12:29:07Z</time>
      </trkpt>
      <trkpt lat="43.02201" lon="0.54595">
        <ele>572.242</ele>
        <time>2020-02-08T12:29:06Z</time>
      </trkpt>
      <trkpt lat="43.02204" lon="0.54596">
        <ele>571.778</ele>
        <time>2020-02-08T12:29:05Z</time>
      </trkpt>
      <trkpt lat="43.02206" lon="0.54597">
        <ele>571.431</ele>
        <time>2020-02-08T12:29:04Z</time>
      </trkpt>
      <trkpt lat="43.02218" lon="0.54606">
        <ele>570.712</ele>
        <time>2020-02-08T12:28:59Z</time>
      </trkpt>
      <trkpt lat="43.0222" lon="0.54608">
        <ele>570.709</ele>
        <time>2020-02-08T12:28:58Z</time>
      </trkpt>
      <trkpt lat="43.02223" lon="0.5461">
        <ele>570.403</ele>
        <time>2020-02-08T12:28:57Z</time>
      </trkpt>
      <trkpt lat="43.02227" lon="0.54612">
        <ele>570.021</ele>
        <time>2020-02-08T12:28:56Z</time>
      </trkpt>
      <trkpt lat="43.02232" lon="0.54614">
        <ele>569.511</ele>
        <time>2020-02-08T12:28:55Z</time>
      </trkpt>
      <trkpt lat="43.02234" lon="0.54615">
        <ele>569.214</ele>
        <time>2020-02-08T12:28:54Z</time>
      </trkpt>
      <trkpt lat="43.02243" lon="0.54618">
        <ele>568.751</ele>
        <time>2020-02-08T12:28:50Z</time>
      </trkpt>
      <trkpt lat="43.02249" lon="0.54619">
        <ele>568.743</ele>
        <time>2020-02-08T12:28:46Z</time>
      </trkpt>
      <trkpt lat="43.0225" lon="0.54618">
        <ele>568.478</ele>
        <time>2020-02-08T12:28:45Z</time>
      </trkpt>
      <trkpt lat="43.02252" lon="0.54618">
        <ele>568.088</ele>
        <time>2020-02-08T12:28:44Z</time>
      </trkpt>
      <trkpt lat="43.02253" lon="0.54618">
        <ele>567.49</ele>
        <time>2020-02-08T12:28:43Z</time>
      </trkpt>
      <trkpt lat="43.02255" lon="0.54618">
        <ele>567.046</ele>
        <time>2020-02-08T12:28:42Z</time>
      </trkpt>
      <trkpt lat="43.02267" lon="0.54618">
        <ele>566.589</ele>
        <time>2020-02-08T12:28:35Z</time>
      </trkpt>
      <trkpt lat="43.02269" lon="0.54618">
        <ele>566.21</ele>
        <time>2020-02-08T12:28:34Z</time>
      </trkpt>
      <trkpt lat="43.02271" lon="0.54618">
        <ele>565.509</ele>
        <time>2020-02-08T12:28:33Z</time>
      </trkpt>
      <trkpt lat="43.02272" lon="0.54618">
        <ele>565.223</ele>
        <time>2020-02-08T12:28:32Z</time>
      </trkpt>
      <trkpt lat="43.02275" lon="0.54618">
        <ele>564.749</ele>
        <time>2020-02-08T12:28:31Z</time>
      </trkpt>
      <trkpt lat="43.02281" lon="0.54619">
        <ele>564.495</ele>
        <time>2020-02-08T12:28:27Z</time>
      </trkpt>
      <trkpt lat="43.02283" lon="0.54619">
        <ele>564.418</ele>
        <time>2020-02-08T12:28:26Z</time>
      </trkpt>
      <trkpt lat="43.02285" lon="0.54618">
        <ele>564.025</ele>
        <time>2020-02-08T12:28:25Z</time>
      </trkpt>
      <trkpt lat="43.02286" lon="0.54616">
        <ele>563.527</ele>
        <time>2020-02-08T12:28:24Z</time>
      </trkpt>
      <trkpt lat="43.02288" lon="0.54616">
        <ele>563.242</ele>
        <time>2020-02-08T12:28:23Z</time>
      </trkpt>
      <trkpt lat="43.0229" lon="0.54617">
        <ele>562.792</ele>
        <time>2020-02-08T12:28:22Z</time>
      </trkpt>
      <trkpt lat="43.02296" lon="0.54619">
        <ele>562.494</ele>
        <time>2020-02-08T12:28:18Z</time>
      </trkpt>
      <trkpt lat="43.02299" lon="0.5462">
        <ele>562.48</ele>
        <time>2020-02-08T12:28:16Z</time>
      </trkpt>
      <trkpt lat="43.02301" lon="0.5462">
        <ele>562.063</ele>
        <time>2020-02-08T12:28:15Z</time>
      </trkpt>
      <trkpt lat="43.02303" lon="0.54621">
        <ele>561.534</ele>
        <time>2020-02-08T12:28:14Z</time>
      </trkpt>
      <trkpt lat="43.02305" lon="0.54621">
        <ele>561.209</ele>
        <time>2020-02-08T12:28:13Z</time>
      </trkpt>
      <trkpt lat="43.02307" lon="0.54621">
        <ele>560.721</ele>
        <time>2020-02-08T12:28:12Z</time>
      </trkpt>
      <trkpt lat="43.02315" lon="0.54625">
        <ele>560.401</ele>
        <time>2020-02-08T12:28:08Z</time>
      </trkpt>
      <trkpt lat="43.02321" lon="0.54628">
        <ele>560.439</ele>
        <time>2020-02-08T12:28:05Z</time>
      </trkpt>
      <trkpt lat="43.02324" lon="0.5463">
        <ele>560.081</ele>
        <time>2020-02-08T12:28:04Z</time>
      </trkpt>
      <trkpt lat="43.02326" lon="0.54631">
        <ele>559.528</ele>
        <time>2020-02-08T12:28:03Z</time>
      </trkpt>
      <trkpt lat="43.02328" lon="0.54633">
        <ele>559.27</ele>
        <time>2020-02-08T12:28:02Z</time>
      </trkpt>
      <trkpt lat="43.02331" lon="0.54634">
        <ele>558.725</ele>
        <time>2020-02-08T12:28:01Z</time>
      </trkpt>
      <trkpt lat="43.02333" lon="0.54635">
        <ele>558.475</ele>
        <time>2020-02-08T12:28:00Z</time>
      </trkpt>
      <trkpt lat="43.02346" lon="0.54641">
        <ele>558.437</ele>
        <time>2020-02-08T12:27:52Z</time>
      </trkpt>
      <trkpt lat="43.02348" lon="0.54641">
        <ele>558.413</ele>
        <time>2020-02-08T12:27:51Z</time>
      </trkpt>
      <trkpt lat="43.02349" lon="0.54642">
        <ele>558.086</ele>
        <time>2020-02-08T12:27:50Z</time>
      </trkpt>
      <trkpt lat="43.02351" lon="0.54643">
        <ele>557.527</ele>
        <time>2020-02-08T12:27:49Z</time>
      </trkpt>
      <trkpt lat="43.02353" lon="0.54644">
        <ele>557.009</ele>
        <time>2020-02-08T12:27:48Z</time>
      </trkpt>
      <trkpt lat="43.02354" lon="0.54644">
        <ele>556.516</ele>
        <time>2020-02-08T12:27:47Z</time>
      </trkpt>
      <trkpt lat="43.02356" lon="0.54645">
        <ele>556.206</ele>
        <time>2020-02-08T12:27:46Z</time>
      </trkpt>
      <trkpt lat="43.02365" lon="0.54648">
        <ele>556.264</ele>
        <time>2020-02-08T12:27:40Z</time>
      </trkpt>
      <trkpt lat="43.02366" lon="0.54649">
        <ele>555.737</ele>
        <time>2020-02-08T12:27:39Z</time>
      </trkpt>
      <trkpt lat="43.02368" lon="0.5465">
        <ele>555.484</ele>
        <time>2020-02-08T12:27:38Z</time>
      </trkpt>
      <trkpt lat="43.02369" lon="0.54651">
        <ele>555.096</ele>
        <time>2020-02-08T12:27:37Z</time>
      </trkpt>
      <trkpt lat="43.0237" lon="0.54652">
        <ele>554.421</ele>
        <time>2020-02-08T12:27:36Z</time>
      </trkpt>
      <trkpt lat="43.02375" lon="0.54655">
        <ele>554.041</ele>
        <time>2020-02-08T12:27:32Z</time>
      </trkpt>
      <trkpt lat="43.02378" lon="0.54657">
        <ele>554.023</ele>
        <time>2020-02-08T12:27:30Z</time>
      </trkpt>
      <trkpt lat="43.02379" lon="0.54658">
        <ele>553.519</ele>
        <time>2020-02-08T12:27:29Z</time>
      </trkpt>
      <trkpt lat="43.0238" lon="0.54659">
        <ele>553.232</ele>
        <time>2020-02-08T12:27:28Z</time>
      </trkpt>
      <trkpt lat="43.02381" lon="0.54659">
        <ele>552.573</ele>
        <time>2020-02-08T12:27:27Z</time>
      </trkpt>
      <trkpt lat="43.02383" lon="0.54659">
        <ele>552.209</ele>
        <time>2020-02-08T12:27:26Z</time>
      </trkpt>
      <trkpt lat="43.02387" lon="0.54661">
        <ele>551.714</ele>
        <time>2020-02-08T12:27:24Z</time>
      </trkpt>
      <trkpt lat="43.02394" lon="0.54666">
        <ele>551.704</ele>
        <time>2020-02-08T12:27:20Z</time>
      </trkpt>
      <trkpt lat="43.02396" lon="0.54667">
        <ele>551.424</ele>
        <time>2020-02-08T12:27:19Z</time>
      </trkpt>
      <trkpt lat="43.02397" lon="0.54668">
        <ele>551.047</ele>
        <time>2020-02-08T12:27:18Z</time>
      </trkpt>
      <trkpt lat="43.02399" lon="0.54669">
        <ele>550.544</ele>
        <time>2020-02-08T12:27:17Z</time>
      </trkpt>
      <trkpt lat="43.02401" lon="0.5467">
        <ele>550.266</ele>
        <time>2020-02-08T12:27:16Z</time>
      </trkpt>
      <trkpt lat="43.02402" lon="0.54673">
        <ele>549.731</ele>
        <time>2020-02-08T12:27:15Z</time>
      </trkpt>
      <trkpt lat="43.02411" lon="0.54681">
        <ele>549.771</ele>
        <time>2020-02-08T12:27:10Z</time>
      </trkpt>
      <trkpt lat="43.02413" lon="0.54683">
        <ele>549.433</ele>
        <time>2020-02-08T12:27:09Z</time>
      </trkpt>
      <trkpt lat="43.02415" lon="0.54685">
        <ele>548.779</ele>
        <time>2020-02-08T12:27:08Z</time>
      </trkpt>
      <trkpt lat="43.02417" lon="0.54686">
        <ele>548.452</ele>
        <time>2020-02-08T12:27:07Z</time>
      </trkpt>
      <trkpt lat="43.02419" lon="0.54688">
        <ele>548.063</ele>
        <time>2020-02-08T12:27:06Z</time>
      </trkpt>
      <trkpt lat="43.02423" lon="0.54692">
        <ele>547.509</ele>
        <time>2020-02-08T12:27:04Z</time>
      </trkpt>
      <trkpt lat="43.02433" lon="0.54701">
        <ele>547.52</ele>
        <time>2020-02-08T12:26:58Z</time>
      </trkpt>
      <trkpt lat="43.02437" lon="0.54704">
        <ele>547.5</ele>
        <time>2020-02-08T12:26:54Z</time>
      </trkpt>
      <trkpt lat="43.02438" lon="0.54705">
        <ele>547.229</ele>
        <time>2020-02-08T12:26:53Z</time>
      </trkpt>
      <trkpt lat="43.02439" lon="0.54706">
        <ele>546.539</ele>
        <time>2020-02-08T12:26:52Z</time>
      </trkpt>
      <trkpt lat="43.02442" lon="0.54709">
        <ele>546.276</ele>
        <time>2020-02-08T12:26:51Z</time>
      </trkpt>
      <trkpt lat="43.02443" lon="0.5471">
        <ele>545.798</ele>
        <time>2020-02-08T12:26:50Z</time>
      </trkpt>
      <trkpt lat="43.02444" lon="0.54711">
        <ele>545.413</ele>
        <time>2020-02-08T12:26:49Z</time>
      </trkpt>
      <trkpt lat="43.02449" lon="0.54718">
        <ele>545.433</ele>
        <time>2020-02-08T12:26:42Z</time>
      </trkpt>
      <trkpt lat="43.0245" lon="0.5472">
        <ele>544.795</ele>
        <time>2020-02-08T12:26:41Z</time>
      </trkpt>
      <trkpt lat="43.02451" lon="0.54721">
        <ele>544.471</ele>
        <time>2020-02-08T12:26:40Z</time>
      </trkpt>
      <trkpt lat="43.02452" lon="0.54723">
        <ele>544.024</ele>
        <time>2020-02-08T12:26:39Z</time>
      </trkpt>
      <trkpt lat="43.02453" lon="0.54724">
        <ele>543.565</ele>
        <time>2020-02-08T12:26:38Z</time>
      </trkpt>
      <trkpt lat="43.02457" lon="0.54729">
        <ele>543.009</ele>
        <time>2020-02-08T12:26:35Z</time>
      </trkpt>
      <trkpt lat="43.02459" lon="0.54731">
        <ele>543.021</ele>
        <time>2020-02-08T12:26:32Z</time>
      </trkpt>
      <trkpt lat="43.0246" lon="0.54732">
        <ele>542.529</ele>
        <time>2020-02-08T12:26:31Z</time>
      </trkpt>
      <trkpt lat="43.02462" lon="0.54734">
        <ele>542.247</ele>
        <time>2020-02-08T12:26:30Z</time>
      </trkpt>
      <trkpt lat="43.02464" lon="0.54736">
        <ele>541.754</ele>
        <time>2020-02-08T12:26:29Z</time>
      </trkpt>
      <trkpt lat="43.02465" lon="0.54738">
        <ele>541.411</ele>
        <time>2020-02-08T12:26:28Z</time>
      </trkpt>
      <trkpt lat="43.02479" lon="0.54753">
        <ele>541.083</ele>
        <time>2020-02-08T12:26:20Z</time>
      </trkpt>
      <trkpt lat="43.0248" lon="0.54754">
        <ele>541.028</ele>
        <time>2020-02-08T12:26:19Z</time>
      </trkpt>
      <trkpt lat="43.02481" lon="0.54756">
        <ele>540.568</ele>
        <time>2020-02-08T12:26:18Z</time>
      </trkpt>
      <trkpt lat="43.02482" lon="0.54758">
        <ele>540.09</ele>
        <time>2020-02-08T12:26:17Z</time>
      </trkpt>
      <trkpt lat="43.02482" lon="0.54759">
        <ele>539.526</ele>
        <time>2020-02-08T12:26:16Z</time>
      </trkpt>
      <trkpt lat="43.02483" lon="0.5476">
        <ele>539.259</ele>
        <time>2020-02-08T12:26:15Z</time>
      </trkpt>
      <trkpt lat="43.02485" lon="0.54766">
        <ele>538.79</ele>
        <time>2020-02-08T12:26:12Z</time>
      </trkpt>
      <trkpt lat="43.02484" lon="0.5478">
        <ele>538.709</ele>
        <time>2020-02-08T12:26:06Z</time>
      </trkpt>
      <trkpt lat="43.02484" lon="0.54782">
        <ele>538.225</ele>
        <time>2020-02-08T12:26:05Z</time>
      </trkpt>
      <trkpt lat="43.02485" lon="0.54784">
        <ele>537.723</ele>
        <time>2020-02-08T12:26:04Z</time>
      </trkpt>
      <trkpt lat="43.02485" lon="0.54786">
        <ele>537.297</ele>
        <time>2020-02-08T12:26:03Z</time>
      </trkpt>
      <trkpt lat="43.02485" lon="0.54787">
        <ele>536.756</ele>
        <time>2020-02-08T12:26:02Z</time>
      </trkpt>
      <trkpt lat="43.02491" lon="0.54797">
        <ele>536.233</ele>
        <time>2020-02-08T12:25:57Z</time>
      </trkpt>
      <trkpt lat="43.02495" lon="0.54805">
        <ele>536.285</ele>
        <time>2020-02-08T12:25:53Z</time>
      </trkpt>
      <trkpt lat="43.02496" lon="0.54807">
        <ele>535.79</ele>
        <time>2020-02-08T12:25:52Z</time>
      </trkpt>
      <trkpt lat="43.02497" lon="0.54809">
        <ele>535.46</ele>
        <time>2020-02-08T12:25:51Z</time>
      </trkpt>
      <trkpt lat="43.02497" lon="0.54811">
        <ele>535.022</ele>
        <time>2020-02-08T12:25:50Z</time>
      </trkpt>
      <trkpt lat="43.02498" lon="0.54814">
        <ele>534.558</ele>
        <time>2020-02-08T12:25:49Z</time>
      </trkpt>
      <trkpt lat="43.02503" lon="0.54829">
        <ele>534.271</ele>
        <time>2020-02-08T12:25:42Z</time>
      </trkpt>
      <trkpt lat="43.0251" lon="0.54839">
        <ele>534.252</ele>
        <time>2020-02-08T12:25:35Z</time>
      </trkpt>
      <trkpt lat="43.02518" lon="0.54839">
        <ele>534.209</ele>
        <time>2020-02-08T12:25:30Z</time>
      </trkpt>
      <trkpt lat="43.02519" lon="0.54839">
        <ele>534.215</ele>
        <time>2020-02-08T12:25:29Z</time>
      </trkpt>
      <trkpt lat="43.02522" lon="0.54841">
        <ele>534.287</ele>
        <time>2020-02-08T12:25:27Z</time>
      </trkpt>
      <trkpt lat="43.02523" lon="0.54842">
        <ele>534.517</ele>
        <time>2020-02-08T12:25:26Z</time>
      </trkpt>
      <trkpt lat="43.02525" lon="0.54844">
        <ele>535.03</ele>
        <time>2020-02-08T12:25:25Z</time>
      </trkpt>
      <trkpt lat="43.02526" lon="0.54847">
        <ele>535.477</ele>
        <time>2020-02-08T12:25:24Z</time>
      </trkpt>
      <trkpt lat="43.02527" lon="0.54851">
        <ele>535.779</ele>
        <time>2020-02-08T12:25:23Z</time>
      </trkpt>
      <trkpt lat="43.02528" lon="0.54854">
        <ele>536.264</ele>
        <time>2020-02-08T12:25:22Z</time>
      </trkpt>
      <trkpt lat="43.02534" lon="0.54872">
        <ele>536.234</ele>
        <time>2020-02-08T12:25:16Z</time>
      </trkpt>
      <trkpt lat="43.02537" lon="0.5488">
        <ele>536.266</ele>
        <time>2020-02-08T12:25:14Z</time>
      </trkpt>
      <trkpt lat="43.02537" lon="0.54885">
        <ele>536.522</ele>
        <time>2020-02-08T12:25:13Z</time>
      </trkpt>
      <trkpt lat="43.02538" lon="0.54889">
        <ele>537.055</ele>
        <time>2020-02-08T12:25:12Z</time>
      </trkpt>
      <trkpt lat="43.02538" lon="0.54893">
        <ele>537.536</ele>
        <time>2020-02-08T12:25:11Z</time>
      </trkpt>
      <trkpt lat="43.02539" lon="0.54897">
        <ele>538.009</ele>
        <time>2020-02-08T12:25:10Z</time>
      </trkpt>
      <trkpt lat="43.02541" lon="0.54903">
        <ele>538.411</ele>
        <time>2020-02-08T12:25:09Z</time>
      </trkpt>
      <trkpt lat="43.02542" lon="0.54909">
        <ele>538.756</ele>
        <time>2020-02-08T12:25:08Z</time>
      </trkpt>
      <trkpt lat="43.02542" lon="0.54915">
        <ele>539.254</ele>
        <time>2020-02-08T12:25:07Z</time>
      </trkpt>
      <trkpt lat="43.02542" lon="0.54921">
        <ele>539.723</ele>
        <time>2020-02-08T12:25:06Z</time>
      </trkpt>
      <trkpt lat="43.02543" lon="0.54928">
        <ele>540.28</ele>
        <time>2020-02-08T12:25:05Z</time>
      </trkpt>
      <trkpt lat="43.02549" lon="0.54957">
        <ele>540.582</ele>
        <time>2020-02-08T12:25:01Z</time>
      </trkpt>
      <trkpt lat="43.02551" lon="0.54973">
        <ele>540.547</ele>
        <time>2020-02-08T12:24:59Z</time>
      </trkpt>
      <trkpt lat="43.02555" lon="0.55006">
        <ele>540.537</ele>
        <time>2020-02-08T12:24:55Z</time>
      </trkpt>
      <trkpt lat="43.02554" lon="0.55015">
        <ele>540.529</ele>
        <time>2020-02-08T12:24:53Z</time>
      </trkpt>
      <trkpt lat="43.02554" lon="0.55018">
        <ele>541.015</ele>
        <time>2020-02-08T12:24:52Z</time>
      </trkpt>
      <trkpt lat="43.02553" lon="0.55021">
        <ele>541.428</ele>
        <time>2020-02-08T12:24:51Z</time>
      </trkpt>
      <trkpt lat="43.02553" lon="0.55024">
        <ele>541.759</ele>
        <time>2020-02-08T12:24:50Z</time>
      </trkpt>
      <trkpt lat="43.02553" lon="0.55027">
        <ele>542.209</ele>
        <time>2020-02-08T12:24:49Z</time>
      </trkpt>
      <trkpt lat="43.02555" lon="0.55049">
        <ele>542.726</ele>
        <time>2020-02-08T12:24:43Z</time>
      </trkpt>
      <trkpt lat="43.02554" lon="0.55077">
        <ele>542.724</ele>
        <time>2020-02-08T12:24:35Z</time>
      </trkpt>
      <trkpt lat="43.02553" lon="0.55096">
        <ele>542.788</ele>
        <time>2020-02-08T12:24:29Z</time>
      </trkpt>
      <trkpt lat="43.0255" lon="0.55114">
        <ele>542.772</ele>
        <time>2020-02-08T12:24:23Z</time>
      </trkpt>
      <trkpt lat="43.02555" lon="0.55128">
        <ele>542.759</ele>
        <time>2020-02-08T12:24:17Z</time>
      </trkpt>
      <trkpt lat="43.02561" lon="0.55144">
        <ele>542.761</ele>
        <time>2020-02-08T12:24:10Z</time>
      </trkpt>
      <trkpt lat="43.02566" lon="0.55156">
        <ele>542.776</ele>
        <time>2020-02-08T12:24:04Z</time>
      </trkpt>
      <trkpt lat="43.02567" lon="0.55157">
        <ele>543.256</ele>
        <time>2020-02-08T12:24:03Z</time>
      </trkpt>
      <trkpt lat="43.02567" lon="0.55158">
        <ele>543.548</ele>
        <time>2020-02-08T12:24:02Z</time>
      </trkpt>
      <trkpt lat="43.02568" lon="0.5516">
        <ele>544.034</ele>
        <time>2020-02-08T12:24:01Z</time>
      </trkpt>
      <trkpt lat="43.02567" lon="0.55161">
        <ele>544.417</ele>
        <time>2020-02-08T12:24:00Z</time>
      </trkpt>
      <trkpt lat="43.02554" lon="0.55174">
        <ele>544.709</ele>
        <time>2020-02-08T12:23:52Z</time>
      </trkpt>
      <trkpt lat="43.02547" lon="0.55178">
        <ele>544.713</ele>
        <time>2020-02-08T12:23:46Z</time>
      </trkpt>
      <trkpt lat="43.02549" lon="0.55184">
        <ele>544.785</ele>
        <time>2020-02-08T12:23:37Z</time>
      </trkpt>
      <trkpt lat="43.02554" lon="0.55192">
        <ele>544.773</ele>
        <time>2020-02-08T12:23:27Z</time>
      </trkpt>
      <trkpt lat="43.02556" lon="0.55204">
        <ele>544.728</ele>
        <time>2020-02-08T12:23:19Z</time>
      </trkpt>
      <trkpt lat="43.02564" lon="0.55221">
        <ele>544.785</ele>
        <time>2020-02-08T12:23:09Z</time>
      </trkpt>
      <trkpt lat="43.02573" lon="0.55231">
        <ele>544.727</ele>
        <time>2020-02-08T12:22:59Z</time>
      </trkpt>
      <trkpt lat="43.02574" lon="0.55231">
        <ele>544.442</ele>
        <time>2020-02-08T12:22:58Z</time>
      </trkpt>
      <trkpt lat="43.02576" lon="0.55231">
        <ele>544.052</ele>
        <time>2020-02-08T12:22:57Z</time>
      </trkpt>
      <trkpt lat="43.02577" lon="0.5523">
        <ele>543.21</ele>
        <time>2020-02-08T12:22:55Z</time>
      </trkpt>
      <trkpt lat="43.02583" lon="0.55227">
        <ele>542.783</ele>
        <time>2020-02-08T12:22:47Z</time>
      </trkpt>
      <trkpt lat="43.02584" lon="0.55228">
        <ele>542.209</ele>
        <time>2020-02-08T12:22:44Z</time>
      </trkpt>
      <trkpt lat="43.02586" lon="0.55228">
        <ele>541.711</ele>
        <time>2020-02-08T12:22:43Z</time>
      </trkpt>
      <trkpt lat="43.02587" lon="0.5523">
        <ele>541.492</ele>
        <time>2020-02-08T12:22:42Z</time>
      </trkpt>
      <trkpt lat="43.02589" lon="0.55231">
        <ele>541.032</ele>
        <time>2020-02-08T12:22:41Z</time>
      </trkpt>
      <trkpt lat="43.02596" lon="0.55229">
        <ele>540.573</ele>
        <time>2020-02-08T12:22:37Z</time>
      </trkpt>
      <trkpt lat="43.02597" lon="0.55228">
        <ele>540.25</ele>
        <time>2020-02-08T12:22:36Z</time>
      </trkpt>
      <trkpt lat="43.02599" lon="0.55228">
        <ele>539.552</ele>
        <time>2020-02-08T12:22:35Z</time>
      </trkpt>
      <trkpt lat="43.02601" lon="0.55228">
        <ele>539.277</ele>
        <time>2020-02-08T12:22:34Z</time>
      </trkpt>
      <trkpt lat="43.02603" lon="0.55229">
        <ele>538.727</ele>
        <time>2020-02-08T12:22:33Z</time>
      </trkpt>
      <trkpt lat="43.02617" lon="0.5523">
        <ele>538.499</ele>
        <time>2020-02-08T12:22:27Z</time>
      </trkpt>
      <trkpt lat="43.02625" lon="0.55233">
        <ele>538.495</ele>
        <time>2020-02-08T12:22:23Z</time>
      </trkpt>
      <trkpt lat="43.02627" lon="0.55233">
        <ele>538.018</ele>
        <time>2020-02-08T12:22:22Z</time>
      </trkpt>
      <trkpt lat="43.02628" lon="0.55233">
        <ele>537.589</ele>
        <time>2020-02-08T12:22:21Z</time>
      </trkpt>
      <trkpt lat="43.0263" lon="0.55233">
        <ele>537.209</ele>
        <time>2020-02-08T12:22:20Z</time>
      </trkpt>
      <trkpt lat="43.02631" lon="0.55233">
        <ele>536.717</ele>
        <time>2020-02-08T12:22:19Z</time>
      </trkpt>
      <trkpt lat="43.02638" lon="0.55233">
        <ele>536.261</ele>
        <time>2020-02-08T12:22:13Z</time>
      </trkpt>
      <trkpt lat="43.02642" lon="0.55232">
        <ele>536.281</ele>
        <time>2020-02-08T12:22:10Z</time>
      </trkpt>
      <trkpt lat="43.02644" lon="0.5523">
        <ele>535.433</ele>
        <time>2020-02-08T12:22:08Z</time>
      </trkpt>
      <trkpt lat="43.02645" lon="0.5523">
        <ele>535.095</ele>
        <time>2020-02-08T12:22:07Z</time>
      </trkpt>
      <trkpt lat="43.02646" lon="0.55229">
        <ele>534.57</ele>
        <time>2020-02-08T12:22:06Z</time>
      </trkpt>
      <trkpt lat="43.02649" lon="0.55227">
        <ele>534.21</ele>
        <time>2020-02-08T12:22:03Z</time>
      </trkpt>
      <trkpt lat="43.0265" lon="0.55226">
        <ele>533.792</ele>
        <time>2020-02-08T12:22:02Z</time>
      </trkpt>
      <trkpt lat="43.02651" lon="0.55226">
        <ele>533.498</ele>
        <time>2020-02-08T12:22:01Z</time>
      </trkpt>
      <trkpt lat="43.02652" lon="0.55225">
        <ele>533.011</ele>
        <time>2020-02-08T12:22:00Z</time>
      </trkpt>
      <trkpt lat="43.02653" lon="0.55225">
        <ele>532.552</ele>
        <time>2020-02-08T12:21:59Z</time>
      </trkpt>
      <trkpt lat="43.02656" lon="0.55225">
        <ele>532.209</ele>
        <time>2020-02-08T12:21:57Z</time>
      </trkpt>
      <trkpt lat="43.02659" lon="0.55225">
        <ele>532.203</ele>
        <time>2020-02-08T12:21:54Z</time>
      </trkpt>
      <trkpt lat="43.0266" lon="0.55225">
        <ele>531.721</ele>
        <time>2020-02-08T12:21:53Z</time>
      </trkpt>
      <trkpt lat="43.02661" lon="0.55224">
        <ele>531.411</ele>
        <time>2020-02-08T12:21:52Z</time>
      </trkpt>
      <trkpt lat="43.02662" lon="0.55224">
        <ele>531.061</ele>
        <time>2020-02-08T12:21:51Z</time>
      </trkpt>
      <trkpt lat="43.02664" lon="0.55224">
        <ele>530.538</ele>
        <time>2020-02-08T12:21:50Z</time>
      </trkpt>
      <trkpt lat="43.0267" lon="0.55232">
        <ele>530.29</ele>
        <time>2020-02-08T12:21:45Z</time>
      </trkpt>
      <trkpt lat="43.02678" lon="0.55243">
        <ele>530.215</ele>
        <time>2020-02-08T12:21:41Z</time>
      </trkpt>
      <trkpt lat="43.02681" lon="0.55248">
        <ele>530.575</ele>
        <time>2020-02-08T12:21:40Z</time>
      </trkpt>
      <trkpt lat="43.02686" lon="0.55254">
        <ele>531.077</ele>
        <time>2020-02-08T12:21:39Z</time>
      </trkpt>
      <trkpt lat="43.02692" lon="0.55255">
        <ele>531.443</ele>
        <time>2020-02-08T12:21:38Z</time>
      </trkpt>
      <trkpt lat="43.02698" lon="0.55255">
        <ele>531.756</ele>
        <time>2020-02-08T12:21:37Z</time>
      </trkpt>
      <trkpt lat="43.02704" lon="0.55255">
        <ele>532.267</ele>
        <time>2020-02-08T12:21:36Z</time>
      </trkpt>
      <trkpt lat="43.02714" lon="0.5526">
        <ele>532.209</ele>
        <time>2020-02-08T12:21:34Z</time>
      </trkpt>
      <trkpt lat="43.02722" lon="0.55264">
        <ele>533.219</ele>
        <time>2020-02-08T12:21:32Z</time>
      </trkpt>
      <trkpt lat="43.02729" lon="0.55266">
        <ele>534.081</ele>
        <time>2020-02-08T12:21:30Z</time>
      </trkpt>
      <trkpt lat="43.02738" lon="0.55267">
        <ele>534.467</ele>
        <time>2020-02-08T12:21:28Z</time>
      </trkpt>
      <trkpt lat="43.02764" lon="0.55275">
        <ele>534.411</ele>
        <time>2020-02-08T12:21:21Z</time>
      </trkpt>
      <trkpt lat="43.02782" lon="0.55281">
        <ele>534.428</ele>
        <time>2020-02-08T12:21:15Z</time>
      </trkpt>
      <trkpt lat="43.02784" lon="0.55282">
        <ele>534.02</ele>
        <time>2020-02-08T12:21:14Z</time>
      </trkpt>
      <trkpt lat="43.02788" lon="0.55283">
        <ele>533.085</ele>
        <time>2020-02-08T12:21:13Z</time>
      </trkpt>
      <trkpt lat="43.02792" lon="0.55284">
        <ele>532.445</ele>
        <time>2020-02-08T12:21:12Z</time>
      </trkpt>
      <trkpt lat="43.028" lon="0.55287">
        <ele>532.077</ele>
        <time>2020-02-08T12:21:09Z</time>
      </trkpt>
      <trkpt lat="43.02825" lon="0.55298">
        <ele>532.043</ele>
        <time>2020-02-08T12:21:01Z</time>
      </trkpt>
      <trkpt lat="43.02857" lon="0.55305">
        <ele>532.046</ele>
        <time>2020-02-08T12:20:52Z</time>
      </trkpt>
      <trkpt lat="43.02877" lon="0.55309">
        <ele>532.027</ele>
        <time>2020-02-08T12:20:46Z</time>
      </trkpt>
      <trkpt lat="43.02903" lon="0.55305">
        <ele>532.009</ele>
        <time>2020-02-08T12:20:39Z</time>
      </trkpt>
      <trkpt lat="43.02932" lon="0.55298">
        <ele>532.011</ele>
        <time>2020-02-08T12:20:31Z</time>
      </trkpt>
      <trkpt lat="43.02951" lon="0.55293">
        <ele>532.083</ele>
        <time>2020-02-08T12:20:24Z</time>
      </trkpt>
      <trkpt lat="43.02964" lon="0.55292">
        <ele>532.062</ele>
        <time>2020-02-08T12:20:20Z</time>
      </trkpt>
      <trkpt lat="43.02979" lon="0.55293">
        <ele>532.014</ele>
        <time>2020-02-08T12:20:14Z</time>
      </trkpt>
      <trkpt lat="43.02983" lon="0.55295">
        <ele>532.061</ele>
        <time>2020-02-08T12:20:13Z</time>
      </trkpt>
      <trkpt lat="43.02987" lon="0.55296">
        <ele>531.433</ele>
        <time>2020-02-08T12:20:12Z</time>
      </trkpt>
      <trkpt lat="43.0299" lon="0.55298">
        <ele>531.098</ele>
        <time>2020-02-08T12:20:11Z</time>
      </trkpt>
      <trkpt lat="43.02994" lon="0.553">
        <ele>530.518</ele>
        <time>2020-02-08T12:20:10Z</time>
      </trkpt>
      <trkpt lat="43.02997" lon="0.55301">
        <ele>530.27</ele>
        <time>2020-02-08T12:20:09Z</time>
      </trkpt>
      <trkpt lat="43.03007" lon="0.5531">
        <ele>529.716</ele>
        <time>2020-02-08T12:20:06Z</time>
      </trkpt>
      <trkpt lat="43.03025" lon="0.55325">
        <ele>529.729</ele>
        <time>2020-02-08T12:20:00Z</time>
      </trkpt>
      <trkpt lat="43.03043" lon="0.55339">
        <ele>529.75</ele>
        <time>2020-02-08T12:19:55Z</time>
      </trkpt>
      <trkpt lat="43.03063" lon="0.55339">
        <ele>529.709</ele>
        <time>2020-02-08T12:19:47Z</time>
      </trkpt>
      <trkpt lat="43.03087" lon="0.55335">
        <ele>529.719</ele>
        <time>2020-02-08T12:19:39Z</time>
      </trkpt>
      <trkpt lat="43.03109" lon="0.55334">
        <ele>529.781</ele>
        <time>2020-02-08T12:19:33Z</time>
      </trkpt>
      <trkpt lat="43.0312" lon="0.55334">
        <ele>529.791</ele>
        <time>2020-02-08T12:19:30Z</time>
      </trkpt>
      <trkpt lat="43.03128" lon="0.55336">
        <ele>529.717</ele>
        <time>2020-02-08T12:19:28Z</time>
      </trkpt>
      <trkpt lat="43.03144" lon="0.55343">
        <ele>529.764</ele>
        <time>2020-02-08T12:19:23Z</time>
      </trkpt>
      <trkpt lat="43.03167" lon="0.55352">
        <ele>529.716</ele>
        <time>2020-02-08T12:19:17Z</time>
      </trkpt>
      <trkpt lat="43.03188" lon="0.55354">
        <ele>529.791</ele>
        <time>2020-02-08T12:19:10Z</time>
      </trkpt>
      <trkpt lat="43.03197" lon="0.55356">
        <ele>529.751</ele>
        <time>2020-02-08T12:19:07Z</time>
      </trkpt>
      <trkpt lat="43.03201" lon="0.55357">
        <ele>529.493</ele>
        <time>2020-02-08T12:19:06Z</time>
      </trkpt>
      <trkpt lat="43.03203" lon="0.55356">
        <ele>529.059</ele>
        <time>2020-02-08T12:19:05Z</time>
      </trkpt>
      <trkpt lat="43.03206" lon="0.55356">
        <ele>528.542</ele>
        <time>2020-02-08T12:19:04Z</time>
      </trkpt>
      <trkpt lat="43.03207" lon="0.55355">
        <ele>528.093</ele>
        <time>2020-02-08T12:19:03Z</time>
      </trkpt>
      <trkpt lat="43.03218" lon="0.55352">
        <ele>527.509</ele>
        <time>2020-02-08T12:18:56Z</time>
      </trkpt>
      <trkpt lat="43.0322" lon="0.55351">
        <ele>527.508</ele>
        <time>2020-02-08T12:18:55Z</time>
      </trkpt>
      <trkpt lat="43.03222" lon="0.5535">
        <ele>527.262</ele>
        <time>2020-02-08T12:18:54Z</time>
      </trkpt>
      <trkpt lat="43.03224" lon="0.5535">
        <ele>526.722</ele>
        <time>2020-02-08T12:18:53Z</time>
      </trkpt>
      <trkpt lat="43.03225" lon="0.55349">
        <ele>526.436</ele>
        <time>2020-02-08T12:18:52Z</time>
      </trkpt>
      <trkpt lat="43.03227" lon="0.55349">
        <ele>526.023</ele>
        <time>2020-02-08T12:18:51Z</time>
      </trkpt>
      <trkpt lat="43.03239" lon="0.55349">
        <ele>525.595</ele>
        <time>2020-02-08T12:18:46Z</time>
      </trkpt>
      <trkpt lat="43.03241" lon="0.55348">
        <ele>525.56</ele>
        <time>2020-02-08T12:18:45Z</time>
      </trkpt>
      <trkpt lat="43.03243" lon="0.55348">
        <ele>525.29</ele>
        <time>2020-02-08T12:18:44Z</time>
      </trkpt>
      <trkpt lat="43.03245" lon="0.55348">
        <ele>524.722</ele>
        <time>2020-02-08T12:18:43Z</time>
      </trkpt>
      <trkpt lat="43.03247" lon="0.55347">
        <ele>524.458</ele>
        <time>2020-02-08T12:18:42Z</time>
      </trkpt>
      <trkpt lat="43.03249" lon="0.55347">
        <ele>524.081</ele>
        <time>2020-02-08T12:18:41Z</time>
      </trkpt>
      <trkpt lat="43.03251" lon="0.55346">
        <ele>523.442</ele>
        <time>2020-02-08T12:18:40Z</time>
      </trkpt>
      <trkpt lat="43.0327" lon="0.55346">
        <ele>523.409</ele>
        <time>2020-02-08T12:18:33Z</time>
      </trkpt>
      <trkpt lat="43.03272" lon="0.55346">
        <ele>523.011</ele>
        <time>2020-02-08T12:18:32Z</time>
      </trkpt>
      <trkpt lat="43.03274" lon="0.55345">
        <ele>522.465</ele>
        <time>2020-02-08T12:18:31Z</time>
      </trkpt>
      <trkpt lat="43.03274" lon="0.55344">
        <ele>522.015</ele>
        <time>2020-02-08T12:18:30Z</time>
      </trkpt>
      <trkpt lat="43.03275" lon="0.55343">
        <ele>521.598</ele>
        <time>2020-02-08T12:18:29Z</time>
      </trkpt>
      <trkpt lat="43.03275" lon="0.55344">
        <ele>521.025</ele>
        <time>2020-02-08T12:18:25Z</time>
      </trkpt>
      <trkpt lat="43.03276" lon="0.55351">
        <ele>521.057</ele>
        <time>2020-02-08T12:18:17Z</time>
      </trkpt>
      <trkpt lat="43.03281" lon="0.55367">
        <ele>521.072</ele>
        <time>2020-02-08T12:18:11Z</time>
      </trkpt>
      <trkpt lat="43.03284" lon="0.55394">
        <ele>521.072</ele>
        <time>2020-02-08T12:18:04Z</time>
      </trkpt>
      <trkpt lat="43.03284" lon="0.55398">
        <ele>521.024</ele>
        <time>2020-02-08T12:18:03Z</time>
      </trkpt>
      <trkpt lat="43.03283" lon="0.55423">
        <ele>521.02</ele>
        <time>2020-02-08T12:17:57Z</time>
      </trkpt>
      <trkpt lat="43.0329" lon="0.55446">
        <ele>521.053</ele>
        <time>2020-02-08T12:17:50Z</time>
      </trkpt>
      <trkpt lat="43.03293" lon="0.55465">
        <ele>521.074</ele>
        <time>2020-02-08T12:17:43Z</time>
      </trkpt>
      <trkpt lat="43.03294" lon="0.55471">
        <ele>520.009</ele>
        <time>2020-02-08T12:17:41Z</time>
      </trkpt>
      <trkpt lat="43.03294" lon="0.55473">
        <ele>519.517</ele>
        <time>2020-02-08T12:17:40Z</time>
      </trkpt>
      <trkpt lat="43.03296" lon="0.55483">
        <ele>518.57</ele>
        <time>2020-02-08T12:17:36Z</time>
      </trkpt>
      <trkpt lat="43.03296" lon="0.55484">
        <ele>518.238</ele>
        <time>2020-02-08T12:17:35Z</time>
      </trkpt>
      <trkpt lat="43.03297" lon="0.55486">
        <ele>517.528</ele>
        <time>2020-02-08T12:17:34Z</time>
      </trkpt>
      <trkpt lat="43.03298" lon="0.55488">
        <ele>517.255</ele>
        <time>2020-02-08T12:17:33Z</time>
      </trkpt>
      <trkpt lat="43.03299" lon="0.55491">
        <ele>516.747</ele>
        <time>2020-02-08T12:17:32Z</time>
      </trkpt>
      <trkpt lat="43.03301" lon="0.55502">
        <ele>516.442</ele>
        <time>2020-02-08T12:17:28Z</time>
      </trkpt>
      <trkpt lat="43.03303" lon="0.55504">
        <ele>515.462</ele>
        <time>2020-02-08T12:17:27Z</time>
      </trkpt>
      <trkpt lat="43.03303" lon="0.55507">
        <ele>515.044</ele>
        <time>2020-02-08T12:17:26Z</time>
      </trkpt>
      <trkpt lat="43.03305" lon="0.55511">
        <ele>514.59</ele>
        <time>2020-02-08T12:17:24Z</time>
      </trkpt>
      <trkpt lat="43.03308" lon="0.55516">
        <ele>513.513</ele>
        <time>2020-02-08T12:17:22Z</time>
      </trkpt>
      <trkpt lat="43.0331" lon="0.55518">
        <ele>512.564</ele>
        <time>2020-02-08T12:17:21Z</time>
      </trkpt>
      <trkpt lat="43.03312" lon="0.5552">
        <ele>512.509</ele>
        <time>2020-02-08T12:17:20Z</time>
      </trkpt>
      <trkpt lat="43.03312" lon="0.55528">
        <ele>511.711</ele>
        <time>2020-02-08T12:17:17Z</time>
      </trkpt>
      <trkpt lat="43.03312" lon="0.55534">
        <ele>511.292</ele>
        <time>2020-02-08T12:17:15Z</time>
      </trkpt>
      <trkpt lat="43.03313" lon="0.55537">
        <ele>510.732</ele>
        <time>2020-02-08T12:17:14Z</time>
      </trkpt>
      <trkpt lat="43.0331" lon="0.55546">
        <ele>509.626</ele>
        <time>2020-02-08T12:17:12Z</time>
      </trkpt>
      <trkpt lat="43.03308" lon="0.55551">
        <ele>509.293</ele>
        <time>2020-02-08T12:17:11Z</time>
      </trkpt>
      <trkpt lat="43.03308" lon="0.55554">
        <ele>508.765</ele>
        <time>2020-02-08T12:17:10Z</time>
      </trkpt>
      <trkpt lat="43.03309" lon="0.55557">
        <ele>508.06</ele>
        <time>2020-02-08T12:17:09Z</time>
      </trkpt>
      <trkpt lat="43.0331" lon="0.55561">
        <ele>507.64</ele>
        <time>2020-02-08T12:17:08Z</time>
      </trkpt>
      <trkpt lat="43.0331" lon="0.55564">
        <ele>507.212</ele>
        <time>2020-02-08T12:17:07Z</time>
      </trkpt>
      <trkpt lat="43.0331" lon="0.55567">
        <ele>507.288</ele>
        <time>2020-02-08T12:17:06Z</time>
      </trkpt>
      <trkpt lat="43.03309" lon="0.55571">
        <ele>506.291</ele>
        <time>2020-02-08T12:17:05Z</time>
      </trkpt>
      <trkpt lat="43.0331" lon="0.55575">
        <ele>505.722</ele>
        <time>2020-02-08T12:17:04Z</time>
      </trkpt>
      <trkpt lat="43.03309" lon="0.55581">
        <ele>505.309</ele>
        <time>2020-02-08T12:17:03Z</time>
      </trkpt>
      <trkpt lat="43.0331" lon="0.55591">
        <ele>505.005</ele>
        <time>2020-02-08T12:17:01Z</time>
      </trkpt>
      <trkpt lat="43.0331" lon="0.55611">
        <ele>505.032</ele>
        <time>2020-02-08T12:16:57Z</time>
      </trkpt>
      <trkpt lat="43.03315" lon="0.55635">
        <ele>505.012</ele>
        <time>2020-02-08T12:16:52Z</time>
      </trkpt>
      <trkpt lat="43.03317" lon="0.5564">
        <ele>504.229</ele>
        <time>2020-02-08T12:16:51Z</time>
      </trkpt>
      <trkpt lat="43.03319" lon="0.55644">
        <ele>503.746</ele>
        <time>2020-02-08T12:16:50Z</time>
      </trkpt>
      <trkpt lat="43.0332" lon="0.55649">
        <ele>503.798</ele>
        <time>2020-02-08T12:16:49Z</time>
      </trkpt>
      <trkpt lat="43.03322" lon="0.55655">
        <ele>503.393</ele>
        <time>2020-02-08T12:16:48Z</time>
      </trkpt>
      <trkpt lat="43.03325" lon="0.55676">
        <ele>503.013</ele>
        <time>2020-02-08T12:16:44Z</time>
      </trkpt>
      <trkpt lat="43.03326" lon="0.5568">
        <ele>503.065</ele>
        <time>2020-02-08T12:16:43Z</time>
      </trkpt>
      <trkpt lat="43.03327" lon="0.55685">
        <ele>502.681</ele>
        <time>2020-02-08T12:16:42Z</time>
      </trkpt>
      <trkpt lat="43.03329" lon="0.55694">
        <ele>502.034</ele>
        <time>2020-02-08T12:16:40Z</time>
      </trkpt>
      <trkpt lat="43.0333" lon="0.55699">
        <ele>501.225</ele>
        <time>2020-02-08T12:16:39Z</time>
      </trkpt>
      <trkpt lat="43.0333" lon="0.55704">
        <ele>501.209</ele>
        <time>2020-02-08T12:16:38Z</time>
      </trkpt>
      <trkpt lat="43.03336" lon="0.55714">
        <ele>500.722</ele>
        <time>2020-02-08T12:16:36Z</time>
      </trkpt>
      <trkpt lat="43.03338" lon="0.5572">
        <ele>499.702</ele>
        <time>2020-02-08T12:16:35Z</time>
      </trkpt>
      <trkpt lat="43.0334" lon="0.55725">
        <ele>499.249</ele>
        <time>2020-02-08T12:16:34Z</time>
      </trkpt>
      <trkpt lat="43.03342" lon="0.55731">
        <ele>498.729</ele>
        <time>2020-02-08T12:16:33Z</time>
      </trkpt>
      <trkpt lat="43.03342" lon="0.55735">
        <ele>498.726</ele>
        <time>2020-02-08T12:16:32Z</time>
      </trkpt>
      <trkpt lat="43.03344" lon="0.5576">
        <ele>498.218</ele>
        <time>2020-02-08T12:16:27Z</time>
      </trkpt>
      <trkpt lat="43.03346" lon="0.55791">
        <ele>498.213</ele>
        <time>2020-02-08T12:16:22Z</time>
      </trkpt>
      <trkpt lat="43.03348" lon="0.55829">
        <ele>498.243</ele>
        <time>2020-02-08T12:16:16Z</time>
      </trkpt>
      <trkpt lat="43.03354" lon="0.55865">
        <ele>498.225</ele>
        <time>2020-02-08T12:16:10Z</time>
      </trkpt>
      <trkpt lat="43.03359" lon="0.55885">
        <ele>498.211</ele>
        <time>2020-02-08T12:16:05Z</time>
      </trkpt>
      <trkpt lat="43.0336" lon="0.55887">
        <ele>498.244</ele>
        <time>2020-02-08T12:16:04Z</time>
      </trkpt>
      <trkpt lat="43.03362" lon="0.55889">
        <ele>497.355</ele>
        <time>2020-02-08T12:16:03Z</time>
      </trkpt>
      <trkpt lat="43.03364" lon="0.55892">
        <ele>497.309</ele>
        <time>2020-02-08T12:16:02Z</time>
      </trkpt>
      <trkpt lat="43.03367" lon="0.55894">
        <ele>496.717</ele>
        <time>2020-02-08T12:16:01Z</time>
      </trkpt>
      <trkpt lat="43.03368" lon="0.55895">
        <ele>496.361</ele>
        <time>2020-02-08T12:16:00Z</time>
      </trkpt>
      <trkpt lat="43.03374" lon="0.55903">
        <ele>495.748</ele>
        <time>2020-02-08T12:15:57Z</time>
      </trkpt>
      <trkpt lat="43.03375" lon="0.55905">
        <ele>495.741</ele>
        <time>2020-02-08T12:14:29Z</time>
      </trkpt>
      <trkpt lat="43.03376" lon="0.55907">
        <ele>495.748</ele>
        <time>2020-02-08T12:14:25Z</time>
      </trkpt>
      <trkpt lat="43.03376" lon="0.55908">
        <ele>496.23</ele>
        <time>2020-02-08T12:14:24Z</time>
      </trkpt>
      <trkpt lat="43.03374" lon="0.55911">
        <ele>496.795</ele>
        <time>2020-02-08T12:14:23Z</time>
      </trkpt>
      <trkpt lat="43.03372" lon="0.55915">
        <ele>497.255</ele>
        <time>2020-02-08T12:14:22Z</time>
      </trkpt>
      <trkpt lat="43.03372" lon="0.55918">
        <ele>497.657</ele>
        <time>2020-02-08T12:14:21Z</time>
      </trkpt>
      <trkpt lat="43.0337" lon="0.55925">
        <ele>498.093</ele>
        <time>2020-02-08T12:14:19Z</time>
      </trkpt>
      <trkpt lat="43.03366" lon="0.55935">
        <ele>498.016</ele>
        <time>2020-02-08T12:14:17Z</time>
      </trkpt>
      <trkpt lat="43.03363" lon="0.5595">
        <ele>498.057</ele>
        <time>2020-02-08T12:14:15Z</time>
      </trkpt>
      <trkpt lat="43.0336" lon="0.55958">
        <ele>498.009</ele>
        <time>2020-02-08T12:14:14Z</time>
      </trkpt>
      <trkpt lat="43.03357" lon="0.55967">
        <ele>498.619</ele>
        <time>2020-02-08T12:14:13Z</time>
      </trkpt>
      <trkpt lat="43.03353" lon="0.55975">
        <ele>499.281</ele>
        <time>2020-02-08T12:14:12Z</time>
      </trkpt>
      <trkpt lat="43.03349" lon="0.55985">
        <ele>499.767</ele>
        <time>2020-02-08T12:14:11Z</time>
      </trkpt>
      <trkpt lat="43.03344" lon="0.55996">
        <ele>500.328</ele>
        <time>2020-02-08T12:14:10Z</time>
      </trkpt>
      <trkpt lat="43.0334" lon="0.56006">
        <ele>501.235</ele>
        <time>2020-02-08T12:14:09Z</time>
      </trkpt>
      <trkpt lat="43.03337" lon="0.56017">
        <ele>501.687</ele>
        <time>2020-02-08T12:14:08Z</time>
      </trkpt>
      <trkpt lat="43.03333" lon="0.56024">
        <ele>502.032</ele>
        <time>2020-02-08T12:14:07Z</time>
      </trkpt>
      <trkpt lat="43.03325" lon="0.56041">
        <ele>502.322</ele>
        <time>2020-02-08T12:14:04Z</time>
      </trkpt>
      <trkpt lat="43.03322" lon="0.56045">
        <ele>502.774</ele>
        <time>2020-02-08T12:14:03Z</time>
      </trkpt>
      <trkpt lat="43.03321" lon="0.56049">
        <ele>503.33</ele>
        <time>2020-02-08T12:14:02Z</time>
      </trkpt>
      <trkpt lat="43.0332" lon="0.56054">
        <ele>503.753</ele>
        <time>2020-02-08T12:14:01Z</time>
      </trkpt>
      <trkpt lat="43.03318" lon="0.5606">
        <ele>504.284</ele>
        <time>2020-02-08T12:14:00Z</time>
      </trkpt>
      <trkpt lat="43.03316" lon="0.56066">
        <ele>504.609</ele>
        <time>2020-02-08T12:13:59Z</time>
      </trkpt>
      <trkpt lat="43.03307" lon="0.56086">
        <ele>504.607</ele>
        <time>2020-02-08T12:13:55Z</time>
      </trkpt>
      <trkpt lat="43.03306" lon="0.56091">
        <ele>505.061</ele>
        <time>2020-02-08T12:13:54Z</time>
      </trkpt>
      <trkpt lat="43.03303" lon="0.56097">
        <ele>505.331</ele>
        <time>2020-02-08T12:13:53Z</time>
      </trkpt>
      <trkpt lat="43.03301" lon="0.56102">
        <ele>506.048</ele>
        <time>2020-02-08T12:13:52Z</time>
      </trkpt>
      <trkpt lat="43.03299" lon="0.56108">
        <ele>506.385</ele>
        <time>2020-02-08T12:13:51Z</time>
      </trkpt>
      <trkpt lat="43.03294" lon="0.56112">
        <ele>506.777</ele>
        <time>2020-02-08T12:13:50Z</time>
      </trkpt>
      <trkpt lat="43.03281" lon="0.56127">
        <ele>506.782</ele>
        <time>2020-02-08T12:13:43Z</time>
      </trkpt>
      <trkpt lat="43.03278" lon="0.56136">
        <ele>506.782</ele>
        <time>2020-02-08T12:13:37Z</time>
      </trkpt>
      <trkpt lat="43.03271" lon="0.56148">
        <ele>506.764</ele>
        <time>2020-02-08T12:13:32Z</time>
      </trkpt>
      <trkpt lat="43.0327" lon="0.56152">
        <ele>507.33</ele>
        <time>2020-02-08T12:13:31Z</time>
      </trkpt>
      <trkpt lat="43.03267" lon="0.56156">
        <ele>508.073</ele>
        <time>2020-02-08T12:13:30Z</time>
      </trkpt>
      <trkpt lat="43.03265" lon="0.5616">
        <ele>508.794</ele>
        <time>2020-02-08T12:13:29Z</time>
      </trkpt>
      <trkpt lat="43.03262" lon="0.56163">
        <ele>509.309</ele>
        <time>2020-02-08T12:13:28Z</time>
      </trkpt>
      <trkpt lat="43.03258" lon="0.56165">
        <ele>510.017</ele>
        <time>2020-02-08T12:13:27Z</time>
      </trkpt>
      <trkpt lat="43.03255" lon="0.56169">
        <ele>510.67</ele>
        <time>2020-02-08T12:13:26Z</time>
      </trkpt>
      <trkpt lat="43.03251" lon="0.56172">
        <ele>511.038</ele>
        <time>2020-02-08T12:13:25Z</time>
      </trkpt>
      <trkpt lat="43.03248" lon="0.56175">
        <ele>511.673</ele>
        <time>2020-02-08T12:13:24Z</time>
      </trkpt>
      <trkpt lat="43.03246" lon="0.56178">
        <ele>512.01</ele>
        <time>2020-02-08T12:13:23Z</time>
      </trkpt>
      <trkpt lat="43.03243" lon="0.56181">
        <ele>512.472</ele>
        <time>2020-02-08T12:13:22Z</time>
      </trkpt>
      <trkpt lat="43.03239" lon="0.56184">
        <ele>512.727</ele>
        <time>2020-02-08T12:13:21Z</time>
      </trkpt>
      <trkpt lat="43.03229" lon="0.56204">
        <ele>513.297</ele>
        <time>2020-02-08T12:13:17Z</time>
      </trkpt>
      <trkpt lat="43.03227" lon="0.56209">
        <ele>513.249</ele>
        <time>2020-02-08T12:13:16Z</time>
      </trkpt>
      <trkpt lat="43.03225" lon="0.56213">
        <ele>512.775</ele>
        <time>2020-02-08T12:13:15Z</time>
      </trkpt>
      <trkpt lat="43.03224" lon="0.56217">
        <ele>512.448</ele>
        <time>2020-02-08T12:13:14Z</time>
      </trkpt>
      <trkpt lat="43.03222" lon="0.56222">
        <ele>512.059</ele>
        <time>2020-02-08T12:13:13Z</time>
      </trkpt>
      <trkpt lat="43.03222" lon="0.56228">
        <ele>511.609</ele>
        <time>2020-02-08T12:13:12Z</time>
      </trkpt>
      <trkpt lat="43.03218" lon="0.56235">
        <ele>511.226</ele>
        <time>2020-02-08T12:13:10Z</time>
      </trkpt>
      <trkpt lat="43.03211" lon="0.56243">
        <ele>511.224</ele>
        <time>2020-02-08T12:13:07Z</time>
      </trkpt>
      <trkpt lat="43.03208" lon="0.56244">
        <ele>510.788</ele>
        <time>2020-02-08T12:13:06Z</time>
      </trkpt>
      <trkpt lat="43.03206" lon="0.56246">
        <ele>510.339</ele>
        <time>2020-02-08T12:13:05Z</time>
      </trkpt>
      <trkpt lat="43.03204" lon="0.56248">
        <ele>510.046</ele>
        <time>2020-02-08T12:13:04Z</time>
      </trkpt>
      <trkpt lat="43.03202" lon="0.5625">
        <ele>509.318</ele>
        <time>2020-02-08T12:13:03Z</time>
      </trkpt>
      <trkpt lat="43.03201" lon="0.56252">
        <ele>509.083</ele>
        <time>2020-02-08T12:13:02Z</time>
      </trkpt>
      <trkpt lat="43.03201" lon="0.56255">
        <ele>508.683</ele>
        <time>2020-02-08T12:13:01Z</time>
      </trkpt>
      <trkpt lat="43.03199" lon="0.56257">
        <ele>508.245</ele>
        <time>2020-02-08T12:13:00Z</time>
      </trkpt>
      <trkpt lat="43.03198" lon="0.56259">
        <ele>507.751</ele>
        <time>2020-02-08T12:12:59Z</time>
      </trkpt>
      <trkpt lat="43.03197" lon="0.56262">
        <ele>507.394</ele>
        <time>2020-02-08T12:12:58Z</time>
      </trkpt>
      <trkpt lat="43.03183" lon="0.56277">
        <ele>507.075</ele>
        <time>2020-02-08T12:12:51Z</time>
      </trkpt>
      <trkpt lat="43.03171" lon="0.56289">
        <ele>507.009</ele>
        <time>2020-02-08T12:12:46Z</time>
      </trkpt>
      <trkpt lat="43.03169" lon="0.56292">
        <ele>507.015</ele>
        <time>2020-02-08T12:12:45Z</time>
      </trkpt>
      <trkpt lat="43.03166" lon="0.56302">
        <ele>507.005</ele>
        <time>2020-02-08T12:12:42Z</time>
      </trkpt>
      <trkpt lat="43.03169" lon="0.56311">
        <ele>507.044</ele>
        <time>2020-02-08T12:12:39Z</time>
      </trkpt>
      <trkpt lat="43.03184" lon="0.56332">
        <ele>507.096</ele>
        <time>2020-02-08T12:12:34Z</time>
      </trkpt>
      <trkpt lat="43.032" lon="0.56346">
        <ele>507.063</ele>
        <time>2020-02-08T12:12:29Z</time>
      </trkpt>
      <trkpt lat="43.03207" lon="0.56341">
        <ele>507.015</ele>
        <time>2020-02-08T12:12:26Z</time>
      </trkpt>
      <trkpt lat="43.03209" lon="0.56339">
        <ele>506.64</ele>
        <time>2020-02-08T12:12:25Z</time>
      </trkpt>
      <trkpt lat="43.0321" lon="0.56337">
        <ele>506.27</ele>
        <time>2020-02-08T12:12:24Z</time>
      </trkpt>
      <trkpt lat="43.03212" lon="0.56336">
        <ele>505.792</ele>
        <time>2020-02-08T12:12:23Z</time>
      </trkpt>
      <trkpt lat="43.03215" lon="0.56335">
        <ele>505.358</ele>
        <time>2020-02-08T12:12:22Z</time>
      </trkpt>
      <trkpt lat="43.0322" lon="0.56332">
        <ele>505.031</ele>
        <time>2020-02-08T12:12:20Z</time>
      </trkpt>
      <trkpt lat="43.03223" lon="0.56331">
        <ele>504.312</ele>
        <time>2020-02-08T12:12:19Z</time>
        <extensions>
          <visugpx:TrkExtension xmlns:visugpx="https://www.visugpx.com/editgpx/">
            <visugpx:node>4</visugpx:node>
            </visugpx:TrkExtension>
        </extensions>
      </trkpt>
      <trkpt lat="43.03213" lon="0.56329">
        <ele>499.8</ele>
      </trkpt>
      <trkpt lat="43.03204" lon="0.56335">
        <ele>500.1</ele>
      </trkpt>
      <trkpt lat="43.03194" lon="0.5635">
        <ele>500.6</ele>
      </trkpt>
      <trkpt lat="43.03189" lon="0.56357">
        <ele>500.9</ele>
      </trkpt>
      <trkpt lat="43.03178" lon="0.56366">
        <ele>500.8</ele>
      </trkpt>
      <trkpt lat="43.03161" lon="0.56382">
        <ele>500.4</ele>
      </trkpt>
      <trkpt lat="43.03136" lon="0.56411">
        <ele>501.2</ele>
      </trkpt>
      <trkpt lat="43.03117" lon="0.5643">
        <ele>502.6</ele>
      </trkpt>
      <trkpt lat="43.03105" lon="0.56437">
        <ele>503.6</ele>
      </trkpt>
      <trkpt lat="43.03096" lon="0.56439">
        <ele>504.5</ele>
      </trkpt>
      <trkpt lat="43.03088" lon="0.56439">
        <ele>505.3</ele>
      </trkpt>
      <trkpt lat="43.03085" lon="0.56438">
        <ele>505.6</ele>
      </trkpt>
      <trkpt lat="43.0306" lon="0.56433">
        <ele>508.1</ele>
      </trkpt>
      <trkpt lat="43.03052" lon="0.56432">
        <ele>509.1</ele>
      </trkpt>
      <trkpt lat="43.03046" lon="0.56435">
        <ele>510.2</ele>
      </trkpt>
      <trkpt lat="43.03041" lon="0.56437">
        <ele>511</ele>
      </trkpt>
      <trkpt lat="43.03015" lon="0.56459">
        <ele>515</ele>
      </trkpt>
      <trkpt lat="43.03011" lon="0.56461">
        <ele>515.7</ele>
      </trkpt>
      <trkpt lat="43.02973" lon="0.56509">
        <ele>515.6</ele>
      </trkpt>
      <trkpt lat="43.02963" lon="0.56518">
        <ele>515.1</ele>
      </trkpt>
      <trkpt lat="43.02955" lon="0.56524">
        <ele>515.1</ele>
      </trkpt>
      <trkpt lat="43.02938" lon="0.56535">
        <ele>514.3</ele>
      </trkpt>
      <trkpt lat="43.02931" lon="0.56538">
        <ele>514.3</ele>
      </trkpt>
      <trkpt lat="43.02906" lon="0.56542">
        <ele>515.8</ele>
      </trkpt>
      <trkpt lat="43.02895" lon="0.56542">
        <ele>516.8</ele>
      </trkpt>
      <trkpt lat="43.02873" lon="0.56548">
        <ele>515.9</ele>
      </trkpt>
      <trkpt lat="43.02856" lon="0.56549">
        <ele>515.8</ele>
      </trkpt>
      <trkpt lat="43.02829" lon="0.5655">
        <ele>515.4</ele>
      </trkpt>
      <trkpt lat="43.02815" lon="0.56546">
        <ele>516.2</ele>
      </trkpt>
      <trkpt lat="43.02746" lon="0.56504">
        <ele>521.9</ele>
      </trkpt>
      <trkpt lat="43.0274" lon="0.56509">
        <ele>520.5</ele>
      </trkpt>
      <trkpt lat="43.02733" lon="0.56518">
        <ele>518.2</ele>
      </trkpt>
      <trkpt lat="43.02722" lon="0.56544">
        <ele>513.7</ele>
      </trkpt>
      <trkpt lat="43.02714" lon="0.56555">
        <ele>512.4</ele>
      </trkpt>
      <trkpt lat="43.02712" lon="0.56557">
        <ele>512.3</ele>
      </trkpt>
      <trkpt lat="43.02709" lon="0.5656">
        <ele>512.2</ele>
      </trkpt>
      <trkpt lat="43.02703" lon="0.56562">
        <ele>512.2</ele>
      </trkpt>
      <trkpt lat="43.02681" lon="0.56564">
        <ele>513.4</ele>
      </trkpt>
      <trkpt lat="43.02663" lon="0.56568">
        <ele>514.3</ele>
      </trkpt>
      <trkpt lat="43.02647" lon="0.56573">
        <ele>514.9</ele>
      </trkpt>
      <trkpt lat="43.02643" lon="0.56578">
        <ele>514.9</ele>
      </trkpt>
      <trkpt lat="43.02645" lon="0.56583">
        <ele>514.6</ele>
      </trkpt>
      <trkpt lat="43.02645" lon="0.56584">
        <ele>514.5</ele>
        <extensions>
          <visugpx:TrkExtension xmlns:visugpx="https://www.visugpx.com/editgpx/">
            <visugpx:node>5</visugpx:node>
            </visugpx:TrkExtension>
        </extensions>
      </trkpt>
      <trkpt lat="43.02645" lon="0.56588">
        <ele>514.2</ele>
      </trkpt>
      <trkpt lat="43.02638" lon="0.56608">
        <ele>513.3</ele>
      </trkpt>
      <trkpt lat="43.0263" lon="0.56621">
        <ele>512.3</ele>
      </trkpt>
      <trkpt lat="43.02622" lon="0.5663">
        <ele>511.6</ele>
      </trkpt>
      <trkpt lat="43.02607" lon="0.56646">
        <ele>509.9</ele>
      </trkpt>
      <trkpt lat="43.02601" lon="0.56654">
        <ele>508.3</ele>
      </trkpt>
      <trkpt lat="43.02596" lon="0.56664">
        <ele>506.5</ele>
      </trkpt>
      <trkpt lat="43.02594" lon="0.56671">
        <ele>505.5</ele>
      </trkpt>
      <trkpt lat="43.02594" lon="0.56684">
        <ele>504.3</ele>
      </trkpt>
      <trkpt lat="43.02594" lon="0.56707">
        <ele>502.4</ele>
      </trkpt>
      <trkpt lat="43.02596" lon="0.56725">
        <ele>501.3</ele>
      </trkpt>
      <trkpt lat="43.02596" lon="0.5673">
        <ele>500.5</ele>
      </trkpt>
      <trkpt lat="43.02596" lon="0.56732">
        <ele>500.1</ele>
      </trkpt>
      <trkpt lat="43.02595" lon="0.56733">
        <ele>499.7</ele>
      </trkpt>
      <trkpt lat="43.02593" lon="0.56734">
        <ele>499.1</ele>
      </trkpt>
      <trkpt lat="43.02591" lon="0.56734">
        <ele>498.7</ele>
      </trkpt>
      <trkpt lat="43.0259" lon="0.56732">
        <ele>498.8</ele>
      </trkpt>
      <trkpt lat="43.02588" lon="0.5673">
        <ele>498.7</ele>
      </trkpt>
      <trkpt lat="43.02587" lon="0.56723">
        <ele>499.7</ele>
      </trkpt>
      <trkpt lat="43.0258" lon="0.56674">
        <ele>502.7</ele>
      </trkpt>
      <trkpt lat="43.02579" lon="0.56668">
        <ele>503.4</ele>
      </trkpt>
      <trkpt lat="43.02577" lon="0.56666">
        <ele>503.4</ele>
      </trkpt>
      <trkpt lat="43.02575" lon="0.56665">
        <ele>503.4</ele>
      </trkpt>
      <trkpt lat="43.02573" lon="0.56665">
        <ele>503.2</ele>
      </trkpt>
      <trkpt lat="43.02571" lon="0.56667">
        <ele>502.6</ele>
      </trkpt>
      <trkpt lat="43.02568" lon="0.56671">
        <ele>501.4</ele>
      </trkpt>
      <trkpt lat="43.02566" lon="0.56679">
        <ele>499.4</ele>
      </trkpt>
      <trkpt lat="43.02564" lon="0.5669">
        <ele>496.5</ele>
      </trkpt>
      <trkpt lat="43.02562" lon="0.56706">
        <ele>492.7</ele>
      </trkpt>
      <trkpt lat="43.0256" lon="0.56713">
        <ele>490.7</ele>
      </trkpt>
      <trkpt lat="43.02557" lon="0.56721">
        <ele>487.9</ele>
      </trkpt>
      <trkpt lat="43.02548" lon="0.56737">
        <ele>486.3</ele>
      </trkpt>
      <trkpt lat="43.02545" lon="0.56745">
        <ele>485.3</ele>
      </trkpt>
      <trkpt lat="43.02544" lon="0.5675">
        <ele>484.4</ele>
      </trkpt>
      <trkpt lat="43.02544" lon="0.56755">
        <ele>483.6</ele>
      </trkpt>
      <trkpt lat="43.02545" lon="0.56762">
        <ele>482.5</ele>
      </trkpt>
      <trkpt lat="43.02546" lon="0.56767">
        <ele>481.7</ele>
      </trkpt>
      <trkpt lat="43.02548" lon="0.56771">
        <ele>481</ele>
      </trkpt>
      <trkpt lat="43.02561" lon="0.56786">
        <ele>480.1</ele>
      </trkpt>
      <trkpt lat="43.0257" lon="0.56794">
        <ele>480.2</ele>
      </trkpt>
      <trkpt lat="43.02575" lon="0.56801">
        <ele>479.4</ele>
      </trkpt>
      <trkpt lat="43.02578" lon="0.56808">
        <ele>478.2</ele>
      </trkpt>
      <trkpt lat="43.02578" lon="0.56824">
        <ele>475.7</ele>
      </trkpt>
      <trkpt lat="43.02574" lon="0.56864">
        <ele>475.7</ele>
      </trkpt>
      <trkpt lat="43.02575" lon="0.56876">
        <ele>477.3</ele>
      </trkpt>
      <trkpt lat="43.0257" lon="0.56891">
        <ele>477.8</ele>
      </trkpt>
      <trkpt lat="43.02567" lon="0.56897">
        <ele>477.2</ele>
        <extensions>
          <visugpx:TrkExtension xmlns:visugpx="https://www.visugpx.com/editgpx/">
            <visugpx:node>6</visugpx:node>
            </visugpx:TrkExtension>
        </extensions>
      </trkpt>
      <trkpt lat="43.0257" lon="0.56891">
        <ele>477.8</ele>
      </trkpt>
      <trkpt lat="43.02575" lon="0.56876">
        <ele>477.3</ele>
      </trkpt>
      <trkpt lat="43.02579" lon="0.56876">
        <ele>477.9</ele>
      </trkpt>
      <trkpt lat="43.02589" lon="0.56874">
        <ele>479.5</ele>
      </trkpt>
      <trkpt lat="43.02599" lon="0.56868">
        <ele>480.1</ele>
      </trkpt>
      <trkpt lat="43.02635" lon="0.56843">
        <ele>474.8</ele>
      </trkpt>
      <trkpt lat="43.02646" lon="0.56837">
        <ele>472.5</ele>
      </trkpt>
      <trkpt lat="43.02655" lon="0.56835">
        <ele>471.7</ele>
      </trkpt>
      <trkpt lat="43.02686" lon="0.56837">
        <ele>471.2</ele>
      </trkpt>
      <trkpt lat="43.02716" lon="0.56833">
        <ele>465.9</ele>
      </trkpt>
      <trkpt lat="43.02727" lon="0.56834">
        <ele>465</ele>
      </trkpt>
      <trkpt lat="43.02737" lon="0.56837">
        <ele>465.4</ele>
      </trkpt>
      <trkpt lat="43.02747" lon="0.56845">
        <ele>466.1</ele>
      </trkpt>
      <trkpt lat="43.02753" lon="0.56851">
        <ele>466.2</ele>
      </trkpt>
      <trkpt lat="43.02769" lon="0.56865">
        <ele>465.7</ele>
      </trkpt>
      <trkpt lat="43.02776" lon="0.5687">
        <ele>465.6</ele>
      </trkpt>
      <trkpt lat="43.02797" lon="0.56876">
        <ele>463.9</ele>
      </trkpt>
      <trkpt lat="43.02798" lon="0.56877">
        <ele>463.9</ele>
      </trkpt>
      <trkpt lat="43.02813" lon="0.56894">
        <ele>463.9</ele>
      </trkpt>
      <trkpt lat="43.0283" lon="0.56908">
        <ele>462.4</ele>
      </trkpt>
      <trkpt lat="43.02832" lon="0.56909">
        <ele>462</ele>
      </trkpt>
      <trkpt lat="43.02875" lon="0.56952">
        <ele>460.4</ele>
      </trkpt>
      <trkpt lat="43.02931" lon="0.56991">
        <ele>459</ele>
      </trkpt>
      <trkpt lat="43.02952" lon="0.57014">
        <ele>458.7</ele>
        <extensions>
          <visugpx:TrkExtension xmlns:visugpx="https://www.visugpx.com/editgpx/">
            <visugpx:node>7</visugpx:node>
            </visugpx:TrkExtension>
        </extensions>
      </trkpt>
      <trkpt lat="43.02957" lon="0.5702">
        <ele>458.5</ele>
      </trkpt>
      <trkpt lat="43.02983" lon="0.57057">
        <ele>458</ele>
      </trkpt>
      <trkpt lat="43.0299" lon="0.57068">
        <ele>458</ele>
      </trkpt>
      <trkpt lat="43.02992" lon="0.57075">
        <ele>458</ele>
      </trkpt>
      <trkpt lat="43.02993" lon="0.57084">
        <ele>458</ele>
      </trkpt>
      <trkpt lat="43.02993" lon="0.57098">
        <ele>458.1</ele>
      </trkpt>
      <trkpt lat="43.02989" lon="0.57128">
        <ele>458.8</ele>
      </trkpt>
      <trkpt lat="43.02985" lon="0.57131">
        <ele>458.9</ele>
      </trkpt>
      <trkpt lat="43.02974" lon="0.57143">
        <ele>459</ele>
      </trkpt>
      <trkpt lat="43.0297" lon="0.57152">
        <ele>459</ele>
      </trkpt>
      <trkpt lat="43.02958" lon="0.57198">
        <ele>460</ele>
      </trkpt>
      <trkpt lat="43.02952" lon="0.57214">
        <ele>460</ele>
      </trkpt>
      <trkpt lat="43.02947" lon="0.57222">
        <ele>460</ele>
      </trkpt>
      <trkpt lat="43.02944" lon="0.57229">
        <ele>460</ele>
      </trkpt>
      <trkpt lat="43.02939" lon="0.57244">
        <ele>460</ele>
      </trkpt>
      <trkpt lat="43.02935" lon="0.57255">
        <ele>460</ele>
      </trkpt>
      <trkpt lat="43.02934" lon="0.5726">
        <ele>460</ele>
      </trkpt>
      <trkpt lat="43.02927" lon="0.57276">
        <ele>460</ele>
      </trkpt>
      <trkpt lat="43.02923" lon="0.57285">
        <ele>459.9</ele>
      </trkpt>
      <trkpt lat="43.02913" lon="0.5731">
        <ele>460</ele>
      </trkpt>
      <trkpt lat="43.02919" lon="0.57315">
        <ele>459.9</ele>
        <extensions>
          <visugpx:TrkExtension xmlns:visugpx="https://www.visugpx.com/editgpx/">
            <visugpx:node>8</visugpx:node>
            </visugpx:TrkExtension>
        </extensions>
      </trkpt>
    </trkseg>
  </trk>
</gpx>